# Wetter Temperatur Luftdruck Luftfeuchtigkeit Sichtweite Windgeschwindigkeit Windrichtung Zeit
1 Clouds 20 1016 49 10000 1.5 110 09:20 14.07.2020
2 Clouds 18 1016 52 10000 1.5 50 08:44 14.07.2020
3 Clouds 18 1016 55 10000 2.1 60 08:23 14.07.2020
4 Clouds 17 1016 59 10000 2.6 70 07:58 14.07.2020
5 Clouds 16 1016 63 10000 1.5 80 07:38 14.07.2020
6 Clouds 15 1016 63 10000 1.5 80 07:18 14.07.2020
7 Clouds 14 1016 71 10000 2.1 20 06:44 14.07.2020
8 Clouds 14 1016 71 10000 1.5 40 06:24 14.07.2020
9 Clouds 14 1016 76 10000 1.5 70 05:34 14.07.2020
10 Clouds 15 1017 67 10000 1 0 04:37 14.07.2020
11 Clouds 15 1017 62 10000 1.5 30 03:47 14.07.2020
12 Clouds 16 1017 67 10000 1.5 60 02:51 14.07.2020
13 Clouds 16 1017 62 10000 2.1 10 02:25 14.07.2020
14 Clouds 17 1017 62 10000 1 0 01:37 14.07.2020
15 Clouds 18 1018 62 10000 0.5 0 00:55 14.07.2020
16 Clouds 16 1018 62 10000 0.5 0 00:37 14.07.2020
17 Clouds 18 1018 59 10000 0.5 0 00:19 14.07.2020
18 Clouds 19 1018 51 10000 0.5 0 23:38 13.07.2020
19 Clouds 19 1018 48 10000 1.5 80 23:19 13.07.2020
20 Clouds 21 1018 42 10000 2.6 70 22:43 13.07.2020
21 Clouds 20 1018 40 10000 2.6 80 22:22 13.07.2020
22 Clouds 22 1018 40 10000 2.6 80 21:59 13.07.2020
23 Clouds 23 1018 31 10000 2.6 100 21:41 13.07.2020
24 Clouds 24 1018 27 10000 3.1 110 21:21 13.07.2020
25 Clouds 25 1018 26 10000 3.1 80 20:59 13.07.2020
26 Clouds 25 1018 26 10000 3.1 80 20:41 13.07.2020
27 Clouds 26 1018 24 10000 3.1 50 20:22 13.07.2020
28 Clouds 26 1018 26 10000 2.1 100 19:57 13.07.2020
29 Clouds 26 1018 26 10000 2.1 100 19:39 13.07.2020
30 Clouds 26 1018 26 10000 3.6 90 19:21 13.07.2020
31 Clouds 26 1019 24 10000 3.1 100 18:54 13.07.2020
32 Clouds 26 1019 24 10000 3.1 100 18:36 13.07.2020
33 Clouds 26 1019 24 10000 2.1 0 18:18 13.07.2020
34 Clouds 27 1019 24 10000 3.6 90 17:42 13.07.2020
35 Clouds 27 1019 24 10000 2.1 0 17:21 13.07.2020
36 Clouds 27 1020 24 10000 2.6 0 16:59 13.07.2020
37 Clouds 27 1020 24 10000 2.6 0 16:40 13.07.2020
38 Clouds 27 1020 22 10000 2.6 60 16:20 13.07.2020
39 Clouds 27 1020 24 10000 2.1 0 15:57 13.07.2020
40 Clouds 26 1020 24 10000 2.1 0 15:38 13.07.2020
41 Clouds 26 1021 24 10000 1.5 0 15:20 13.07.2020
42 Clouds 26 1021 26 10000 3.1 130 14:57 13.07.2020
43 Clouds 26 1021 26 10000 3.1 130 14:39 13.07.2020
44 Clouds 25 1021 26 10000 2.1 0 14:20 13.07.2020
45 Clouds 25 1022 27 10000 2.6 0 13:55 13.07.2020
46 Clouds 25 1022 27 10000 2.6 0 13:37 13.07.2020
47 Clouds 25 1022 26 10000 4.6 110 13:18 13.07.2020
48 Clouds 25 1022 29 10000 2.6 60 12:42 13.07.2020
49 Clouds 24 1023 33 10000 3.1 40 12:22 13.07.2020
50 Clouds 24 1023 33 10000 2.6 20 11:54 13.07.2020
51 Clouds 23 1023 33 10000 2.6 20 11:36 13.07.2020
52 Clouds 22 1023 37 10000 2.6 30 11:18 13.07.2020
53 Clouds 21 1024 40 10000 3.1 70 10:38 13.07.2020
54 Clouds 21 1024 40 10000 3.1 70 10:19 13.07.2020
55 Clouds 20 1024 45 10000 3.6 50 09:42 13.07.2020
56 Clouds 19 1024 45 10000 3.1 50 09:23 13.07.2020
57 Clouds 18 1024 48 10000 3.6 40 08:51 13.07.2020
58 Clouds 17 1024 48 10000 3.6 40 08:33 13.07.2020
59 Clouds 15 1024 55 10000 3.6 30 07:37 13.07.2020
60 Clouds 15 1024 58 10000 3.1 30 06:56 13.07.2020
61 Clouds 14 1024 58 10000 4.1 30 06:38 13.07.2020
62 Clouds 14 1024 58 10000 4.1 30 06:20 13.07.2020
63 Clouds 14 1024 58 10000 4.1 30 06:20 13.07.2020
64 Clouds 14 1024 58 10000 4.1 30 04:35 13.07.2020
65 Clouds 15 1025 51 10000 5.1 20 01:57 13.07.2020
66 Clouds 16 1025 51 10000 5.1 20 01:28 13.07.2020
67 Clouds 17 1025 48 10000 5.1 20 00:58 13.07.2020
68 Clouds 17 1025 48 10000 5.1 10 00:26 13.07.2020
69 Clouds 18 1025 45 10000 5.1 20 23:58 12.07.2020
70 Clouds 19 1025 45 10000 5.1 20 23:40 12.07.2020
71 Clouds 19 1025 40 10000 4.6 20 23:21 12.07.2020
72 Clouds 19 1025 40 10000 4.6 20 22:54 12.07.2020
73 Clouds 19 1025 40 10000 4.6 20 22:36 12.07.2020
74 Clouds 20 1025 37 10000 4.1 20 22:18 12.07.2020
75 Clouds 22 1024 33 10000 4.6 20 21:42 12.07.2020
76 Clouds 22 1024 33 10000 5.1 20 21:20 12.07.2020
77 Clouds 23 1024 28 10000 5.1 50 20:59 12.07.2020
78 Clouds 23 1024 28 10000 5.1 50 20:40 12.07.2020
79 Clouds 23 1024 27 10000 3.6 20 20:20 12.07.2020
80 Clouds 23 1024 28 10000 4.1 30 19:58 12.07.2020
81 Clouds 23 1024 28 10000 4.1 30 19:39 12.07.2020
82 Clouds 24 1025 27 10000 2.6 0 19:19 12.07.2020
83 Clouds 24 1025 27 10000 3.1 20 18:44 12.07.2020
84 Clouds 23 1025 27 10000 4.6 30 18:21 12.07.2020
85 Clouds 24 1025 25 10000 3.1 60 17:59 12.07.2020
86 Clouds 24 1025 25 10000 3.1 60 17:38 12.07.2020
87 Clouds 24 1025 27 10000 3.1 0 17:20 12.07.2020
88 Clouds 24 1025 27 10000 3.6 0 16:47 12.07.2020
89 Clouds 24 1025 29 10000 4.1 360 16:22 12.07.2020
90 Clouds 24 1026 27 10000 3.1 20 15:50 12.07.2020
91 Clouds 24 1026 27 10000 3.1 20 15:30 12.07.2020
92 Clouds 24 1026 29 10000 3.1 50 14:58 12.07.2020
93 Clouds 24 1026 29 10000 3.1 50 14:40 12.07.2020
94 Clouds 24 1026 29 10000 3.1 50 14:40 12.07.2020
95 Clear 23 1026 29 10000 4.1 50 14:21 12.07.2020
96 Clear 23 1026 29 10000 2.6 0 13:40 12.07.2020
97 Clear 23 1026 33 10000 3.1 0 13:21 12.07.2020
98 Clear 22 1026 33 10000 3.1 70 12:57 12.07.2020
99 Clear 22 1026 33 10000 3.1 70 12:57 12.07.2020
100 Clear 23 1026 33 10000 3.1 70 12:38 12.07.2020
101 Clear 23 1026 33 10000 3.1 70 12:38 12.07.2020
102 Clear 23 1026 33 10000 3.1 70 12:38 12.07.2020
103 Clear 21 1026 35 10000 2.6 80 12:18 12.07.2020
104 Clear 22 1026 35 10000 2.1 0 11:44 12.07.2020
105 Clear 21 1026 40 10000 2.6 80 11:21 12.07.2020
106 Clear 20 1027 40 10000 2.6 70 10:57 12.07.2020
107 Clouds 19 1027 45 10000 2.6 60 10:39 12.07.2020
108 Clouds 19 1027 45 10000 2.6 60 10:19 12.07.2020
109 Clouds 18 1027 48 10000 2.6 50 09:43 12.07.2020
110 Clouds 17 1027 52 10000 3.6 40 09:21 12.07.2020
111 Clear 16 1027 55 10000 4.1 30 08:57 12.07.2020
112 Clear 16 1027 55 10000 4.1 30 08:38 12.07.2020
113 Clear 15 1026 59 10000 3.6 30 08:18 12.07.2020
114 Clear 15 1026 62 10000 3.1 50 07:47 12.07.2020
115 Clear 14 1026 67 10000 2.1 80 07:28 12.07.2020
116 Clear 14 1026 67 10000 2.1 80 07:28 12.07.2020
117 Clear 13 1026 71 10000 2.6 80 06:53 12.07.2020
118 Clear 12 1026 76 10000 2.6 40 06:22 12.07.2020
119 Clear 12 1025 71 10000 3.6 20 05:59 12.07.2020
120 Clear 13 1025 71 10000 3.6 10 04:58 12.07.2020
121 Clear 13 1025 66 10000 2.6 40 04:29 12.07.2020
122 Clear 12 1025 66 10000 3.1 20 03:45 12.07.2020
123 Clear 12 1025 66 10000 2.6 20 03:24 12.07.2020
124 Clouds 13 1025 71 10000 1 0 02:21 12.07.2020
125 Clouds 13 1025 71 10000 2.1 340 01:28 12.07.2020
126 Clouds 15 1025 62 10000 0.5 0 00:39 12.07.2020
127 Clouds 15 1025 62 10000 2.1 350 00:20 12.07.2020
128 Clouds 16 1025 58 10000 2.1 340 23:40 11.07.2020
129 Clouds 16 1025 54 10000 2.6 320 23:21 11.07.2020
130 Clouds 17 1025 54 10000 2.6 10 22:57 11.07.2020
131 Clouds 16 1025 54 10000 2.6 10 22:38 11.07.2020
132 Clouds 17 1024 48 10000 3.1 30 22:20 11.07.2020
133 Clouds 18 1024 39 10000 3.1 50 21:54 11.07.2020
134 Clouds 20 1024 39 10000 3.1 50 21:36 11.07.2020
135 Clouds 20 1024 37 10000 3.6 30 21:18 11.07.2020
136 Clouds 20 1024 35 10000 3.6 10 20:54 11.07.2020
137 Clouds 20 1024 35 10000 3.6 10 20:36 11.07.2020
138 Clouds 21 1024 35 10000 5.1 350 20:18 11.07.2020
139 Clouds 21 1023 30 10000 3.6 320 19:44 11.07.2020
140 Clouds 22 1023 28 10000 4.1 310 19:26 11.07.2020
141 Clouds 22 1023 28 10000 3.1 350 18:57 11.07.2020
142 Clouds 22 1023 28 10000 3.1 350 18:39 11.07.2020
143 Clouds 22 1023 31 10000 2.1 40 18:20 11.07.2020
144 Clouds 22 1023 35 10000 2.6 30 17:57 11.07.2020
145 Clouds 21 1023 35 10000 2.6 30 17:38 11.07.2020
146 Clouds 21 1023 32 10000 4.6 10 17:19 11.07.2020
147 Clouds 22 1023 35 10000 4.1 10 16:56 11.07.2020
148 Clouds 22 1023 35 10000 4.1 10 16:37 11.07.2020
149 Clouds 22 1023 35 10000 3.6 20 16:18 11.07.2020
150 Clouds 22 1023 33 10000 3.1 360 15:42 11.07.2020
151 Clouds 22 1023 32 10000 4.1 340 15:21 11.07.2020
152 Clouds 21 1023 30 10000 3.6 0 14:59 11.07.2020
153 Clouds 22 1023 30 10000 3.6 0 14:40 11.07.2020
154 Clouds 21 1023 32 10000 3.1 0 14:22 11.07.2020
155 Clouds 21 1023 37 10000 2.1 0 13:44 11.07.2020
156 Clouds 20 1023 40 10000 3.6 330 13:23 11.07.2020
157 Clouds 20 1023 37 10000 3.1 0 12:59 11.07.2020
158 Clouds 20 1023 40 10000 2.6 0 12:41 11.07.2020
159 Clouds 20 1023 40 10000 2.6 0 12:23 11.07.2020
160 Clouds 20 1023 45 10000 2.6 0 11:57 11.07.2020
161 Clouds 20 1023 45 10000 2.6 0 11:39 11.07.2020
162 Clouds 19 1023 52 10000 3.1 40 11:19 11.07.2020
163 Clouds 18 1023 52 10000 2.6 360 10:45 11.07.2020
164 Clouds 18 1023 52 10000 2.6 0 10:26 11.07.2020
165 Clouds 17 1023 55 10000 3.1 40 09:56 11.07.2020
166 Clouds 17 1023 55 10000 3.1 40 09:37 11.07.2020
167 Clouds 17 1022 59 10000 4.1 40 09:18 11.07.2020
168 Clouds 16 1022 63 10000 5.1 30 08:39 11.07.2020
169 Clouds 15 1022 67 10000 3.6 10 08:20 11.07.2020
170 Clouds 14 1022 67 10000 3.1 360 07:54 11.07.2020
171 Clouds 14 1022 67 10000 3.1 360 07:36 11.07.2020
172 Clouds 14 1021 71 10000 2.6 360 07:18 11.07.2020
173 Clouds 13 1021 71 10000 3.1 10 06:24 11.07.2020
174 Clouds 13 1020 71 10000 3.6 10 05:54 11.07.2020
175 Clouds 14 1020 67 10000 4.1 10 05:19 11.07.2020
176 Clouds 15 1020 67 10000 3.6 360 04:39 11.07.2020
177 Clouds 15 1020 67 10000 4.1 360 04:19 11.07.2020
178 Rain 16 1020 63 10000 2.6 20 02:53 11.07.2020
179 Rain 17 1019 63 10000 5.1 10 01:57 11.07.2020
180 Rain 17 1019 59 10000 4.1 360 01:22 11.07.2020
181 Clouds 17 1019 59 10000 3.6 360 00:57 11.07.2020
182 Clouds 18 1019 59 10000 3.6 360 00:37 11.07.2020
183 Clouds 18 1018 59 10000 4.6 20 00:18 11.07.2020
184 Clouds 18 1018 59 10000 4.6 10 23:44 10.07.2020
185 Clouds 18 1017 55 10000 4.1 10 23:26 10.07.2020
186 Clouds 18 1017 55 10000 4.1 360 22:56 10.07.2020
187 Clouds 18 1017 55 10000 4.1 360 22:38 10.07.2020
188 Clouds 19 1017 55 10000 3.6 310 22:18 10.07.2020
189 Clouds 20 1017 59 10000 5.7 310 21:39 10.07.2020
190 Clouds 20 1016 52 10000 5.7 320 21:20 10.07.2020
191 Clouds 20 1016 56 10000 3.1 320 20:57 10.07.2020
192 Clouds 20 1016 56 10000 3.1 320 20:38 10.07.2020
193 Clouds 21 1015 52 10000 3.6 310 20:19 10.07.2020
194 Clouds 21 1015 56 10000 4.1 330 19:56 10.07.2020
195 Clouds 21 1015 56 10000 4.1 330 19:38 10.07.2020
196 Clouds 21 1015 56 10000 4.1 320 19:18 10.07.2020
197 Clouds 22 1015 53 10000 6.2 310 18:41 10.07.2020
198 Clouds 22 1015 53 10000 6.2 300 18:19 10.07.2020
199 Rain 22 1014 49 10000 6.2 280 17:56 10.07.2020
200 Rain 22 1014 49 10000 6.2 280 17:38 10.07.2020
201 Rain 22 1014 49 10000 8.2 280 17:19 10.07.2020
202 Clouds 23 1014 46 10000 8.2 290 16:42 10.07.2020
203 Clouds 23 1013 49 10000 6.7 250 16:20 10.07.2020
204 Clouds 24 1013 46 10000 8.2 240 15:45 10.07.2020
205 Clouds 23 1013 46 10000 8.2 240 15:45 10.07.2020
206 Clouds 23 1013 49 10000 9.3 240 15:23 10.07.2020
207 Clouds 23 1013 47 10000 8.7 240 14:55 10.07.2020
208 Clouds 23 1013 47 10000 8.7 240 14:37 10.07.2020
209 Clouds 23 1013 49 10000 9.3 230 14:19 10.07.2020
210 Clouds 23 1012 49 10000 8.2 220 13:57 10.07.2020
211 Clouds 23 1012 49 10000 8.2 220 13:38 10.07.2020
212 Clouds 23 1012 49 10000 8.7 240 13:20 10.07.2020
213 Clouds 23 1012 49 10000 9.3 240 12:44 10.07.2020
214 Clouds 23 1011 53 10000 7.7 250 12:25 10.07.2020
215 Clouds 23 1011 56 10000 8.2 240 11:59 10.07.2020
216 Clouds 23 1010 56 10000 7.2 220 11:38 10.07.2020
217 Clouds 23 1010 56 10000 7.2 220 11:38 10.07.2020
218 Clouds 23 1010 56 10000 7.2 220 11:19 10.07.2020
219 Clouds 23 1010 60 10000 5.1 240 10:55 10.07.2020
220 Clouds 23 1010 60 10000 5.1 240 10:37 10.07.2020
221 Clouds 23 1010 60 10000 5.1 240 10:18 10.07.2020
222 Clouds 23 1010 60 10000 5.1 240 09:39 10.07.2020
223 Clouds 22 1009 60 10000 3.6 220 09:20 10.07.2020
224 Clouds 22 1009 60 10000 3.6 210 08:58 10.07.2020
225 Clouds 22 1009 60 10000 3.6 210 08:40 10.07.2020
226 Clouds 22 1009 64 10000 3.6 210 08:21 10.07.2020
227 Clouds 21 1009 68 10000 2.1 240 07:44 10.07.2020
228 Rain 20 1009 82 10000 1.5 220 07:23 10.07.2020
229 Rain 19 1009 77 10000 1 0 06:52 10.07.2020
230 Rain 18 1009 82 10000 1.5 210 06:32 10.07.2020
231 Rain 19 1009 77 10000 2.6 190 05:20 10.07.2020
232 Rain 19 1010 77 10000 0.5 0 03:44 10.07.2020
233 Rain 20 1011 72 10000 2.1 360 02:53 10.07.2020
234 Clouds 21 1011 64 10000 1.5 80 01:57 10.07.2020
235 Clouds 20 1011 72 10000 2.1 50 00:55 10.07.2020
236 Clouds 22 1012 68 10000 0.5 0 00:23 10.07.2020
237 Clouds 21 1012 68 10000 0.5 0 23:56 09.07.2020
238 Clouds 21 1012 68 10000 0.5 0 23:37 09.07.2020
239 Clear 22 1012 64 10000 1 0 23:19 09.07.2020
240 Clear 23 1012 56 10000 2.1 250 22:56 09.07.2020
241 Clear 23 1012 56 10000 2.1 250 22:38 09.07.2020
242 Clear 23 1011 56 10000 2.6 240 22:19 09.07.2020
243 Clear 24 1011 47 10000 2.1 250 21:55 09.07.2020
244 Clear 27 1011 47 10000 2.1 250 21:36 09.07.2020
245 Clear 25 1011 47 10000 2.1 250 21:36 09.07.2020
246 Clear 28 1011 39 10000 2.6 260 21:18 09.07.2020
247 Clear 28 1011 37 10000 5.1 260 20:41 09.07.2020
248 Clouds 28 1011 35 10000 6.2 260 20:23 09.07.2020
249 Clouds 28 1011 35 10000 6.7 260 19:55 09.07.2020
250 Clouds 29 1011 30 10000 6.7 250 19:37 09.07.2020
251 Clouds 29 1011 30 10000 6.7 250 19:18 09.07.2020
252 Clouds 29 1012 35 10000 7.2 270 18:41 09.07.2020
253 Clouds 30 1012 31 10000 7.7 230 18:19 09.07.2020
254 Clouds 30 1012 30 10000 7.7 260 17:43 09.07.2020
255 Clouds 30 1012 33 10000 7.7 230 17:25 09.07.2020
256 Clouds 29 1012 32 10000 7.7 240 16:59 09.07.2020
257 Clouds 29 1012 32 10000 7.7 240 16:41 09.07.2020
258 Clouds 29 1012 35 10000 7.2 250 16:19 09.07.2020
259 Clouds 29 1013 35 10000 6.2 230 15:59 09.07.2020
260 Clouds 29 1013 35 10000 6.2 230 15:41 09.07.2020
261 Clouds 28 1013 37 10000 6.7 230 15:23 09.07.2020
262 Clouds 28 1014 39 10000 5.1 240 14:59 09.07.2020
263 Clouds 27 1014 44 10000 5.7 250 14:40 09.07.2020
264 Clouds 27 1014 44 10000 5.7 250 14:22 09.07.2020
265 Clouds 27 1014 42 10000 6.2 240 13:57 09.07.2020
266 Clouds 27 1014 42 10000 6.2 240 13:57 09.07.2020
267 Clouds 26 1014 42 10000 6.2 240 13:38 09.07.2020
268 Clouds 25 1014 53 10000 5.7 210 13:20 09.07.2020
269 Clouds 23 1015 57 10000 6.2 220 12:43 09.07.2020
270 Clouds 23 1015 69 10000 2.6 210 12:24 09.07.2020
271 Clouds 22 1015 68 10000 4.6 220 11:59 09.07.2020
272 Clouds 22 1015 68 10000 4.6 220 11:41 09.07.2020
273 Clouds 21 1015 73 10000 4.1 210 11:23 09.07.2020
274 Clouds 21 1015 77 10000 4.1 200 10:58 09.07.2020
275 Clouds 20 1015 77 10000 4.1 200 10:40 09.07.2020
276 Clouds 20 1015 77 10000 4.1 200 10:40 09.07.2020
277 Clouds 20 1015 82 10000 3.6 210 10:22 09.07.2020
278 Clouds 19 1016 82 10000 3.1 210 09:55 09.07.2020
279 Clouds 18 1016 88 10000 3.1 200 09:37 09.07.2020
280 Clouds 18 1016 88 10000 3.1 200 09:18 09.07.2020
281 Clouds 17 1016 93 10000 2.6 190 08:43 09.07.2020
282 Clouds 17 1016 88 10000 2.1 200 08:24 09.07.2020
283 Clouds 16 1016 93 10000 2.1 200 07:45 09.07.2020
284 Clouds 16 1016 93 10000 1 0 07:22 09.07.2020
285 Clouds 16 1016 93 10000 1.5 220 06:50 09.07.2020
286 Clouds 16 1016 93 10000 1.5 220 06:19 09.07.2020
287 Clouds 16 1016 93 10000 2.1 220 04:29 09.07.2020
288 Clouds 16 1016 93 10000 2.1 210 03:32 09.07.2020
289 Clouds 16 1017 93 10000 1 0 02:20 09.07.2020
290 Clouds 16 1017 93 10000 1.5 180 01:32 09.07.2020
291 Clouds 16 1017 93 10000 2.1 180 00:49 09.07.2020
292 Clouds 15 1017 93 10000 1.5 190 00:24 09.07.2020
293 Clouds 15 1017 93 10000 2.6 170 23:46 08.07.2020
294 Clouds 15 1017 100 10000 3.1 160 23:28 08.07.2020
295 Clouds 15 1017 93 10000 2.6 160 22:58 08.07.2020
296 Clouds 16 1017 93 10000 2.6 160 22:40 08.07.2020
297 Rain 16 1017 93 8000 2.6 180 22:22 08.07.2020
298 Clouds 16 1017 93 10000 2.1 0 21:58 08.07.2020
299 Clouds 16 1017 93 10000 2.1 0 21:38 08.07.2020
300 Rain 16 1017 93 10000 2.1 180 21:20 08.07.2020
301 Rain 16 1017 93 10000 2.6 180 20:54 08.07.2020
302 Rain 16 1017 93 10000 2.6 180 20:36 08.07.2020
303 Clouds 16 1017 93 10000 2.6 190 20:18 08.07.2020
304 Clouds 16 1017 93 10000 2.1 180 19:42 08.07.2020
305 Rain 16 1017 93 10000 2.1 190 19:22 08.07.2020
306 Rain 16 1017 87 10000 2.6 190 18:57 08.07.2020
307 Rain 16 1017 87 10000 2.1 190 18:39 08.07.2020
308 Rain 16 1017 87 10000 2.1 190 18:20 08.07.2020
309 Rain 16 1017 87 10000 0.5 260 17:56 08.07.2020
310 Rain 16 1017 87 10000 0.5 260 17:37 08.07.2020
311 Clouds 16 1017 87 10000 0.5 0 17:19 08.07.2020
312 Drizzle 15 1017 87 7000 0.5 0 16:43 08.07.2020
313 Rain 15 1017 93 10000 1.5 150 16:24 08.07.2020
314 Rain 15 1017 93 10000 1.5 150 15:59 08.07.2020
315 Rain 15 1017 87 10000 1 0 15:41 08.07.2020
316 Rain 15 1017 82 10000 0.5 0 15:20 08.07.2020
317 Rain 15 1017 82 10000 1.5 0 14:59 08.07.2020
318 Rain 15 1017 82 10000 1.5 0 14:41 08.07.2020
319 Rain 15 1017 82 10000 1 0 14:19 08.07.2020
320 Rain 15 1017 82 10000 2.1 330 13:45 08.07.2020
321 Rain 15 1017 82 10000 1.5 0 13:27 08.07.2020
322 Rain 16 1017 87 8000 3.1 0 12:57 08.07.2020
323 Rain 15 1017 87 8000 3.1 0 12:38 08.07.2020
324 Rain 16 1017 72 10000 3.1 260 12:19 08.07.2020
325 Rain 16 1017 63 10000 2.6 0 11:39 08.07.2020
326 Rain 16 1016 63 10000 3.1 330 11:20 08.07.2020
327 Clouds 17 1016 63 10000 2.6 0 10:56 08.07.2020
328 Clouds 17 1016 63 10000 2.6 0 10:38 08.07.2020
329 Clouds 17 1016 59 10000 2.1 0 10:19 08.07.2020
330 Clouds 17 1016 67 10000 2.6 200 09:43 08.07.2020
331 Clouds 17 1016 67 10000 2.6 200 09:43 08.07.2020
332 Clouds 16 1016 72 10000 3.1 190 09:23 08.07.2020
333 Rain 15 1016 72 10000 3.1 190 08:44 08.07.2020
334 Clouds 15 1016 77 10000 2.1 190 08:25 08.07.2020
335 Clouds 15 1016 82 10000 2.6 180 07:48 08.07.2020
336 Rain 15 1016 82 10000 2.1 190 07:24 08.07.2020
337 Rain 15 1016 77 10000 1 240 06:58 08.07.2020
338 Rain 15 1016 77 10000 1 240 06:39 08.07.2020
339 Rain 15 1016 67 10000 2.1 190 06:20 08.07.2020
340 Clouds 16 1016 67 10000 2.6 200 05:38 08.07.2020
341 Clouds 16 1016 62 10000 3.1 180 04:39 08.07.2020
342 Clouds 16 1017 62 10000 1 190 03:25 08.07.2020
343 Clouds 16 1017 62 10000 1 220 01:57 08.07.2020
344 Clouds 16 1017 62 10000 1.5 240 01:37 08.07.2020
345 Clouds 16 1018 65 0 1.09 237 00:46 08.07.2020
346 Clouds 16 1017 62 10000 1.5 220 00:19 08.07.2020
347 Clouds 17 1017 55 10000 1.5 220 23:43 07.07.2020
348 Clouds 17 1017 55 10000 1.5 290 23:21 07.07.2020
349 Clouds 18 1017 55 10000 1.5 220 22:54 07.07.2020
350 Clouds 19 1018 52 0 2.14 298 22:36 07.07.2020
351 Clouds 19 1017 51 10000 1.5 0 22:18 07.07.2020
352 Clouds 19 1017 45 10000 2.1 240 21:41 07.07.2020
353 Clouds 20 1017 42 10000 2.1 260 21:22 07.07.2020
354 Clouds 21 1017 33 10000 2.6 290 20:59 07.07.2020
355 Clouds 21 1017 33 10000 2.6 290 20:41 07.07.2020
356 Clouds 22 1017 33 10000 3.1 220 20:23 07.07.2020
357 Clouds 22 1017 33 10000 3.1 280 19:55 07.07.2020
358 Clouds 23 1017 31 10000 2.6 230 19:37 07.07.2020
359 Clouds 23 1017 31 10000 2.6 230 19:19 07.07.2020
360 Clouds 23 1018 31 10000 3.1 240 18:55 07.07.2020
361 Clouds 23 1018 31 10000 3.1 240 18:37 07.07.2020
362 Clouds 23 1018 28 10000 2.1 0 18:18 07.07.2020
363 Clouds 23 1018 28 10000 3.1 270 17:43 07.07.2020
364 Clouds 22 1019 30 10000 3.6 310 17:23 07.07.2020
365 Clouds 23 1019 28 10000 3.1 280 16:58 07.07.2020
366 Clouds 23 1019 28 10000 3.1 280 16:58 07.07.2020
367 Clouds 22 1019 28 10000 3.1 280 16:40 07.07.2020
368 Clouds 22 1019 30 10000 3.6 260 16:21 07.07.2020
369 Clouds 22 1020 28 10000 3.1 220 15:55 07.07.2020
370 Clouds 21 1020 28 10000 3.1 220 15:36 07.07.2020
371 Clouds 22 1020 28 10000 4.1 280 15:18 07.07.2020
372 Clouds 21 1020 32 10000 3.6 230 14:42 07.07.2020
373 Clear 21 1020 32 10000 3.6 280 14:23 07.07.2020
374 Clear 20 1021 37 10000 4.1 280 13:43 07.07.2020
375 Clear 20 1021 35 10000 4.6 220 13:20 07.07.2020
376 Clear 20 1021 37 10000 4.1 210 12:56 07.07.2020
377 Clear 20 1021 37 10000 4.1 210 12:36 07.07.2020
378 Clear 20 1021 37 10000 4.1 210 12:36 07.07.2020
379 Clear 20 1021 40 10000 2.6 230 12:18 07.07.2020
380 Clouds 19 1021 45 10000 1.5 0 11:43 07.07.2020
381 Clouds 18 1021 48 10000 0.5 310 11:22 07.07.2020
382 Clouds 18 1022 51 10000 1.5 0 10:58 07.07.2020
383 Clouds 18 1022 51 10000 1.5 0 10:39 07.07.2020
384 Clouds 18 1022 48 10000 1.5 0 10:20 07.07.2020
385 Clouds 16 1022 59 10000 2.6 270 09:43 07.07.2020
386 Clouds 16 1022 59 10000 1.5 0 09:22 07.07.2020
387 Clouds 16 1022 67 10000 1.5 0 08:58 07.07.2020
388 Clouds 15 1022 67 10000 1.5 0 08:39 07.07.2020
389 Clouds 15 1022 71 10000 1.5 260 08:19 07.07.2020
390 Clouds 14 1022 71 10000 1.5 240 07:38 07.07.2020
391 Clouds 13 1022 81 10000 1 0 07:19 07.07.2020
392 Clouds 11 1022 87 10000 1.5 220 06:46 07.07.2020
393 Clouds 10 1022 87 10000 1.5 240 06:26 07.07.2020
394 Clouds 9 1022 87 10000 1 0 05:43 07.07.2020
395 Clouds 10 1022 87 10000 1 0 04:53 07.07.2020
396 Clear 12 1022 87 10000 1.5 230 03:54 07.07.2020
397 Clear 12 1022 81 10000 1.5 200 03:32 07.07.2020
398 Clear 12 1022 66 10000 2.1 240 01:55 07.07.2020
399 Clear 11 1021 76 10000 2.6 220 01:20 07.07.2020
400 Clear 12 1021 71 10000 1.5 230 00:41 07.07.2020
401 Clear 12 1021 71 10000 1.5 230 00:22 07.07.2020
402 Clear 14 1021 66 10000 1.5 250 23:44 06.07.2020
403 Clear 15 1021 62 10000 1.5 0 23:26 06.07.2020
404 Clear 16 1021 55 10000 2.1 310 22:59 06.07.2020
405 Clear 16 1021 55 10000 2.1 310 22:40 06.07.2020
406 Clear 16 1020 51 10000 3.1 310 22:19 06.07.2020
407 Clouds 16 1020 51 10000 2.6 330 21:57 06.07.2020
408 Clouds 16 1020 51 10000 2.6 330 21:37 06.07.2020
409 Clouds 17 1020 48 10000 3.1 320 21:19 06.07.2020
410 Clouds 17 1020 48 10000 3.1 320 21:19 06.07.2020
411 Clouds 18 1020 48 10000 6.7 330 20:55 06.07.2020
412 Clouds 18 1020 48 10000 6.7 330 20:36 06.07.2020
413 Clouds 19 1019 42 10000 4.6 290 20:18 06.07.2020
414 Clouds 17 1019 45 10000 5.7 290 19:42 06.07.2020
415 Clouds 19 1019 42 10000 7.2 290 19:23 06.07.2020
416 Clouds 19 1018 40 10000 5.7 290 18:59 06.07.2020
417 Clouds 19 1018 40 10000 5.7 290 18:59 06.07.2020
418 Clouds 19 1018 40 10000 5.7 290 18:41 06.07.2020
419 Clouds 18 1018 45 10000 7.7 300 18:23 06.07.2020
420 Clouds 19 1018 42 10000 8.2 300 17:58 06.07.2020
421 Clouds 19 1018 42 10000 8.2 300 17:39 06.07.2020
422 Clouds 20 1017 32 10000 8.2 280 17:20 06.07.2020
423 Clouds 20 1017 32 10000 6.7 250 16:43 06.07.2020
424 Clouds 20 1017 35 10000 7.2 260 16:24 06.07.2020
425 Clouds 20 1016 37 10000 7.2 270 15:57 06.07.2020
426 Clouds 20 1016 37 10000 7.2 270 15:39 06.07.2020
427 Clouds 20 1017 34 10000 6.7 260 15:21 06.07.2020
428 Clouds 20 1016 37 10000 6.7 240 14:55 06.07.2020
429 Clouds 20 1016 37 10000 6.7 240 14:37 06.07.2020
430 Clouds 20 1016 37 10000 5.7 240 14:18 06.07.2020
431 Clouds 20 1016 37 10000 6.2 250 13:44 06.07.2020
432 Clouds 19 1016 39 10000 7.2 240 13:26 06.07.2020
433 Clouds 20 1016 39 10000 6.7 260 12:56 06.07.2020
434 Clouds 20 1016 39 10000 6.7 260 12:38 06.07.2020
435 Clouds 19 1016 42 10000 6.2 240 12:18 06.07.2020
436 Clouds 19 1016 39 10000 7.2 240 11:57 06.07.2020
437 Clouds 19 1016 39 10000 7.2 240 11:36 06.07.2020
438 Clouds 18 1016 42 10000 5.1 280 11:18 06.07.2020
439 Clouds 18 1016 45 10000 6.7 240 10:41 06.07.2020
440 Clouds 17 1016 48 10000 6.7 260 10:21 06.07.2020
441 Clouds 17 1016 48 10000 7.2 270 09:56 06.07.2020
442 Clouds 17 1016 48 10000 7.2 270 09:38 06.07.2020
443 Clouds 16 1015 55 10000 8.2 280 09:20 06.07.2020
444 Clouds 16 1015 55 10000 8.2 280 08:42 06.07.2020
445 Clouds 16 1015 55 10000 8.7 270 08:24 06.07.2020
446 Clouds 16 1014 55 10000 8.2 270 07:58 06.07.2020
447 Clouds 16 1014 55 10000 6.7 280 07:40 06.07.2020
448 Clouds 16 1014 55 10000 6.7 280 07:21 06.07.2020
449 Clouds 16 1014 55 10000 6.2 280 06:39 06.07.2020
450 Clouds 16 1014 51 10000 6.2 280 06:19 06.07.2020
451 Clouds 18 1013 48 10000 6.7 280 05:29 06.07.2020
452 Clouds 19 1012 68 10000 5.7 290 04:52 06.07.2020
453 Clouds 20 1012 77 10000 5.1 230 03:25 06.07.2020
454 Clouds 21 1012 73 10000 4.6 220 02:22 06.07.2020
455 Clouds 21 1012 73 10000 4.6 230 01:26 06.07.2020
456 Clouds 22 1012 73 10000 6.7 230 00:36 06.07.2020
457 Clouds 22 1012 68 10000 7.7 230 00:18 06.07.2020
458 Clouds 22 1012 64 10000 7.2 230 23:41 05.07.2020
459 Clouds 23 1013 60 10000 6.2 230 23:23 05.07.2020
460 Clouds 24 1013 57 10000 7.2 230 22:59 05.07.2020
461 Clouds 24 1013 57 10000 7.2 230 22:40 05.07.2020
462 Clouds 24 1013 57 10000 5.1 250 22:20 05.07.2020
463 Clouds 24 1013 53 10000 7.2 250 21:57 05.07.2020
464 Clouds 24 1013 53 10000 7.2 250 21:38 05.07.2020
465 Clouds 25 1013 50 10000 5.7 230 21:18 05.07.2020
466 Clouds 25 1013 50 10000 5.7 230 21:18 05.07.2020
467 Clouds 25 1013 50 10000 5.7 230 20:57 05.07.2020
468 Clouds 25 1013 50 10000 5.7 230 20:39 05.07.2020
469 Clouds 25 1013 50 10000 6.7 220 20:20 05.07.2020
470 Clouds 25 1013 50 10000 8.7 220 19:43 05.07.2020
471 Clouds 26 1013 47 10000 9.3 220 19:21 05.07.2020
472 Clouds 26 1013 47 10000 9.8 220 18:56 05.07.2020
473 Clouds 26 1013 47 10000 9.8 220 18:38 05.07.2020
474 Clouds 26 1013 47 10000 9.8 230 18:20 05.07.2020
475 Clouds 27 1013 44 10000 10.8 210 17:54 05.07.2020
476 Clouds 27 1013 44 10000 10.8 210 17:36 05.07.2020
477 Clouds 27 1014 44 10000 9.3 220 17:18 05.07.2020
478 Clouds 26 1014 47 10000 9.3 210 16:41 05.07.2020
479 Clouds 26 1014 50 10000 10.8 220 16:23 05.07.2020
480 Clouds 26 1014 50 10000 9.3 220 15:54 05.07.2020
481 Clouds 26 1014 50 10000 9.3 220 15:36 05.07.2020
482 Clouds 26 1014 54 10000 9.8 220 15:18 05.07.2020
483 Clouds 26 1014 53 10000 8.2 220 14:40 05.07.2020
484 Clouds 26 1015 54 10000 9.3 220 14:20 05.07.2020
485 Clouds 25 1015 60 10000 9.3 210 13:42 05.07.2020
486 Clouds 24 1015 57 10000 9.3 220 13:23 05.07.2020
487 Clouds 24 1015 57 10000 7.2 230 12:56 05.07.2020
488 Clouds 24 1015 57 10000 7.2 230 12:38 05.07.2020
489 Clouds 23 1015 60 10000 7.2 230 12:19 05.07.2020
490 Clouds 23 1015 64 10000 8.7 220 11:40 05.07.2020
491 Clouds 22 1015 64 10000 8.7 230 11:21 05.07.2020
492 Clouds 22 1015 64 10000 8.7 220 10:59 05.07.2020
493 Clouds 22 1015 64 10000 8.7 220 10:40 05.07.2020
494 Clouds 22 1015 64 10000 8.7 220 10:19 05.07.2020
495 Clouds 22 1015 64 10000 7.2 220 09:56 05.07.2020
496 Clouds 22 1015 64 10000 7.7 210 09:37 05.07.2020
497 Clouds 22 1015 64 10000 7.7 210 09:19 05.07.2020
498 Clouds 22 1015 64 10000 6.7 210 08:46 05.07.2020
499 Clouds 21 1015 64 10000 7.2 210 08:27 05.07.2020
500 Clouds 21 1015 68 10000 7.2 210 07:48 05.07.2020
501 Clouds 21 1015 68 10000 8.2 210 07:29 05.07.2020
502 Clouds 21 1015 64 10000 7.7 220 06:52 05.07.2020
503 Clouds 21 1015 64 10000 4.1 200 05:42 05.07.2020
504 Clouds 21 1015 64 10000 4.6 200 03:32 05.07.2020
505 Clouds 21 1016 53 10000 4.1 190 02:43 05.07.2020
506 Clouds 22 1016 53 10000 3.6 210 02:25 05.07.2020
507 Clouds 22 1016 53 10000 3.1 200 01:41 05.07.2020
508 Clouds 22 1016 53 10000 3.6 200 01:18 05.07.2020
509 Clouds 22 1016 53 10000 3.6 210 00:40 05.07.2020
510 Clouds 22 1016 53 10000 3.6 210 00:21 05.07.2020
511 Clouds 22 1016 49 10000 2.1 200 23:47 04.07.2020
512 Clouds 22 1016 49 10000 2.1 200 23:28 04.07.2020
513 Clouds 23 1016 46 10000 6.2 230 22:57 04.07.2020
514 Clouds 23 1016 46 10000 6.2 230 22:37 04.07.2020
515 Clouds 24 1016 44 10000 6.7 240 22:19 04.07.2020
516 Clouds 24 1016 41 10000 6.7 230 21:43 04.07.2020
517 Clouds 24 1016 41 10000 7.2 230 21:23 04.07.2020
518 Clouds 24 1016 41 10000 7.2 230 21:23 04.07.2020
519 Clouds 25 1016 38 10000 7.7 230 20:59 04.07.2020
520 Clouds 25 1016 38 10000 7.7 230 20:41 04.07.2020
521 Clouds 25 1016 38 10000 7.7 230 20:20 04.07.2020
522 Clouds 26 1016 36 10000 10.3 230 19:55 04.07.2020
523 Clouds 25 1016 36 10000 8.7 230 19:36 04.07.2020
524 Clouds 25 1016 36 10000 8.7 230 19:18 04.07.2020
525 Clouds 26 1016 36 10000 7.2 220 18:42 04.07.2020
526 Clouds 26 1016 36 10000 7.7 220 18:22 04.07.2020
527 Clouds 25 1016 36 10000 8.2 220 17:44 04.07.2020
528 Clouds 25 1016 38 10000 7.2 220 17:26 04.07.2020
529 Clouds 25 1016 36 10000 6.2 220 16:59 04.07.2020
530 Clouds 25 1016 36 10000 6.2 220 16:39 04.07.2020
531 Clouds 25 1017 36 10000 8.2 240 16:21 04.07.2020
532 Clouds 25 1017 33 10000 7.7 240 15:57 04.07.2020
533 Clouds 26 1017 33 10000 7.7 240 15:38 04.07.2020
534 Clouds 26 1017 34 10000 7.2 220 15:20 04.07.2020
535 Clouds 26 1017 31 10000 9.3 230 14:55 04.07.2020
536 Clouds 25 1017 31 10000 9.3 230 14:55 04.07.2020
537 Clouds 25 1017 31 10000 9.3 230 14:55 04.07.2020
538 Clouds 25 1017 31 10000 9.3 230 14:36 04.07.2020
539 Clouds 25 1017 36 10000 8.2 220 14:18 04.07.2020
540 Clouds 24 1017 38 10000 8.7 230 13:41 04.07.2020
541 Clouds 24 1018 33 10000 7.7 240 13:19 04.07.2020
542 Clouds 24 1018 38 10000 8.2 210 12:55 04.07.2020
543 Clouds 24 1018 38 10000 8.2 210 12:37 04.07.2020
544 Clouds 23 1018 40 10000 8.7 220 12:18 04.07.2020
545 Clouds 22 1018 40 10000 9.3 230 11:42 04.07.2020
546 Clouds 22 1018 43 10000 7.7 220 11:22 04.07.2020
547 Clouds 22 1019 43 10000 6.2 230 10:55 04.07.2020
548 Clouds 21 1019 43 10000 6.2 230 10:36 04.07.2020
549 Clouds 21 1019 52 10000 4.1 200 10:18 04.07.2020
550 Clouds 21 1019 52 10000 4.1 200 10:18 04.07.2020
551 Clouds 20 1019 56 10000 3.6 200 09:41 04.07.2020
552 Clouds 19 1019 63 10000 3.6 210 09:22 04.07.2020
553 Clouds 18 1019 63 10000 3.6 190 08:58 04.07.2020
554 Clouds 18 1019 63 10000 3.6 190 08:39 04.07.2020
555 Clouds 17 1019 63 10000 3.1 200 08:20 04.07.2020
556 Clouds 16 1019 72 10000 2.6 190 07:40 04.07.2020
557 Clouds 14 1019 82 10000 2.1 220 07:18 04.07.2020
558 Clouds 14 1019 81 10000 1.5 200 06:38 04.07.2020
559 Clouds 14 1019 87 10000 1 0 06:19 04.07.2020
560 Clouds 13 1019 87 10000 1.5 190 05:29 04.07.2020
561 Clouds 13 1019 81 10000 1 210 04:22 04.07.2020
562 Clouds 14 1019 71 10000 1.5 210 02:45 04.07.2020
563 Clouds 15 1019 71 10000 1 210 01:51 04.07.2020
564 Clouds 16 1019 71 10000 1.5 230 00:59 04.07.2020
565 Clouds 17 1019 67 10000 1.5 210 00:40 04.07.2020
566 Clouds 17 1019 67 10000 1.5 220 00:21 04.07.2020
567 Clouds 19 1019 63 10000 1.5 210 23:39 03.07.2020
568 Clouds 19 1018 55 10000 2.6 230 23:18 03.07.2020
569 Clouds 19 1018 55 10000 2.6 230 23:18 03.07.2020
570 Clouds 19 1018 45 10000 3.6 260 22:54 03.07.2020
571 Clouds 19 1018 45 10000 3.6 260 22:36 03.07.2020
572 Clouds 20 1018 43 10000 3.6 250 22:18 03.07.2020
573 Clouds 22 1018 43 10000 4.1 250 21:39 03.07.2020
574 Clouds 22 1018 40 10000 5.1 260 21:20 03.07.2020
575 Clouds 23 1017 38 10000 6.2 250 20:55 03.07.2020
576 Clouds 23 1017 38 10000 6.2 250 20:36 03.07.2020
577 Clouds 24 1017 36 10000 5.1 270 20:18 03.07.2020
578 Clouds 24 1017 33 10000 4.1 260 19:40 03.07.2020
579 Clouds 25 1017 33 10000 4.1 260 19:19 03.07.2020
580 Clouds 24 1017 36 10000 4.6 220 18:55 03.07.2020
581 Clouds 24 1017 36 10000 4.6 220 18:36 03.07.2020
582 Clouds 25 1017 36 10000 3.6 250 18:18 03.07.2020
583 Clouds 25 1017 33 10000 4.1 230 17:41 03.07.2020
584 Clouds 25 1017 31 10000 2.1 0 17:22 03.07.2020
585 Clouds 24 1018 36 10000 4.6 260 16:45 03.07.2020
586 Clouds 24 1018 36 10000 4.1 240 16:26 03.07.2020
587 Clouds 23 1018 38 10000 4.6 230 15:48 03.07.2020
588 Clouds 23 1018 38 10000 3.1 250 15:25 03.07.2020
589 Clouds 23 1018 38 10000 3.1 240 14:59 03.07.2020
590 Clouds 23 1018 38 10000 3.1 240 14:41 03.07.2020
591 Clouds 23 1018 38 10000 4.1 0 14:22 03.07.2020
592 Clouds 23 1018 43 10000 4.1 260 13:55 03.07.2020
593 Clouds 22 1018 43 10000 4.1 260 13:37 03.07.2020
594 Clouds 22 1018 40 10000 3.6 260 13:19 03.07.2020
595 Clouds 21 1018 43 10000 4.6 230 12:40 03.07.2020
596 Clouds 21 1018 46 10000 4.1 250 12:21 03.07.2020
597 Clouds 21 1018 46 10000 5.1 230 11:44 03.07.2020
598 Clouds 20 1018 49 10000 4.1 270 11:25 03.07.2020
599 Clouds 20 1019 52 10000 5.1 250 10:59 03.07.2020
600 Clouds 20 1019 52 10000 5.1 250 10:40 03.07.2020
601 Clouds 19 1018 55 10000 5.1 260 10:21 03.07.2020
602 Clouds 19 1018 55 10000 5.1 260 09:58 03.07.2020
603 Clouds 18 1018 55 10000 5.1 260 09:38 03.07.2020
604 Clouds 18 1018 59 10000 5.1 250 09:19 03.07.2020
605 Clouds 17 1018 67 10000 3.1 220 08:55 03.07.2020
606 Clouds 17 1018 67 10000 3.1 220 08:37 03.07.2020
607 Clouds 16 1018 77 10000 2.6 210 08:18 03.07.2020
608 Clouds 16 1018 82 10000 2.6 190 07:41 03.07.2020
609 Clouds 15 1018 87 10000 1.5 200 07:21 03.07.2020
610 Clouds 13 1017 87 10000 1 0 06:25 03.07.2020
611 Clouds 14 1017 87 10000 2.6 250 05:28 03.07.2020
612 Clouds 15 1016 87 10000 3.1 310 03:59 03.07.2020
613 Clouds 15 1016 87 10000 2.6 250 02:52 03.07.2020
614 Clouds 15 1016 87 10000 2.6 250 02:30 03.07.2020
615 Clouds 15 1016 87 10000 2.6 240 01:41 03.07.2020
616 Clouds 16 1016 93 10000 1.5 220 01:20 03.07.2020
617 Clouds 16 1015 93 10000 2.1 210 00:40 03.07.2020
618 Clouds 17 1015 82 10000 2.1 210 23:56 02.07.2020
619 Clouds 17 1015 82 10000 2.1 210 23:37 02.07.2020
620 Clouds 17 1015 77 10000 3.1 240 23:18 02.07.2020
621 Clouds 17 1015 77 10000 4.1 250 22:54 02.07.2020
622 Clouds 17 1015 77 10000 4.1 250 22:36 02.07.2020
623 Clouds 17 1014 72 10000 4.1 250 22:18 02.07.2020
624 Rain 17 1014 72 10000 4.6 250 21:42 02.07.2020
625 Rain 18 1013 88 10000 3.6 280 21:20 02.07.2020
626 Rain 19 1013 77 10000 5.1 270 20:59 02.07.2020
627 Rain 20 1013 77 10000 5.1 270 20:41 02.07.2020
628 Rain 22 1013 52 10000 14.4 250 20:20 02.07.2020
629 Rain 23 1011 47 10000 4.6 300 19:45 02.07.2020
630 Rain 23 1011 53 10000 5.1 310 19:26 02.07.2020
631 Rain 24 1011 50 10000 4.6 330 18:59 02.07.2020
632 Clouds 24 1011 44 10000 4.6 310 18:41 02.07.2020
633 Clouds 24 1011 44 10000 4.6 310 18:41 02.07.2020
634 Clouds 24 1011 44 10000 4.6 310 18:22 02.07.2020
635 Clouds 24 1011 41 10000 5.7 270 17:58 02.07.2020
636 Clouds 25 1011 41 10000 5.7 270 17:39 02.07.2020
637 Clouds 26 1011 38 10000 6.2 250 17:20 02.07.2020
638 Clouds 26 1011 34 10000 6.2 240 16:55 02.07.2020
639 Clouds 26 1011 34 10000 6.2 240 16:55 02.07.2020
640 Clouds 26 1011 34 10000 6.2 240 16:37 02.07.2020
641 Clouds 26 1011 34 10000 7.7 230 16:18 02.07.2020
642 Clouds 26 1011 36 10000 7.7 260 15:39 02.07.2020
643 Clouds 27 1011 34 10000 8.7 220 15:21 02.07.2020
644 Clouds 26 1011 38 10000 6.2 240 14:47 02.07.2020
645 Clouds 25 1011 36 10000 6.7 240 14:29 02.07.2020
646 Clouds 25 1011 39 10000 7.7 230 13:58 02.07.2020
647 Clouds 25 1011 39 10000 7.7 230 13:58 02.07.2020
648 Clouds 26 1011 39 10000 7.7 230 13:40 02.07.2020
649 Clouds 26 1011 36 10000 7.2 230 13:21 02.07.2020
650 Clouds 25 1011 41 10000 6.2 240 12:59 02.07.2020
651 Clouds 25 1011 41 10000 6.2 240 12:39 02.07.2020
652 Clouds 25 1011 44 10000 5.1 240 12:21 02.07.2020
653 Rain 24 1011 50 10000 4.6 170 11:44 02.07.2020
654 Clouds 23 1011 60 10000 4.1 200 11:26 02.07.2020
655 Clouds 23 1011 64 10000 4.1 180 10:56 02.07.2020
656 Clouds 22 1011 64 10000 4.1 180 10:37 02.07.2020
657 Clouds 21 1011 68 10000 4.1 180 10:19 02.07.2020
658 Clouds 21 1012 73 10000 4.6 170 09:42 02.07.2020
659 Clouds 21 1012 77 10000 4.1 190 09:21 02.07.2020
660 Clouds 20 1011 88 10000 2.6 180 08:57 02.07.2020
661 Clouds 20 1011 88 10000 2.6 180 08:38 02.07.2020
662 Clouds 20 1011 82 10000 1.5 170 08:19 02.07.2020
663 Clouds 19 1011 88 10000 1.5 160 07:41 02.07.2020
664 Rain 18 1011 88 10000 1 150 07:20 02.07.2020
665 Rain 18 1011 93 10000 1 150 06:41 02.07.2020
666 Clouds 17 1011 93 10000 0.5 0 06:20 02.07.2020
667 Clouds 18 1011 93 10000 2.1 170 05:47 02.07.2020
668 Clouds 17 1011 93 10000 1 0 04:49 02.07.2020
669 Clouds 18 1011 93 10000 2.6 280 03:33 02.07.2020
670 Clouds 21 1010 68 10000 7.2 330 01:48 02.07.2020
671 Clouds 22 1009 64 10000 4.1 200 00:27 02.07.2020
672 Rain 23 1009 64 10000 3.1 200 23:57 01.07.2020
673 Rain 23 1009 64 10000 3.1 200 23:38 01.07.2020
674 Rain 23 1009 60 10000 3.1 190 23:20 01.07.2020
675 Rain 23 1009 56 10000 2.6 200 22:54 01.07.2020
676 Rain 23 1009 56 10000 2.6 200 22:36 01.07.2020
677 Rain 23 1008 53 10000 3.1 240 22:18 01.07.2020
678 Rain 24 1008 53 10000 3.6 240 21:55 01.07.2020
679 Clouds 25 1008 50 10000 5.7 250 21:37 01.07.2020
680 Clear 25 1008 50 10000 5.7 250 21:19 01.07.2020
681 Clear 26 1008 47 10000 6.2 250 20:45 01.07.2020
682 Rain 26 1008 47 10000 6.2 250 20:26 01.07.2020
683 Rain 26 1008 47 10000 7.2 240 19:57 01.07.2020
684 Rain 26 1008 47 10000 7.2 240 19:38 01.07.2020
685 Clouds 27 1007 44 10000 7.7 250 19:20 01.07.2020
686 Clouds 27 1008 44 10000 7.7 250 18:54 01.07.2020
687 Clouds 27 1008 47 10000 7.7 240 18:36 01.07.2020
688 Clouds 27 1008 47 10000 7.7 240 18:18 01.07.2020
689 Clouds 27 1008 44 10000 6.7 240 17:41 01.07.2020
690 Clouds 27 1008 44 10000 6.7 240 17:20 01.07.2020
691 Clouds 28 1008 44 10000 7.7 220 16:49 01.07.2020
692 Clouds 28 1008 42 10000 8.2 220 16:29 01.07.2020
693 Clouds 28 1008 45 10000 7.7 230 15:59 01.07.2020
694 Clouds 28 1008 45 10000 7.7 230 15:41 01.07.2020
695 Clouds 27 1008 44 10000 7.7 220 15:22 01.07.2020
696 Clouds 27 1008 47 10000 7.7 230 14:56 01.07.2020
697 Clouds 26 1008 47 10000 7.7 230 14:37 01.07.2020
698 Clouds 27 1008 45 10000 7.7 210 14:19 01.07.2020
699 Clouds 26 1008 50 10000 7.7 230 13:40 01.07.2020
700 Clouds 26 1009 47 10000 7.2 210 13:22 01.07.2020
701 Clouds 26 1009 50 10000 7.2 210 12:59 01.07.2020
702 Clouds 25 1009 50 10000 7.2 210 12:40 01.07.2020
703 Clouds 24 1009 53 10000 7.7 230 12:22 01.07.2020
704 Clouds 23 1009 53 10000 6.2 210 11:58 01.07.2020
705 Clouds 23 1009 53 10000 6.2 210 11:39 01.07.2020
706 Clouds 23 1009 56 10000 7.2 210 11:20 01.07.2020
707 Clouds 22 1010 60 10000 5.7 210 10:43 01.07.2020
708 Clouds 22 1010 60 10000 4.6 190 10:23 01.07.2020
709 Clouds 22 1010 60 10000 4.6 190 09:59 01.07.2020
710 Clouds 21 1010 60 10000 4.1 220 09:38 01.07.2020
711 Clouds 20 1010 68 10000 2.6 200 09:20 01.07.2020
712 Clouds 20 1010 68 10000 2.6 210 08:57 01.07.2020
713 Clouds 20 1010 68 10000 2.6 210 08:38 01.07.2020
714 Clouds 19 1010 72 10000 2.1 220 08:19 01.07.2020
715 Clear 18 1010 77 10000 2.1 220 07:41 01.07.2020
716 Clear 17 1010 82 10000 2.1 220 07:21 01.07.2020
717 Clear 16 1010 82 10000 2.1 200 06:54 01.07.2020
718 Clear 15 1010 87 10000 1 210 06:32 01.07.2020
719 Clouds 15 1010 87 10000 1.5 220 05:35 01.07.2020
720 Clouds 15 1010 82 10000 1.5 240 04:26 01.07.2020
721 Clear 16 1010 82 10000 2.1 250 03:40 01.07.2020
722 Clear 16 1010 82 10000 2.6 200 03:20 01.07.2020
723 Clouds 17 1011 72 10000 2.6 200 01:56 01.07.2020
724 Clouds 18 1011 72 10000 2.6 200 00:48 01.07.2020
725 Clouds 19 1011 63 10000 3.6 200 00:27 01.07.2020
726 Clouds 19 1011 59 10000 4.1 220 23:59 30.06.2020
727 Clouds 19 1011 59 10000 4.1 220 23:39 30.06.2020
728 Clouds 19 1011 59 10000 4.6 220 23:19 30.06.2020
729 Clouds 20 1011 56 10000 5.1 220 22:42 30.06.2020
730 Clouds 20 1011 56 10000 5.7 240 22:19 30.06.2020
731 Clouds 21 1011 52 10000 5.1 230 21:43 30.06.2020
732 Clouds 21 1011 49 10000 4.6 240 21:19 30.06.2020
733 Clouds 22 1011 49 10000 4.6 240 20:59 30.06.2020
734 Clouds 22 1011 46 10000 6.7 240 20:41 30.06.2020
735 Clouds 22 1011 46 10000 6.7 220 20:20 30.06.2020
736 Clouds 22 1011 49 10000 7.2 220 19:44 30.06.2020
737 Clouds 22 1011 46 10000 7.7 220 19:21 30.06.2020
738 Clouds 22 1011 46 10000 7.7 220 19:21 30.06.2020
739 Clouds 22 1011 46 10000 7.7 220 19:21 30.06.2020
740 Clouds 23 1011 43 10000 7.7 220 18:58 30.06.2020
741 Clouds 22 1011 43 10000 7.7 220 18:40 30.06.2020
742 Clouds 23 1011 46 10000 8.2 220 18:20 30.06.2020
743 Clouds 22 1011 46 10000 6.2 230 17:39 30.06.2020
744 Clouds 22 1011 49 10000 8.2 240 17:21 30.06.2020
745 Clouds 22 1012 49 10000 8.2 230 16:58 30.06.2020
746 Clouds 22 1012 49 10000 7.2 230 16:40 30.06.2020
747 Clouds 22 1012 49 10000 7.2 230 16:21 30.06.2020
748 Clouds 21 1012 49 10000 6.7 220 15:56 30.06.2020
749 Clouds 21 1012 49 10000 6.7 220 15:38 30.06.2020
750 Clouds 21 1012 52 10000 5.1 210 15:19 30.06.2020
751 Clouds 20 1012 49 10000 6.2 230 14:43 30.06.2020
752 Clouds 20 1012 52 10000 7.2 230 14:22 30.06.2020
753 Clouds 20 1012 49 10000 7.2 230 13:58 30.06.2020
754 Clouds 20 1012 49 10000 7.2 230 13:37 30.06.2020
755 Clouds 20 1012 49 10000 7.7 240 13:19 30.06.2020
756 Clouds 20 1012 49 10000 7.7 240 13:19 30.06.2020
757 Clouds 20 1012 49 10000 7.2 230 12:56 30.06.2020
758 Clouds 20 1012 49 10000 7.2 230 12:38 30.06.2020
759 Clouds 20 1013 49 10000 5.7 230 12:19 30.06.2020
760 Clouds 20 1013 49 10000 5.7 230 12:19 30.06.2020
761 Clouds 19 1013 48 10000 6.2 230 11:56 30.06.2020
762 Clouds 19 1013 48 10000 6.2 230 11:38 30.06.2020
763 Clouds 19 1013 48 10000 6.2 230 11:18 30.06.2020
764 Clouds 20 1013 49 10000 5.1 220 10:54 30.06.2020
765 Rain 21 1016 56 10000 7.2 240 16:38 28.06.2020
766 Rain 21 1015 49 10000 6.7 250 16:18 28.06.2020
767 Rain 22 1015 49 10000 6.2 260 15:54 28.06.2020
768 Rain 22 1015 49 10000 6.2 260 15:36 28.06.2020
769 Clouds 22 1015 49 10000 7.2 250 15:18 28.06.2020
770 Clouds 23 1015 46 10000 7.7 250 14:41 28.06.2020
771 Clouds 23 1015 44 10000 6.7 260 14:23 28.06.2020
772 Clouds 23 1015 46 10000 7.2 230 13:40 28.06.2020
773 Clouds 23 1015 46 10000 8.7 250 13:21 28.06.2020
774 Clouds 23 1015 46 10000 7.7 250 12:58 28.06.2020
775 Clouds 23 1015 46 10000 7.7 250 12:38 28.06.2020
776 Clouds 23 1015 46 10000 9.3 210 12:38 28.06.2020
777 Clouds 23 1015 46 10000 9.3 210 12:19 28.06.2020
778 Clouds 23 1014 49 10000 8.2 230 11:59 28.06.2020
779 Clouds 23 1014 49 10000 8.7 230 11:40 28.06.2020
780 Clouds 24 1014 49 10000 8.7 230 11:21 28.06.2020
781 Clouds 23 1014 49 10000 10.3 220 10:59 28.06.2020
782 Clouds 23 1014 49 10000 10.3 220 10:40 28.06.2020
783 Clouds 23 1014 56 10000 7.2 210 10:22 28.06.2020
784 Clouds 23 1014 64 10000 5.7 220 09:42 28.06.2020
785 Clouds 22 1013 56 10000 7.7 220 09:23 28.06.2020
786 Clouds 22 1013 56 10000 7.7 220 09:23 28.06.2020
787 Clouds 22 1014 64 10000 5.7 220 08:57 28.06.2020
788 Clouds 22 1014 64 10000 5.7 220 08:39 28.06.2020
789 Clouds 22 1013 68 10000 4.6 190 08:20 28.06.2020
790 Clouds 21 1013 77 10000 4.1 180 07:37 28.06.2020
791 Clouds 20 1013 77 10000 3.1 190 06:58 28.06.2020
792 Clouds 20 1012 77 10000 2.6 190 06:32 28.06.2020
793 Clouds 19 1012 82 10000 1.5 190 05:54 28.06.2020
794 Clouds 19 1012 82 10000 0.5 0 04:36 28.06.2020
795 Clouds 19 1013 82 10000 1 250 03:18 28.06.2020
796 Clouds 20 1013 77 10000 3.1 160 02:23 28.06.2020
797 Clouds 20 1013 77 10000 2.6 170 01:46 28.06.2020
798 Clouds 20 1013 72 10000 2.1 190 01:22 28.06.2020
799 Clouds 21 1013 72 10000 2.1 190 00:42 28.06.2020
800 Clouds 21 1012 68 10000 2.1 200 00:21 28.06.2020
801 Clouds 23 1012 68 10000 2.6 200 23:40 27.06.2020
802 Clear 23 1012 60 10000 2.1 200 23:21 27.06.2020
803 Clear 24 1012 57 10000 3.6 230 22:56 27.06.2020
804 Clear 24 1012 57 10000 3.6 230 22:38 27.06.2020
805 Clear 25 1012 53 10000 4.1 230 22:19 27.06.2020
806 Clear 26 1011 54 10000 5.1 220 21:42 27.06.2020
807 Clear 27 1011 51 10000 5.1 230 21:20 27.06.2020
808 Clouds 27 1011 51 10000 5.1 220 20:57 27.06.2020
809 Clouds 27 1011 51 10000 5.1 220 20:37 27.06.2020
810 Clouds 28 1011 45 10000 5.1 220 20:18 27.06.2020
811 Clouds 28 1011 45 10000 7.2 220 19:54 27.06.2020
812 Clouds 28 1011 45 10000 7.2 220 19:36 27.06.2020
813 Clouds 28 1011 42 10000 7.2 240 19:18 27.06.2020
814 Clouds 29 1011 42 10000 6.2 230 18:43 27.06.2020
815 Clouds 29 1011 42 10000 7.7 230 18:22 27.06.2020
816 Clouds 28 1011 42 10000 7.7 230 17:55 27.06.2020
817 Clouds 28 1011 42 10000 7.7 230 17:37 27.06.2020
818 Rain 28 1011 42 10000 8.2 220 17:18 27.06.2020
819 Clouds 28 1011 45 10000 5.7 220 16:42 27.06.2020
820 Clouds 28 1011 51 10000 7.7 220 16:24 27.06.2020
821 Clouds 27 1012 51 10000 4.1 210 15:46 27.06.2020
822 Clouds 27 1012 54 10000 4.6 230 15:25 27.06.2020
823 Clouds 27 1012 51 10000 7.7 250 14:59 27.06.2020
824 Clouds 27 1012 51 10000 7.7 250 14:41 27.06.2020
825 Clouds 27 1012 51 10000 6.7 230 14:22 27.06.2020
826 Clouds 26 1012 50 10000 6.2 240 13:57 27.06.2020
827 Clouds 26 1013 53 10000 7.7 210 13:37 27.06.2020
828 Clouds 25 1013 53 10000 7.7 210 13:19 27.06.2020
829 Clouds 25 1013 57 10000 6.2 210 12:56 27.06.2020
830 Clouds 25 1013 57 10000 6.2 210 12:37 27.06.2020
831 Clouds 25 1012 61 10000 4.6 220 12:19 27.06.2020
832 Clouds 24 1013 64 10000 5.1 210 11:41 27.06.2020
833 Clouds 24 1012 60 10000 4.1 200 11:23 27.06.2020
834 Clouds 23 1012 64 10000 3.1 210 10:57 27.06.2020
835 Clouds 22 1012 64 10000 3.1 210 10:38 27.06.2020
836 Clouds 22 1012 69 10000 2.1 200 10:18 27.06.2020
837 Rain 23 1012 73 10000 1.5 100 09:41 27.06.2020
838 Rain 20 1012 82 10000 3.1 270 09:21 27.06.2020
839 Rain 20 1013 82 10000 6.7 240 08:56 27.06.2020
840 Rain 21 1013 82 10000 6.7 240 08:38 27.06.2020
841 Clouds 21 1012 82 10000 3.6 210 08:19 27.06.2020
842 Clouds 21 1012 88 10000 3.1 200 07:38 27.06.2020
843 Clouds 20 1012 88 10000 3.1 200 07:19 27.06.2020
844 Clouds 19 1012 93 10000 1 210 06:38 27.06.2020
845 Clouds 18 1012 93 10000 1 210 06:18 27.06.2020
846 Clouds 18 1012 93 10000 2.1 180 04:22 27.06.2020
847 Clouds 19 1012 93 10000 2.6 190 03:51 27.06.2020
848 Clouds 19 1012 88 10000 2.1 190 02:49 27.06.2020
849 Rain 20 1012 82 10000 2.1 180 02:29 27.06.2020
850 Clouds 20 1012 82 10000 2.6 190 01:41 27.06.2020
851 Clouds 21 1012 77 10000 3.1 210 00:56 27.06.2020
852 Clouds 21 1012 73 10000 3.6 230 00:28 27.06.2020
853 Clouds 21 1012 73 10000 4.1 230 23:41 26.06.2020
854 Clouds 21 1012 77 10000 4.1 230 23:22 26.06.2020
855 Clouds 22 1011 77 10000 2.6 200 22:56 26.06.2020
856 Clouds 22 1011 77 10000 2.6 200 22:38 26.06.2020
857 Clouds 22 1011 77 10000 3.6 150 22:19 26.06.2020
858 Rain 22 1011 73 10000 3.6 170 21:57 26.06.2020
859 Rain 23 1011 73 10000 3.6 170 21:37 26.06.2020
860 Rain 24 1011 73 10000 2.6 0 21:19 26.06.2020
861 Rain 24 1011 69 10000 4.6 250 20:43 26.06.2020
862 Rain 25 1011 64 10000 6.7 260 20:21 26.06.2020
863 Rain 27 1011 53 10000 9.3 240 19:47 26.06.2020
864 Clouds 29 1011 39 10000 4.1 200 19:23 26.06.2020
865 Clouds 29 1010 33 10000 3.1 160 18:57 26.06.2020
866 Clouds 30 1010 33 10000 3.1 160 18:37 26.06.2020
867 Clouds 30 1011 35 10000 3.6 200 18:19 26.06.2020
868 Clear 30 1011 35 10000 3.1 210 17:44 26.06.2020
869 Clear 30 1011 33 10000 2.6 0 17:24 26.06.2020
870 Clear 30 1011 33 10000 2.1 0 16:49 26.06.2020
871 Clear 30 1011 35 10000 3.1 0 16:26 26.06.2020
872 Clear 29 1011 37 10000 3.6 200 15:55 26.06.2020
873 Clear 29 1011 37 10000 3.6 200 15:37 26.06.2020
874 Clear 29 1012 35 10000 3.1 0 15:19 26.06.2020
875 Clear 29 1012 35 10000 2.1 0 14:56 26.06.2020
876 Clear 28 1012 35 10000 2.1 0 14:38 26.06.2020
877 Clear 28 1012 37 10000 2.6 0 14:19 26.06.2020
878 Clear 28 1013 34 10000 3.6 60 13:44 26.06.2020
879 Clear 28 1013 34 10000 4.1 80 13:22 26.06.2020
880 Clear 27 1013 36 10000 3.6 120 12:55 26.06.2020
881 Clear 27 1013 36 10000 3.6 120 12:37 26.06.2020
882 Clear 26 1013 39 10000 5.1 90 12:18 26.06.2020
883 Clear 25 1014 41 10000 6.7 90 11:54 26.06.2020
884 Clear 25 1014 41 10000 6.7 90 11:36 26.06.2020
885 Clouds 25 1014 44 10000 5.7 90 11:18 26.06.2020
886 Clouds 24 1014 49 10000 5.1 70 10:40 26.06.2020
887 Clouds 23 1014 49 10000 5.1 70 10:20 26.06.2020
888 Clouds 23 1015 53 10000 4.1 70 09:57 26.06.2020
889 Clouds 23 1015 53 10000 4.1 70 09:38 26.06.2020
890 Clouds 21 1015 56 10000 4.1 80 09:19 26.06.2020
891 Clouds 20 1015 60 10000 5.1 70 08:45 26.06.2020
892 Clouds 20 1015 63 10000 4.6 60 08:27 26.06.2020
893 Clouds 19 1015 63 10000 4.6 50 07:48 26.06.2020
894 Clear 18 1015 68 10000 4.6 50 07:23 26.06.2020
895 Clear 17 1014 72 10000 4.1 40 06:49 26.06.2020
896 Clear 16 1015 72 10000 3.6 20 06:30 26.06.2020
897 Clear 17 1015 72 10000 4.1 20 05:53 26.06.2020
898 Clear 17 1015 72 10000 3.6 10 05:21 26.06.2020
899 Clear 17 1015 72 10000 2.1 30 02:40 26.06.2020
900 Clear 19 1016 77 10000 3.1 50 01:39 26.06.2020
901 Clear 20 1016 77 10000 2.1 50 00:55 26.06.2020
902 Clear 19 1016 77 10000 2.1 50 00:32 26.06.2020
903 Clear 20 1016 64 10000 3.6 60 23:48 25.06.2020
904 Clear 21 1017 60 10000 2.6 70 23:23 25.06.2020
905 Clear 21 1017 60 10000 2.6 70 22:59 25.06.2020
906 Clear 22 1016 53 10000 3.1 70 22:39 25.06.2020
907 Clear 22 1016 53 10000 2.6 100 22:20 25.06.2020
908 Clear 22 1016 53 10000 2.6 100 22:20 25.06.2020
909 Clear 23 1016 50 10000 3.1 110 21:58 25.06.2020
910 Clear 24 1016 50 10000 3.1 110 21:40 25.06.2020
911 Clear 25 1016 44 10000 3.6 120 21:21 25.06.2020
912 Clear 25 1016 44 10000 4.1 110 20:59 25.06.2020
913 Clear 26 1016 44 10000 4.1 110 20:41 25.06.2020
914 Clouds 26 1016 41 10000 3.6 120 20:22 25.06.2020
915 Clouds 26 1016 42 10000 3.6 60 19:56 25.06.2020
916 Clouds 26 1016 41 10000 4.1 60 19:37 25.06.2020
917 Clouds 26 1016 41 10000 4.1 60 19:18 25.06.2020
918 Clouds 27 1017 44 10000 5.7 80 18:40 25.06.2020
919 Clouds 27 1017 47 10000 2.1 0 18:21 25.06.2020
920 Clouds 26 1017 50 10000 3.1 80 17:55 25.06.2020
921 Clouds 26 1017 50 10000 3.1 80 17:37 25.06.2020
922 Clouds 26 1017 50 10000 2.1 0 17:19 25.06.2020
923 Clouds 27 1018 50 10000 3.6 90 16:40 25.06.2020
924 Clouds 26 1018 53 10000 5.1 100 16:20 25.06.2020
925 Clouds 25 1018 53 10000 6.7 100 15:45 25.06.2020
926 Clouds 25 1018 53 10000 5.7 70 15:27 25.06.2020
927 Clouds 25 1018 53 10000 4.1 80 14:58 25.06.2020
928 Clouds 25 1018 53 10000 4.1 80 14:40 25.06.2020
929 Clouds 25 1018 53 10000 4.1 60 14:22 25.06.2020
930 Clouds 25 1018 50 10000 3.6 50 13:56 25.06.2020
931 Clouds 25 1018 50 10000 3.6 50 13:37 25.06.2020
932 Clouds 26 1019 50 10000 3.1 100 13:19 25.06.2020
933 Clouds 25 1019 50 10000 4.1 60 12:44 25.06.2020
934 Clouds 25 1019 50 10000 4.6 50 12:20 25.06.2020
935 Clouds 25 1019 47 10000 4.6 50 11:44 25.06.2020
936 Clouds 24 1019 50 10000 4.1 60 11:25 25.06.2020
937 Clouds 24 1019 50 10000 4.1 60 10:59 25.06.2020
938 Clouds 24 1019 50 10000 4.1 60 10:40 25.06.2020
939 Clouds 23 1020 53 10000 3.6 0 10:22 25.06.2020
940 Clear 22 1020 53 10000 3.6 60 09:41 25.06.2020
941 Clear 23 1020 53 10000 3.6 60 09:41 25.06.2020
942 Clear 21 1020 53 10000 3.1 50 09:23 25.06.2020
943 Clear 21 1020 53 10000 4.1 50 08:47 25.06.2020
944 Clouds 21 1020 56 10000 4.1 60 08:20 25.06.2020
945 Clouds 19 1020 60 10000 2.6 10 07:56 25.06.2020
946 Clouds 18 1020 63 10000 3.6 30 07:38 25.06.2020
947 Clouds 18 1020 63 10000 3.6 30 07:19 25.06.2020
948 Clouds 17 1020 68 10000 4.6 50 06:28 25.06.2020
949 Clouds 17 1020 68 10000 4.6 40 05:55 25.06.2020
950 Clear 17 1020 68 10000 4.1 30 05:25 25.06.2020
951 Clear 17 1021 59 10000 4.1 10 03:36 25.06.2020
952 Clear 18 1021 63 10000 3.1 10 02:44 25.06.2020
953 Clouds 19 1021 59 10000 3.1 60 02:19 25.06.2020
954 Clouds 20 1021 52 10000 4.6 50 01:35 25.06.2020
955 Clouds 20 1021 52 10000 4.6 60 00:50 25.06.2020
956 Clouds 21 1021 49 10000 4.6 60 00:22 25.06.2020
957 Clouds 23 1021 46 10000 5.1 50 23:58 24.06.2020
958 Clouds 23 1021 46 10000 5.1 50 23:37 24.06.2020
959 Clouds 24 1021 44 10000 6.2 50 23:19 24.06.2020
960 Clouds 23 1020 44 10000 5.1 60 22:42 24.06.2020
961 Clouds 24 1020 41 10000 4.1 60 22:21 24.06.2020
962 Clouds 24 1020 38 10000 3.1 80 21:57 24.06.2020
963 Clouds 25 1020 38 10000 3.1 80 21:37 24.06.2020
964 Clouds 25 1020 36 10000 4.1 110 21:19 24.06.2020
965 Clouds 26 1020 34 10000 4.6 110 20:59 24.06.2020
966 Clouds 26 1020 34 10000 4.6 110 20:59 24.06.2020
967 Clouds 26 1020 34 10000 4.6 110 20:40 24.06.2020
968 Clouds 27 1020 34 10000 5.1 110 20:21 24.06.2020
969 Clouds 28 1020 30 10000 4.6 130 19:59 24.06.2020
970 Clouds 28 1020 30 10000 4.6 130 19:39 24.06.2020
971 Clear 28 1020 28 10000 4.1 100 19:20 24.06.2020
972 Clear 28 1020 28 10000 4.1 30 18:58 24.06.2020
973 Clear 28 1020 28 10000 4.1 30 18:39 24.06.2020
974 Clear 28 1020 28 10000 4.1 50 18:20 24.06.2020
975 Clear 28 1020 26 10000 5.7 40 17:56 24.06.2020
976 Clear 28 1020 26 10000 5.7 40 17:38 24.06.2020
977 Clear 28 1020 28 10000 5.1 40 17:18 24.06.2020
978 Clear 28 1020 28 10000 5.1 40 17:18 24.06.2020
979 Clear 28 1021 28 10000 3.6 50 16:56 24.06.2020
980 Clear 28 1021 28 10000 4.6 60 16:37 24.06.2020
981 Clear 28 1021 28 10000 4.6 60 16:19 24.06.2020
982 Clear 28 1021 28 10000 5.1 20 15:55 24.06.2020
983 Clear 28 1021 28 10000 6.2 40 15:37 24.06.2020
984 Clear 28 1021 28 10000 5.1 20 15:37 24.06.2020
985 Clear 27 1021 28 10000 6.2 40 15:19 24.06.2020
986 Clear 27 1021 30 10000 5.7 50 14:42 24.06.2020
987 Clear 27 1022 30 10000 5.7 50 14:23 24.06.2020
988 Clear 27 1022 28 10000 4.6 40 13:43 24.06.2020
989 Clear 26 1022 29 10000 5.1 60 13:22 24.06.2020
990 Clear 26 1022 24 10000 5.7 50 12:56 24.06.2020
991 Clear 26 1022 24 10000 5.7 50 12:37 24.06.2020
992 Clear 26 1022 27 10000 5.1 70 12:18 24.06.2020
993 Clear 25 1023 29 10000 5.1 60 11:55 24.06.2020
994 Clear 24 1023 36 10000 5.1 50 11:37 24.06.2020
995 Clear 24 1023 36 10000 5.1 50 11:18 24.06.2020
996 Clear 24 1023 38 10000 4.1 50 10:41 24.06.2020
997 Clear 23 1023 40 10000 4.1 60 10:19 24.06.2020
998 Clear 22 1023 46 10000 3.6 40 09:43 24.06.2020
999 Clear 21 1023 46 10000 2.6 30 09:22 24.06.2020
1000 Clear 20 1023 52 10000 3.1 20 08:43 24.06.2020
1001 Clear 20 1023 52 10000 3.6 30 08:21 24.06.2020
1002 Clear 19 1023 55 10000 4.1 30 07:51 24.06.2020
1003 Clear 17 1023 59 10000 4.1 20 07:32 24.06.2020
1004 Clear 16 1023 63 10000 3.1 20 06:51 24.06.2020
1005 Clear 17 1023 63 10000 2.1 30 06:26 24.06.2020
1006 Clear 16 1023 63 10000 2.6 10 05:58 24.06.2020
1007 Clear 16 1023 72 10000 2.1 80 05:30 24.06.2020
1008 Clear 17 1023 63 10000 1.5 80 04:36 24.06.2020
1009 Clear 18 1023 55 10000 3.6 30 03:36 24.06.2020
1010 Clear 18 1023 55 10000 3.1 20 02:51 24.06.2020
1011 Clear 18 1023 56 10000 2.6 20 01:46 24.06.2020
1012 Clear 20 1023 52 10000 3.1 60 00:49 24.06.2020
1013 Clear 21 1023 49 10000 3.6 40 00:29 24.06.2020
1014 Clear 22 1023 49 10000 3.6 30 23:46 23.06.2020
1015 Clear 24 1023 43 10000 3.1 20 23:21 23.06.2020
1016 Clear 22 1023 43 10000 3.1 50 22:57 23.06.2020
1017 Clear 23 1023 36 10000 3.6 40 22:38 23.06.2020
1018 Clear 23 1023 36 10000 3.6 40 22:18 23.06.2020
1019 Clear 25 1023 36 10000 4.1 30 21:42 23.06.2020
1020 Clear 26 1023 31 10000 4.1 30 21:20 23.06.2020
1021 Clear 26 1023 34 10000 5.1 10 20:56 23.06.2020
1022 Clear 26 1023 34 10000 4.6 20 20:38 23.06.2020
1023 Clear 26 1023 34 10000 4.6 20 20:19 23.06.2020
1024 Clear 26 1023 32 10000 4.1 10 19:57 23.06.2020
1025 Clear 27 1023 32 10000 4.6 10 19:38 23.06.2020
1026 Clear 27 1023 32 10000 4.6 10 19:20 23.06.2020
1027 Clear 27 1023 32 10000 4.1 40 18:38 23.06.2020
1028 Clear 27 1023 32 10000 3.6 20 18:18 23.06.2020
1029 Clear 27 1023 34 10000 3.6 10 17:42 23.06.2020
1030 Clear 27 1023 34 10000 3.6 30 17:23 23.06.2020
1031 Clear 27 1023 34 10000 2.6 360 16:57 23.06.2020
1032 Clear 27 1023 34 10000 2.6 360 16:38 23.06.2020
1033 Clear 27 1024 34 10000 3.6 50 16:20 23.06.2020
1034 Clear 27 1024 34 10000 3.6 20 15:57 23.06.2020
1035 Clear 27 1024 34 10000 3.6 20 15:39 23.06.2020
1036 Clear 27 1024 32 10000 5.1 60 15:18 23.06.2020
1037 Clear 26 1024 34 10000 4.6 60 14:43 23.06.2020
1038 Clear 26 1025 36 10000 3.6 50 14:20 23.06.2020
1039 Clear 25 1025 36 10000 3.6 30 13:57 23.06.2020
1040 Clear 25 1025 36 10000 5.1 40 13:39 23.06.2020
1041 Clear 25 1025 36 10000 5.1 40 13:20 23.06.2020
1042 Clear 25 1025 36 10000 5.1 50 12:45 23.06.2020
1043 Clear 25 1025 36 10000 3.6 30 12:23 23.06.2020
1044 Clear 24 1025 36 10000 4.1 50 11:59 23.06.2020
1045 Clear 24 1025 36 10000 4.1 50 11:40 23.06.2020
1046 Clear 24 1025 41 10000 3.6 40 11:19 23.06.2020
1047 Clear 23 1025 43 10000 3.6 60 10:58 23.06.2020
1048 Clear 23 1025 43 10000 3.6 60 10:39 23.06.2020
1049 Clouds 23 1025 43 10000 3.6 50 10:21 23.06.2020
1050 Clear 21 1025 46 10000 3.6 60 09:55 23.06.2020
1051 Clear 21 1025 46 10000 3.6 60 09:36 23.06.2020
1052 Clear 20 1025 56 10000 3.1 30 09:18 23.06.2020
1053 Clear 19 1025 60 10000 3.6 50 08:42 23.06.2020
1054 Clear 18 1025 59 10000 4.1 40 08:22 23.06.2020
1055 Clear 17 1025 63 10000 4.1 40 07:45 23.06.2020
1056 Clear 17 1025 67 10000 1.5 70 07:24 23.06.2020
1057 Clear 16 1025 77 10000 2.1 80 06:52 23.06.2020
1058 Clear 15 1025 72 10000 2.6 70 06:32 23.06.2020
1059 Clear 15 1025 72 10000 2.1 70 05:48 23.06.2020
1060 Clear 15 1025 72 10000 1 0 04:42 23.06.2020
1061 Clear 15 1025 82 10000 4.1 20 03:21 23.06.2020
1062 Clear 16 1025 82 10000 4.1 20 02:47 23.06.2020
1063 Clear 16 1025 77 10000 4.1 20 02:28 23.06.2020
1064 Clear 16 1025 77 10000 3.6 10 01:45 23.06.2020
1065 Clear 16 1024 77 10000 3.1 10 01:21 23.06.2020
1066 Clear 18 1024 77 10000 2.6 20 00:40 23.06.2020
1067 Clear 19 1024 68 10000 3.6 360 00:19 23.06.2020
1068 Clear 19 1024 63 10000 2.6 340 23:39 22.06.2020
1069 Clear 19 1024 60 10000 3.1 330 23:19 22.06.2020
1070 Clear 21 1024 60 10000 2.6 330 22:59 22.06.2020
1071 Clear 21 1024 60 10000 2.6 330 22:41 22.06.2020
1072 Clear 20 1024 56 10000 3.6 330 22:20 22.06.2020
1073 Clouds 21 1024 53 10000 3.6 320 21:59 22.06.2020
1074 Clouds 22 1024 53 10000 3.6 320 21:40 22.06.2020
1075 Clouds 23 1024 49 10000 4.1 330 21:21 22.06.2020
1076 Clouds 24 1023 50 10000 3.6 340 20:58 22.06.2020
1077 Clouds 24 1023 50 10000 3.6 340 20:40 22.06.2020
1078 Clouds 25 1023 47 10000 4.6 20 20:20 22.06.2020
1079 Clouds 25 1023 47 10000 3.1 300 19:44 22.06.2020
1080 Clear 25 1023 47 10000 3.1 260 19:19 22.06.2020
1081 Clear 25 1023 47 10000 3.1 260 18:57 22.06.2020
1082 Clear 24 1024 47 10000 3.6 280 18:37 22.06.2020
1083 Clear 24 1024 47 10000 3.6 280 18:19 22.06.2020
1084 Clouds 25 1024 47 10000 4.1 300 17:55 22.06.2020
1085 Clouds 25 1024 47 10000 4.1 300 17:37 22.06.2020
1086 Clouds 25 1024 47 10000 4.1 300 17:19 22.06.2020
1087 Clouds 25 1024 50 10000 3.1 340 16:43 22.06.2020
1088 Clouds 25 1024 50 10000 3.1 340 16:19 22.06.2020
1089 Clouds 25 1024 53 10000 4.1 270 15:59 22.06.2020
1090 Clouds 25 1024 47 10000 4.1 310 15:39 22.06.2020
1091 Clouds 25 1024 47 10000 4.1 310 15:21 22.06.2020
1092 Clouds 24 1024 56 10000 3.1 270 14:40 22.06.2020
1093 Clouds 24 1024 56 10000 3.1 270 14:21 22.06.2020
1094 Clouds 23 1024 56 10000 3.6 280 13:59 22.06.2020
1095 Clouds 22 1024 64 10000 4.1 310 13:39 22.06.2020
1096 Clouds 22 1024 64 10000 4.1 310 13:21 22.06.2020
1097 Clouds 22 1024 60 10000 4.6 300 12:55 22.06.2020
1098 Clouds 22 1024 64 10000 4.1 320 12:37 22.06.2020
1099 Clouds 22 1024 64 10000 4.1 320 12:19 22.06.2020
1100 Clouds 22 1024 68 10000 5.1 310 11:37 22.06.2020
1101 Clouds 22 1024 68 10000 5.1 310 11:19 22.06.2020
1102 Clouds 21 1024 68 10000 4.1 260 10:56 22.06.2020
1103 Clouds 21 1023 68 10000 3.6 270 10:37 22.06.2020
1104 Clouds 21 1023 68 10000 3.6 270 10:37 22.06.2020
1105 Clouds 20 1023 68 10000 3.6 270 10:19 22.06.2020
1106 Clouds 20 1023 72 10000 4.1 280 09:56 22.06.2020
1107 Clouds 19 1023 68 10000 3.6 280 09:38 22.06.2020
1108 Clouds 19 1023 68 10000 3.6 280 09:18 22.06.2020
1109 Clouds 20 1023 68 10000 3.6 280 08:54 22.06.2020
1110 Clouds 20 1023 68 10000 3.6 250 08:36 22.06.2020
1111 Clouds 20 1023 68 10000 3.6 250 08:18 22.06.2020
1112 Clouds 19 1022 72 10000 2.6 200 07:45 22.06.2020
1113 Clouds 19 1022 72 10000 2.1 200 07:24 22.06.2020
1114 Clouds 17 1022 93 10000 2.1 210 06:38 22.06.2020
1115 Clouds 16 1022 93 10000 2.1 210 06:19 22.06.2020
1116 Clouds 16 1021 87 10000 1.5 170 05:42 22.06.2020
1117 Clouds 16 1021 87 10000 1 0 03:41 22.06.2020
1118 Clouds 18 1021 77 10000 1.5 260 01:53 22.06.2020
1119 Clouds 19 1021 72 10000 2.6 220 00:58 22.06.2020
1120 Clouds 19 1021 68 10000 2.6 220 00:29 22.06.2020
1121 Clouds 21 1020 68 10000 1.5 220 23:57 21.06.2020
1122 Clouds 20 1020 63 10000 3.6 260 23:38 21.06.2020
1123 Clouds 20 1020 63 10000 3.6 260 23:20 21.06.2020
1124 Clouds 21 1020 60 10000 3.1 240 22:56 21.06.2020
1125 Clouds 22 1019 56 10000 2.1 230 22:36 21.06.2020
1126 Clouds 22 1019 56 10000 2.1 230 22:18 21.06.2020
1127 Clouds 23 1019 46 10000 3.6 250 21:56 21.06.2020
1128 Clouds 24 1019 44 10000 3.6 230 21:37 21.06.2020
1129 Clouds 24 1019 44 10000 3.6 230 21:19 21.06.2020
1130 Clouds 25 1019 44 10000 3.1 240 20:57 21.06.2020
1131 Clouds 25 1019 39 10000 3.1 260 20:36 21.06.2020
1132 Clouds 26 1019 39 10000 3.1 260 20:18 21.06.2020
1133 Clouds 26 1019 36 10000 3.6 220 19:41 21.06.2020
1134 Clouds 26 1019 36 10000 3.6 220 19:22 21.06.2020
1135 Clouds 26 1019 39 10000 4.1 250 18:59 21.06.2020
1136 Clouds 26 1019 36 10000 3.6 0 18:40 21.06.2020
1137 Clouds 26 1019 36 10000 3.6 0 18:21 21.06.2020
1138 Clouds 26 1019 36 10000 3.6 220 17:57 21.06.2020
1139 Clouds 26 1019 36 10000 2.6 250 17:38 21.06.2020
1140 Clouds 26 1019 36 10000 2.6 250 17:19 21.06.2020
1141 Clouds 26 1019 36 10000 2.6 250 17:19 21.06.2020
1142 Clouds 26 1020 36 10000 3.6 290 16:41 21.06.2020
1143 Clouds 26 1020 36 10000 3.6 290 16:22 21.06.2020
1144 Clouds 26 1020 36 10000 3.1 220 15:57 21.06.2020
1145 Clouds 26 1020 36 10000 3.1 240 15:37 21.06.2020
1146 Clouds 26 1020 39 10000 4.1 220 15:18 21.06.2020
1147 Clouds 25 1020 41 10000 3.1 190 14:39 21.06.2020
1148 Clouds 25 1020 41 10000 3.1 190 14:20 21.06.2020
1149 Clouds 26 1020 38 10000 2.6 0 13:56 21.06.2020
1150 Clouds 25 1020 41 10000 2.6 220 13:38 21.06.2020
1151 Clear 25 1020 41 10000 2.6 220 13:19 21.06.2020
1152 Clouds 24 1021 46 10000 2.1 0 12:44 21.06.2020
1153 Clouds 24 1021 46 10000 2.1 0 12:44 21.06.2020
1154 Clouds 23 1021 46 10000 2.1 0 12:26 21.06.2020
1155 Clouds 23 1021 49 10000 2.6 0 11:59 21.06.2020
1156 Clouds 23 1021 46 10000 1.5 0 11:41 21.06.2020
1157 Clouds 23 1021 46 10000 1.5 0 11:23 21.06.2020
1158 Clouds 23 1021 49 10000 1 0 10:57 21.06.2020
1159 Clouds 22 1021 52 10000 1 0 10:38 21.06.2020
1160 Clouds 22 1021 52 10000 1 0 10:20 21.06.2020
1161 Clouds 19 1021 63 10000 2.1 100 09:42 21.06.2020
1162 Clouds 19 1021 63 10000 2.1 100 09:22 21.06.2020
1163 Clear 18 1021 68 10000 1 0 08:57 21.06.2020
1164 Clear 18 1021 72 10000 0.5 0 08:39 21.06.2020
1165 Clouds 17 1021 77 10000 0.5 0 08:19 21.06.2020
1166 Clouds 16 1021 82 10000 1 0 07:41 21.06.2020
1167 Clouds 15 1021 82 10000 1 0 07:23 21.06.2020
1168 Clouds 14 1021 93 10000 1 210 06:50 21.06.2020
1169 Clouds 12 1020 93 10000 1 0 06:19 21.06.2020
1170 Clouds 12 1020 93 10000 0.5 0 05:57 21.06.2020
1171 Clouds 13 1020 87 10000 1 210 04:34 21.06.2020
1172 Clouds 14 1020 87 10000 1 0 03:19 21.06.2020
1173 Clouds 14 1021 82 10000 1 350 02:33 21.06.2020
1174 Clouds 15 1021 77 10000 1.5 300 01:39 21.06.2020
1175 Clouds 16 1021 77 10000 1.5 300 01:19 21.06.2020
1176 Clouds 17 1021 72 10000 2.6 300 00:45 21.06.2020
1177 Clouds 17 1021 72 10000 2.6 300 00:25 21.06.2020
1178 Clouds 18 1020 63 10000 2.6 300 23:45 20.06.2020
1179 Clouds 19 1020 63 10000 2.6 300 23:22 20.06.2020
1180 Rain 20 1020 56 10000 3.1 350 22:57 20.06.2020
1181 Clouds 19 1020 52 10000 2.6 330 22:39 20.06.2020
1182 Clouds 19 1020 52 10000 2.6 330 22:20 20.06.2020
1183 Clouds 21 1020 49 10000 3.6 300 21:58 20.06.2020
1184 Clouds 21 1019 49 10000 2.6 310 21:40 20.06.2020
1185 Clouds 21 1019 49 10000 2.6 310 21:21 20.06.2020
1186 Clear 22 1019 43 10000 2.6 310 20:58 20.06.2020
1187 Clear 22 1019 43 10000 4.1 310 20:40 20.06.2020
1188 Clouds 22 1019 43 10000 4.1 310 20:20 20.06.2020
1189 Clouds 23 1019 46 10000 5.1 300 19:58 20.06.2020
1190 Clouds 23 1019 43 10000 3.6 270 19:39 20.06.2020
1191 Clouds 23 1019 43 10000 3.6 270 19:20 20.06.2020
1192 Clouds 23 1019 44 10000 4.6 310 18:43 20.06.2020
1193 Clouds 23 1019 44 10000 4.6 310 18:21 20.06.2020
1194 Clouds 23 1019 49 10000 4.1 290 17:57 20.06.2020
1195 Clouds 22 1020 53 10000 4.6 290 17:39 20.06.2020
1196 Clouds 23 1020 53 10000 4.6 290 17:39 20.06.2020
1197 Clouds 22 1020 53 10000 4.6 290 17:20 20.06.2020
1198 Clouds 23 1020 53 10000 4.6 290 17:20 20.06.2020
1199 Clouds 22 1020 53 10000 5.1 280 16:55 20.06.2020
1200 Clouds 23 1020 56 10000 6.7 270 16:36 20.06.2020
1201 Clouds 22 1020 56 10000 6.7 270 16:18 20.06.2020
1202 Clouds 23 1020 46 10000 5.1 280 15:41 20.06.2020
1203 Clouds 24 1020 44 10000 3.1 0 15:18 20.06.2020
1204 Clouds 24 1020 41 10000 4.1 260 14:43 20.06.2020
1205 Clouds 23 1020 41 10000 4.1 260 14:21 20.06.2020
1206 Clouds 23 1020 43 10000 2.1 0 13:55 20.06.2020
1207 Clouds 24 1020 49 10000 2.6 0 13:37 20.06.2020
1208 Clouds 24 1020 49 10000 2.6 0 13:19 20.06.2020
1209 Clouds 23 1020 56 10000 3.6 290 12:42 20.06.2020
1210 Clouds 22 1020 56 10000 3.6 290 12:21 20.06.2020
1211 Clouds 21 1020 52 10000 2.6 320 11:57 20.06.2020
1212 Clouds 21 1020 53 10000 2.6 230 11:38 20.06.2020
1213 Clouds 21 1020 53 10000 2.6 230 11:20 20.06.2020
1214 Clouds 21 1020 53 10000 2.6 230 11:20 20.06.2020
1215 Clouds 21 1020 60 10000 2.6 210 10:50 20.06.2020
1216 Clouds 21 1020 60 10000 2.6 210 10:22 20.06.2020
1217 Clouds 21 1020 64 10000 1 0 09:57 20.06.2020
1218 Rain 20 1020 72 10000 1.5 210 09:39 20.06.2020
1219 Clear 19 1020 72 10000 1.5 210 09:21 20.06.2020
1220 Clear 19 1020 72 10000 1.5 200 08:56 20.06.2020
1221 Clear 19 1020 77 10000 2.1 200 08:37 20.06.2020
1222 Clouds 18 1020 77 10000 2.1 200 08:18 20.06.2020
1223 Clouds 17 1020 87 10000 1.5 180 07:44 20.06.2020
1224 Clouds 16 1020 87 10000 1.5 180 07:25 20.06.2020
1225 Clouds 14 1020 93 10000 2.1 190 06:24 20.06.2020
1226 Clouds 13 1020 93 10000 1.5 230 05:59 20.06.2020
1227 Clouds 14 1019 100 10000 2.1 240 05:40 20.06.2020
1228 Clouds 15 1019 87 10000 1 0 03:21 20.06.2020
1229 Clouds 15 1019 82 10000 2.6 210 01:52 20.06.2020
1230 Clouds 16 1019 72 10000 3.6 220 01:33 20.06.2020
1231 Clouds 16 1019 77 10000 1.5 210 00:40 20.06.2020
1232 Clouds 16 1019 77 10000 1.5 210 00:19 20.06.2020
1233 Clouds 17 1018 72 10000 1.5 190 23:40 19.06.2020
1234 Clouds 17 1018 72 10000 1.5 190 23:19 19.06.2020
1235 Clouds 17 1018 63 10000 2.6 250 22:55 19.06.2020
1236 Clouds 18 1018 63 10000 2.6 230 22:37 19.06.2020
1237 Clouds 18 1018 63 10000 2.6 230 22:18 19.06.2020
1238 Clouds 19 1017 59 10000 2.6 270 21:54 19.06.2020
1239 Rain 20 1017 56 10000 3.6 270 21:36 19.06.2020
1240 Clouds 21 1017 56 10000 3.6 300 21:18 19.06.2020
1241 Clouds 22 1016 49 10000 5.1 320 20:55 19.06.2020
1242 Clouds 22 1016 49 10000 5.1 320 20:37 19.06.2020
1243 Clouds 21 1016 49 10000 5.1 320 20:18 19.06.2020
1244 Rain 23 1016 46 10000 6.7 320 19:41 19.06.2020
1245 Rain 23 1016 46 10000 6.7 320 19:41 19.06.2020
1246 Rain 23 1016 46 10000 6.7 320 19:23 19.06.2020
1247 Rain 24 1016 44 10000 6.2 290 18:59 19.06.2020
1248 Rain 24 1015 38 10000 5.1 250 18:39 19.06.2020
1249 Rain 24 1015 38 10000 5.1 250 18:20 19.06.2020
1250 Clouds 24 1015 41 10000 4.6 230 18:20 19.06.2020
1251 Clouds 24 1015 41 10000 5.1 220 17:42 19.06.2020
1252 Clouds 24 1015 41 10000 5.1 220 17:42 19.06.2020
1253 Clouds 24 1015 41 10000 5.1 220 17:23 19.06.2020
1254 Clouds 24 1015 41 10000 6.2 240 16:58 19.06.2020
1255 Clouds 24 1015 44 10000 4.6 240 16:40 19.06.2020
1256 Clouds 24 1015 44 10000 4.6 240 16:22 19.06.2020
1257 Clouds 24 1016 44 10000 4.6 250 15:47 19.06.2020
1258 Clouds 23 1016 49 10000 5.1 240 15:27 19.06.2020
1259 Rain 24 1016 49 10000 4.1 240 14:59 19.06.2020
1260 Rain 23 1016 49 10000 4.1 240 14:40 19.06.2020
1261 Rain 24 1016 49 10000 4.1 240 14:21 19.06.2020
1262 Rain 22 1016 60 10000 6.2 260 13:59 19.06.2020
1263 Rain 22 1016 46 10000 4.6 230 13:40 19.06.2020
1264 Rain 22 1016 46 10000 4.6 230 13:22 19.06.2020
1265 Rain 22 1016 49 10000 4.6 230 12:45 19.06.2020
1266 Rain 22 1016 49 10000 4.6 230 12:22 19.06.2020
1267 Clouds 22 1015 49 10000 4.6 220 11:56 19.06.2020
1268 Clouds 22 1016 56 10000 2.6 0 11:36 19.06.2020
1269 Clouds 21 1015 60 10000 3.6 210 11:18 19.06.2020
1270 Clouds 21 1015 64 10000 3.1 230 10:43 19.06.2020
1271 Clouds 21 1015 64 10000 3.1 230 10:25 19.06.2020
1272 Clouds 20 1016 68 10000 3.1 220 09:57 19.06.2020
1273 Clouds 20 1015 68 10000 2.1 0 09:39 19.06.2020
1274 Clouds 18 1015 72 10000 2.6 210 09:19 19.06.2020
1275 Clouds 18 1015 77 10000 2.6 200 08:42 19.06.2020
1276 Clouds 17 1015 77 10000 2.6 200 08:23 19.06.2020
1277 Clouds 17 1015 87 10000 2.6 180 07:55 19.06.2020
1278 Clouds 16 1015 87 10000 2.1 190 07:36 19.06.2020
1279 Clouds 15 1015 87 10000 2.1 190 07:18 19.06.2020
1280 Clouds 14 1015 93 10000 1.5 210 06:23 19.06.2020
1281 Clouds 12 1015 100 10000 2.1 180 05:43 19.06.2020
1282 Clear 13 1014 93 10000 1.5 210 04:23 19.06.2020
1283 Clear 14 1014 87 10000 1.5 220 02:50 19.06.2020
1284 Clear 15 1014 87 10000 1.5 240 00:49 19.06.2020
1285 Clear 16 1014 82 10000 1 220 00:22 19.06.2020
1286 Clear 16 1014 82 10000 1 0 23:59 18.06.2020
1287 Clear 16 1013 77 10000 1.5 250 23:41 18.06.2020
1288 Clear 17 1013 77 10000 1.5 250 23:23 18.06.2020
1289 Clear 18 1013 77 10000 1 0 22:58 18.06.2020
1290 Clear 19 1013 68 10000 1.5 230 22:36 18.06.2020
1291 Clear 19 1012 63 10000 2.6 250 22:18 18.06.2020
1292 Rain 21 1012 49 10000 3.1 250 21:39 18.06.2020
1293 Rain 21 1012 49 10000 3.1 250 21:20 18.06.2020
1294 Clouds 22 1012 46 10000 4.1 230 20:56 18.06.2020
1295 Clouds 22 1012 46 10000 2.6 270 20:38 18.06.2020
1296 Clouds 22 1012 46 10000 2.6 270 20:18 18.06.2020
1297 Clouds 23 1012 53 10000 1 0 19:42 18.06.2020
1298 Clouds 23 1012 53 10000 1 0 19:21 18.06.2020
1299 Clouds 23 1011 46 10000 2.6 190 18:57 18.06.2020
1300 Clouds 24 1012 47 10000 2.1 0 18:37 18.06.2020
1301 Clouds 24 1012 47 10000 2.1 0 18:19 18.06.2020
1302 Clouds 23 1012 49 10000 2.6 280 17:45 18.06.2020
1303 Clouds 22 1012 49 10000 2.6 280 17:25 18.06.2020
1304 Clouds 22 1012 53 10000 3.6 320 16:56 18.06.2020
1305 Clouds 23 1012 53 10000 4.1 260 16:37 18.06.2020
1306 Clouds 23 1012 53 10000 4.1 260 16:18 18.06.2020
1307 Rain 22 1012 49 10000 4.6 260 15:55 18.06.2020
1308 Clouds 22 1012 56 10000 4.1 240 15:37 18.06.2020
1309 Clouds 22 1012 56 10000 4.1 240 15:18 18.06.2020
1310 Clouds 23 1013 53 10000 4.1 220 14:41 18.06.2020
1311 Clouds 22 1013 56 10000 2.6 240 14:23 18.06.2020
1312 Clouds 21 1013 56 10000 2.6 240 13:59 18.06.2020
1313 Clouds 22 1013 60 10000 2.6 200 13:41 18.06.2020
1314 Clouds 21 1013 60 10000 2.6 200 13:22 18.06.2020
1315 Clouds 21 1013 64 10000 5.1 210 12:55 18.06.2020
1316 Clouds 21 1013 64 10000 4.1 230 12:37 18.06.2020
1317 Clouds 20 1013 68 10000 4.1 240 12:19 18.06.2020
1318 Clouds 20 1013 68 10000 4.1 240 11:47 18.06.2020
1319 Clouds 19 1013 72 10000 3.1 220 11:21 18.06.2020
1320 Clouds 18 1013 72 10000 3.6 220 10:58 18.06.2020
1321 Clouds 18 994 71 0 0.45 39 10:38 18.06.2020
1322 Clouds 17 1013 77 10000 3.1 220 10:18 18.06.2020
1323 Clouds 17 1013 82 10000 4.1 220 09:44 18.06.2020
1324 Clouds 16 1013 82 10000 4.1 220 09:24 18.06.2020
1325 Clouds 16 1012 82 10000 3.6 200 08:54 18.06.2020
1326 Clouds 15 1012 93 10000 3.1 190 08:36 18.06.2020
1327 Clouds 15 1012 93 10000 3.1 190 08:18 18.06.2020
1328 Clouds 15 1012 87 10000 3.6 190 07:43 18.06.2020
1329 Clouds 14 1012 87 10000 3.6 190 07:23 18.06.2020
1330 Clouds 14 1012 93 10000 3.1 200 06:34 18.06.2020
1331 Rain 14 1012 93 10000 3.6 200 04:27 18.06.2020
1332 Clouds 14 1011 93 10000 4.1 190 03:31 18.06.2020
1333 Rain 15 1011 87 10000 4.6 200 01:43 18.06.2020
1334 Rain 15 1011 93 10000 4.6 190 01:20 18.06.2020
1335 Rain 15 1011 93 10000 4.6 190 00:49 18.06.2020
1336 Rain 17 1011 93 10000 3.6 180 00:26 18.06.2020
1337 Rain 17 1011 100 10000 4.1 160 23:55 17.06.2020
1338 Rain 17 1011 93 10000 4.1 180 23:36 17.06.2020
1339 Rain 17 1011 93 10000 4.1 180 23:18 17.06.2020
1340 Rain 17 1010 93 10000 3.6 180 22:54 17.06.2020
1341 Rain 17 1010 93 10000 2.6 180 22:36 17.06.2020
1342 Rain 17 1010 93 10000 2.6 180 22:18 17.06.2020
1343 Rain 17 1010 88 10000 2.1 170 21:40 17.06.2020
1344 Rain 18 1010 88 10000 2.1 170 21:21 17.06.2020
1345 Rain 18 1010 88 10000 2.1 210 20:56 17.06.2020
1346 Rain 18 1010 93 10000 1.5 0 20:37 17.06.2020
1347 Rain 18 1010 93 10000 1.5 0 20:19 17.06.2020
1348 Rain 18 1009 77 10000 1.5 150 19:43 17.06.2020
1349 Rain 19 1009 77 10000 1.5 150 19:22 17.06.2020
1350 Rain 18 1009 72 10000 2.1 130 18:56 17.06.2020
1351 Rain 19 1010 68 10000 3.6 50 18:38 17.06.2020
1352 Rain 22 1010 68 10000 3.6 50 18:19 17.06.2020
1353 Rain 22 1008 47 10000 8.2 70 17:42 17.06.2020
1354 Rain 22 1008 47 10000 8.2 70 17:22 17.06.2020
1355 Rain 23 1008 53 10000 5.7 50 16:57 17.06.2020
1356 Clouds 24 1009 60 10000 3.6 20 16:38 17.06.2020
1357 Clouds 23 1009 60 10000 3.6 20 16:20 17.06.2020
1358 Clouds 24 1009 60 10000 3.1 20 15:56 17.06.2020
1359 Rain 24 1009 64 10000 4.1 20 15:38 17.06.2020
1360 Rain 24 1009 64 10000 4.1 20 15:18 17.06.2020
1361 Clouds 25 1010 57 10000 3.6 60 14:55 17.06.2020
1362 Rain 24 1010 64 10000 4.6 50 14:36 17.06.2020
1363 Rain 23 1010 64 10000 4.6 50 14:18 17.06.2020
1364 Clouds 24 1011 60 10000 4.6 40 13:41 17.06.2020
1365 Clouds 24 1011 60 10000 4.6 40 13:22 17.06.2020
1366 Clouds 23 1011 60 10000 4.1 40 12:58 17.06.2020
1367 Clouds 22 1011 64 10000 3.6 30 12:40 17.06.2020
1368 Clouds 22 1011 64 10000 3.6 30 12:20 17.06.2020
1369 Clouds 21 1012 64 10000 4.1 50 11:44 17.06.2020
1370 Clouds 21 1012 64 10000 4.1 50 11:26 17.06.2020
1371 Clouds 20 1012 72 10000 3.1 40 10:56 17.06.2020
1372 Clouds 19 1012 72 10000 3.6 40 10:37 17.06.2020
1373 Clouds 19 1012 72 10000 3.6 40 10:18 17.06.2020
1374 Clouds 19 1012 77 10000 3.6 40 09:55 17.06.2020
1375 Clouds 18 1012 82 10000 3.6 60 09:36 17.06.2020
1376 Clouds 18 1012 77 10000 1.5 60 09:18 17.06.2020
1377 Clouds 17 1012 88 10000 1.5 80 08:42 17.06.2020
1378 Clouds 17 1012 88 10000 1.5 80 08:19 17.06.2020
1379 Clouds 16 1012 93 10000 0.5 0 07:44 17.06.2020
1380 Clouds 15 1012 93 10000 0.5 0 07:23 17.06.2020
1381 Clouds 14 1012 100 10000 1 0 06:59 17.06.2020
1382 Clouds 14 1012 100 10000 1 0 06:40 17.06.2020
1383 Clouds 14 1012 100 10000 1 0 06:22 17.06.2020
1384 Clouds 14 1012 100 10000 1.5 10 05:48 17.06.2020
1385 Clouds 14 1013 100 10000 0.5 0 04:38 17.06.2020
1386 Clouds 16 1014 100 10000 1 0 01:59 17.06.2020
1387 Clouds 16 1014 100 10000 0.5 0 00:53 17.06.2020
1388 Clouds 16 1014 93 10000 1.56 357 00:30 17.06.2020
1389 Clouds 17 1014 93 10000 1 0 23:59 16.06.2020
1390 Clouds 17 1014 88 10000 1.5 20 23:41 16.06.2020
1391 Clouds 17 1014 88 10000 1.5 20 23:22 16.06.2020
1392 Clouds 17 1014 88 10000 2.1 50 22:57 16.06.2020
1393 Clouds 18 1014 82 10000 1.5 70 22:38 16.06.2020
1394 Clouds 18 1014 82 10000 1.5 70 22:19 16.06.2020
1395 Clouds 18 1014 82 10000 1.5 70 22:19 16.06.2020
1396 Clouds 18 1014 82 10000 1 0 21:57 16.06.2020
1397 Clouds 19 1014 72 10000 2.1 10 21:39 16.06.2020
1398 Clouds 20 1014 72 10000 2.1 10 21:21 16.06.2020
1399 Clouds 20 1014 72 10000 2.6 40 20:43 16.06.2020
1400 Clouds 20 1014 72 10000 2.6 40 20:23 16.06.2020
1401 Clouds 20 1014 77 10000 1.5 10 19:58 16.06.2020
1402 Clouds 20 1014 72 10000 1.5 30 19:40 16.06.2020
1403 Clouds 21 1014 72 10000 1.5 30 19:22 16.06.2020
1404 Rain 20 1014 77 10000 0.5 0 18:59 16.06.2020
1405 Rain 20 1015 77 10000 1.5 270 18:41 16.06.2020
1406 Rain 20 1015 77 10000 1.5 270 18:21 16.06.2020
1407 Rain 20 1015 82 10000 2.1 270 17:57 16.06.2020
1408 Rain 20 1015 82 10000 2.1 240 17:38 16.06.2020
1409 Rain 20 1015 82 10000 2.1 240 17:19 16.06.2020
1410 Rain 19 1015 88 10000 1.5 280 16:56 16.06.2020
1411 Rain 19 1015 82 10000 1 0 16:38 16.06.2020
1412 Rain 20 1015 82 10000 1 0 16:19 16.06.2020
1413 Rain 20 1015 77 10000 1 0 15:56 16.06.2020
1414 Rain 20 1016 77 10000 1 0 15:38 16.06.2020
1415 Rain 20 1016 77 10000 1 0 15:38 16.06.2020
1416 Rain 19 1016 77 10000 1 0 15:20 16.06.2020
1417 Rain 19 1016 82 10000 1.5 170 14:43 16.06.2020
1418 Rain 19 1016 82 10000 1.5 170 14:25 16.06.2020
1419 Rain 19 1016 82 10000 1.5 140 13:59 16.06.2020
1420 Rain 19 1016 82 10000 1.5 150 13:41 16.06.2020
1421 Rain 19 1016 82 10000 1.5 150 13:22 16.06.2020
1422 Rain 18 1016 82 10000 1.5 170 12:42 16.06.2020
1423 Rain 18 1016 82 10000 1.5 170 12:22 16.06.2020
1424 Rain 18 1016 88 10000 1 0 11:57 16.06.2020
1425 Rain 17 1016 88 10000 1.5 190 11:39 16.06.2020
1426 Rain 17 1016 88 10000 1.5 190 11:21 16.06.2020
1427 Rain 17 1017 93 10000 2.1 210 10:58 16.06.2020
1428 Rain 17 1017 93 8000 2.1 200 10:38 16.06.2020
1429 Rain 17 1017 93 8000 2.1 200 10:20 16.06.2020
1430 Rain 17 1017 100 7000 1.5 200 09:44 16.06.2020
1431 Rain 16 1017 100 7000 1.5 200 09:23 16.06.2020
1432 Rain 16 1017 100 7000 2.6 210 08:53 16.06.2020
1433 Rain 16 1016 100 8000 2.1 200 08:33 16.06.2020
1434 Rain 16 1017 93 9000 1.5 200 07:52 16.06.2020
1435 Rain 16 1017 93 9000 1.5 200 07:30 16.06.2020
1436 Rain 15 1016 100 7000 1.5 190 06:57 16.06.2020
1437 Rain 15 1017 100 5000 1.5 200 06:34 16.06.2020
1438 Rain 15 1016 100 4500 1.5 180 05:52 16.06.2020
1439 Rain 16 1017 93 6000 3.1 180 04:58 16.06.2020
1440 Rain 16 1017 100 6000 2.6 180 04:25 16.06.2020
1441 Rain 16 1017 100 10000 1 0 02:46 16.06.2020
1442 Rain 16 1017 100 10000 1.5 230 01:34 16.06.2020
1443 Clouds 16 1018 100 0 1.5 230 00:58 16.06.2020
1444 Rain 16 1018 93 10000 1 210 00:27 16.06.2020
1445 Rain 17 1018 100 10000 1 0 23:57 15.06.2020
1446 Rain 17 1018 100 10000 1 0 23:38 15.06.2020
1447 Rain 17 1018 100 10000 1 0 23:20 15.06.2020
1448 Rain 17 1017 93 10000 0.5 0 22:42 15.06.2020
1449 Rain 17 1017 93 10000 0.5 0 22:23 15.06.2020
1450 Rain 17 1017 93 10000 1.5 100 21:58 15.06.2020
1451 Rain 17 1017 93 10000 2.6 100 21:38 15.06.2020
1452 Rain 17 1017 93 10000 2.6 100 21:20 15.06.2020
1453 Rain 18 1017 88 10000 3.1 70 20:59 15.06.2020
1454 Rain 18 1017 88 10000 3.1 70 20:59 15.06.2020
1455 Rain 19 1017 77 10000 2.6 80 20:39 15.06.2020
1456 Rain 19 1017 77 10000 2.6 80 20:20 15.06.2020
1457 Rain 19 1017 77 10000 1.5 220 20:00 15.06.2020
1458 Rain 19 1017 88 10000 2.1 210 19:40 15.06.2020
1459 Rain 19 1017 88 10000 2.1 210 19:22 15.06.2020
1460 Rain 19 1017 88 10000 1 0 18:58 15.06.2020
1461 Rain 19 1017 77 10000 1.5 280 18:40 15.06.2020
1462 Rain 20 1017 77 10000 1.5 280 18:20 15.06.2020
1463 Rain 20 1017 68 10000 1 0 17:58 15.06.2020
1464 Rain 20 1017 68 10000 2.1 290 17:40 15.06.2020
1465 Clouds 20 1017 68 10000 2.6 300 17:19 15.06.2020
1466 Clouds 20 1017 68 10000 2.6 300 16:54 15.06.2020
1467 Clouds 20 1017 64 10000 2.1 0 16:36 15.06.2020
1468 Clouds 20 1017 68 10000 3.1 310 16:18 15.06.2020
1469 Clouds 20 1017 68 10000 3.6 290 15:41 15.06.2020
1470 Clouds 20 1017 68 10000 3.6 290 15:20 15.06.2020
1471 Clouds 20 1017 68 10000 3.6 290 15:20 15.06.2020
1472 Rain 20 1017 72 10000 3.1 290 14:57 15.06.2020
1473 Rain 21 1017 68 10000 2.6 260 14:39 15.06.2020
1474 Rain 20 1017 64 10000 1.5 290 14:19 15.06.2020
1475 Rain 20 1017 64 10000 1.5 290 13:56 15.06.2020
1476 Clouds 20 1017 60 10000 1 0 13:38 15.06.2020
1477 Clouds 20 1017 68 10000 1.5 340 13:18 15.06.2020
1478 Clouds 19 1017 68 10000 2.1 270 12:42 15.06.2020
1479 Clouds 19 1017 68 10000 2.1 270 12:22 15.06.2020
1480 Clouds 19 1017 68 10000 2.6 280 11:58 15.06.2020
1481 Clouds 19 1017 68 10000 2.6 280 11:58 15.06.2020
1482 Clouds 19 1017 63 10000 2.6 280 11:40 15.06.2020
1483 Clouds 19 1017 63 10000 2.6 280 11:22 15.06.2020
1484 Clouds 19 1017 63 10000 2.6 280 11:22 15.06.2020
1485 Clouds 18 1016 72 10000 3.6 260 10:42 15.06.2020
1486 Clouds 18 1016 72 10000 3.6 260 10:22 15.06.2020
1487 Clouds 18 1016 82 10000 1.5 230 09:44 15.06.2020
1488 Clouds 18 1016 82 10000 1.5 230 09:23 15.06.2020
1489 Clouds 17 1016 88 10000 1 0 08:55 15.06.2020
1490 Clouds 17 1016 88 10000 2.1 230 08:36 15.06.2020
1491 Clouds 17 1016 88 10000 2.1 230 08:18 15.06.2020
1492 Clouds 16 1016 93 10000 2.6 220 07:41 15.06.2020
1493 Clouds 16 1016 93 10000 2.6 220 07:20 15.06.2020
1494 Rain 16 1016 93 10000 2.1 230 06:30 15.06.2020
1495 Rain 16 1015 93 10000 3.6 220 05:51 15.06.2020
1496 Rain 16 1015 87 10000 3.6 210 05:31 15.06.2020
1497 Clouds 17 1015 77 10000 3.6 240 04:23 15.06.2020
1498 Clouds 17 1015 77 10000 3.1 240 03:49 15.06.2020
1499 Clouds 17 1015 77 10000 3.6 250 03:27 15.06.2020
1500 Clouds 17 1015 72 10000 3.6 260 02:34 15.06.2020
1501 Clouds 18 1015 72 10000 3.1 250 01:51 15.06.2020
1502 Clouds 17 1015 77 10000 2.6 250 01:30 15.06.2020
1503 Clouds 18 1015 72 10000 3.1 250 00:58 15.06.2020
1504 Clouds 18 1015 72 10000 3.6 250 00:39 15.06.2020
1505 Clouds 18 1015 72 10000 3.6 250 00:19 15.06.2020
1506 Clouds 18 1015 72 10000 1.5 200 23:46 14.06.2020
1507 Clouds 18 1015 72 10000 1.5 200 23:24 14.06.2020
1508 Rain 18 1015 72 10000 4.1 250 22:58 14.06.2020
1509 Rain 18 1015 72 10000 3.6 230 22:39 14.06.2020
1510 Rain 18 1015 72 10000 3.6 230 22:19 14.06.2020
1511 Rain 18 1015 72 10000 4.1 220 21:57 14.06.2020
1512 Rain 18 1014 68 10000 3.6 230 21:38 14.06.2020
1513 Rain 19 1014 68 10000 3.6 230 21:19 14.06.2020
1514 Rain 19 1014 68 10000 3.6 240 20:58 14.06.2020
1515 Rain 20 1014 68 10000 4.1 240 20:38 14.06.2020
1516 Rain 20 1014 68 10000 4.1 240 20:19 14.06.2020
1517 Clouds 20 1014 68 10000 4.1 250 19:58 14.06.2020
1518 Clouds 20 1014 68 10000 4.6 250 19:38 14.06.2020
1519 Clouds 20 1014 68 10000 4.6 250 19:19 14.06.2020
1520 Clouds 21 1014 64 10000 5.1 250 18:57 14.06.2020
1521 Clouds 21 1014 60 10000 6.2 260 18:57 14.06.2020
1522 Clouds 21 1014 60 10000 6.2 260 18:38 14.06.2020
1523 Clouds 21 1014 60 10000 6.2 260 18:20 14.06.2020
1524 Clouds 21 1014 60 10000 5.1 260 17:57 14.06.2020
1525 Clouds 21 1014 60 10000 4.1 260 17:38 14.06.2020
1526 Clouds 22 1014 60 10000 4.1 260 17:19 14.06.2020
1527 Clouds 21 1014 64 10000 5.1 250 16:41 14.06.2020
1528 Clouds 21 1014 64 10000 5.1 250 16:21 14.06.2020
1529 Clouds 21 1014 60 10000 4.6 250 15:59 14.06.2020
1530 Clouds 21 1014 64 10000 4.6 250 15:40 14.06.2020
1531 Clouds 21 1014 64 10000 4.6 250 15:19 14.06.2020
1532 Clouds 21 1014 60 10000 5.1 250 14:59 14.06.2020
1533 Clouds 21 1014 60 10000 5.1 250 14:40 14.06.2020
1534 Clouds 21 1014 60 10000 5.1 250 14:21 14.06.2020
1535 Clouds 21 1014 64 10000 4.6 260 13:56 14.06.2020
1536 Clouds 21 1014 64 10000 5.1 290 13:38 14.06.2020
1537 Clouds 20 1014 64 10000 5.7 280 13:19 14.06.2020
1538 Clouds 21 1014 64 10000 5.7 280 12:55 14.06.2020
1539 Clouds 20 1013 64 10000 6.2 300 12:37 14.06.2020
1540 Clouds 20 1013 64 10000 6.2 300 12:18 14.06.2020
1541 Clouds 20 1013 68 10000 5.1 290 11:56 14.06.2020
1542 Clouds 20 1013 64 10000 4.6 310 11:37 14.06.2020
1543 Clouds 20 1013 64 10000 4.6 310 11:18 14.06.2020
1544 Clouds 20 1013 68 10000 4.6 280 10:42 14.06.2020
1545 Clouds 20 1013 68 10000 4.6 280 10:19 14.06.2020
1546 Rain 20 1013 82 10000 2.6 250 09:45 14.06.2020
1547 Clouds 19 1013 82 10000 2.6 250 09:25 14.06.2020
1548 Clouds 18 1013 88 10000 3.6 240 08:56 14.06.2020
1549 Clouds 18 1012 88 10000 2.6 240 08:38 14.06.2020
1550 Rain 18 1012 88 10000 2.1 230 08:18 14.06.2020
1551 Rain 17 1012 88 10000 2.1 230 07:48 14.06.2020
1552 Clouds 17 1012 88 10000 2.1 220 07:30 14.06.2020
1553 Clouds 16 1012 100 10000 1 0 06:31 14.06.2020
1554 Clouds 16 1011 87 10000 1.5 260 05:43 14.06.2020
1555 Clouds 16 1011 93 10000 2.6 230 04:55 14.06.2020
1556 Clouds 16 1011 93 10000 3.6 300 04:30 14.06.2020
1557 Clouds 16 1011 100 10000 2.1 310 03:23 14.06.2020
1558 Clouds 17 1011 93 10000 4.1 310 02:30 14.06.2020
1559 Rain 17 1011 88 10000 5.7 300 01:42 14.06.2020
1560 Thunderstorm 17 1011 88 10000 5.7 300 01:18 14.06.2020
1561 Thunderstorm 19 1011 56 10000 2.6 320 00:38 14.06.2020
1562 Thunderstorm 20 1011 56 10000 2.6 320 00:18 14.06.2020
1563 Thunderstorm 21 1010 47 10000 3.6 320 23:43 13.06.2020
1564 Thunderstorm 22 1010 47 10000 3.6 320 23:23 13.06.2020
1565 Clouds 21 1010 44 10000 3.6 330 22:57 13.06.2020
1566 Clouds 23 1010 44 10000 3.6 270 22:37 13.06.2020
1567 Clouds 23 1010 44 10000 3.6 270 22:18 13.06.2020
1568 Clouds 23 1010 44 10000 3.6 270 22:18 13.06.2020
1569 Rain 23 1009 44 10000 4.6 290 21:55 13.06.2020
1570 Rain 24 1009 41 10000 5.1 280 21:37 13.06.2020
1571 Rain 25 1009 41 10000 5.1 280 21:18 13.06.2020
1572 Clouds 26 1008 39 10000 5.1 300 20:42 13.06.2020
1573 Clouds 25 1008 39 10000 5.1 300 20:42 13.06.2020
1574 Clouds 26 1008 39 10000 5.1 300 20:19 13.06.2020
1575 Clouds 27 1008 34 10000 5.1 300 19:54 13.06.2020
1576 Clouds 27 1008 36 10000 5.1 310 19:36 13.06.2020
1577 Clouds 27 1008 36 10000 5.1 310 19:18 13.06.2020
1578 Clouds 27 1008 36 10000 5.1 310 19:18 13.06.2020
1579 Clouds 27 1008 32 10000 6.2 310 18:55 13.06.2020
1580 Clouds 28 1008 32 10000 5.1 310 18:37 13.06.2020
1581 Clouds 28 1008 32 10000 5.1 310 18:18 13.06.2020
1582 Clouds 28 1009 34 10000 4.1 260 17:42 13.06.2020
1583 Clouds 28 1009 34 10000 4.1 260 17:23 13.06.2020
1584 Clouds 28 1009 37 10000 3.6 270 16:58 13.06.2020
1585 Clouds 27 1009 42 10000 3.1 0 16:40 13.06.2020
1586 Clouds 27 1009 41 10000 4.1 280 16:19 13.06.2020
1587 Clouds 27 1009 41 10000 4.1 280 15:58 13.06.2020
1588 Clouds 27 1010 38 10000 4.6 250 15:39 13.06.2020
1589 Clouds 27 1010 38 10000 4.6 250 15:20 13.06.2020
1590 Clouds 26 1011 41 10000 4.6 270 14:43 13.06.2020
1591 Clouds 25 1011 47 10000 3.6 250 14:22 13.06.2020
1592 Clouds 24 1011 47 10000 3.6 250 13:56 13.06.2020
1593 Clouds 24 1011 47 10000 4.1 270 13:37 13.06.2020
1594 Clouds 24 1011 53 10000 3.1 280 13:18 13.06.2020
1595 Clouds 24 1011 57 10000 2.6 210 12:42 13.06.2020
1596 Clouds 24 1011 57 10000 2.6 210 12:24 13.06.2020
1597 Clouds 22 1011 64 10000 3.6 200 11:55 13.06.2020
1598 Clouds 22 1011 64 10000 3.6 180 11:37 13.06.2020
1599 Clouds 22 1011 64 10000 3.6 180 11:18 13.06.2020
1600 Clouds 22 1011 64 10000 2.6 200 10:42 13.06.2020
1601 Clouds 21 1011 64 10000 2.6 200 10:23 13.06.2020
1602 Clouds 21 1011 64 10000 2.1 230 09:56 13.06.2020
1603 Clouds 21 1011 60 10000 2.1 220 09:38 13.06.2020
1604 Clouds 20 1011 72 10000 2.1 180 09:19 13.06.2020
1605 Clouds 19 1011 77 10000 1.5 180 08:44 13.06.2020
1606 Clouds 19 1011 77 10000 1.5 180 08:26 13.06.2020
1607 Clouds 19 1010 77 10000 1 220 07:45 13.06.2020
1608 Clouds 19 1010 68 10000 3.1 220 07:26 13.06.2020
1609 Clouds 19 1009 68 10000 3.1 290 06:44 13.06.2020
1610 Clouds 19 1009 68 10000 3.1 290 06:26 13.06.2020
1611 Rain 18 1009 63 10000 2.6 310 05:30 13.06.2020
1612 Rain 19 1009 63 10000 3.1 300 04:41 13.06.2020
1613 Rain 18 1008 64 10000 3.6 280 03:44 13.06.2020
1614 Rain 19 1008 68 10000 2.1 270 02:53 13.06.2020
1615 Rain 19 1007 68 10000 2.6 10 02:18 13.06.2020
1616 Clear 20 1006 72 10000 2.1 60 01:25 13.06.2020
1617 Clear 21 1006 64 10000 2.6 10 00:57 13.06.2020
1618 Clear 22 1006 64 10000 2.1 50 00:37 13.06.2020
1619 Clear 22 1006 64 10000 2.1 50 00:19 13.06.2020
1620 Clear 22 1005 56 10000 3.6 40 23:40 12.06.2020
1621 Clear 22 1005 56 10000 3.6 40 23:18 12.06.2020
1622 Clear 22 1005 56 10000 3.6 40 23:18 12.06.2020
1623 Clear 22 1005 56 10000 3.6 60 22:55 12.06.2020
1624 Clear 22 1005 53 10000 4.1 60 22:37 12.06.2020
1625 Clear 23 1005 47 10000 4.6 60 22:18 12.06.2020
1626 Clear 25 1005 44 10000 3.6 70 21:44 12.06.2020
1627 Clear 26 1005 44 10000 3.6 70 21:24 12.06.2020
1628 Clear 27 1005 39 10000 4.6 70 20:57 12.06.2020
1629 Clear 27 1005 37 10000 5.7 70 20:39 12.06.2020
1630 Clear 28 1005 37 10000 5.7 80 20:20 12.06.2020
1631 Clear 28 1005 37 10000 5.7 80 19:46 12.06.2020
1632 Clear 28 1005 37 10000 5.1 90 19:22 12.06.2020
1633 Clear 28 1005 37 10000 5.7 80 18:59 12.06.2020
1634 Clear 28 1004 35 10000 5.1 100 18:37 12.06.2020
1635 Clear 29 1004 35 10000 5.1 100 18:18 12.06.2020
1636 Clear 28 1005 37 10000 6.7 90 17:45 12.06.2020
1637 Clear 28 1005 37 10000 6.7 90 17:26 12.06.2020
1638 Clear 28 1005 37 10000 6.2 100 16:58 12.06.2020
1639 Clear 28 1005 42 10000 5.1 110 16:40 12.06.2020
1640 Clear 28 1005 42 10000 5.1 110 16:19 12.06.2020
1641 Clear 28 1006 42 10000 5.1 0 15:45 12.06.2020
1642 Clear 27 1006 42 10000 5.1 0 15:20 12.06.2020
1643 Clear 27 1006 42 10000 6.7 90 14:44 12.06.2020
1644 Clouds 27 1006 42 10000 6.7 90 14:23 12.06.2020
1645 Clouds 26 1006 44 10000 5.7 100 13:59 12.06.2020
1646 Clouds 26 1006 44 10000 5.7 100 13:59 12.06.2020
1647 Clouds 26 1006 50 10000 4.6 90 13:40 12.06.2020
1648 Clouds 26 1007 53 10000 4.6 110 13:19 12.06.2020
1649 Clouds 24 1007 56 10000 4.6 90 12:40 12.06.2020
1650 Clouds 24 1007 56 10000 4.6 90 12:20 12.06.2020
1651 Clouds 24 1007 56 10000 4.6 80 11:57 12.06.2020
1652 Clouds 23 1007 60 10000 4.1 40 11:38 12.06.2020
1653 Clouds 23 1007 60 10000 4.1 40 11:19 12.06.2020
1654 Clouds 21 1008 68 10000 4.1 50 10:45 12.06.2020
1655 Clouds 20 1008 68 10000 4.1 50 10:24 12.06.2020
1656 Clouds 19 1009 77 10000 5.7 70 09:45 12.06.2020
1657 Clouds 18 1009 77 10000 5.7 70 09:21 12.06.2020
1658 Clouds 17 1008 82 10000 4.6 30 08:45 12.06.2020
1659 Clouds 16 1008 82 10000 4.6 30 08:25 12.06.2020
1660 Clouds 16 1008 87 10000 2.1 50 07:44 12.06.2020
1661 Clouds 16 1008 87 10000 2.1 50 07:44 12.06.2020
1662 Clouds 15 1008 87 10000 2.1 50 07:26 12.06.2020
1663 Clouds 14 1008 93 10000 2.1 80 06:55 12.06.2020
1664 Clouds 13 1008 93 10000 2.1 70 06:30 12.06.2020
1665 Clouds 12 1008 93 10000 2.6 50 05:55 12.06.2020
1666 Clouds 12 1008 93 10000 2.1 40 05:37 12.06.2020
1667 Clouds 12 1008 93 10000 2.1 40 05:19 12.06.2020
1668 Clouds 14 1009 93 10000 1.5 70 03:24 12.06.2020
1669 Clouds 13 1009 87 10000 1.5 60 01:56 12.06.2020
1670 Clouds 14 1009 93 10000 1.5 30 01:29 12.06.2020
1671 Clouds 14 1010 100 10000 1.5 60 00:47 12.06.2020
1672 Clouds 15 1010 93 10000 0.5 0 00:26 12.06.2020
1673 Clouds 15 1010 93 10000 1 0 23:59 11.06.2020
1674 Clouds 15 1010 93 10000 1 0 23:59 11.06.2020
1675 Clouds 15 1010 87 10000 1.5 70 23:41 11.06.2020
1676 Clouds 15 1010 87 10000 1.5 70 23:22 11.06.2020
1677 Clouds 15 1009 87 10000 2.6 80 22:59 11.06.2020
1678 Clouds 16 1009 82 10000 3.6 50 22:39 11.06.2020
1679 Clouds 16 1009 82 10000 3.6 50 22:20 11.06.2020
1680 Clouds 16 1009 82 10000 3.6 50 22:20 11.06.2020
1681 Clouds 17 1009 77 10000 3.6 30 21:57 11.06.2020
1682 Clouds 17 1009 77 10000 3.1 40 21:38 11.06.2020
1683 Clouds 18 1009 77 10000 3.1 40 21:20 11.06.2020
1684 Clouds 18 1009 72 10000 3.1 60 20:55 11.06.2020
1685 Clouds 18 1009 72 10000 3.6 60 20:37 11.06.2020
1686 Clouds 18 1009 72 10000 3.1 70 20:18 11.06.2020
1687 Rain 18 1009 68 10000 3.6 80 19:41 11.06.2020
1688 Rain 18 1009 68 10000 3.6 80 19:22 11.06.2020
1689 Clouds 18 1009 72 10000 3.1 70 18:43 11.06.2020
1690 Clouds 18 1009 77 10000 3.1 80 18:25 11.06.2020
1691 Clouds 18 1009 72 10000 1.5 0 17:57 11.06.2020
1692 Clouds 18 1009 72 10000 1.5 0 17:39 11.06.2020
1693 Clouds 18 1009 77 10000 2.1 100 17:20 11.06.2020
1694 Clouds 18 1009 77 10000 3.6 110 16:59 11.06.2020
1695 Clouds 18 1009 77 10000 3.6 110 16:41 11.06.2020
1696 Clouds 18 1009 68 10000 2.1 60 16:23 11.06.2020
1697 Clouds 18 1010 63 10000 3.6 60 15:57 11.06.2020
1698 Clouds 18 1010 63 10000 3.6 60 15:38 11.06.2020
1699 Clouds 18 1010 68 10000 4.6 70 15:19 11.06.2020
1700 Clouds 18 1010 63 10000 3.1 40 14:43 11.06.2020
1701 Clouds 18 1010 59 10000 2.6 40 14:21 11.06.2020
1702 Clouds 18 1010 68 10000 3.1 60 13:57 11.06.2020
1703 Clouds 18 1010 68 10000 3.1 60 13:39 11.06.2020
1704 Clouds 18 1010 68 10000 2.1 80 13:20 11.06.2020
1705 Clouds 17 1010 72 10000 2.6 110 12:56 11.06.2020
1706 Clouds 17 1010 72 10000 2.6 110 12:38 11.06.2020
1707 Clouds 17 1010 72 10000 2.1 0 12:19 11.06.2020
1708 Clouds 17 1010 77 10000 2.1 50 11:57 11.06.2020
1709 Clouds 17 1010 77 10000 2.1 50 11:38 11.06.2020
1710 Clouds 17 1010 77 10000 3.1 10 11:20 11.06.2020
1711 Clouds 16 1010 82 10000 3.1 30 10:57 11.06.2020
1712 Clouds 16 1010 82 10000 3.1 30 10:38 11.06.2020
1713 Rain 15 1010 87 10000 2.6 20 10:18 11.06.2020
1714 Rain 15 1010 82 10000 3.6 30 09:41 11.06.2020
1715 Clouds 15 1011 82 10000 3.6 20 09:23 11.06.2020
1716 Rain 14 1011 87 10000 2.6 30 08:44 11.06.2020
1717 Rain 14 1010 87 10000 2.6 30 08:20 11.06.2020
1718 Rain 14 1010 93 10000 2.6 10 07:57 11.06.2020
1719 Rain 14 1010 93 10000 2.6 10 07:39 11.06.2020
1720 Rain 14 1010 93 10000 3.1 10 07:20 11.06.2020
1721 Rain 13 1011 93 10000 2.6 10 06:28 11.06.2020
1722 Rain 13 1011 87 10000 3.1 20 05:36 11.06.2020
1723 Rain 13 1011 100 10000 1 0 03:54 11.06.2020
1724 Rain 14 1011 93 10000 2.1 330 03:23 11.06.2020
1725 Rain 14 1012 87 10000 1.5 60 02:32 11.06.2020
1726 Rain 14 1012 87 10000 2.1 50 01:51 11.06.2020
1727 Rain 15 1012 82 10000 2.6 30 01:25 11.06.2020
1728 Rain 15 1012 77 10000 2.6 30 00:50 11.06.2020
1729 Rain 15 1012 77 10000 3.6 20 00:29 11.06.2020
1730 Clouds 16 1012 67 10000 3.6 10 23:47 10.06.2020
1731 Clouds 17 1012 67 10000 3.6 10 23:27 10.06.2020
1732 Clouds 17 1012 67 10000 3.6 10 22:57 10.06.2020
1733 Clouds 17 1012 67 10000 3.6 10 22:38 10.06.2020
1734 Clouds 17 1012 63 10000 3.6 10 22:20 10.06.2020
1735 Clouds 17 1012 63 10000 4.1 20 21:58 10.06.2020
1736 Clouds 18 1012 63 10000 4.1 20 21:40 10.06.2020
1737 Clouds 18 1012 59 10000 4.6 40 21:18 10.06.2020
1738 Clouds 18 1012 59 10000 3.6 20 20:57 10.06.2020
1739 Clouds 19 1012 59 10000 4.1 10 20:39 10.06.2020
1740 Clouds 19 1012 59 10000 4.1 10 20:21 10.06.2020
1741 Clouds 19 1012 59 10000 4.1 20 19:56 10.06.2020
1742 Clouds 19 1012 59 10000 4.1 20 19:37 10.06.2020
1743 Clouds 19 1012 55 10000 4.6 30 19:18 10.06.2020
1744 Clouds 19 1012 55 10000 4.6 20 18:41 10.06.2020
1745 Clouds 19 1012 59 10000 4.1 30 18:20 10.06.2020
1746 Clouds 19 1012 56 10000 4.6 40 17:58 10.06.2020
1747 Clouds 19 1012 56 10000 4.6 40 17:40 10.06.2020
1748 Clouds 18 1013 59 10000 5.7 30 17:20 10.06.2020
1749 Clouds 18 1013 59 10000 4.6 50 16:58 10.06.2020
1750 Clouds 18 1013 59 10000 4.6 50 16:40 10.06.2020
1751 Clouds 18 1013 59 10000 4.6 30 16:20 10.06.2020
1752 Clouds 18 1013 59 10000 4.6 30 16:20 10.06.2020
1753 Clouds 18 1013 59 10000 4.6 30 16:20 10.06.2020
1754 Clouds 17 1013 55 10000 5.7 20 15:56 10.06.2020
1755 Clouds 17 1013 55 10000 5.7 20 15:37 10.06.2020
1756 Clouds 17 1013 59 10000 5.7 20 15:18 10.06.2020
1757 Clouds 17 1014 67 10000 5.1 20 14:40 10.06.2020
1758 Clouds 16 1014 72 10000 5.7 20 14:21 10.06.2020
1759 Clouds 16 1014 72 10000 4.1 10 13:56 10.06.2020
1760 Clouds 16 1014 72 10000 4.1 10 13:38 10.06.2020
1761 Clouds 15 1014 82 10000 3.1 10 13:20 10.06.2020
1762 Clouds 15 1014 82 10000 3.1 10 12:41 10.06.2020
1763 Clouds 15 1014 82 10000 3.1 10 12:18 10.06.2020
1764 Clouds 14 1014 87 10000 4.1 20 11:55 10.06.2020
1765 Clouds 14 1014 87 10000 4.1 20 11:37 10.06.2020
1766 Clouds 14 1014 87 10000 4.1 10 11:19 10.06.2020
1767 Rain 14 1015 87 10000 4.1 360 10:41 10.06.2020
1768 Drizzle 14 1015 87 6000 4.1 10 10:22 10.06.2020
1769 Drizzle 14 1015 87 6000 4.1 10 09:57 10.06.2020
1770 Drizzle 14 1015 87 6000 4.1 10 09:39 10.06.2020
1771 Rain 14 1015 87 10000 6.2 20 09:20 10.06.2020
1772 Clouds 14 1014 77 10000 4.6 20 08:42 10.06.2020
1773 Clouds 14 1015 77 10000 4.6 20 08:23 10.06.2020
1774 Clouds 14 1015 77 10000 5.1 20 07:43 10.06.2020
1775 Clouds 14 1014 77 10000 5.1 20 07:23 10.06.2020
1776 Clouds 14 1015 77 10000 5.1 20 06:59 10.06.2020
1777 Clouds 14 1014 82 10000 5.1 20 06:38 10.06.2020
1778 Clouds 14 1014 82 10000 5.1 20 06:18 10.06.2020
1779 Clouds 14 1014 82 10000 4.1 20 05:51 10.06.2020
1780 Rain 13 1014 82 10000 5.7 20 05:19 10.06.2020
1781 Rain 14 1015 77 10000 4.1 20 04:29 10.06.2020
1782 Rain 14 1015 77 10000 3.6 20 02:46 10.06.2020
1783 Rain 14 1016 77 10000 4.1 10 01:51 10.06.2020
1784 Rain 14 1016 77 10000 4.1 360 01:28 10.06.2020
1785 Clouds 15 1016 67 10000 4.1 40 00:39 10.06.2020
1786 Clouds 15 1016 67 10000 4.1 40 00:21 10.06.2020
1787 Rain 15 1016 67 10000 4.1 60 23:55 09.06.2020
1788 Rain 14 1016 67 10000 4.1 60 23:36 09.06.2020
1789 Rain 15 1016 72 10000 3.6 60 23:18 09.06.2020
1790 Rain 15 1016 72 10000 4.1 60 22:54 09.06.2020
1791 Rain 15 1016 72 10000 4.1 60 22:36 09.06.2020
1792 Rain 15 1016 67 10000 5.7 60 22:18 09.06.2020
1793 Clouds 16 1015 67 10000 2.6 40 21:54 09.06.2020
1794 Rain 16 1015 77 10000 2.6 50 21:36 09.06.2020
1795 Clouds 16 1015 77 10000 2.6 50 21:18 09.06.2020
1796 Clouds 16 1015 77 10000 3.6 60 20:55 09.06.2020
1797 Clouds 16 1015 77 10000 3.6 60 20:37 09.06.2020
1798 Rain 16 1015 67 10000 2.6 60 20:18 09.06.2020
1799 Rain 16 1015 77 10000 3.1 60 19:54 09.06.2020
1800 Rain 16 1015 77 10000 3.1 60 19:36 09.06.2020
1801 Rain 17 1015 63 10000 3.6 60 19:18 09.06.2020
1802 Rain 18 1015 55 10000 5.7 90 18:43 09.06.2020
1803 Rain 18 1015 55 10000 4.6 100 18:25 09.06.2020
1804 Clouds 19 1015 52 10000 3.1 30 17:57 09.06.2020
1805 Clouds 19 1015 52 10000 3.1 30 17:38 09.06.2020
1806 Clouds 19 1015 52 10000 3.1 30 17:38 09.06.2020
1807 Clouds 19 1015 52 10000 3.6 20 17:20 09.06.2020
1808 Clouds 20 1015 45 10000 4.1 50 16:55 09.06.2020
1809 Clouds 20 1015 45 10000 4.1 50 16:36 09.06.2020
1810 Clouds 19 1015 52 10000 3.6 40 16:18 09.06.2020
1811 Clouds 19 1015 52 10000 4.1 50 15:40 09.06.2020
1812 Clouds 19 1015 52 10000 4.1 50 15:21 09.06.2020
1813 Clouds 19 1016 52 10000 3.6 60 14:57 09.06.2020
1814 Clouds 19 1016 55 10000 3.6 60 14:37 09.06.2020
1815 Clouds 18 1016 55 10000 3.6 60 14:18 09.06.2020
1816 Clouds 18 1016 55 10000 3.1 60 13:54 09.06.2020
1817 Clouds 18 1016 55 10000 3.1 60 13:36 09.06.2020
1818 Clouds 18 1016 55 10000 3.1 60 13:36 09.06.2020
1819 Rain 18 1016 55 10000 2.1 50 13:18 09.06.2020
1820 Rain 18 1016 55 10000 3.1 60 12:41 09.06.2020
1821 Rain 18 1016 55 10000 3.1 60 12:20 09.06.2020
1822 Clouds 18 1016 55 10000 3.6 60 11:56 09.06.2020
1823 Clouds 18 1016 55 10000 3.1 50 11:38 09.06.2020
1824 Clouds 18 1016 55 10000 3.1 50 11:19 09.06.2020
1825 Clouds 16 1015 59 10000 3.6 40 10:54 09.06.2020
1826 Clouds 17 1015 59 10000 3.6 40 10:36 09.06.2020
1827 Clouds 16 1015 63 10000 4.1 40 10:18 09.06.2020
1828 Clouds 16 1015 63 10000 4.6 30 09:40 09.06.2020
1829 Clouds 14 1015 67 10000 4.1 30 09:19 09.06.2020
1830 Clouds 14 1015 67 10000 3.1 30 08:40 09.06.2020
1831 Clouds 14 1015 71 10000 3.1 40 08:21 09.06.2020
1832 Clouds 13 1015 71 10000 3.6 30 07:59 09.06.2020
1833 Clouds 13 1015 71 10000 3.6 30 07:36 09.06.2020
1834 Clouds 13 1015 76 10000 6.2 20 07:18 09.06.2020
1835 Clouds 12 1014 76 10000 5.1 30 06:51 09.06.2020
1836 Clouds 11 1014 76 10000 4.6 40 06:27 09.06.2020
1837 Clouds 12 1014 87 10000 1.5 70 04:35 09.06.2020
1838 Clouds 12 1014 81 10000 1 0 02:52 09.06.2020
1839 Clouds 13 1015 81 10000 1.5 10 01:40 09.06.2020
1840 Clouds 13 1015 81 10000 1.5 10 01:19 09.06.2020
1841 Clouds 13 1014 81 10000 2.1 340 00:44 09.06.2020
1842 Clouds 13 1014 81 10000 2.6 350 00:20 09.06.2020
1843 Clouds 13 1014 81 10000 2.1 360 23:54 08.06.2020
1844 Clouds 14 1014 82 10000 2.1 360 23:36 08.06.2020
1845 Clouds 14 1014 82 10000 2.1 360 23:18 08.06.2020
1846 Clouds 15 1014 76 10000 2.6 360 22:41 08.06.2020
1847 Clear 15 1014 72 10000 3.1 10 22:21 08.06.2020
1848 Clear 16 1013 67 10000 3.1 10 21:58 08.06.2020
1849 Clear 17 1013 67 10000 3.1 10 21:39 08.06.2020
1850 Clear 18 1013 63 10000 2.6 10 21:21 08.06.2020
1851 Clear 18 1013 52 10000 2.6 0 20:56 08.06.2020
1852 Clear 19 1013 52 10000 2.6 0 20:37 08.06.2020
1853 Clouds 19 1013 52 10000 3.6 360 20:19 08.06.2020
1854 Clouds 19 1013 52 10000 3.6 330 19:44 08.06.2020
1855 Clouds 19 1013 45 10000 2.1 350 19:22 08.06.2020
1856 Rain 20 1013 35 10000 2.1 0 18:59 08.06.2020
1857 Rain 20 1013 42 10000 3.1 140 18:40 08.06.2020
1858 Rain 21 1013 42 10000 3.1 140 18:18 08.06.2020
1859 Rain 21 1013 40 10000 4.6 130 17:55 08.06.2020
1860 Rain 21 1013 40 10000 4.6 130 17:37 08.06.2020
1861 Rain 21 1013 40 10000 4.6 130 17:37 08.06.2020
1862 Clouds 21 1013 45 10000 4.6 130 17:18 08.06.2020
1863 Clouds 21 1013 45 10000 5.7 130 16:44 08.06.2020
1864 Clouds 21 1013 32 10000 1 0 16:23 08.06.2020
1865 Clouds 21 1013 35 10000 2.1 0 15:57 08.06.2020
1866 Clouds 21 1013 35 10000 2.1 0 15:39 08.06.2020
1867 Clouds 21 1013 32 10000 1.5 0 15:19 08.06.2020
1868 Clouds 21 1013 40 10000 1 0 14:42 08.06.2020
1869 Clouds 22 1013 42 10000 2.6 260 14:23 08.06.2020
1870 Clouds 22 1013 40 10000 2.1 0 13:57 08.06.2020
1871 Clouds 21 1013 40 10000 2.1 0 13:38 08.06.2020
1872 Clouds 21 1013 34 10000 2.1 0 13:19 08.06.2020
1873 Clouds 21 1013 40 10000 1.5 0 12:40 08.06.2020
1874 Clouds 20 1013 45 10000 2.1 140 12:19 08.06.2020
1875 Clouds 19 1013 48 10000 1.5 0 11:57 08.06.2020
1876 Clouds 18 1013 52 10000 2.1 90 11:38 08.06.2020
1877 Clouds 19 1013 48 10000 1.5 0 11:38 08.06.2020
1878 Clouds 18 1013 52 10000 2.1 90 11:20 08.06.2020
1879 Clouds 18 1013 52 10000 1.5 0 10:56 08.06.2020
1880 Clouds 18 1013 52 10000 1.5 0 10:37 08.06.2020
1881 Clouds 16 1013 59 10000 1.5 20 10:19 08.06.2020
1882 Clouds 15 1013 72 10000 1.5 100 09:43 08.06.2020
1883 Clouds 14 1013 71 10000 1.5 20 09:23 08.06.2020
1884 Clouds 13 1013 81 10000 1.5 40 08:50 08.06.2020
1885 Clear 12 1013 81 10000 2.1 10 08:24 08.06.2020
1886 Clear 11 1013 81 10000 2.1 50 07:56 08.06.2020
1887 Clear 9 1013 93 10000 1.5 330 07:38 08.06.2020
1888 Clear 9 1013 93 10000 1.5 330 07:19 08.06.2020
1889 Clear 8 1013 93 10000 2.6 70 06:39 08.06.2020
1890 Clear 8 1012 100 10000 2.1 10 05:55 08.06.2020
1891 Clear 8 1012 93 10000 2.1 360 04:59 08.06.2020
1892 Clear 9 1012 100 10000 1 210 03:24 08.06.2020
1893 Clear 9 1012 100 10000 1 210 03:24 08.06.2020
1894 Clouds 10 1012 93 10000 0.5 0 02:26 08.06.2020
1895 Clouds 11 1012 87 10000 1.5 230 01:42 08.06.2020
1896 Clouds 12 1012 76 10000 2.1 350 00:57 08.06.2020
1897 Clouds 12 1012 76 10000 2.1 340 00:25 08.06.2020
1898 Clouds 14 1012 67 10000 1 0 23:39 07.06.2020
1899 Clouds 14 1012 67 10000 1 0 23:19 07.06.2020
1900 Clouds 14 1011 71 10000 1.5 330 22:57 07.06.2020
1901 Clouds 15 1011 71 10000 1.5 330 22:37 07.06.2020
1902 Clouds 15 1011 67 10000 1.5 330 22:18 07.06.2020
1903 Clouds 16 1011 63 10000 1.5 310 21:58 07.06.2020
1904 Clouds 16 1011 63 10000 1.5 310 21:58 07.06.2020
1905 Clouds 17 1011 63 10000 1.5 310 21:37 07.06.2020
1906 Clouds 17 1010 63 10000 2.1 270 21:19 07.06.2020
1907 Clouds 17 1010 55 10000 2.6 260 20:40 07.06.2020
1908 Clouds 18 1010 51 10000 3.1 260 20:21 07.06.2020
1909 Clouds 18 1010 45 10000 3.6 300 19:59 07.06.2020
1910 Clouds 18 1010 45 10000 3.6 300 19:41 07.06.2020
1911 Clouds 18 1010 45 10000 3.6 280 19:21 07.06.2020
1912 Clouds 18 1009 42 10000 4.6 250 19:00 07.06.2020
1913 Clouds 19 1009 42 10000 4.6 250 18:39 07.06.2020
1914 Clouds 19 1009 40 10000 5.7 240 18:21 07.06.2020
1915 Clouds 19 1009 40 10000 5.7 240 18:21 07.06.2020
1916 Clouds 18 1009 45 10000 4.1 270 17:58 07.06.2020
1917 Clouds 18 1009 45 10000 4.1 270 17:40 07.06.2020
1918 Clouds 18 1009 45 10000 4.1 240 17:21 07.06.2020
1919 Clouds 18 1009 45 10000 4.6 260 16:43 07.06.2020
1920 Clouds 19 1009 45 10000 4.1 260 16:22 07.06.2020
1921 Clouds 18 1009 45 10000 4.6 270 15:44 07.06.2020
1922 Clouds 18 1009 48 10000 5.1 270 15:22 07.06.2020
1923 Clouds 18 1009 48 10000 4.6 250 14:59 07.06.2020
1924 Clouds 18 1009 48 10000 4.6 250 14:59 07.06.2020
1925 Clouds 18 1009 48 10000 4.6 250 14:36 07.06.2020
1926 Clouds 18 1009 48 10000 6.2 270 14:18 07.06.2020
1927 Clouds 18 1008 45 10000 5.1 260 13:43 07.06.2020
1928 Clouds 18 1008 45 10000 5.1 260 13:43 07.06.2020
1929 Clouds 18 1008 45 10000 5.1 260 13:43 07.06.2020
1930 Clouds 18 1008 45 10000 5.1 260 13:43 07.06.2020
1931 Clouds 17 1008 45 10000 4.6 250 13:19 07.06.2020
1932 Clouds 16 1008 48 10000 5.1 230 12:43 07.06.2020
1933 Clouds 17 1008 51 10000 6.2 220 12:25 07.06.2020
1934 Clouds 16 1008 48 10000 6.2 240 11:55 07.06.2020
1935 Clouds 16 1008 48 10000 6.2 240 11:55 07.06.2020
1936 Clouds 16 1008 48 10000 6.2 240 11:37 07.06.2020
1937 Clouds 16 1008 48 10000 6.2 220 11:19 07.06.2020
1938 Clouds 16 1007 51 10000 7.2 250 10:54 07.06.2020
1939 Clouds 16 1007 51 10000 7.2 250 10:36 07.06.2020
1940 Clouds 16 1007 51 10000 4.1 240 10:18 07.06.2020
1941 Clouds 15 1007 54 10000 5.1 250 09:54 07.06.2020
1942 Clouds 15 1007 54 10000 5.1 250 09:36 07.06.2020
1943 Clouds 15 1007 71 10000 4.1 230 09:18 07.06.2020
1944 Clouds 14 1006 76 10000 3.1 220 08:41 07.06.2020
1945 Clouds 14 1006 76 10000 3.1 220 08:41 07.06.2020
1946 Clouds 13 1006 82 10000 3.1 200 08:23 07.06.2020
1947 Clouds 13 1006 87 10000 1.5 250 07:44 07.06.2020
1948 Clouds 13 987 71 0 0.89 143 07:26 07.06.2020
1949 Clouds 12 1005 93 10000 2.1 220 06:25 07.06.2020
1950 Clouds 12 1005 100 10000 1.5 210 05:34 07.06.2020
1951 Clouds 12 1005 93 10000 1.5 240 04:19 07.06.2020
1952 Clouds 13 1005 93 10000 1.5 190 02:30 07.06.2020
1953 Clouds 12 1005 93 10000 1.5 180 01:44 07.06.2020
1954 Clouds 12 1005 100 10000 1.5 210 01:24 07.06.2020
1955 Clouds 13 986 68 0 2.59 235 00:41 07.06.2020
1956 Clouds 13 1004 87 10000 2.6 180 00:18 07.06.2020
1957 Clouds 13 1004 76 10000 3.1 180 23:56 06.06.2020
1958 Clouds 14 1004 76 10000 3.1 180 23:36 06.06.2020
1959 Clouds 14 1004 71 10000 3.1 170 23:18 06.06.2020
1960 Clouds 15 1004 71 10000 2.6 190 22:55 06.06.2020
1961 Clouds 15 1004 71 10000 2.6 190 22:37 06.06.2020
1962 Clouds 15 1004 62 10000 2.1 190 22:18 06.06.2020
1963 Clouds 16 1004 54 10000 2.6 210 21:42 06.06.2020
1964 Clouds 17 1003 45 10000 4.6 230 21:22 06.06.2020
1965 Clouds 18 1003 42 10000 5.1 240 20:55 06.06.2020
1966 Clouds 18 1003 42 10000 5.1 240 20:36 06.06.2020
1967 Clouds 18 1003 39 10000 6.2 240 20:18 06.06.2020
1968 Clouds 18 1003 42 10000 7.7 230 19:56 06.06.2020
1969 Clouds 18 1003 48 10000 5.7 220 19:36 06.06.2020
1970 Clouds 18 1003 48 10000 5.7 220 19:18 06.06.2020
1971 Clouds 18 1003 51 10000 7.2 220 18:42 06.06.2020
1972 Clouds 18 1003 48 10000 4.6 260 18:24 06.06.2020
1973 Clouds 18 1003 48 10000 4.6 260 18:24 06.06.2020
1974 Clouds 17 1004 51 10000 4.6 260 17:58 06.06.2020
1975 Clouds 18 1004 51 10000 4.6 260 17:39 06.06.2020
1976 Rain 17 1004 62 10000 8.2 270 17:18 06.06.2020
1977 Rain 17 1003 51 10000 7.7 210 16:41 06.06.2020
1978 Rain 17 1003 59 10000 5.1 200 16:22 06.06.2020
1979 Rain 16 1003 67 10000 6.7 230 15:56 06.06.2020
1980 Rain 14 1003 67 10000 6.7 230 15:37 06.06.2020
1981 Rain 14 1003 76 10000 6.2 250 15:19 06.06.2020
1982 Rain 16 1002 67 10000 7.7 200 14:43 06.06.2020
1983 Rain 16 1003 72 10000 6.2 180 14:24 06.06.2020
1984 Clouds 16 1003 72 10000 7.7 180 13:58 06.06.2020
1985 Clouds 15 1003 72 10000 7.7 180 13:40 06.06.2020
1986 Clouds 15 1002 76 10000 7.7 160 13:18 06.06.2020
1987 Clouds 15 1003 76 10000 5.7 180 12:43 06.06.2020
1988 Clouds 15 1003 76 10000 5.7 180 12:24 06.06.2020
1989 Clouds 14 1003 82 10000 6.2 180 11:58 06.06.2020
1990 Clouds 14 1003 82 10000 6.2 180 11:39 06.06.2020
1991 Clouds 13 1003 82 10000 5.1 190 11:20 06.06.2020
1992 Clouds 13 1003 82 10000 4.6 200 10:58 06.06.2020
1993 Clouds 13 1003 82 10000 4.6 200 10:58 06.06.2020
1994 Clouds 13 1003 82 10000 4.6 200 10:39 06.06.2020
1995 Clouds 12 1003 87 10000 5.1 190 10:21 06.06.2020
1996 Rain 12 1003 87 10000 4.6 200 09:58 06.06.2020
1997 Rain 12 1003 87 10000 4.6 200 09:40 06.06.2020
1998 Rain 12 1002 93 10000 4.6 190 09:21 06.06.2020
1999 Clouds 11 1002 93 10000 4.6 200 08:43 06.06.2020
2000 Clouds 11 1002 100 10000 4.1 210 08:23 06.06.2020
2001 Clouds 11 1001 93 10000 2.6 210 07:46 06.06.2020
2002 Rain 10 1001 100 10000 3.1 220 07:23 06.06.2020
2003 Rain 10 1001 93 10000 2.6 200 06:52 06.06.2020
2004 Rain 10 1001 100 10000 3.1 180 06:34 06.06.2020
2005 Rain 10 1001 93 10000 2.1 200 05:59 06.06.2020
2006 Rain 9 1001 100 10000 1 0 05:31 06.06.2020
2007 Rain 9 1001 93 10000 0.5 250 04:47 06.06.2020
2008 Clear 9 1001 93 10000 3.6 190 03:28 06.06.2020
2009 Clouds 9 1001 93 10000 2.1 210 01:58 06.06.2020
2010 Clouds 9 1001 81 10000 3.6 210 01:21 06.06.2020
2011 Clouds 9 1001 81 10000 3.1 210 00:56 06.06.2020
2012 Clouds 10 1001 81 10000 3.1 210 00:37 06.06.2020
2013 Clouds 10 1001 76 10000 4.6 220 00:19 06.06.2020
2014 Clouds 10 1001 87 10000 3.6 200 23:39 05.06.2020
2015 Clouds 11 1000 81 10000 4.6 210 23:19 05.06.2020
2016 Clouds 11 1000 71 10000 5.1 240 22:56 05.06.2020
2017 Clouds 11 1000 71 10000 5.1 240 22:37 05.06.2020
2018 Rain 11 999 71 10000 9.8 270 22:19 05.06.2020
2019 Rain 11 999 71 10000 9.8 270 22:19 05.06.2020
2020 Rain 12 998 81 10000 5.7 220 21:43 05.06.2020
2021 Rain 12 998 87 10000 7.2 220 21:23 05.06.2020
2022 Clouds 12 997 87 10000 6.7 210 20:58 05.06.2020
2023 Clouds 12 997 87 10000 6.7 210 20:40 05.06.2020
2024 Rain 12 997 93 10000 6.2 210 20:21 05.06.2020
2025 Rain 13 996 93 10000 7.7 200 19:44 05.06.2020
2026 Rain 12 996 93 10000 5.7 210 19:24 05.06.2020
2027 Rain 13 996 93 10000 6.2 220 18:58 05.06.2020
2028 Rain 13 996 93 10000 6.2 220 18:39 05.06.2020
2029 Rain 13 996 87 10000 8.2 200 18:20 05.06.2020
2030 Rain 13 996 76 10000 9.3 200 17:58 05.06.2020
2031 Rain 13 996 76 10000 9.3 200 17:58 05.06.2020
2032 Rain 13 996 76 10000 9.3 200 17:40 05.06.2020
2033 Rain 13 996 82 10000 7.2 200 17:20 05.06.2020
2034 Rain 13 996 76 10000 7.2 200 16:43 05.06.2020
2035 Rain 13 996 82 10000 6.2 210 16:24 05.06.2020
2036 Rain 13 997 76 10000 6.7 200 15:58 05.06.2020
2037 Rain 13 997 76 10000 6.7 200 15:38 05.06.2020
2038 Rain 14 997 62 10000 6.7 200 15:20 05.06.2020
2039 Rain 15 997 62 10000 8.2 180 14:57 05.06.2020
2040 Rain 15 997 62 10000 8.2 180 14:39 05.06.2020
2041 Rain 15 997 55 10000 8.2 200 14:21 05.06.2020
2042 Clouds 15 997 58 10000 6.2 190 13:44 05.06.2020
2043 Rain 15 997 58 10000 7.2 200 13:26 05.06.2020
2044 Rain 15 998 58 10000 6.2 200 12:56 05.06.2020
2045 Rain 15 998 58 10000 6.2 200 12:37 05.06.2020
2046 Rain 15 998 58 10000 5.1 190 12:18 05.06.2020
2047 Clouds 14 998 62 10000 4.6 190 11:42 05.06.2020
2048 Clouds 14 998 62 10000 4.1 190 11:23 05.06.2020
2049 Clouds 14 999 62 10000 3.6 220 10:58 05.06.2020
2050 Clouds 13 999 62 10000 3.6 220 10:39 05.06.2020
2051 Clouds 13 999 66 10000 4.1 210 10:19 05.06.2020
2052 Clouds 13 999 71 10000 4.6 220 09:57 05.06.2020
2053 Clouds 12 999 71 10000 4.6 220 09:37 05.06.2020
2054 Clouds 12 999 71 10000 4.1 230 09:19 05.06.2020
2055 Rain 12 999 81 10000 3.1 210 08:57 05.06.2020
2056 Rain 11 999 81 10000 3.1 210 08:38 05.06.2020
2057 Clouds 11 999 81 10000 3.6 230 08:18 05.06.2020
2058 Clouds 11 999 76 10000 3.6 260 07:49 05.06.2020
2059 Clouds 11 999 81 10000 2.6 240 07:31 05.06.2020
2060 Clouds 10 999 81 10000 3.1 260 06:45 05.06.2020
2061 Clouds 11 998 76 10000 3.6 260 05:23 05.06.2020
2062 Clouds 11 998 81 10000 3.1 250 04:27 05.06.2020
2063 Clouds 11 998 87 10000 2.6 220 03:29 05.06.2020
2064 Clouds 11 998 87 10000 3.6 250 02:29 05.06.2020
2065 Clouds 12 998 87 10000 2.1 220 01:58 05.06.2020
2066 Clouds 12 998 87 10000 2.1 230 01:31 05.06.2020
2067 Clouds 12 997 81 10000 3.1 260 00:44 05.06.2020
2068 Clouds 12 997 81 10000 3.1 280 00:22 05.06.2020
2069 Clouds 13 997 76 10000 4.6 270 23:55 04.06.2020
2070 Clouds 13 997 76 10000 4.6 270 23:36 04.06.2020
2071 Clouds 13 997 87 10000 5.1 290 23:18 04.06.2020
2072 Clouds 13 997 82 10000 2.1 270 22:42 04.06.2020
2073 Clouds 13 996 87 10000 3.1 280 22:21 04.06.2020
2074 Clouds 13 996 87 10000 3.1 300 21:58 04.06.2020
2075 Clouds 14 996 87 10000 4.6 300 21:38 04.06.2020
2076 Clouds 14 996 87 10000 4.6 300 21:20 04.06.2020
2077 Rain 15 995 87 10000 6.2 310 20:57 04.06.2020
2078 Rain 15 995 87 10000 6.2 310 20:38 04.06.2020
2079 Thunderstorm 15 995 93 5000 4.1 320 20:19 04.06.2020
2080 Rain 16 995 87 10000 1 0 19:55 04.06.2020
2081 Clouds 16 995 82 10000 2.1 220 19:37 04.06.2020
2082 Clouds 16 995 82 10000 2.1 220 19:18 04.06.2020
2083 Clouds 16 995 87 10000 3.1 250 18:39 04.06.2020
2084 Clouds 17 994 82 10000 2.6 230 18:20 04.06.2020
2085 Rain 16 995 93 10000 1.5 310 17:58 04.06.2020
2086 Rain 16 995 93 10000 1.5 310 17:40 04.06.2020
2087 Rain 16 995 87 6000 2.6 290 17:19 04.06.2020
2088 Rain 17 995 87 5000 6.7 270 16:41 04.06.2020
2089 Rain 18 995 82 10000 2.1 190 16:20 04.06.2020
2090 Rain 18 995 77 10000 2.1 240 15:46 04.06.2020
2091 Rain 17 995 77 10000 2.1 0 15:27 04.06.2020
2092 Clouds 17 995 82 10000 1 0 14:58 04.06.2020
2093 Clouds 17 995 82 10000 1 0 14:38 04.06.2020
2094 Clouds 17 995 82 10000 1 0 14:19 04.06.2020
2095 Clouds 16 995 87 10000 3.1 340 13:43 04.06.2020
2096 Rain 15 996 93 10000 2.6 310 13:21 04.06.2020
2097 Rain 15 996 100 5000 2.6 330 12:59 04.06.2020
2098 Rain 16 996 100 5000 2.6 330 12:41 04.06.2020
2099 Rain 16 996 93 4000 1.5 0 12:23 04.06.2020
2100 Rain 17 996 87 10000 1 0 11:59 04.06.2020
2101 Rain 17 996 87 10000 1 0 11:38 04.06.2020
2102 Clouds 17 996 87 10000 1.5 210 11:20 04.06.2020
2103 Rain 17 996 87 10000 2.1 200 10:57 04.06.2020
2104 Clouds 16 996 87 10000 1.5 210 10:38 04.06.2020
2105 Clouds 16 996 87 10000 1.5 210 10:19 04.06.2020
2106 Clouds 16 996 87 10000 1.5 210 10:19 04.06.2020
2107 Clouds 16 996 82 10000 1 0 09:43 04.06.2020
2108 Clouds 15 996 93 10000 1.5 310 09:24 04.06.2020
2109 Rain 15 996 87 10000 3.1 290 08:46 04.06.2020
2110 Rain 15 997 87 10000 3.1 290 08:27 04.06.2020
2111 Rain 15 997 77 10000 4.1 270 07:52 04.06.2020
2112 Rain 15 997 77 10000 2.1 250 07:29 04.06.2020
2113 Clouds 16 997 77 10000 3.6 280 06:44 04.06.2020
2114 Rain 15 997 77 10000 4.6 270 06:26 04.06.2020
2115 Rain 15 996 77 10000 3.1 340 05:39 04.06.2020
2116 Rain 15 997 82 10000 2.1 330 05:20 04.06.2020
2117 Rain 17 998 87 10000 1.5 180 03:28 04.06.2020
2118 Clouds 16 999 82 10000 2.1 230 01:57 04.06.2020
2119 Clouds 16 999 77 10000 1.5 200 01:20 04.06.2020
2120 Clouds 17 999 82 10000 1 0 00:50 04.06.2020
2121 Rain 19 1000 77 10000 0.5 240 23:56 03.06.2020
2122 Clouds 19 1000 72 10000 2.1 210 23:36 03.06.2020
2123 Clouds 19 1000 72 10000 2.1 210 23:18 03.06.2020
2124 Rain 20 1001 63 10000 3.1 210 22:40 03.06.2020
2125 Rain 20 1001 63 10000 4.1 190 22:19 03.06.2020
2126 Rain 20 1000 56 10000 1 0 21:59 03.06.2020
2127 Rain 20 1000 56 10000 1 0 21:40 03.06.2020
2128 Rain 22 1001 49 10000 3.6 300 21:21 03.06.2020
2129 Rain 22 1001 49 10000 3.6 300 21:21 03.06.2020
2130 Rain 23 1001 43 10000 2.6 270 20:58 03.06.2020
2131 Rain 23 1001 43 10000 2.6 270 20:39 03.06.2020
2132 Rain 22 1001 43 10000 3.6 220 20:20 03.06.2020
2133 Rain 23 1001 38 10000 4.6 220 19:57 03.06.2020
2134 Clouds 23 1001 36 10000 5.1 230 19:38 03.06.2020
2135 Clouds 23 1001 36 10000 5.1 230 19:19 03.06.2020
2136 Clouds 24 1001 31 10000 2.6 0 18:56 03.06.2020
2137 Clouds 24 1001 31 10000 2.6 0 18:38 03.06.2020
2138 Clouds 25 1001 27 10000 4.1 330 18:18 03.06.2020
2139 Clouds 24 1001 36 10000 5.7 330 17:42 03.06.2020
2140 Clouds 24 1002 43 10000 5.7 330 17:22 03.06.2020
2141 Rain 25 1002 41 10000 7.2 300 16:57 03.06.2020
2142 Rain 26 1002 41 10000 7.2 300 16:39 03.06.2020
2143 Rain 26 1002 27 10000 4.1 320 16:19 03.06.2020
2144 Rain 27 1002 36 10000 4.6 350 15:54 03.06.2020
2145 Rain 27 1002 36 10000 4.6 350 15:36 03.06.2020
2146 Thunderstorm 27 1003 30 10000 2.1 250 15:18 03.06.2020
2147 Rain 27 1003 32 10000 2.6 0 14:42 03.06.2020
2148 Clouds 28 1003 34 10000 2.1 0 14:22 03.06.2020
2149 Clouds 27 1004 36 10000 2.1 0 13:40 03.06.2020
2150 Clouds 27 1004 36 10000 2.1 0 13:20 03.06.2020
2151 Clouds 27 1004 36 10000 2.1 0 13:20 03.06.2020
2152 Clouds 26 1005 41 10000 2.1 130 12:54 03.06.2020
2153 Clouds 26 1005 41 10000 2.1 130 12:36 03.06.2020
2154 Clouds 25 1005 41 10000 2.6 140 12:18 03.06.2020
2155 Clouds 24 1006 41 10000 1.5 0 11:41 03.06.2020
2156 Clouds 23 1006 43 10000 1.5 60 11:23 03.06.2020
2157 Clouds 23 1006 43 10000 1.5 0 10:43 03.06.2020
2158 Clouds 22 1006 46 10000 1 0 10:24 03.06.2020
2159 Clouds 20 1007 46 10000 1 0 09:55 03.06.2020
2160 Clouds 20 1007 46 10000 1 0 09:36 03.06.2020
2161 Clouds 19 1007 52 10000 1 0 09:18 03.06.2020
2162 Clouds 18 1007 59 10000 1 0 08:45 03.06.2020
2163 Clouds 17 1007 63 10000 1.5 360 08:21 03.06.2020
2164 Clouds 16 1007 76 10000 2.1 80 07:45 03.06.2020
2165 Clouds 16 1007 76 10000 2.1 80 07:24 03.06.2020
2166 Clouds 15 1007 81 10000 2.1 90 06:55 03.06.2020
2167 Clouds 15 1007 81 10000 2.1 90 06:34 03.06.2020
2168 Rain 13 1008 81 10000 1.5 70 05:49 03.06.2020
2169 Rain 13 1008 81 10000 1.5 70 05:23 03.06.2020
2170 Rain 15 1009 76 10000 0.5 0 04:18 03.06.2020
2171 Rain 14 1009 76 10000 0.5 0 03:40 03.06.2020
2172 Rain 15 1010 67 10000 1 0 02:25 03.06.2020
2173 Clouds 16 1010 67 10000 0.5 0 01:34 03.06.2020
2174 Rain 18 1011 67 10000 0.5 0 00:38 03.06.2020
2175 Rain 18 1011 63 10000 1 0 00:19 03.06.2020
2176 Rain 19 1011 63 10000 1 210 23:43 02.06.2020
2177 Rain 19 1011 55 10000 1.5 240 23:24 02.06.2020
2178 Rain 20 1011 55 10000 0.5 0 22:40 02.06.2020
2179 Rain 21 1011 49 10000 1 0 22:19 02.06.2020
2180 Rain 21 1011 46 10000 1.5 220 21:57 02.06.2020
2181 Rain 22 1011 46 10000 1.5 220 21:39 02.06.2020
2182 Clouds 23 1012 40 10000 1.5 260 21:21 02.06.2020
2183 Clouds 25 1012 41 10000 1.5 200 20:59 02.06.2020
2184 Clouds 25 1012 41 10000 1.5 200 20:59 02.06.2020
2185 Clouds 25 1012 41 10000 1.5 200 20:41 02.06.2020
2186 Clouds 26 1012 34 10000 2.1 190 20:22 02.06.2020
2187 Clouds 27 1012 28 10000 2.1 180 19:46 02.06.2020
2188 Clouds 28 1012 26 10000 2.1 220 19:27 02.06.2020
2189 Clouds 28 1013 26 10000 2.6 100 18:59 02.06.2020
2190 Clouds 28 1013 26 10000 2.6 100 18:41 02.06.2020
2191 Clouds 28 1013 26 10000 2.6 0 18:22 02.06.2020
2192 Clouds 27 1013 28 10000 1 0 17:59 02.06.2020
2193 Clouds 28 1013 28 10000 1 0 17:41 02.06.2020
2194 Clouds 28 1014 24 10000 2.6 30 17:22 02.06.2020
2195 Clouds 28 1014 26 10000 2.1 0 16:57 02.06.2020
2196 Clouds 28 1015 26 10000 2.6 0 16:38 02.06.2020
2197 Clouds 27 1015 26 10000 2.6 0 16:20 02.06.2020
2198 Clouds 28 1015 24 10000 2.6 0 15:46 02.06.2020
2199 Clouds 27 1015 28 10000 3.1 90 15:24 02.06.2020
2200 Clouds 27 1016 29 10000 2.6 180 14:56 02.06.2020
2201 Clouds 26 1016 29 10000 2.6 180 14:37 02.06.2020
2202 Clouds 27 1016 26 10000 2.1 0 14:19 02.06.2020
2203 Clouds 25 1017 31 10000 3.1 0 13:39 02.06.2020
2204 Clouds 25 1017 31 10000 3.1 0 13:19 02.06.2020
2205 Clouds 25 1017 31 10000 3.1 0 12:59 02.06.2020
2206 Clouds 25 1017 31 10000 3.1 0 12:40 02.06.2020
2207 Clouds 25 1018 31 10000 2.1 0 12:21 02.06.2020
2208 Clouds 24 1018 38 10000 2.6 80 11:56 02.06.2020
2209 Clouds 24 1018 38 10000 2.6 80 11:38 02.06.2020
2210 Clouds 23 1018 38 10000 2.6 0 11:20 02.06.2020
2211 Clouds 23 1018 38 10000 3.1 60 10:47 02.06.2020
2212 Clouds 22 1019 40 10000 3.6 70 10:28 02.06.2020
2213 Clouds 21 1019 43 10000 3.1 60 09:58 02.06.2020
2214 Clouds 21 1019 43 10000 3.1 60 09:39 02.06.2020
2215 Clouds 19 1019 45 10000 3.6 40 09:20 02.06.2020
2216 Clear 18 1019 48 10000 3.6 30 08:48 02.06.2020
2217 Clouds 18 1019 48 10000 4.1 30 08:22 02.06.2020
2218 Clouds 17 1019 51 10000 3.6 30 07:53 02.06.2020
2219 Clouds 16 1019 51 10000 4.6 40 07:28 02.06.2020
2220 Clouds 16 1019 62 10000 3.6 50 06:47 02.06.2020
2221 Clouds 14 1018 58 10000 2.6 50 06:24 02.06.2020
2222 Clouds 15 1018 59 10000 2.6 20 05:21 02.06.2020
2223 Clouds 16 1019 48 10000 4.1 10 03:29 02.06.2020
2224 Clouds 17 1019 48 10000 4.6 10 02:30 02.06.2020
2225 Clouds 17 1019 48 10000 4.6 10 01:33 02.06.2020
2226 Clear 19 1019 42 10000 4.6 10 00:26 02.06.2020
2227 Clear 20 1019 40 10000 4.1 30 23:59 01.06.2020
2228 Clear 20 1019 40 10000 4.1 30 23:38 01.06.2020
2229 Clear 20 1019 40 10000 5.1 20 23:18 01.06.2020
2230 Clear 21 1019 37 10000 5.1 20 22:56 01.06.2020
2231 Clear 21 1019 37 10000 5.1 20 22:37 01.06.2020
2232 Clear 22 1018 35 10000 4.6 30 22:18 01.06.2020
2233 Clear 24 1018 33 10000 4.6 20 21:41 01.06.2020
2234 Clear 24 1018 33 10000 5.1 20 21:20 01.06.2020
2235 Clear 25 1018 31 10000 4.6 360 20:58 01.06.2020
2236 Clear 25 1018 31 10000 4.6 360 20:40 01.06.2020
2237 Clear 26 1018 29 10000 4.1 30 20:19 01.06.2020
2238 Clear 26 1018 29 10000 4.1 30 19:57 01.06.2020
2239 Clear 26 1018 29 10000 3.1 30 19:39 01.06.2020
2240 Clear 26 1018 29 10000 3.1 30 19:20 01.06.2020
2241 Clear 26 1018 28 10000 4.6 40 18:57 01.06.2020
2242 Clear 27 1018 28 10000 3.1 80 18:38 01.06.2020
2243 Clear 26 1018 28 10000 3.1 80 18:18 01.06.2020
2244 Clear 26 1019 29 10000 3.1 80 17:41 01.06.2020
2245 Clear 26 1019 29 10000 2.6 20 17:20 01.06.2020
2246 Clear 26 1019 29 10000 5.1 60 16:58 01.06.2020
2247 Clear 26 1019 29 10000 5.1 60 16:39 01.06.2020
2248 Clear 26 1019 29 10000 3.1 50 16:18 01.06.2020
2249 Clear 26 1020 31 10000 4.1 50 15:45 01.06.2020
2250 Clear 26 1020 29 10000 5.7 60 15:21 01.06.2020
2251 Clear 25 1020 33 10000 6.7 30 14:59 01.06.2020
2252 Clear 25 1020 33 10000 6.7 30 14:41 01.06.2020
2253 Clear 25 1020 33 10000 5.1 70 14:21 01.06.2020
2254 Clear 24 1021 38 10000 5.7 50 13:58 01.06.2020
2255 Clear 24 1021 38 10000 5.7 50 13:39 01.06.2020
2256 Clear 24 1021 38 10000 5.7 50 13:20 01.06.2020
2257 Clear 23 1021 35 10000 4.6 30 12:57 01.06.2020
2258 Clear 23 1021 38 10000 4.1 40 12:39 01.06.2020
2259 Clear 23 1021 38 10000 4.1 40 12:39 01.06.2020
2260 Clear 22 1021 40 10000 5.1 50 12:20 01.06.2020
2261 Clear 22 1022 43 10000 4.1 40 11:41 01.06.2020
2262 Clear 21 1022 43 10000 4.1 40 11:23 01.06.2020
2263 Clear 21 1022 45 10000 4.6 40 10:59 01.06.2020
2264 Clear 20 1022 48 10000 4.6 50 10:39 01.06.2020
2265 Clear 20 1022 48 10000 4.6 50 10:20 01.06.2020
2266 Clear 18 1022 52 10000 3.6 40 09:57 01.06.2020
2267 Clear 18 1022 52 10000 3.6 30 09:39 01.06.2020
2268 Clear 17 1022 52 10000 3.6 30 09:20 01.06.2020
2269 Clear 16 1022 55 10000 5.1 50 08:50 01.06.2020
2270 Clear 15 1022 55 10000 5.1 50 08:25 01.06.2020
2271 Clear 14 1021 66 10000 2.6 70 07:45 01.06.2020
2272 Clear 14 1021 66 10000 2.6 70 07:27 01.06.2020
2273 Clear 12 1021 71 10000 3.1 80 06:58 01.06.2020
2274 Clear 12 1021 71 10000 2.6 70 06:33 01.06.2020
2275 Clear 12 1021 66 10000 2.1 70 05:53 01.06.2020
2276 Clear 11 1021 71 10000 2.1 20 04:31 01.06.2020
2277 Clear 12 1021 71 10000 1.5 60 03:48 01.06.2020
2278 Clear 12 1022 66 10000 2.1 80 03:27 01.06.2020
2279 Clear 14 1022 58 10000 1 0 02:29 01.06.2020
2280 Clouds 13 1022 58 10000 1.5 80 01:34 01.06.2020
2281 Clouds 14 1022 58 10000 3.1 30 00:58 01.06.2020
2282 Clouds 15 1022 51 10000 4.1 60 00:40 01.06.2020
2283 Clouds 15 1022 51 10000 4.1 60 00:21 01.06.2020
2284 Clouds 16 1022 51 10000 4.1 60 00:21 01.06.2020
2285 Clouds 15 1022 51 10000 4.6 60 23:58 31.05.2020
2286 Clouds 16 1021 48 10000 5.7 60 23:38 31.05.2020
2287 Clouds 16 1021 48 10000 5.7 60 23:20 31.05.2020
2288 Clouds 17 1021 42 10000 6.2 50 22:54 31.05.2020
2289 Clouds 17 1021 39 10000 6.2 50 22:36 31.05.2020
2290 Clouds 18 1021 39 10000 6.2 50 22:18 31.05.2020
2291 Clouds 19 1020 37 10000 5.1 30 21:42 31.05.2020
2292 Clear 19 1020 37 10000 5.1 30 21:23 31.05.2020
2293 Clear 19 1020 37 10000 5.7 50 20:58 31.05.2020
2294 Clear 20 1020 32 10000 5.7 40 20:40 31.05.2020
2295 Clouds 20 1020 32 10000 5.7 40 20:21 31.05.2020
2296 Clouds 20 1020 37 10000 4.6 40 19:56 31.05.2020
2297 Clouds 21 1020 35 10000 5.1 50 19:37 31.05.2020
2298 Clouds 21 1020 35 10000 5.1 50 19:19 31.05.2020
2299 Clouds 21 1020 35 10000 7.2 40 18:44 31.05.2020
2300 Clouds 21 1020 35 10000 7.2 40 18:25 31.05.2020
2301 Clouds 21 1020 35 10000 6.2 50 17:54 31.05.2020
2302 Clouds 21 1020 33 10000 5.7 70 17:36 31.05.2020
2303 Clouds 21 1020 33 10000 5.7 70 17:18 31.05.2020
2304 Clouds 20 1020 33 10000 4.6 70 16:40 31.05.2020
2305 Clouds 21 1020 33 10000 4.6 70 16:21 31.05.2020
2306 Clouds 20 1020 34 10000 6.7 40 15:40 31.05.2020
2307 Clouds 20 1020 34 10000 6.7 40 15:22 31.05.2020
2308 Clouds 20 1020 32 10000 5.1 70 14:58 31.05.2020
2309 Clouds 20 1021 32 10000 4.6 30 14:40 31.05.2020
2310 Clouds 20 1021 32 10000 4.6 30 14:19 31.05.2020
2311 Clouds 20 1021 34 10000 5.1 60 13:55 31.05.2020
2312 Clouds 20 1021 37 10000 4.1 50 13:36 31.05.2020
2313 Clouds 19 1021 37 10000 4.1 50 13:18 31.05.2020
2314 Clouds 19 1021 39 10000 5.1 60 12:41 31.05.2020
2315 Clouds 18 1021 39 10000 5.1 60 12:23 31.05.2020
2316 Clouds 18 1021 39 10000 5.1 60 11:54 31.05.2020
2317 Clouds 18 1021 45 10000 5.1 60 11:36 31.05.2020
2318 Clouds 17 1021 45 10000 5.1 60 11:18 31.05.2020
2319 Clouds 17 1021 45 10000 5.7 50 10:42 31.05.2020
2320 Clouds 16 1021 45 10000 5.7 50 10:23 31.05.2020
2321 Clouds 16 1021 48 10000 5.1 50 09:58 31.05.2020
2322 Clouds 15 1021 51 10000 4.1 30 09:40 31.05.2020
2323 Clouds 15 1021 51 10000 4.1 30 09:20 31.05.2020
2324 Clouds 14 1021 54 10000 5.1 30 08:42 31.05.2020
2325 Clouds 13 1021 54 10000 5.1 30 08:24 31.05.2020
2326 Clouds 12 1021 58 10000 6.2 20 07:49 31.05.2020
2327 Clear 12 1021 62 10000 5.7 20 07:22 31.05.2020
2328 Clear 11 1021 62 10000 4.6 20 06:57 31.05.2020
2329 Clear 11 1021 62 10000 4.6 20 06:35 31.05.2020
2330 Clear 13 1021 58 10000 5.7 20 05:51 31.05.2020
2331 Clear 12 1021 58 10000 5.7 20 05:32 31.05.2020
2332 Clear 13 1021 54 10000 3.6 10 04:18 31.05.2020
2333 Clear 14 1021 47 10000 3.1 20 03:44 31.05.2020
2334 Clear 14 1021 47 10000 3.1 50 02:49 31.05.2020
2335 Clouds 14 1022 47 10000 3.6 60 01:46 31.05.2020
2336 Clouds 15 1022 44 10000 3.6 60 00:46 31.05.2020
2337 Clouds 15 1022 44 10000 3.6 60 00:28 31.05.2020
2338 Clouds 16 1021 39 10000 4.6 70 23:42 30.05.2020
2339 Clouds 16 1021 39 10000 4.6 70 23:24 30.05.2020
2340 Clouds 16 1021 39 10000 5.1 70 22:58 30.05.2020
2341 Clouds 17 1021 36 10000 5.7 70 22:40 30.05.2020
2342 Clouds 17 1021 36 10000 5.7 70 22:21 30.05.2020
2343 Clouds 18 1021 36 10000 6.2 70 21:55 30.05.2020
2344 Clouds 18 1021 34 10000 7.7 70 21:37 30.05.2020
2345 Clear 18 1021 34 10000 7.7 70 21:18 30.05.2020
2346 Clear 18 1021 32 10000 7.7 60 20:56 30.05.2020
2347 Clear 19 1021 30 10000 9.3 60 20:37 30.05.2020
2348 Clouds 19 1021 30 10000 9.3 60 20:19 30.05.2020
2349 Clouds 20 1020 26 10000 6.7 40 19:41 30.05.2020
2350 Clouds 20 1020 26 10000 6.7 40 19:21 30.05.2020
2351 Clouds 20 1020 26 10000 6.7 40 19:21 30.05.2020
2352 Clouds 20 1021 26 10000 7.2 60 18:45 30.05.2020
2353 Clouds 21 1021 26 10000 7.2 60 18:22 30.05.2020
2354 Clouds 21 1021 41 10000 9.3 60 17:55 30.05.2020
2355 Clouds 21 1021 26 10000 6.7 40 17:37 30.05.2020
2356 Clouds 21 1021 26 10000 6.7 40 17:18 30.05.2020
2357 Clouds 20 1021 30 10000 7.7 50 16:41 30.05.2020
2358 Clouds 20 1021 30 10000 7.7 50 16:22 30.05.2020
2359 Clouds 20 1021 30 10000 8.7 40 15:48 30.05.2020
2360 Clouds 20 1021 26 10000 10.3 60 15:29 30.05.2020
2361 Clouds 20 1022 28 10000 10.3 30 14:48 30.05.2020
2362 Clouds 20 1022 30 10000 8.2 40 14:30 30.05.2020
2363 Clouds 20 1022 28 10000 9.3 40 13:58 30.05.2020
2364 Clouds 21 1022 28 10000 8.7 40 13:40 30.05.2020
2365 Clouds 20 1022 28 10000 8.7 40 13:18 30.05.2020
2366 Clouds 20 1023 24 10000 8.7 30 12:39 30.05.2020
2367 Clouds 19 1023 24 10000 8.7 30 12:20 30.05.2020
2368 Clouds 20 1023 34 10000 8.7 40 11:54 30.05.2020
2369 Clouds 20 1023 34 10000 9.3 30 11:36 30.05.2020
2370 Clear 20 1023 38 10000 9.3 30 11:18 30.05.2020
2371 Clear 18 1023 39 10000 6.7 50 10:39 30.05.2020
2372 Clear 18 1023 39 10000 6.7 50 10:20 30.05.2020
2373 Clear 17 1023 42 10000 5.1 30 09:45 30.05.2020
2374 Clear 16 1023 42 10000 5.1 30 09:27 30.05.2020
2375 Clear 15 1023 47 10000 4.1 30 08:46 30.05.2020
2376 Clouds 14 1023 47 10000 4.6 30 08:27 30.05.2020
2377 Clouds 14 1023 50 10000 4.1 30 07:44 30.05.2020
2378 Clouds 14 1023 50 10000 4.1 30 07:20 30.05.2020
2379 Clouds 11 1023 58 10000 3.6 20 06:33 30.05.2020
2380 Clouds 11 1023 54 10000 4.1 20 05:52 30.05.2020
2381 Clouds 12 1023 50 10000 5.1 20 05:34 30.05.2020
2382 Clear 11 1023 50 10000 4.6 360 03:39 30.05.2020
2383 Clouds 13 1023 50 10000 3.6 10 02:30 30.05.2020
2384 Clouds 13 1024 50 10000 4.1 10 01:46 30.05.2020
2385 Clouds 15 1023 44 10000 4.1 20 00:38 30.05.2020
2386 Clouds 16 1023 44 10000 4.1 20 00:19 30.05.2020
2387 Clouds 16 1023 42 10000 4.6 20 23:55 29.05.2020
2388 Clouds 15 1023 45 10000 4.1 40 23:36 29.05.2020
2389 Clouds 16 1023 45 10000 4.1 40 23:18 29.05.2020
2390 Clouds 18 1023 39 10000 4.6 60 22:40 29.05.2020
2391 Clouds 17 1023 39 10000 4.6 60 22:19 29.05.2020
2392 Clouds 19 1023 32 10000 5.1 70 21:58 29.05.2020
2393 Clouds 19 1022 30 10000 4.6 50 21:37 29.05.2020
2394 Clouds 20 1023 30 10000 5.7 40 21:18 29.05.2020
2395 Clouds 20 1023 30 10000 5.7 40 20:45 29.05.2020
2396 Clouds 21 1023 30 10000 5.7 40 20:21 29.05.2020
2397 Clouds 21 1023 28 10000 5.7 40 19:59 29.05.2020
2398 Clouds 22 1023 28 10000 4.6 40 19:40 29.05.2020
2399 Clear 22 1023 28 10000 4.6 40 19:22 29.05.2020
2400 Clear 22 1023 26 10000 5.1 20 18:47 29.05.2020
2401 Clear 22 1023 26 10000 5.1 70 18:20 29.05.2020
2402 Clear 22 1024 25 10000 4.6 60 17:57 29.05.2020
2403 Clear 22 1024 26 10000 4.1 50 17:38 29.05.2020
2404 Clear 22 1024 26 10000 4.1 50 17:19 29.05.2020
2405 Clear 22 1024 26 10000 5.1 30 16:45 29.05.2020
2406 Clear 22 1024 27 10000 6.7 70 16:27 29.05.2020
2407 Clear 22 1025 28 10000 5.7 60 15:57 29.05.2020
2408 Clear 22 1025 28 10000 4.6 60 15:39 29.05.2020
2409 Clear 22 1025 28 10000 4.6 60 15:20 29.05.2020
2410 Clear 21 1025 28 10000 4.6 30 14:51 29.05.2020
2411 Clouds 21 1026 30 10000 4.1 40 14:24 29.05.2020
2412 Clouds 21 1026 30 10000 7.2 40 13:59 29.05.2020
2413 Clouds 20 1026 34 10000 5.1 20 13:41 29.05.2020
2414 Clear 20 1026 34 10000 5.1 20 13:21 29.05.2020
2415 Clear 20 1027 32 10000 5.1 60 12:45 29.05.2020
2416 Clear 20 1027 32 10000 4.1 40 12:26 29.05.2020
2417 Clear 19 1027 34 10000 3.1 30 11:58 29.05.2020
2418 Clear 19 1027 39 10000 4.1 40 11:40 29.05.2020
2419 Clear 19 1027 39 10000 4.1 40 11:22 29.05.2020
2420 Clouds 18 1028 45 10000 3.6 60 10:42 29.05.2020
2421 Clouds 17 1028 45 10000 3.6 60 10:21 29.05.2020
2422 Clear 17 1028 45 10000 4.1 70 09:56 29.05.2020
2423 Clear 16 1028 48 10000 4.1 40 09:37 29.05.2020
2424 Clear 15 1028 48 10000 4.1 40 09:18 29.05.2020
2425 Clear 14 1028 47 10000 5.1 50 08:44 29.05.2020
2426 Clear 14 1028 50 10000 4.6 40 08:22 29.05.2020
2427 Clear 13 1028 50 10000 4.6 40 07:46 29.05.2020
2428 Clear 11 1028 58 10000 4.1 30 07:28 29.05.2020
2429 Clear 11 1028 58 10000 4.6 40 06:55 29.05.2020
2430 Clear 11 1028 62 10000 3.6 50 06:37 29.05.2020
2431 Clear 9 1028 62 10000 3.6 50 06:18 29.05.2020
2432 Clear 9 1028 70 10000 2.6 70 05:24 29.05.2020
2433 Clouds 14 1028 50 10000 4.1 20 01:48 29.05.2020
2434 Clouds 13 1028 50 10000 4.1 30 01:26 29.05.2020
2435 Clouds 14 1028 47 10000 4.6 20 00:50 29.05.2020
2436 Clouds 15 1028 47 10000 4.1 10 00:28 29.05.2020
2437 Clouds 17 1028 39 10000 4.6 20 23:41 28.05.2020
2438 Clouds 17 1028 39 10000 4.6 20 23:20 28.05.2020
2439 Clouds 17 1028 39 10000 4.6 20 23:20 28.05.2020
2440 Clouds 17 1028 39 10000 4.6 20 22:59 28.05.2020
2441 Clouds 17 1028 34 10000 5.7 20 22:40 28.05.2020
2442 Clouds 17 1028 34 10000 5.7 20 22:21 28.05.2020
2443 Clouds 17 1028 34 10000 5.7 20 21:55 28.05.2020
2444 Clouds 18 1028 29 10000 5.7 30 21:37 28.05.2020
2445 Clouds 18 1028 29 10000 5.7 30 21:18 28.05.2020
2446 Clouds 19 1028 50 10000 7.2 40 20:55 28.05.2020
2447 Clouds 19 1028 50 10000 7.2 40 20:55 28.05.2020
2448 Clouds 19 1027 24 10000 7.7 50 20:36 28.05.2020
2449 Clear 20 1027 24 10000 7.7 50 20:18 28.05.2020
2450 Clear 21 1028 19 10000 6.7 30 19:43 28.05.2020
2451 Clear 21 1028 19 10000 6.7 30 19:20 28.05.2020
2452 Clear 22 1028 21 10000 6.7 50 18:57 28.05.2020
2453 Clear 22 1028 21 10000 6.2 30 18:39 28.05.2020
2454 Clear 22 1028 21 10000 6.2 30 18:39 28.05.2020
2455 Clear 21 1028 21 10000 6.2 30 18:20 28.05.2020
2456 Clear 22 1028 21 10000 6.7 30 17:40 28.05.2020
2457 Clear 21 1028 21 10000 6.7 30 17:22 28.05.2020
2458 Clear 21 1028 19 10000 6.7 20 16:56 28.05.2020
2459 Clear 21 1029 21 10000 7.7 30 16:36 28.05.2020
2460 Clear 21 1029 21 10000 7.7 30 16:18 28.05.2020
2461 Clear 21 1029 30 10000 6.7 40 15:41 28.05.2020
2462 Clear 21 1029 31 10000 6.7 40 15:23 28.05.2020
2463 Clear 21 1030 30 10000 6.7 30 14:43 28.05.2020
2464 Clear 20 1030 30 10000 6.7 30 14:25 28.05.2020
2465 Clear 20 1030 32 10000 6.2 0 13:58 28.05.2020
2466 Clear 20 1030 34 10000 6.2 10 13:39 28.05.2020
2467 Clear 20 1030 34 10000 6.2 10 13:20 28.05.2020
2468 Clear 19 1030 39 10000 6.2 20 12:42 28.05.2020
2469 Clear 19 1030 39 10000 6.2 20 12:19 28.05.2020
2470 Clouds 18 1031 51 10000 5.7 20 11:42 28.05.2020
2471 Clouds 17 1031 51 10000 5.7 20 11:24 28.05.2020
2472 Clouds 17 1031 59 10000 5.7 20 10:57 28.05.2020
2473 Clouds 16 1031 59 10000 6.2 30 10:39 28.05.2020
2474 Clouds 16 1031 59 10000 6.2 30 10:18 28.05.2020
2475 Clear 16 1031 62 10000 6.7 30 09:39 28.05.2020
2476 Clouds 15 1031 62 10000 7.7 20 09:20 28.05.2020
2477 Clouds 14 1031 62 10000 7.7 20 08:49 28.05.2020
2478 Clouds 14 1030 58 10000 8.7 20 08:26 28.05.2020
2479 Clouds 13 1030 62 10000 8.2 10 07:45 28.05.2020
2480 Clouds 13 1030 62 10000 8.2 10 07:26 28.05.2020
2481 Clouds 13 1030 62 10000 8.2 10 07:26 28.05.2020
2482 Clouds 14 1030 62 10000 7.7 20 06:59 28.05.2020
2483 Clouds 14 1030 62 10000 7.7 10 06:37 28.05.2020
2484 Clouds 15 1030 62 10000 5.7 10 05:58 28.05.2020
2485 Clouds 15 1029 59 10000 8.2 20 05:36 28.05.2020
2486 Clouds 16 1029 59 10000 6.7 30 04:29 28.05.2020
2487 Clouds 16 1029 59 10000 7.7 20 03:46 28.05.2020
2488 Clouds 16 1029 67 10000 3.6 10 02:45 28.05.2020
2489 Clouds 14 1029 71 10000 0.5 0 01:52 28.05.2020
2490 Clouds 14 1029 71 10000 0.5 0 00:55 28.05.2020
2491 Clouds 15 1029 67 10000 1 220 00:37 28.05.2020
2492 Clouds 15 1029 67 10000 1 220 00:18 28.05.2020
2493 Clouds 16 1030 62 10000 1.5 240 23:39 27.05.2020
2494 Clouds 17 1030 62 10000 1.5 240 23:21 27.05.2020
2495 Clouds 18 1030 62 10000 1 260 22:59 27.05.2020
2496 Clouds 17 1029 59 10000 1 0 22:40 27.05.2020
2497 Clouds 18 1029 59 10000 1 0 22:21 27.05.2020
2498 Clouds 20 1029 35 10000 1.5 160 21:42 27.05.2020
2499 Clouds 21 1029 35 10000 1.5 160 21:24 27.05.2020
2500 Clouds 22 1029 46 10000 1 0 20:59 27.05.2020
2501 Clouds 22 1029 33 10000 1.5 60 20:41 27.05.2020
2502 Clouds 23 1029 33 10000 1.5 60 20:22 27.05.2020
2503 Clouds 23 1029 33 10000 1.5 60 20:22 27.05.2020
2504 Clouds 23 1030 29 10000 2.1 360 19:59 27.05.2020
2505 Clouds 23 1030 31 10000 3.1 40 19:41 27.05.2020
2506 Clouds 23 1030 31 10000 3.1 40 19:19 27.05.2020
2507 Clouds 23 1030 29 10000 3.1 10 18:41 27.05.2020
2508 Clouds 23 1030 29 10000 3.1 10 18:41 27.05.2020
2509 Clouds 23 1030 29 10000 3.1 10 18:20 27.05.2020
2510 Clouds 23 1030 28 10000 2.6 330 17:57 27.05.2020
2511 Clouds 24 1031 27 10000 2.1 0 17:38 27.05.2020
2512 Clouds 24 1031 27 10000 2.1 0 17:19 27.05.2020
2513 Clouds 24 1031 29 10000 3.1 340 16:55 27.05.2020
2514 Clouds 23 1031 28 10000 1.5 0 16:37 27.05.2020
2515 Clouds 23 1031 28 10000 1.5 0 16:18 27.05.2020
2516 Clouds 23 1032 31 10000 3.1 0 15:41 27.05.2020
2517 Clouds 23 1032 31 10000 3.1 0 15:21 27.05.2020
2518 Clouds 23 1032 30 10000 3.1 0 14:45 27.05.2020
2519 Clouds 22 1032 30 10000 3.1 0 14:22 27.05.2020
2520 Clouds 24 1032 33 10000 1.5 0 13:57 27.05.2020
2521 Clouds 22 1033 35 10000 2.1 0 13:38 27.05.2020
2522 Clouds 22 1033 37 10000 3.1 50 13:20 27.05.2020
2523 Clouds 21 1033 39 10000 2.1 0 12:41 27.05.2020
2524 Clouds 21 1033 39 10000 2.1 0 12:22 27.05.2020
2525 Clouds 20 1034 42 10000 2.1 0 11:41 27.05.2020
2526 Clouds 20 1034 42 10000 2.1 0 11:22 27.05.2020
2527 Clouds 19 1034 52 10000 1.5 100 10:59 27.05.2020
2528 Clouds 19 1034 48 10000 1.5 0 10:41 27.05.2020
2529 Clouds 18 1034 48 10000 1.5 0 10:23 27.05.2020
2530 Clouds 17 1034 51 10000 2.6 70 09:55 27.05.2020
2531 Clouds 16 1034 59 10000 2.6 60 09:37 27.05.2020
2532 Clouds 15 1034 59 10000 2.6 60 09:18 27.05.2020
2533 Clear 14 1034 71 10000 2.1 60 08:42 27.05.2020
2534 Clouds 13 1034 71 10000 2.1 60 08:23 27.05.2020
2535 Clouds 12 1034 76 10000 2.6 80 07:52 27.05.2020
2536 Clouds 11 1034 81 10000 3.1 70 07:34 27.05.2020
2537 Clouds 10 1034 81 10000 3.1 70 06:55 27.05.2020
2538 Clouds 9 1034 87 10000 2.6 70 06:24 27.05.2020
2539 Clouds 10 1034 87 10000 2.6 70 05:50 27.05.2020
2540 Clouds 10 1034 87 10000 2.1 70 05:24 27.05.2020
2541 Clouds 12 1034 76 10000 2.6 80 02:51 27.05.2020
2542 Clouds 12 1034 76 10000 3.1 70 02:25 27.05.2020
2543 Clouds 13 1034 71 10000 1.5 320 01:31 27.05.2020
2544 Clouds 13 1034 76 10000 1 0 00:50 27.05.2020
2545 Clouds 14 1034 71 10000 1 0 00:24 27.05.2020
2546 Clouds 14 1034 71 10000 2.6 60 23:59 26.05.2020
2547 Clouds 15 1034 66 10000 1.5 60 23:40 26.05.2020
2548 Clouds 15 1034 66 10000 1.5 60 23:22 26.05.2020
2549 Clouds 17 1034 55 10000 2.1 80 22:58 26.05.2020
2550 Clouds 17 1034 51 10000 3.1 90 22:37 26.05.2020
2551 Clouds 16 1034 51 10000 3.1 90 22:19 26.05.2020
2552 Clouds 17 1034 51 10000 3.1 80 21:55 26.05.2020
2553 Clouds 17 1033 45 10000 3.6 80 21:36 26.05.2020
2554 Clear 18 1033 45 10000 3.6 80 21:18 26.05.2020
2555 Clear 19 1033 40 10000 4.1 70 20:42 26.05.2020
2556 Clear 19 1033 40 10000 4.1 70 20:42 26.05.2020
2557 Clouds 19 1033 40 10000 4.1 70 20:20 26.05.2020
2558 Clouds 19 1033 40 10000 3.6 50 19:55 26.05.2020
2559 Clouds 19 1033 40 10000 3.6 50 19:55 26.05.2020
2560 Clouds 20 1033 40 10000 4.6 70 19:36 26.05.2020
2561 Clouds 20 1033 40 10000 4.6 70 19:18 26.05.2020
2562 Clouds 20 1034 40 10000 3.1 0 18:41 26.05.2020
2563 Clouds 20 1034 40 10000 3.1 0 18:21 26.05.2020
2564 Clouds 20 1034 40 10000 4.1 60 17:43 26.05.2020
2565 Clouds 20 1034 40 10000 4.1 60 17:24 26.05.2020
2566 Clouds 20 1034 37 10000 4.6 50 16:59 26.05.2020
2567 Clouds 19 1034 42 10000 4.6 50 16:41 26.05.2020
2568 Clouds 19 1034 40 10000 3.1 50 16:19 26.05.2020
2569 Clouds 20 1034 40 10000 4.1 10 15:44 26.05.2020
2570 Clouds 20 1034 40 10000 4.1 10 15:21 26.05.2020
2571 Clouds 19 1034 39 10000 4.1 10 14:59 26.05.2020
2572 Clouds 19 1034 42 10000 4.6 60 14:41 26.05.2020
2573 Clouds 19 1034 42 10000 4.6 60 14:21 26.05.2020
2574 Clouds 19 1034 45 10000 3.6 60 13:42 26.05.2020
2575 Clouds 18 1034 45 10000 3.6 60 13:23 26.05.2020
2576 Clouds 18 1034 48 10000 3.6 60 12:57 26.05.2020
2577 Clouds 17 1034 48 10000 3.6 60 12:39 26.05.2020
2578 Clouds 17 1034 48 10000 3.6 60 12:19 26.05.2020
2579 Clouds 17 1034 51 10000 3.1 60 11:41 26.05.2020
2580 Clouds 17 1034 51 10000 3.1 60 11:21 26.05.2020
2581 -273 0 0 0 0 0 10:59 26.05.2020
2582 Clouds 16 1034 55 10000 4.1 70 10:39 26.05.2020
2583 Clouds 16 1034 55 10000 4.1 70 10:18 26.05.2020
2584 Clouds 15 1034 58 10000 3.1 30 09:39 26.05.2020
2585 Clouds 14 1034 58 10000 3.1 30 09:19 26.05.2020
2586 Clouds 13 1034 66 10000 3.6 20 08:43 26.05.2020
2587 Clouds 12 1034 66 10000 3.6 20 08:22 26.05.2020
2588 Clear 11 1034 71 10000 2.6 20 07:57 26.05.2020
2589 Clear 11 1034 76 10000 3.1 20 07:37 26.05.2020
2590 Clear 10 1034 76 10000 3.1 20 07:18 26.05.2020
2591 Clear 8 1034 93 10000 1 0 06:44 26.05.2020
2592 Clear 8 1033 93 10000 0.5 0 05:55 26.05.2020
2593 Clear 8 1033 93 10000 2.6 360 05:35 26.05.2020
2594 Clear 9 1033 87 10000 1 0 04:54 26.05.2020
2595 Clear 9 1033 87 10000 0.5 0 04:33 26.05.2020
2596 Clear 11 1033 81 10000 3.6 10 03:59 26.05.2020
2597 Clear 12 1033 66 10000 4.6 10 02:49 26.05.2020
2598 Clear 13 1033 71 10000 3.6 10 01:49 26.05.2020
2599 Clear 12 1033 58 10000 4.6 20 01:28 26.05.2020
2600 Clear 13 1033 62 10000 3.1 10 00:39 26.05.2020
2601 Clear 14 1033 62 10000 3.1 10 00:19 26.05.2020
2602 Clear 13 1033 58 10000 2.1 350 23:56 25.05.2020
2603 Clear 14 1033 54 10000 2.1 320 23:37 25.05.2020
2604 Clear 15 1033 54 10000 2.1 320 23:18 25.05.2020
2605 Clear 15 1033 58 10000 3.1 320 22:55 25.05.2020
2606 Clear 16 1032 58 10000 3.1 320 22:36 25.05.2020
2607 Clear 15 1032 58 10000 3.1 320 22:18 25.05.2020
2608 Clear 15 1032 58 10000 3.1 320 22:18 25.05.2020
2609 Clear 17 1032 51 10000 3.6 320 21:56 25.05.2020
2610 Clear 17 1032 45 10000 4.1 0 21:36 25.05.2020
2611 Clear 17 1032 45 10000 4.1 0 21:36 25.05.2020
2612 Clear 18 1032 45 10000 4.1 0 21:18 25.05.2020
2613 Clear 19 1031 40 10000 6.2 310 20:43 25.05.2020
2614 Clouds 20 1031 40 10000 6.2 310 20:22 25.05.2020
2615 Clouds 20 1031 42 10000 5.7 330 19:59 25.05.2020
2616 Clouds 20 1031 42 10000 5.7 310 19:41 25.05.2020
2617 Clouds 20 1031 42 10000 5.7 310 19:19 25.05.2020
2618 Clouds 21 1031 43 10000 7.2 310 18:58 25.05.2020
2619 Clouds 20 1031 40 10000 7.2 290 18:40 25.05.2020
2620 Clouds 21 1031 40 10000 7.2 290 18:20 25.05.2020
2621 Clouds 20 1031 42 10000 7.2 320 17:44 25.05.2020
2622 Clouds 20 1031 42 10000 7.2 320 17:24 25.05.2020
2623 Clouds 21 1031 45 10000 7.7 310 16:58 25.05.2020
2624 Clouds 21 1031 43 10000 6.7 320 16:40 25.05.2020
2625 Clouds 21 1031 43 10000 6.7 320 16:21 25.05.2020
2626 Clouds 20 1031 46 10000 7.2 320 15:45 25.05.2020
2627 Clouds 20 1031 49 10000 7.7 310 15:20 25.05.2020
2628 Clouds 20 1032 45 10000 6.7 330 14:59 25.05.2020
2629 Clouds 20 1032 45 10000 6.7 330 14:59 25.05.2020
2630 Clouds 19 1032 52 10000 6.7 320 14:40 25.05.2020
2631 Clouds 19 1032 52 10000 6.7 320 14:22 25.05.2020
2632 Clouds 18 1032 52 10000 6.7 320 13:56 25.05.2020
2633 Clouds 18 1032 55 10000 5.7 320 13:37 25.05.2020
2634 Clouds 18 1032 55 10000 5.7 320 13:19 25.05.2020
2635 Clouds 18 1032 59 10000 6.2 310 12:39 25.05.2020
2636 Clouds 17 1032 59 10000 6.2 310 12:21 25.05.2020
2637 Clouds 17 1032 67 10000 5.1 310 11:57 25.05.2020
2638 Clouds 16 1032 67 10000 4.1 330 11:37 25.05.2020
2639 Clouds 16 1032 67 10000 4.1 330 11:18 25.05.2020
2640 Clouds 16 1032 67 10000 5.1 290 10:41 25.05.2020
2641 Clouds 16 1032 67 10000 5.1 290 10:21 25.05.2020
2642 Clouds 15 1032 72 10000 4.1 280 09:57 25.05.2020
2643 Clouds 15 1032 72 10000 3.6 290 09:38 25.05.2020
2644 Clouds 15 1032 72 10000 3.6 290 09:19 25.05.2020
2645 Clouds 14 1032 82 10000 4.1 230 08:57 25.05.2020
2646 Clouds 14 1032 76 10000 2.6 240 08:36 25.05.2020
2647 Clouds 14 1031 76 10000 4.1 240 08:18 25.05.2020
2648 Clouds 14 1031 82 10000 4.6 240 07:42 25.05.2020
2649 Clouds 13 1031 82 10000 4.6 240 07:20 25.05.2020
2650 Clouds 13 1031 82 10000 4.1 230 06:49 25.05.2020
2651 Clouds 13 1031 82 10000 3.6 230 06:31 25.05.2020
2652 Clouds 14 1031 76 10000 4.1 280 03:48 25.05.2020
2653 Clouds 14 1031 76 10000 4.1 280 03:22 25.05.2020
2654 Clouds 14 1031 76 10000 4.1 300 02:45 25.05.2020
2655 Clouds 14 1031 82 10000 2.6 270 01:51 25.05.2020
2656 Rain 14 1031 76 10000 3.6 270 01:28 25.05.2020
2657 Clouds 14 1031 76 10000 4.1 280 00:37 25.05.2020
2658 Clouds 14 1031 76 10000 4.1 280 00:18 25.05.2020
2659 Clouds 14 1031 71 10000 2.6 270 23:55 24.05.2020
2660 Clouds 14 1031 71 10000 3.1 270 23:36 24.05.2020
2661 Clouds 14 1031 71 10000 3.1 270 23:18 24.05.2020
2662 Clouds 14 1031 71 10000 2.6 230 22:41 24.05.2020
2663 Clouds 14 1031 71 10000 2.6 230 22:19 24.05.2020
2664 Clouds 15 1030 67 10000 3.6 250 21:56 24.05.2020
2665 Clouds 15 1030 67 10000 3.6 270 21:38 24.05.2020
2666 Clouds 15 1030 67 10000 3.6 270 21:19 24.05.2020
2667 Clouds 15 1030 67 10000 5.1 280 20:44 24.05.2020
2668 Clouds 15 1030 67 10000 5.1 280 20:23 24.05.2020
2669 Clouds 15 1030 67 10000 5.7 270 19:59 24.05.2020
2670 Clouds 15 1030 59 10000 7.2 290 19:41 24.05.2020
2671 Clouds 15 1030 59 10000 7.2 290 19:20 24.05.2020
2672 Clouds 15 1030 59 10000 7.2 290 19:20 24.05.2020
2673 Rain 16 1030 55 10000 6.7 290 18:59 24.05.2020
2674 Clouds 16 1030 51 10000 5.7 290 18:40 24.05.2020
2675 Rain 17 1030 51 10000 5.7 290 18:22 24.05.2020
2676 Rain 17 1029 48 10000 6.7 270 17:56 24.05.2020
2677 Clouds 17 1029 45 10000 6.2 270 17:37 24.05.2020
2678 Rain 18 1029 45 10000 6.2 270 17:37 24.05.2020
2679 Clouds 17 1029 45 10000 6.7 280 17:18 24.05.2020
2680 Clouds 18 1029 45 10000 6.2 260 16:39 24.05.2020
2681 Clouds 18 1029 45 10000 6.2 260 16:21 24.05.2020
2682 Clouds 18 1029 45 10000 5.7 250 15:59 24.05.2020
2683 Clouds 18 1029 39 10000 6.2 250 15:40 24.05.2020
2684 Clouds 18 1029 39 10000 6.2 250 15:20 24.05.2020
2685 Clouds 18 1029 42 10000 5.7 250 14:58 24.05.2020
2686 Clouds 18 1029 39 10000 6.2 250 14:40 24.05.2020
2687 Clouds 18 1029 39 10000 6.2 250 14:21 24.05.2020
2688 Clouds 17 1029 42 10000 7.7 260 13:55 24.05.2020
2689 Clouds 17 1029 44 10000 6.7 260 13:37 24.05.2020
2690 Clouds 17 1029 44 10000 6.7 260 13:18 24.05.2020
2691 Clouds 17 1029 44 10000 6.7 250 12:55 24.05.2020
2692 Clouds 17 1029 48 10000 6.2 250 12:37 24.05.2020
2693 Clouds 16 1029 48 10000 6.2 250 12:18 24.05.2020
2694 Clouds 16 1029 51 10000 5.1 240 11:46 24.05.2020
2695 Clouds 16 1029 51 10000 5.1 240 11:26 24.05.2020
2696 Clouds 15 1029 58 10000 4.6 230 10:59 24.05.2020
2697 Clouds 15 1029 58 10000 4.6 230 10:59 24.05.2020
2698 Clouds 15 1030 62 10000 3.6 220 10:41 24.05.2020
2699 Clouds 14 1030 62 10000 3.6 220 10:23 24.05.2020
2700 Clouds 13 1029 66 10000 3.1 240 09:56 24.05.2020
2701 Clouds 13 1029 71 10000 4.1 220 09:38 24.05.2020
2702 Clouds 12 1029 71 10000 4.1 220 09:18 24.05.2020
2703 Clouds 11 1029 81 10000 3.1 210 08:42 24.05.2020
2704 Clouds 11 1029 81 10000 3.1 210 08:24 24.05.2020
2705 Clouds 10 1029 87 10000 2.6 180 07:58 24.05.2020
2706 Clouds 10 1029 93 10000 2.1 160 07:40 24.05.2020
2707 Clouds 10 1029 93 10000 2.1 160 07:21 24.05.2020
2708 Clouds 9 1028 93 10000 3.1 210 06:39 24.05.2020
2709 Clouds 8 1028 93 10000 4.1 200 05:50 24.05.2020
2710 Clear 9 1028 93 10000 4.1 210 03:57 24.05.2020
2711 Clear 9 1028 87 10000 4.1 210 03:37 24.05.2020
2712 Clear 9 1028 87 10000 3.6 200 02:26 24.05.2020
2713 Clear 10 1028 81 10000 4.6 210 01:21 24.05.2020
2714 Clear 11 1028 76 10000 4.6 210 00:38 24.05.2020
2715 Clear 12 1028 76 10000 4.6 210 00:20 24.05.2020
2716 Clear 12 1027 76 10000 5.1 210 23:40 23.05.2020
2717 Clear 12 1027 76 10000 5.1 210 23:20 23.05.2020
2718 Clear 12 1027 76 10000 4.6 210 22:56 23.05.2020
2719 Clouds 13 1027 71 10000 4.1 200 22:37 23.05.2020
2720 Clouds 13 1027 71 10000 4.1 200 22:19 23.05.2020
2721 Clouds 13 1027 67 10000 4.6 200 21:57 23.05.2020
2722 Clouds 14 1027 67 10000 5.1 210 21:37 23.05.2020
2723 Clouds 14 1027 67 10000 5.1 210 21:19 23.05.2020
2724 Clouds 14 1027 67 10000 5.1 200 20:55 23.05.2020
2725 Clouds 15 1027 58 10000 6.2 220 20:36 23.05.2020
2726 Clouds 15 1027 58 10000 6.2 220 20:18 23.05.2020
2727 Clouds 15 1026 58 10000 6.2 220 19:41 23.05.2020
2728 Clouds 15 1026 58 10000 6.2 220 19:19 23.05.2020
2729 Clouds 15 1026 58 10000 4.6 240 18:57 23.05.2020
2730 Clouds 15 1026 58 10000 5.7 240 18:39 23.05.2020
2731 Clouds 15 1026 58 10000 5.7 240 18:20 23.05.2020
2732 Clouds 15 1026 62 10000 5.7 240 17:55 23.05.2020
2733 Clouds 15 1025 67 10000 6.2 240 17:37 23.05.2020
2734 Clouds 15 1025 67 10000 6.2 240 17:37 23.05.2020
2735 Clouds 14 1025 67 10000 6.2 240 17:19 23.05.2020
2736 Clouds 14 1025 67 10000 5.7 240 16:55 23.05.2020
2737 Clouds 14 1025 67 10000 5.7 230 16:37 23.05.2020
2738 Clouds 14 1025 76 10000 5.1 240 16:18 23.05.2020
2739 Clouds 13 1025 71 10000 4.1 230 15:42 23.05.2020
2740 Clouds 13 1025 71 10000 4.1 230 15:23 23.05.2020
2741 Rain 12 1025 87 10000 3.6 220 14:55 23.05.2020
2742 Rain 12 1025 81 10000 3.1 230 14:37 23.05.2020
2743 Rain 12 1025 81 10000 3.1 230 14:19 23.05.2020
2744 Rain 12 1025 81 10000 4.1 300 13:40 23.05.2020
2745 Rain 12 1025 81 10000 4.1 300 13:19 23.05.2020
2746 Rain 12 1025 87 10000 4.6 300 12:55 23.05.2020
2747 Rain 12 1024 66 10000 6.2 300 12:36 23.05.2020
2748 Rain 13 1024 66 10000 6.2 300 12:18 23.05.2020
2749 Clouds 14 1023 72 10000 5.1 270 11:42 23.05.2020
2750 Clouds 15 1023 72 10000 5.1 270 11:21 23.05.2020
2751 Clouds 14 1023 82 10000 5.1 260 10:57 23.05.2020
2752 Rain 14 1023 76 10000 5.1 250 10:39 23.05.2020
2753 Rain 14 1023 76 10000 5.1 250 10:20 23.05.2020
2754 Clouds 14 1023 82 10000 3.6 250 09:56 23.05.2020
2755 Clouds 14 1023 82 10000 3.1 240 09:38 23.05.2020
2756 Clouds 14 1023 82 10000 3.1 240 09:20 23.05.2020
2757 Rain 14 1022 82 10000 3.6 210 08:42 23.05.2020
2758 Rain 13 1022 82 10000 3.6 210 08:19 23.05.2020
2759 Rain 14 1022 82 10000 2.1 190 07:47 23.05.2020
2760 Rain 14 1022 82 10000 3.1 220 07:29 23.05.2020
2761 Rain 15 1022 87 10000 2.6 270 06:56 23.05.2020
2762 Rain 15 1022 93 10000 1.5 190 06:37 23.05.2020
2763 Clouds 15 1021 93 10000 0.5 0 05:26 23.05.2020
2764 Clouds 17 1021 82 10000 4.1 290 03:30 23.05.2020
2765 Rain 17 1021 82 10000 3.1 300 02:58 23.05.2020
2766 Rain 18 1020 77 10000 4.6 330 01:58 23.05.2020
2767 Rain 18 1020 77 10000 3.1 330 01:26 23.05.2020
2768 Rain 18 1020 77 10000 5.1 320 00:47 23.05.2020
2769 Rain 18 1020 77 10000 3.1 300 00:26 23.05.2020
2770 Clouds 19 1020 72 10000 2.6 320 23:58 22.05.2020
2771 Rain 19 1019 72 10000 5.1 320 23:39 22.05.2020
2772 Rain 19 1019 72 10000 5.1 320 23:39 22.05.2020
2773 Rain 19 1019 73 10000 4.1 0 23:19 22.05.2020
2774 Rain 20 1019 73 10000 4.1 0 22:55 22.05.2020
2775 Rain 20 1019 73 10000 4.1 0 22:55 22.05.2020
2776 Clouds 21 1019 68 10000 6.2 320 22:37 22.05.2020
2777 Clouds 21 1019 68 10000 6.2 320 22:18 22.05.2020
2778 Rain 22 1018 57 10000 5.1 210 21:42 22.05.2020
2779 Rain 23 1018 57 10000 5.1 210 21:21 22.05.2020
2780 Clouds 24 1017 57 10000 4.1 200 20:46 22.05.2020
2781 Clouds 24 1017 57 10000 3.6 190 20:22 22.05.2020
2782 Clouds 25 1017 53 10000 4.1 180 19:59 22.05.2020
2783 Clouds 25 1018 53 10000 4.6 190 19:41 22.05.2020
2784 Clouds 25 1018 53 10000 4.6 190 19:22 22.05.2020
2785 Clouds 25 1018 57 10000 5.1 180 18:40 22.05.2020
2786 Clouds 25 1018 57 10000 5.1 180 18:40 22.05.2020
2787 Rain 25 1018 57 10000 5.1 180 18:21 22.05.2020
2788 Rain 25 1019 57 10000 4.1 190 17:59 22.05.2020
2789 Rain 25 1019 53 10000 4.6 200 17:38 22.05.2020
2790 Rain 25 1019 53 10000 4.6 200 17:18 22.05.2020
2791 Rain 25 1019 53 10000 4.6 200 16:45 22.05.2020
2792 Clouds 25 1019 50 10000 4.6 170 16:21 22.05.2020
2793 Clouds 25 1019 50 10000 4.6 170 15:59 22.05.2020
2794 Clouds 25 1019 53 10000 3.6 160 15:41 22.05.2020
2795 Clouds 25 1019 53 10000 3.6 160 15:21 22.05.2020
2796 Clouds 24 1020 53 10000 3.1 210 14:44 22.05.2020
2797 Clouds 24 1020 53 10000 3.1 210 14:25 22.05.2020
2798 Clouds 24 1020 56 10000 3.1 200 13:49 22.05.2020
2799 Clouds 23 1020 56 10000 3.1 210 13:22 22.05.2020
2800 Clouds 23 1020 60 10000 3.6 200 12:59 22.05.2020
2801 Clouds 23 1020 60 10000 3.1 210 12:39 22.05.2020
2802 Clouds 23 1020 60 10000 3.1 210 12:20 22.05.2020
2803 Clouds 22 1020 60 10000 3.6 200 11:44 22.05.2020
2804 Clouds 22 1020 60 10000 2.1 200 11:21 22.05.2020
2805 Clouds 22 1020 60 10000 2.6 210 11:21 22.05.2020
2806 Clouds 22 1020 60 10000 2.1 200 10:56 22.05.2020
2807 Clouds 21 1020 64 10000 2.6 210 10:38 22.05.2020
2808 Clouds 21 1020 64 10000 2.6 210 10:19 22.05.2020
2809 Clouds 21 1020 64 10000 2.6 210 10:19 22.05.2020
2810 Clouds 21 1020 64 10000 2.6 210 09:46 22.05.2020
2811 Clouds 20 1020 68 10000 3.1 200 09:21 22.05.2020
2812 Clouds 19 1020 68 10000 2.6 200 08:57 22.05.2020
2813 Clouds 18 1020 72 10000 1.5 180 08:39 22.05.2020
2814 Clouds 18 1020 72 10000 1.5 180 08:18 22.05.2020
2815 Clouds 17 1020 77 10000 1 0 07:48 22.05.2020
2816 Clouds 16 1020 87 10000 1.5 240 07:22 22.05.2020
2817 Clouds 15 1020 93 10000 1.31 148 06:47 22.05.2020
2818 Clouds 15 1020 93 10000 1.32 157 06:28 22.05.2020
2819 Clouds 13 1020 93 10000 1.5 70 05:37 22.05.2020
2820 Clouds 14 1020 87 10000 0.5 0 04:49 22.05.2020
2821 Clouds 16 1020 82 10000 1 230 03:51 22.05.2020
2822 Clouds 15 1020 82 10000 1 0 03:32 22.05.2020
2823 Clouds 15 1020 87 10000 0.5 0 02:35 22.05.2020
2824 Clouds 16 1021 77 10000 1.5 230 01:43 22.05.2020
2825 Clouds 16 1021 77 10000 1.5 230 01:21 22.05.2020
2826 Clouds 16 1021 72 10000 0.5 0 00:34 22.05.2020
2827 Clouds 17 1020 72 10000 0.5 180 23:57 21.05.2020
2828 Clouds 18 1020 72 10000 1 0 23:39 21.05.2020
2829 Clouds 18 1020 72 10000 1 0 23:21 21.05.2020
2830 Clouds 20 1020 63 10000 1.5 160 22:57 21.05.2020
2831 Clouds 20 1020 56 10000 1 0 22:37 21.05.2020
2832 Clouds 20 1020 56 10000 1 0 22:19 21.05.2020
2833 Clouds 21 1020 60 10000 3.1 130 21:48 21.05.2020
2834 Clouds 23 1020 56 10000 2.6 130 21:27 21.05.2020
2835 Clouds 23 1020 46 10000 1.5 150 20:58 21.05.2020
2836 Clouds 24 1020 38 10000 2.1 130 20:40 21.05.2020
2837 Clouds 25 1020 38 10000 2.1 130 20:21 21.05.2020
2838 Clouds 27 1020 34 10000 1.5 210 19:40 21.05.2020
2839 Clouds 27 1020 31 10000 2.1 90 19:20 21.05.2020
2840 Clouds 27 1020 31 10000 2.1 90 18:58 21.05.2020
2841 Clouds 26 1020 29 10000 1 0 18:37 21.05.2020
2842 Clouds 26 1020 29 10000 1 0 18:18 21.05.2020
2843 Clouds 26 1020 33 10000 2.1 260 17:55 21.05.2020
2844 Clouds 26 1020 34 10000 2.6 0 17:36 21.05.2020
2845 Clear 26 1020 34 10000 2.6 0 17:18 21.05.2020
2846 Clear 25 1021 38 10000 2.1 0 16:41 21.05.2020
2847 Clear 26 1021 36 10000 3.1 0 16:22 21.05.2020
2848 Clear 25 1021 41 10000 2.6 70 15:41 21.05.2020
2849 Clear 25 1021 41 10000 2.6 70 15:22 21.05.2020
2850 Clear 24 1021 41 10000 2.1 0 14:42 21.05.2020
2851 Clear 24 1021 41 10000 2.1 0 14:23 21.05.2020
2852 Clouds 23 1021 43 10000 2.6 50 13:58 21.05.2020
2853 Clouds 23 1022 46 10000 2.6 120 13:38 21.05.2020
2854 Clouds 23 1022 46 10000 2.6 120 13:19 21.05.2020
2855 Clouds 23 1022 49 10000 1.5 0 12:40 21.05.2020
2856 Clouds 22 1022 49 10000 1.5 0 12:22 21.05.2020
2857 Clouds 22 1022 52 10000 2.1 0 11:58 21.05.2020
2858 Clouds 21 1022 56 10000 2.6 60 11:39 21.05.2020
2859 Clouds 21 1022 56 10000 2.6 60 11:21 21.05.2020
2860 Clouds 21 1023 59 10000 2.6 80 10:54 21.05.2020
2861 Clouds 20 1022 59 10000 2.6 70 10:36 21.05.2020
2862 Clouds 20 1022 59 10000 2.6 70 10:18 21.05.2020
2863 Clear 18 1022 63 10000 3.6 50 09:42 21.05.2020
2864 Clear 17 1022 63 10000 3.6 50 09:24 21.05.2020
2865 Clear 17 1022 67 10000 3.6 60 08:57 21.05.2020
2866 Clear 16 1022 72 10000 3.1 30 08:38 21.05.2020
2867 Clear 15 1022 76 10000 3.6 20 08:20 21.05.2020
2868 Clear 15 1022 76 10000 3.6 40 07:42 21.05.2020
2869 Clear 14 1022 82 10000 3.1 30 07:22 21.05.2020
2870 Clear 12 1022 82 10000 4.1 30 06:37 21.05.2020
2871 Clear 13 1021 76 10000 3.6 30 05:50 21.05.2020
2872 Clear 13 1022 76 10000 4.1 30 04:25 21.05.2020
2873 Clear 14 1022 72 10000 5.1 20 03:21 21.05.2020
2874 Clear 14 1022 72 10000 5.1 20 03:21 21.05.2020
2875 Clear 14 1022 72 10000 5.1 20 03:21 21.05.2020
2876 Clear 14 1022 72 10000 5.1 20 03:21 21.05.2020
2877 Clear 14 1022 77 10000 4.1 20 02:31 21.05.2020
2878 Clear 16 1022 72 10000 4.6 20 01:58 21.05.2020
2879 Clear 17 1022 67 10000 4.6 20 01:39 21.05.2020
2880 Clear 17 1022 67 10000 4.6 20 01:18 21.05.2020
2881 Clear 17 1022 63 10000 5.1 30 00:41 21.05.2020
2882 Clear 18 1022 63 10000 5.1 30 00:19 21.05.2020
2883 Clear 18 1022 59 10000 6.7 20 23:40 20.05.2020
2884 Clear 19 1022 59 10000 6.7 20 23:19 20.05.2020
2885 Clear 19 1021 55 10000 7.2 20 22:55 20.05.2020
2886 Clear 19 1021 52 10000 6.2 20 22:37 20.05.2020
2887 Clear 19 1021 52 10000 6.2 20 22:19 20.05.2020
2888 Clear 20 1020 49 10000 5.1 20 21:40 20.05.2020
2889 Clear 20 1020 49 10000 5.1 20 21:20 20.05.2020
2890 Clear 21 1020 46 10000 5.1 20 20:44 20.05.2020
2891 Clouds 21 1020 49 10000 5.7 20 20:24 20.05.2020
2892 Clouds 22 1020 46 10000 5.7 20 19:55 20.05.2020
2893 Clouds 23 1020 46 10000 5.7 10 19:37 20.05.2020
2894 Clouds 23 1020 46 10000 5.7 10 19:18 20.05.2020
2895 Clouds 24 1020 44 10000 4.6 30 18:42 20.05.2020
2896 Clouds 24 1020 44 10000 4.6 30 18:22 20.05.2020
2897 Clouds 24 1020 43 10000 5.7 360 17:41 20.05.2020
2898 Clouds 24 1020 43 10000 5.7 360 17:22 20.05.2020
2899 Clouds 24 1020 44 10000 2.6 20 16:57 20.05.2020
2900 Clouds 24 1020 44 10000 2.1 0 16:39 20.05.2020
2901 Clouds 24 1020 44 10000 2.1 0 16:20 20.05.2020
2902 Clouds 24 1020 44 10000 4.1 360 15:44 20.05.2020
2903 Clouds 24 1020 44 10000 4.1 360 15:25 20.05.2020
2904 Clouds 23 1020 44 10000 2.6 30 14:59 20.05.2020
2905 Clouds 23 1020 46 10000 2.6 0 14:37 20.05.2020
2906 Clouds 23 1020 46 10000 2.6 0 14:19 20.05.2020
2907 Clouds 24 1021 46 10000 3.1 350 13:39 20.05.2020
2908 Clouds 23 1021 46 10000 3.1 350 13:18 20.05.2020
2909 Clouds 22 1021 49 10000 2.1 20 12:42 20.05.2020
2910 Clouds 22 1021 49 10000 2.1 20 12:21 20.05.2020
2911 Clouds 22 1021 52 10000 1 0 11:39 20.05.2020
2912 Clouds 22 1021 52 10000 1 0 11:20 20.05.2020
2913 Clouds 22 1021 49 10000 1 0 10:58 20.05.2020
2914 Clouds 21 1021 56 10000 1.5 210 10:40 20.05.2020
2915 Clouds 21 1021 56 10000 1.5 210 10:19 20.05.2020
2916 Clouds 20 1021 56 10000 1.5 160 09:41 20.05.2020
2917 Clouds 19 1021 56 10000 1.5 160 09:20 20.05.2020
2918 Clear 18 1020 63 10000 1 0 08:42 20.05.2020
2919 Clouds 17 1020 63 10000 1 0 08:20 20.05.2020
2920 Clouds 17 1020 82 10000 0.5 0 07:54 20.05.2020
2921 Clouds 15 1020 82 10000 1 0 07:36 20.05.2020
2922 Clouds 14 1020 82 10000 1 0 07:18 20.05.2020
2923 Clouds 15 1020 82 10000 0.5 0 06:28 20.05.2020
2924 Clouds 15 1020 82 10000 0.5 0 05:19 20.05.2020
2925 Clouds 15 1020 76 10000 2.6 300 04:25 20.05.2020
2926 Clouds 14 1020 82 10000 1 170 03:37 20.05.2020
2927 Clouds 15 1021 76 10000 2.6 360 01:58 20.05.2020
2928 Clouds 16 1021 72 10000 2.6 30 01:26 20.05.2020
2929 Clouds 17 1021 63 10000 2.6 20 00:42 20.05.2020
2930 Clouds 17 1021 63 10000 2.6 20 00:23 20.05.2020
2931 Clouds 18 1021 49 10000 3.6 10 23:40 19.05.2020
2932 Clouds 19 1021 49 10000 3.6 10 23:19 19.05.2020
2933 Clouds 20 1020 52 10000 4.1 10 22:56 19.05.2020
2934 Clouds 21 1020 49 10000 3.1 350 22:38 19.05.2020
2935 Clouds 21 1020 49 10000 3.1 350 22:18 19.05.2020
2936 Clouds 22 1020 43 10000 4.6 320 21:55 19.05.2020
2937 Clouds 22 1019 43 10000 4.6 310 21:37 19.05.2020
2938 Clouds 22 1019 40 10000 4.6 310 21:19 19.05.2020
2939 Clouds 23 1019 40 10000 4.6 310 20:56 19.05.2020
2940 Clouds 24 1019 38 10000 4.6 310 20:38 19.05.2020
2941 Clouds 24 1019 38 10000 4.6 310 20:38 19.05.2020
2942 Clouds 23 1019 38 10000 4.6 310 20:19 19.05.2020
2943 Clouds 24 1019 33 10000 5.1 310 19:39 19.05.2020
2944 Clouds 25 1019 33 10000 5.1 310 19:21 19.05.2020
2945 Clouds 25 1019 33 10000 6.2 320 18:57 19.05.2020
2946 Clouds 25 1019 33 10000 6.7 320 18:38 19.05.2020
2947 Clouds 25 1019 33 10000 6.7 320 18:20 19.05.2020
2948 Clouds 25 1019 31 10000 5.1 330 17:41 19.05.2020
2949 Clouds 25 1019 31 10000 5.1 330 17:21 19.05.2020
2950 Clouds 25 1019 31 10000 4.6 330 16:58 19.05.2020
2951 Clouds 25 1019 33 10000 5.1 330 16:38 19.05.2020
2952 Clouds 25 1019 33 10000 5.1 330 16:19 19.05.2020
2953 Clouds 25 1020 31 10000 4.1 320 15:46 19.05.2020
2954 Clear 25 1020 31 10000 4.1 320 15:21 19.05.2020
2955 Clear 25 1020 31 10000 3.6 0 14:57 19.05.2020
2956 Clear 24 1020 27 10000 2.6 0 14:38 19.05.2020
2957 Clear 24 1020 27 10000 2.6 0 14:20 19.05.2020
2958 Clear 23 1021 28 10000 1.5 240 13:57 19.05.2020
2959 Clear 23 1021 28 10000 2.1 0 13:39 19.05.2020
2960 Clear 23 1021 28 10000 2.1 0 13:20 19.05.2020
2961 Clear 23 1021 27 10000 2.6 340 12:56 19.05.2020
2962 Clear 23 1021 28 10000 1.5 0 12:37 19.05.2020
2963 Clear 22 1021 28 10000 1.5 0 12:19 19.05.2020
2964 Clear 22 1022 33 10000 1 0 11:43 19.05.2020
2965 Clear 22 1022 33 10000 1 0 11:43 19.05.2020
2966 Clear 22 1022 33 10000 1 0 11:23 19.05.2020
2967 Clear 20 1022 32 10000 1 0 10:59 19.05.2020
2968 Clear 20 1022 37 10000 1.5 0 10:40 19.05.2020
2969 Clear 20 1022 37 10000 1.5 0 10:22 19.05.2020
2970 Clear 18 1022 42 10000 1 0 09:47 19.05.2020
2971 Clear 18 1022 52 10000 1 0 09:25 19.05.2020
2972 Clear 18 1022 52 10000 1 0 09:25 19.05.2020
2973 Clear 17 1022 67 10000 1 0 08:59 19.05.2020
2974 Clear 16 1022 76 10000 1.5 220 08:41 19.05.2020
2975 Clear 15 1022 76 10000 1.5 220 08:22 19.05.2020
2976 Clear 13 1022 87 10000 1.5 210 07:42 19.05.2020
2977 Clear 13 1022 87 10000 1.5 210 07:42 19.05.2020
2978 Clear 13 1022 87 10000 1.5 210 07:24 19.05.2020
2979 Clear 11 1021 93 10000 0.5 0 06:41 19.05.2020
2980 Clear 11 1021 93 10000 0.5 0 06:22 19.05.2020
2981 Clear 10 1021 93 10000 1 200 05:39 19.05.2020
2982 Clear 11 1021 87 10000 0.5 0 04:54 19.05.2020
2983 Clear 13 1021 87 10000 0.5 0 02:59 19.05.2020
2984 Clear 16 1022 76 10000 2.1 180 01:22 19.05.2020
2985 Clear 16 1022 67 10000 3.1 340 00:41 19.05.2020
2986 Clear 17 1022 67 10000 3.1 340 00:21 19.05.2020
2987 Clear 17 1021 63 10000 2.6 330 23:40 18.05.2020
2988 Clear 17 1021 63 10000 2.6 330 23:21 18.05.2020
2989 Clear 18 1021 59 10000 3.1 0 22:59 18.05.2020
2990 Clear 17 1021 55 10000 3.1 320 22:40 18.05.2020
2991 Clouds 18 1021 55 10000 3.1 320 22:21 18.05.2020
2992 Clouds 19 1021 43 10000 2.6 0 21:43 18.05.2020
2993 Clouds 21 1021 38 10000 3.1 330 21:22 18.05.2020
2994 Clouds 23 1021 38 10000 3.1 330 20:59 18.05.2020
2995 Clouds 23 1021 38 10000 3.1 330 20:41 18.05.2020
2996 Clouds 24 1021 36 10000 4.1 300 20:21 18.05.2020
2997 Clouds 24 1021 36 10000 4.1 300 19:57 18.05.2020
2998 Clouds 24 1020 33 10000 3.1 230 19:39 18.05.2020
2999 Clouds 24 1020 33 10000 3.1 230 19:19 18.05.2020
3000 Clouds 24 1021 31 10000 3.6 240 18:45 18.05.2020
3001 Clouds 24 1021 31 10000 2.6 0 18:24 18.05.2020
3002 Clouds 24 1021 33 10000 3.6 0 17:54 18.05.2020
3003 Clouds 24 1021 31 10000 4.1 230 17:36 18.05.2020
3004 Clouds 24 1021 31 10000 4.1 230 17:18 18.05.2020
3005 Clouds 23 1022 35 10000 3.6 260 16:42 18.05.2020
3006 Clouds 23 1022 33 10000 3.6 200 16:20 18.05.2020
3007 Clouds 23 1022 33 10000 3.6 200 15:57 18.05.2020
3008 Clouds 23 1022 35 10000 3.6 220 15:39 18.05.2020
3009 Clouds 23 1022 35 10000 3.6 220 15:20 18.05.2020
3010 Clouds 23 1023 35 10000 3.1 220 14:56 18.05.2020
3011 Clouds 22 1023 37 10000 3.1 0 14:38 18.05.2020
3012 Clouds 22 1023 37 10000 3.1 0 14:19 18.05.2020
3013 Clouds 22 1024 37 10000 3.1 250 13:41 18.05.2020
3014 Clouds 22 1024 37 10000 3.1 250 13:20 18.05.2020
3015 Clouds 21 1024 37 10000 3.6 240 12:58 18.05.2020
3016 Clouds 21 1024 40 10000 4.1 180 12:39 18.05.2020
3017 Clouds 20 1024 40 10000 4.1 180 12:19 18.05.2020
3018 Clouds 20 1024 42 10000 3.1 200 11:57 18.05.2020
3019 Clouds 20 1024 45 10000 2.1 180 11:38 18.05.2020
3020 Clouds 19 1024 45 10000 2.1 180 11:20 18.05.2020
3021 Clouds 18 1005 49 0 0.45 29 10:42 18.05.2020
3022 Clouds 17 1024 48 10000 1 0 10:23 18.05.2020
3023 Clouds 15 1024 62 10000 1 0 09:45 18.05.2020
3024 Clouds 15 1024 62 10000 1 0 09:26 18.05.2020
3025 Clouds 14 1024 66 10000 1 0 08:56 18.05.2020
3026 Clouds 12 1024 66 10000 1 0 08:38 18.05.2020
3027 Clouds 12 1024 76 10000 0.5 0 08:19 18.05.2020
3028 Clouds 10 1024 87 10000 0.5 0 07:42 18.05.2020
3029 Clouds 10 1024 87 10000 0.5 0 07:21 18.05.2020
3030 Clouds 8 1024 93 10000 0.5 260 06:47 18.05.2020
3031 Clouds 8 1024 93 10000 0.5 260 06:21 18.05.2020
3032 Clouds 6 1024 93 10000 1 200 05:42 18.05.2020
3033 Clear 8 1024 81 10000 1 0 03:38 18.05.2020
3034 Clear 8 1024 81 10000 0.5 0 02:35 18.05.2020
3035 Clear 9 1023 75 10000 1.5 160 01:45 18.05.2020
3036 Clear 11 1023 66 10000 1.5 350 00:41 18.05.2020
3037 Clear 11 1023 66 10000 1.5 350 00:18 18.05.2020
3038 Clear 11 1023 66 10000 1.5 350 00:18 18.05.2020
3039 Clear 12 1023 66 10000 2.6 340 23:55 17.05.2020
3040 Clear 12 1023 62 10000 4.1 330 23:36 17.05.2020
3041 Clear 13 1023 62 10000 4.1 330 23:18 17.05.2020
3042 Clear 14 1023 50 10000 3.1 320 22:40 17.05.2020
3043 Clear 14 1023 50 10000 3.1 320 22:22 17.05.2020
3044 Clear 16 1022 47 10000 2.6 320 21:59 17.05.2020
3045 Clear 17 1022 42 10000 3.1 320 21:41 17.05.2020
3046 Clear 18 1022 39 10000 3.1 330 21:19 17.05.2020
3047 Clear 19 1022 39 10000 3.1 330 20:56 17.05.2020
3048 Clear 19 1022 34 10000 3.6 300 20:37 17.05.2020
3049 Clouds 19 1022 34 10000 3.6 300 20:18 17.05.2020
3050 Clouds 20 1022 30 10000 3.1 300 19:42 17.05.2020
3051 Clouds 20 1022 30 10000 3.1 300 19:24 17.05.2020
3052 Clouds 19 1022 28 10000 1 0 18:56 17.05.2020
3053 Clouds 20 1022 28 10000 1.5 0 18:38 17.05.2020
3054 Clouds 19 1022 28 10000 1.5 0 18:20 17.05.2020
3055 Clouds 19 1022 32 10000 3.6 290 17:41 17.05.2020
3056 Clouds 20 1022 32 10000 3.6 290 17:23 17.05.2020
3057 Clouds 19 1023 34 10000 3.1 320 16:57 17.05.2020
3058 Clouds 19 1023 34 10000 2.1 0 16:39 17.05.2020
3059 Clouds 20 1023 34 10000 2.1 0 16:20 17.05.2020
3060 Clouds 18 1023 36 10000 2.1 0 15:46 17.05.2020
3061 Clouds 19 1023 36 10000 2.1 0 15:25 17.05.2020
3062 Clouds 18 1024 36 10000 2.1 0 14:58 17.05.2020
3063 Clear 18 1024 42 10000 2.1 280 14:40 17.05.2020
3064 Clouds 18 1024 42 10000 2.1 280 14:22 17.05.2020
3065 Clouds 17 1024 45 10000 1.5 0 13:43 17.05.2020
3066 Clouds 17 1024 45 10000 1.5 0 13:21 17.05.2020
3067 Clouds 14 1024 58 10000 2.1 0 10:50 17.05.2020
3068 Clouds 10 1021 70 10000 1.5 360 03:55 17.05.2020
3069 Clouds 12 1020 57 10000 3.6 310 02:28 17.05.2020
3070 Clouds 13 1020 62 10000 1.5 20 01:55 17.05.2020
3071 Clouds 11 1020 58 10000 2.1 350 00:56 17.05.2020
3072 Clouds 11 1020 66 10000 2.6 340 00:37 17.05.2020
3073 Clouds 13 1020 62 10000 2.1 310 23:57 16.05.2020
3074 Clouds 14 1020 58 10000 3.1 0 23:39 16.05.2020
3075 Clouds 14 1020 58 10000 3.1 0 23:19 16.05.2020
3076 Clouds 13 1020 54 10000 2.6 360 22:57 16.05.2020
3077 Clouds 15 1020 54 10000 2.1 350 22:39 16.05.2020
3078 Clouds 15 1020 54 10000 2.1 350 22:19 16.05.2020
3079 Clouds 15 1019 47 10000 2.6 350 21:44 16.05.2020
3080 Clouds 17 1019 44 10000 3.6 320 21:25 16.05.2020
3081 Clouds 19 1019 42 10000 2.1 300 20:57 16.05.2020
3082 Clouds 19 1019 32 10000 1 0 20:39 16.05.2020
3083 Clouds 19 1019 32 10000 1 0 20:20 16.05.2020
3084 Clouds 18 1019 34 10000 2.1 230 19:57 16.05.2020
3085 Clouds 18 1019 36 10000 2.6 260 19:39 16.05.2020
3086 Clouds 18 1019 36 10000 2.6 260 19:21 16.05.2020
3087 Clouds 19 1019 29 10000 1 0 18:42 16.05.2020
3088 Clear 20 1019 29 10000 1 0 18:22 16.05.2020
3089 Clear 20 1020 28 10000 2.1 0 17:56 16.05.2020
3090 Clear 20 1020 30 10000 2.1 90 17:37 16.05.2020
3091 Clear 20 1020 30 10000 2.1 90 17:18 16.05.2020
3092 Clear 20 1020 30 10000 2.1 90 17:18 16.05.2020
3093 Clear 19 1021 32 10000 3.6 240 16:39 16.05.2020
3094 Clear 19 1021 32 10000 3.6 240 16:20 16.05.2020
3095 Clear 19 1021 31 10000 1.5 0 15:56 16.05.2020
3096 Clear 19 1021 34 10000 2.1 0 15:38 16.05.2020
3097 Clear 19 1021 34 10000 2.1 0 15:38 16.05.2020
3098 Clear 19 1021 34 10000 2.1 0 15:19 16.05.2020
3099 Clear 18 1022 39 10000 1.5 0 14:43 16.05.2020
3100 Clear 18 1022 39 10000 1.5 0 14:20 16.05.2020
3101 Clear 17 1022 36 10000 2.1 0 13:57 16.05.2020
3102 Clear 17 1022 39 10000 1.5 0 13:39 16.05.2020
3103 Clear 17 1022 39 10000 1.5 0 13:21 16.05.2020
3104 Clear 16 1023 38 10000 2.1 0 12:45 16.05.2020
3105 Clear 15 1023 38 10000 2.1 0 12:21 16.05.2020
3106 Clouds 16 1023 38 10000 3.1 70 11:56 16.05.2020
3107 Clouds 15 1024 44 10000 1.5 0 11:38 16.05.2020
3108 Clouds 15 1024 44 10000 1.5 0 11:20 16.05.2020
3109 Clouds 14 1024 43 10000 2.1 70 10:55 16.05.2020
3110 Clouds 14 1024 47 10000 3.1 50 10:37 16.05.2020
3111 Clouds 14 1024 47 10000 3.1 50 10:18 16.05.2020
3112 Clouds 12 1024 50 10000 3.1 40 09:44 16.05.2020
3113 Clouds 11 1024 54 10000 3.1 20 09:26 16.05.2020
3114 Clear 10 1023 66 10000 2.1 20 08:43 16.05.2020
3115 Clear 8 1023 70 10000 2.6 10 08:22 16.05.2020
3116 Clear 8 1023 70 10000 2.6 10 07:55 16.05.2020
3117 Clear 8 1023 70 10000 0.5 0 07:37 16.05.2020
3118 Clear 7 1023 80 10000 1 0 07:18 16.05.2020
3119 Clear 5 1023 80 10000 1 0 06:43 16.05.2020
3120 Clear 5 1023 75 10000 2.1 70 06:18 16.05.2020
3121 Clear 5 1022 75 10000 1.5 60 05:39 16.05.2020
3122 Clear 6 1022 65 10000 3.1 40 04:30 16.05.2020
3123 Clear 9 1023 53 10000 3.6 20 03:21 16.05.2020
3124 Clouds 9 1023 53 10000 4.1 30 02:27 16.05.2020
3125 Clear 10 1022 53 10000 3.6 20 01:56 16.05.2020
3126 Clear 10 1022 50 10000 4.1 20 01:35 16.05.2020
3127 Clear 10 1022 50 10000 4.6 20 00:55 16.05.2020
3128 Clear 11 1022 46 10000 5.7 20 00:37 16.05.2020
3129 Clear 10 1022 46 10000 5.7 20 00:18 16.05.2020
3130 Clear 12 1021 47 10000 3.6 10 23:37 15.05.2020
3131 Clear 14 1021 47 10000 3.6 10 23:18 15.05.2020
3132 Clear 13 1021 41 10000 4.1 20 22:40 15.05.2020
3133 Clear 14 1021 41 10000 4.1 20 22:20 15.05.2020
3134 Clear 14 1020 41 10000 5.1 20 21:55 15.05.2020
3135 Clear 14 1020 41 10000 5.1 20 21:55 15.05.2020
3136 Clear 13 1020 47 10000 3.1 60 21:36 15.05.2020
3137 Clear 14 1020 47 10000 3.1 60 21:18 15.05.2020
3138 Clear 16 1019 36 10000 3.1 80 20:54 15.05.2020
3139 Clear 16 1019 36 10000 3.1 80 20:36 15.05.2020
3140 Clear 17 1019 36 10000 3.1 80 20:18 15.05.2020
3141 Clear 17 1019 36 10000 2.6 30 19:42 15.05.2020
3142 Clear 17 1019 36 10000 2.6 30 19:23 15.05.2020
3143 Clear 17 1019 31 10000 3.6 80 18:48 15.05.2020
3144 Clear 18 1019 31 10000 3.6 80 18:28 15.05.2020
3145 Clear 18 1019 33 10000 4.1 40 17:59 15.05.2020
3146 Clear 18 1019 36 10000 3.1 0 17:37 15.05.2020
3147 Clear 17 1019 36 10000 3.1 0 17:18 15.05.2020
3148 Clear 17 1019 34 10000 3.6 20 16:55 15.05.2020
3149 Clear 17 1019 33 10000 3.6 0 16:37 15.05.2020
3150 Clear 17 1019 33 10000 3.6 0 16:18 15.05.2020
3151 Clear 17 1019 33 10000 4.6 60 15:40 15.05.2020
3152 Clear 17 1019 33 10000 4.6 60 15:20 15.05.2020
3153 Clear 16 1019 36 10000 4.6 50 14:57 15.05.2020
3154 Clear 16 1019 36 10000 4.6 360 14:38 15.05.2020
3155 Clear 16 1019 36 10000 4.6 360 14:20 15.05.2020
3156 Clear 16 1019 36 10000 5.7 10 13:42 15.05.2020
3157 Clear 16 1019 36 10000 5.7 10 13:22 15.05.2020
3158 Clear 15 1018 38 10000 4.6 40 12:56 15.05.2020
3159 Clear 15 1018 41 10000 5.7 20 12:37 15.05.2020
3160 Clear 15 1018 41 10000 5.7 20 12:18 15.05.2020
3161 Clouds 15 1018 44 10000 4.1 20 12:18 15.05.2020
3162 Clouds 14 1018 44 10000 4.1 20 11:56 15.05.2020
3163 Clouds 14 1018 47 10000 5.1 20 11:37 15.05.2020
3164 Clouds 14 1018 47 10000 5.1 20 11:18 15.05.2020
3165 Clear 13 1018 47 10000 5.7 30 10:54 15.05.2020
3166 Clear 12 1017 50 10000 5.1 20 10:36 15.05.2020
3167 Clear 12 1017 50 10000 5.1 20 10:18 15.05.2020
3168 Clear 10 1017 53 10000 6.2 40 09:40 15.05.2020
3169 Clear 10 1017 53 10000 6.2 40 09:20 15.05.2020
3170 Clear 9 1017 53 10000 5.7 40 08:58 15.05.2020
3171 Clear 8 1017 57 10000 5.1 40 08:38 15.05.2020
3172 Clear 8 1017 57 10000 5.1 40 08:19 15.05.2020
3173 Clear 9 1017 65 10000 4.6 20 07:44 15.05.2020
3174 Clear 8 1017 70 10000 4.6 20 07:25 15.05.2020
3175 Clear 8 1016 70 10000 5.7 30 06:56 15.05.2020
3176 Clear 8 1016 73 10000 5.7 30 05:53 15.05.2020
3177 Clear 9 1016 65 10000 5.7 30 04:29 15.05.2020
3178 Clear 8 1016 65 10000 5.1 20 03:48 15.05.2020
3179 Clear 9 1016 61 10000 5.1 20 02:40 15.05.2020
3180 Clear 10 1016 53 10000 5.7 20 01:31 15.05.2020
3181 Clear 10 1016 53 10000 5.1 20 00:57 15.05.2020
3182 Clear 10 1017 57 10000 5.1 20 00:38 15.05.2020
3183 Clear 10 1017 57 10000 5.1 20 00:20 15.05.2020
3184 Clear 11 1017 50 10000 5.7 30 23:40 14.05.2020
3185 Clear 11 1016 46 10000 4.6 20 23:18 14.05.2020
3186 Clear 11 1017 50 10000 5.7 30 23:18 14.05.2020
3187 Clear 11 1016 46 10000 5.1 10 22:42 14.05.2020
3188 Clear 11 1016 46 10000 5.1 10 22:23 14.05.2020
3189 Clear 12 1016 47 10000 6.7 20 21:58 14.05.2020
3190 Clear 13 1016 44 10000 5.1 20 21:40 14.05.2020
3191 Clear 13 1016 44 10000 5.1 20 21:19 14.05.2020
3192 Clear 13 1016 44 10000 5.7 30 20:56 14.05.2020
3193 Clear 13 1016 44 10000 6.2 20 20:38 14.05.2020
3194 Clouds 13 1016 44 10000 6.2 20 20:19 14.05.2020
3195 Clouds 14 1016 44 10000 7.2 30 19:56 14.05.2020
3196 Clouds 14 1016 41 10000 7.2 30 19:37 14.05.2020
3197 Clouds 14 1016 41 10000 7.2 30 19:19 14.05.2020
3198 Clouds 14 1016 44 10000 7.2 10 18:56 14.05.2020
3199 Clouds 15 1015 41 10000 7.7 30 18:37 14.05.2020
3200 Clouds 15 1015 41 10000 7.7 30 18:18 14.05.2020
3201 Clouds 15 1015 41 10000 7.7 20 17:55 14.05.2020
3202 Clouds 15 1015 41 10000 7.7 40 17:36 14.05.2020
3203 Clouds 15 1016 41 10000 7.2 20 17:18 14.05.2020
3204 Clouds 14 1016 44 10000 7.2 30 16:39 14.05.2020
3205 Clouds 15 1016 41 10000 5.7 40 16:21 14.05.2020
3206 Clouds 15 1016 41 10000 5.7 40 15:58 14.05.2020
3207 Clouds 15 1016 44 10000 6.2 30 15:40 14.05.2020
3208 Clouds 15 1016 44 10000 6.2 30 15:20 14.05.2020
3209 Clouds 14 1016 47 10000 6.7 50 14:56 14.05.2020
3210 Clouds 14 1017 47 10000 6.7 50 14:38 14.05.2020
3211 Clouds 14 1017 47 10000 6.7 50 14:20 14.05.2020
3212 Clouds 14 1017 54 10000 6.2 20 13:56 14.05.2020
3213 Clouds 13 1017 54 10000 6.7 30 13:38 14.05.2020
3214 Clouds 13 1017 54 10000 6.7 30 13:18 14.05.2020
3215 Clouds 13 1017 58 10000 6.7 20 12:57 14.05.2020
3216 Clouds 12 1017 58 10000 7.7 30 12:37 14.05.2020
3217 Clouds 12 1017 58 10000 7.7 30 12:18 14.05.2020
3218 Clouds 12 1017 58 10000 7.7 30 12:18 14.05.2020
3219 Clouds 12 1017 62 10000 7.7 20 11:56 14.05.2020
3220 Clouds 12 1017 58 10000 7.7 40 11:37 14.05.2020
3221 Clouds 12 1017 58 10000 7.7 40 11:37 14.05.2020
3222 Clouds 11 1017 58 10000 7.7 40 11:19 14.05.2020
3223 Clouds 10 1017 66 10000 5.7 20 10:42 14.05.2020
3224 Clouds 10 1017 66 10000 5.7 20 10:24 14.05.2020
3225 Clouds 10 1017 66 10000 7.2 40 09:56 14.05.2020
3226 Clouds 9 1016 66 10000 7.7 40 09:38 14.05.2020
3227 Clouds 9 1016 70 10000 8.2 20 09:18 14.05.2020
3228 Clouds 8 1016 70 10000 7.7 20 08:39 14.05.2020
3229 Clouds 7 1016 70 10000 7.7 20 08:19 14.05.2020
3230 Clouds 7 1016 70 10000 6.2 360 07:45 14.05.2020
3231 Clouds 7 1016 70 10000 6.2 360 07:22 14.05.2020
3232 Clouds 6 1015 75 10000 5.1 10 06:53 14.05.2020
3233 Clouds 6 1015 75 10000 6.7 360 06:27 14.05.2020
3234 Clouds 6 1014 70 10000 6.2 20 05:43 14.05.2020
3235 Clear 6 1014 70 10000 6.2 20 05:22 14.05.2020
3236 Clouds 6 1014 75 10000 6.2 20 04:24 14.05.2020
3237 Clouds 7 1013 70 10000 6.2 10 03:21 14.05.2020
3238 Clouds 8 1013 66 10000 6.2 10 02:40 14.05.2020
3239 Clouds 9 1012 66 10000 7.7 10 01:55 14.05.2020
3240 Clouds 11 1012 50 10000 6.2 10 00:58 14.05.2020
3241 Clouds 10 1011 50 10000 4.1 10 00:37 14.05.2020
3242 Clouds 10 1011 50 10000 4.1 10 00:19 14.05.2020
3243 Clouds 11 1011 46 10000 5.7 20 23:39 13.05.2020
3244 Clouds 11 1011 46 10000 5.7 20 23:18 13.05.2020
3245 Clouds 11 1010 46 10000 6.2 20 22:42 13.05.2020
3246 Clouds 11 1010 46 10000 6.2 20 22:23 13.05.2020
3247 Clouds 12 1009 43 10000 6.2 10 21:59 13.05.2020
3248 Clouds 12 1009 43 10000 6.2 10 21:59 13.05.2020
3249 Clouds 12 1009 43 10000 6.2 20 21:40 13.05.2020
3250 Clouds 13 1009 43 10000 6.2 20 21:20 13.05.2020
3251 Clouds 13 1009 44 10000 5.1 10 20:59 13.05.2020
3252 Clouds 13 1009 44 10000 5.1 10 20:39 13.05.2020
3253 Clouds 13 1009 44 10000 5.1 10 20:21 13.05.2020
3254 Clouds 14 1009 44 10000 2.1 20 19:43 13.05.2020
3255 Clouds 14 1009 44 10000 2.1 20 19:24 13.05.2020
3256 Clouds 14 1009 41 10000 3.1 40 18:55 13.05.2020
3257 Clouds 15 1009 44 10000 2.1 0 18:37 13.05.2020
3258 Clouds 15 1009 44 10000 2.1 0 18:18 13.05.2020
3259 Clouds 15 1009 47 10000 2.6 50 17:38 13.05.2020
3260 Clouds 15 1009 47 10000 2.6 50 17:19 13.05.2020
3261 Clouds 15 1009 47 10000 4.1 360 16:55 13.05.2020
3262 Clouds 15 1009 44 10000 3.1 0 16:37 13.05.2020
3263 Clouds 15 1009 44 10000 3.1 0 16:18 13.05.2020
3264 Clouds 14 1010 44 10000 3.6 60 15:42 13.05.2020
3265 Clouds 15 1010 44 10000 3.6 60 15:19 13.05.2020
3266 Clouds 14 1011 44 10000 3.6 50 14:57 13.05.2020
3267 Clouds 14 1011 41 10000 1 0 14:39 13.05.2020
3268 Clouds 14 1011 41 10000 1 0 14:20 13.05.2020
3269 Clouds 15 1011 33 10000 2.6 60 13:56 13.05.2020
3270 Clouds 15 1011 41 10000 3.1 70 13:38 13.05.2020
3271 Clouds 14 1011 43 10000 4.1 20 13:19 13.05.2020
3272 Clouds 14 1012 47 10000 3.6 50 12:43 13.05.2020
3273 Clouds 14 1012 47 10000 3.6 50 12:22 13.05.2020
3274 Clouds 13 1012 43 10000 3.1 30 11:57 13.05.2020
3275 Clouds 13 1012 50 10000 3.6 50 11:39 13.05.2020
3276 Clouds 13 1012 50 10000 3.6 50 11:20 13.05.2020
3277 Clouds 12 1012 47 10000 3.6 40 10:59 13.05.2020
3278 Clouds 11 1013 53 10000 3.1 20 10:39 13.05.2020
3279 Clouds 12 1013 53 10000 3.1 20 10:20 13.05.2020
3280 Clouds 10 1013 57 10000 2.6 40 09:58 13.05.2020
3281 Clouds 10 1013 61 10000 3.1 60 09:39 13.05.2020
3282 Clouds 9 1013 61 10000 3.1 60 09:21 13.05.2020
3283 Clouds 8 1014 70 10000 2.6 80 08:41 13.05.2020
3284 Clouds 7 1014 70 10000 2.6 80 08:22 13.05.2020
3285 Clouds 7 1014 75 10000 2.1 90 07:59 13.05.2020
3286 Clouds 7 1014 75 10000 2.1 90 07:59 13.05.2020
3287 Clouds 4 1014 86 10000 1.5 150 07:36 13.05.2020
3288 Clouds 4 1013 93 10000 1.5 50 06:58 13.05.2020
3289 Clouds 3 1013 93 10000 0.5 0 06:40 13.05.2020
3290 Clouds 5 1013 86 10000 1.5 70 05:50 13.05.2020
3291 Clouds 4 1013 86 10000 1.5 70 04:22 13.05.2020
3292 Clouds 6 1013 75 10000 3.1 10 02:59 13.05.2020
3293 Clouds 6 1014 81 10000 4.1 10 02:20 13.05.2020
3294 Clouds 6 1014 86 10000 1 0 01:21 13.05.2020
3295 Clouds 6 1014 86 10000 1 0 00:41 13.05.2020
3296 Clouds 6 1014 86 10000 1 0 00:19 13.05.2020
3297 Clouds 7 1014 75 10000 0.5 0 23:40 12.05.2020
3298 Clouds 7 1014 75 10000 0.5 0 23:21 12.05.2020
3299 Clouds 8 1015 75 10000 0.5 0 22:57 12.05.2020
3300 Clouds 8 1015 70 10000 1.5 120 22:38 12.05.2020
3301 Clouds 9 1015 70 10000 1.5 120 22:20 12.05.2020
3302 Clouds 9 1015 70 10000 2.1 130 21:54 12.05.2020
3303 Clouds 12 1014 61 10000 3.1 110 21:36 12.05.2020
3304 Clouds 11 1014 61 10000 3.1 110 21:18 12.05.2020
3305 Clouds 12 1015 46 10000 3.6 110 20:56 12.05.2020
3306 Clouds 12 1015 46 10000 2.1 140 20:37 12.05.2020
3307 Clouds 12 1015 46 10000 2.1 140 20:19 12.05.2020
3308 Clouds 13 1015 41 10000 2.1 120 19:54 12.05.2020
3309 Clouds 13 1015 37 10000 1 0 19:36 12.05.2020
3310 Clouds 13 1015 37 10000 1 0 19:18 12.05.2020
3311 Clouds 13 1015 37 10000 2.1 40 18:41 12.05.2020
3312 Clouds 13 1015 37 10000 2.1 40 18:23 12.05.2020
3313 Clouds 15 1016 34 10000 1.5 0 17:54 12.05.2020
3314 Clouds 15 1016 34 10000 1 0 17:36 12.05.2020
3315 Clear 14 1016 32 10000 1 0 17:18 12.05.2020
3316 Clear 14 1017 37 10000 2.6 0 16:42 12.05.2020
3317 Clear 14 1017 37 10000 2.6 0 16:21 12.05.2020
3318 Clear 12 1017 37 10000 2.6 150 15:55 12.05.2020
3319 Clear 14 1017 37 10000 2.6 150 15:55 12.05.2020
3320 Clear 13 1017 37 10000 2.6 0 15:36 12.05.2020
3321 Clear 13 1017 37 10000 2.6 0 15:18 12.05.2020
3322 Clear 14 1018 40 10000 2.6 0 14:55 12.05.2020
3323 Clear 14 1018 31 10000 1.5 0 14:36 12.05.2020
3324 Clear 14 1018 32 10000 1.5 0 14:18 12.05.2020
3325 Clouds 14 1018 43 10000 2.1 0 13:54 12.05.2020
3326 Clear 13 999 40 0 1.79 94 13:36 12.05.2020
3327 Clear 13 999 41 0 0.81 169 13:18 12.05.2020
3328 Clear 12 1000 44 0 0.81 169 12:55 12.05.2020
3329 Clear 12 1000 45 0 0.89 126 12:37 12.05.2020
3330 Clear 12 1000 46 0 0.69 182 12:18 12.05.2020
3331 Clouds 11 1020 61 10000 1.5 0 11:56 12.05.2020
3332 Clouds 10 1020 61 10000 1.5 0 11:37 12.05.2020
3333 Clouds 9 1020 61 10000 1.5 0 11:19 12.05.2020
3334 Clouds 10 1020 61 10000 1.5 0 10:54 12.05.2020
3335 Clouds 9 1020 47 10000 2.6 110 10:36 12.05.2020
3336 Clouds 8 1020 47 10000 2.1 80 10:18 12.05.2020
3337 Clouds 8 1020 47 10000 2.1 80 09:55 12.05.2020
3338 Clouds 7 1020 47 10000 3.6 40 09:37 12.05.2020
3339 Clouds 6 1020 56 10000 3.6 40 09:18 12.05.2020
3340 Clear 6 1020 70 10000 1.5 80 08:39 12.05.2020
3341 Clear 5 1020 70 10000 1.5 80 08:20 12.05.2020
3342 Clear 4 1019 67 10000 2.6 80 07:44 12.05.2020
3343 Clear 4 1019 74 10000 2.6 80 07:26 12.05.2020
3344 Clear 2 1019 74 10000 2.1 80 06:56 12.05.2020
3345 Clear 2 1019 74 10000 3.1 60 06:37 12.05.2020
3346 Clear 3 1018 74 10000 3.1 40 06:18 12.05.2020
3347 Clear 3 1018 69 10000 4.6 30 05:45 12.05.2020
3348 Clear 3 1017 75 10000 3.6 360 03:49 12.05.2020
3349 Clear 3 1017 72 10000 3.6 360 03:18 12.05.2020
3350 Clouds 3 1017 93 10000 3.6 360 02:26 12.05.2020
3351 Clouds 5 1016 80 10000 3.1 360 01:33 12.05.2020
3352 Clouds 6 1016 70 10000 3.6 360 00:57 12.05.2020
3353 Clouds 6 1015 70 10000 4.1 360 00:23 12.05.2020
3354 Clouds 6 1015 75 10000 4.1 360 23:56 11.05.2020
3355 Clouds 6 1014 93 10000 3.1 10 23:37 11.05.2020
3356 Clouds 6 1014 93 10000 2.1 360 23:19 11.05.2020
3357 Clouds 6 1014 93 10000 2.1 360 22:55 11.05.2020
3358 Clouds 6 1013 93 10000 2.1 360 22:37 11.05.2020
3359 Clouds 6 1013 93 10000 2.1 360 22:19 11.05.2020
3360 Clouds 7 1013 87 10000 1.5 30 21:54 11.05.2020
3361 Clouds 8 1012 87 10000 2.1 20 21:36 11.05.2020
3362 Clouds 9 1012 66 10000 4.1 20 21:18 11.05.2020
3363 Clouds 8 1011 70 10000 4.1 20 20:42 11.05.2020
3364 Clouds 8 1011 70 10000 4.1 20 20:21 11.05.2020
3365 Clouds 8 1011 75 10000 3.1 30 19:59 11.05.2020
3366 Clouds 8 1011 75 10000 3.6 40 19:41 11.05.2020
3367 Clouds 8 1011 75 10000 3.6 40 19:22 11.05.2020
3368 Clouds 8 1010 75 10000 4.6 30 18:57 11.05.2020
3369 Clouds 7 1010 81 10000 4.6 20 18:38 11.05.2020
3370 Clouds 7 1010 81 10000 4.6 20 18:19 11.05.2020
3371 Rain 6 1009 75 10000 5.7 20 17:57 11.05.2020
3372 Rain 6 1009 75 10000 6.7 10 17:39 11.05.2020
3373 Rain 6 1009 75 10000 6.7 10 17:20 11.05.2020
3374 Rain 6 1008 87 10000 5.7 30 16:56 11.05.2020
3375 Rain 6 1008 81 10000 8.7 20 16:37 11.05.2020
3376 Rain 5 1008 81 10000 8.7 20 16:19 11.05.2020
3377 Rain 5 1007 86 10000 9.8 20 15:42 11.05.2020
3378 Rain 5 1007 86 10000 9.8 20 15:20 11.05.2020
3379 Rain 5 1006 86 10000 10.3 10 14:59 11.05.2020
3380 Rain 5 1006 86 10000 8.7 20 14:41 11.05.2020
3381 Rain 5 1006 86 10000 8.7 20 14:22 11.05.2020
3382 Rain 4 1006 80 10000 8.7 10 13:55 11.05.2020
3383 Rain 5 1006 80 10000 8.7 10 13:55 11.05.2020
3384 Rain 4 1006 86 10000 7.7 10 13:37 11.05.2020
3385 Rain 4 1006 86 10000 7.7 10 13:18 11.05.2020
3386 Rain 4 1006 80 10000 9.3 360 12:55 11.05.2020
3387 Rain 4 1006 80 10000 8.7 10 12:37 11.05.2020
3388 Rain 4 1006 80 10000 8.7 10 12:19 11.05.2020
3389 Rain 4 1005 80 10000 7.2 10 11:41 11.05.2020
3390 Rain 4 1005 80 10000 7.2 10 11:22 11.05.2020
3391 Rain 4 1005 80 10000 9.3 10 10:58 11.05.2020
3392 Rain 4 1004 80 10000 10.3 10 10:40 11.05.2020
3393 Rain 4 1004 80 10000 10.3 10 10:21 11.05.2020
3394 Rain 4 1005 80 10000 9.3 10 09:58 11.05.2020
3395 Rain 4 1005 80 10000 9.3 10 09:39 11.05.2020
3396 Rain 4 1005 80 10000 9.3 10 09:19 11.05.2020
3397 Rain 5 1004 86 9000 9.8 10 08:55 11.05.2020
3398 Rain 6 1004 87 9000 10.3 10 08:37 11.05.2020
3399 Rain 6 1004 81 10000 8.7 10 08:18 11.05.2020
3400 Rain 7 1004 81 10000 9.8 10 07:42 11.05.2020
3401 Rain 7 1004 81 10000 9.8 10 07:23 11.05.2020
3402 Rain 8 1004 81 10000 8.7 10 06:43 11.05.2020
3403 Clouds 9 1004 76 10000 9.3 360 05:58 11.05.2020
3404 Clouds 10 1003 81 10000 10.3 10 05:25 11.05.2020
3405 Clouds 12 1003 87 10000 8.2 10 04:31 11.05.2020
3406 Rain 14 1003 93 10000 4.6 10 02:59 11.05.2020
3407 Rain 14 1003 87 10000 4.1 20 02:29 11.05.2020
3408 Clouds 14 1003 93 10000 2.1 350 01:40 11.05.2020
3409 Clouds 14 1004 93 10000 2.6 340 00:53 11.05.2020
3410 Clouds 15 1004 93 10000 2.6 340 00:20 11.05.2020
3411 Clouds 15 1004 93 10000 2.6 360 23:43 10.05.2020
3412 Clouds 15 1004 93 10000 2.6 360 23:24 10.05.2020
3413 Clouds 15 1004 87 10000 2.1 10 22:57 10.05.2020
3414 Clouds 16 1004 82 10000 2.6 30 22:38 10.05.2020
3415 Clouds 16 1004 82 10000 2.6 30 22:20 10.05.2020
3416 Clouds 16 1004 82 10000 5.1 70 21:44 10.05.2020
3417 Clouds 18 1004 82 10000 5.1 70 21:20 10.05.2020
3418 Clouds 19 1003 72 10000 5.1 60 20:55 10.05.2020
3419 Clouds 19 1003 72 10000 2.6 30 20:37 10.05.2020
3420 Clouds 19 1003 72 10000 2.6 30 20:19 10.05.2020
3421 Rain 20 1003 68 10000 7.7 320 19:41 10.05.2020
3422 Rain 20 1003 68 10000 7.7 320 19:22 10.05.2020
3423 Rain 21 1003 53 10000 2.6 250 18:57 10.05.2020
3424 Clouds 23 1003 53 10000 2.1 220 18:37 10.05.2020
3425 Clouds 24 1003 53 10000 2.1 220 18:19 10.05.2020
3426 Clouds 24 1003 50 10000 4.1 210 17:59 10.05.2020
3427 Clouds 24 1003 47 10000 3.1 220 17:40 10.05.2020
3428 Clouds 25 1003 47 10000 3.1 220 17:22 10.05.2020
3429 Clouds 24 1003 50 10000 1.5 0 16:58 10.05.2020
3430 Clouds 24 1004 50 10000 2.1 0 16:40 10.05.2020
3431 Clouds 24 1004 50 10000 2.1 0 16:19 10.05.2020
3432 Clouds 24 1004 53 10000 2.6 180 15:55 10.05.2020
3433 Clouds 24 1005 56 10000 1 0 15:36 10.05.2020
3434 Clouds 23 1005 56 10000 1 0 15:36 10.05.2020
3435 Clouds 23 1005 56 10000 1 0 15:18 10.05.2020
3436 Clouds 21 1005 60 10000 2.1 0 14:39 10.05.2020
3437 Clouds 22 1005 60 10000 2.1 0 14:39 10.05.2020
3438 Clouds 22 1005 60 10000 2.1 0 14:20 10.05.2020
3439 Clouds 22 1006 64 10000 1.5 170 13:59 10.05.2020
3440 Clouds 21 1006 72 10000 2.1 0 13:39 10.05.2020
3441 Clouds 20 1006 72 10000 2.1 0 13:20 10.05.2020
3442 Clouds 19 1006 77 10000 1 0 12:58 10.05.2020
3443 Clouds 19 1006 77 10000 2.1 240 12:40 10.05.2020
3444 Clouds 19 1006 77 10000 2.1 240 12:40 10.05.2020
3445 Clouds 18 1006 77 10000 2.1 240 12:21 10.05.2020
3446 Clouds 18 1006 77 10000 1 0 11:58 10.05.2020
3447 Clouds 17 1007 87 10000 1.5 170 11:39 10.05.2020
3448 Clouds 17 1007 87 10000 1.5 170 11:20 10.05.2020
3449 Clouds 17 1006 87 10000 1.5 100 10:48 10.05.2020
3450 Clouds 17 1006 87 10000 1.5 100 10:29 10.05.2020
3451 Clouds 16 1007 93 10000 1 0 09:59 10.05.2020
3452 Rain 15 1007 93 10000 1 0 09:40 10.05.2020
3453 Rain 14 1007 93 10000 1 0 09:21 10.05.2020
3454 Rain 14 1007 93 6000 1 0 08:53 10.05.2020
3455 Rain 14 1007 87 10000 1.5 140 08:24 10.05.2020
3456 Rain 13 1006 93 10000 1 60 07:57 10.05.2020
3457 Rain 13 1006 93 10000 1.5 80 07:38 10.05.2020
3458 Clouds 12 1006 93 10000 1.5 80 07:19 10.05.2020
3459 Clouds 12 1006 87 10000 1 80 06:50 10.05.2020
3460 Clouds 12 1006 87 10000 1.5 70 06:22 10.05.2020
3461 Clouds 12 1007 87 10000 2.1 20 05:43 10.05.2020
3462 Clouds 12 1007 93 10000 2.1 70 04:41 10.05.2020
3463 Clouds 12 1007 93 10000 2.1 70 04:22 10.05.2020
3464 Clouds 12 1008 93 10000 1.5 70 03:43 10.05.2020
3465 Clouds 13 1008 93 10000 2.1 10 02:54 10.05.2020
3466 Clouds 13 1008 87 10000 2.6 10 02:24 10.05.2020
3467 Clouds 13 1009 87 10000 2.1 10 01:44 10.05.2020
3468 Clouds 14 1009 87 10000 2.1 10 01:25 10.05.2020
3469 Clouds 14 1009 87 10000 1.5 360 00:59 10.05.2020
3470 Clouds 14 1009 82 10000 2.6 20 00:39 10.05.2020
3471 Clouds 15 1009 82 10000 2.1 60 00:19 10.05.2020
3472 Clouds 15 1010 82 10000 1.5 80 23:40 09.05.2020
3473 Clouds 15 1010 82 10000 3.1 40 23:21 09.05.2020
3474 Clouds 15 1010 82 10000 3.1 40 22:57 09.05.2020
3475 Clouds 15 1010 77 10000 4.6 30 22:39 09.05.2020
3476 Clouds 15 1010 77 10000 4.6 30 22:21 09.05.2020
3477 Clouds 16 1010 72 10000 3.6 30 21:55 09.05.2020
3478 Clouds 16 1010 67 10000 3.1 20 21:37 09.05.2020
3479 Clouds 16 1010 67 10000 3.1 20 21:19 09.05.2020
3480 Clouds 16 1010 72 10000 2.1 10 20:56 09.05.2020
3481 Clouds 17 1010 72 10000 2.6 350 20:37 09.05.2020
3482 Clouds 17 1010 72 10000 2.6 350 20:18 09.05.2020
3483 Clouds 17 1010 72 10000 3.6 30 19:40 09.05.2020
3484 Clouds 17 1010 72 10000 3.6 30 19:20 09.05.2020
3485 Clouds 17 1011 67 10000 3.6 50 18:58 09.05.2020
3486 Clouds 17 1011 72 10000 3.1 60 18:40 09.05.2020
3487 Rain 17 1011 72 10000 3.1 60 18:19 09.05.2020
3488 Rain 17 1012 72 10000 2.6 40 17:44 09.05.2020
3489 Rain 17 1012 72 10000 3.6 20 17:23 09.05.2020
3490 Rain 16 1012 72 10000 3.6 20 16:55 09.05.2020
3491 Rain 17 1012 72 10000 3.6 20 16:37 09.05.2020
3492 Rain 17 1012 72 10000 3.6 20 16:18 09.05.2020
3493 Rain 17 1013 67 10000 2.6 20 15:41 09.05.2020
3494 Rain 16 1013 67 10000 2.6 20 15:22 09.05.2020
3495 Rain 17 1013 67 10000 2.6 20 14:54 09.05.2020
3496 Rain 18 1013 59 10000 3.1 20 14:36 09.05.2020
3497 Rain 17 1013 59 10000 3.1 20 14:18 09.05.2020
3498 Rain 17 1013 55 10000 3.1 10 13:41 09.05.2020
3499 Rain 17 1013 55 10000 3.1 10 13:22 09.05.2020
3500 Rain 17 1013 55 10000 3.1 20 12:58 09.05.2020
3501 Rain 18 1013 55 10000 3.6 20 12:39 09.05.2020
3502 Rain 17 1013 55 10000 3.6 20 12:21 09.05.2020
3503 Rain 17 1013 51 10000 2.6 360 11:44 09.05.2020
3504 Rain 16 1013 51 10000 2.6 360 11:20 09.05.2020
3505 Rain 17 1013 51 10000 2.6 360 11:20 09.05.2020
3506 Rain 16 1013 55 10000 3.1 60 10:54 09.05.2020
3507 Clouds 16 1014 51 10000 3.1 50 10:36 09.05.2020
3508 Clouds 15 1014 51 10000 3.1 50 10:18 09.05.2020
3509 Clouds 15 1014 54 10000 4.1 20 09:42 09.05.2020
3510 Clouds 14 1014 54 10000 3.6 30 09:20 09.05.2020
3511 Clouds 14 1014 54 10000 3.6 30 08:54 09.05.2020
3512 Clouds 14 1014 54 10000 3.6 30 08:54 09.05.2020
3513 Clouds 14 1014 51 10000 3.1 30 08:35 09.05.2020
3514 Clouds 13 1014 54 10000 3.6 30 07:56 09.05.2020
3515 Clouds 13 1013 54 10000 4.1 40 07:38 09.05.2020
3516 Clouds 13 1013 54 10000 4.1 40 07:20 09.05.2020
3517 Clouds 13 1013 54 10000 4.1 30 06:27 09.05.2020
3518 Clouds 12 1014 54 10000 3.6 40 05:50 09.05.2020
3519 Clouds 13 1014 54 10000 3.1 40 05:20 09.05.2020
3520 Clouds 14 1014 51 10000 3.6 50 03:39 09.05.2020
3521 Clouds 15 1014 48 10000 4.1 30 02:54 09.05.2020
3522 Clouds 16 1014 48 10000 4.6 30 02:30 09.05.2020
3523 Clouds 16 1014 51 10000 4.1 20 01:50 09.05.2020
3524 Clouds 16 1015 51 10000 5.7 20 01:22 09.05.2020
3525 Rain 15 1015 67 10000 3.6 10 00:43 09.05.2020
3526 Rain 15 1015 67 10000 3.6 10 00:20 09.05.2020
3527 Clouds 16 1015 62 10000 1.5 20 23:45 08.05.2020
3528 Clouds 17 1015 55 10000 1 0 23:27 08.05.2020
3529 Clouds 17 1015 51 10000 1 290 22:56 08.05.2020
3530 Clouds 17 1015 45 10000 3.1 60 22:38 08.05.2020
3531 Clouds 18 1015 45 10000 3.1 60 22:19 08.05.2020
3532 Clouds 18 1015 52 10000 3.1 60 21:55 08.05.2020
3533 Clouds 19 1015 42 10000 3.1 80 21:37 08.05.2020
3534 Clouds 19 1015 42 10000 3.1 80 21:18 08.05.2020
3535 Clouds 22 1015 40 10000 2.6 60 20:56 08.05.2020
3536 Clouds 22 1015 33 10000 3.6 40 20:38 08.05.2020
3537 Clouds 22 1015 33 10000 3.6 40 20:19 08.05.2020
3538 Clouds 23 1015 35 10000 4.1 20 19:42 08.05.2020
3539 Clouds 23 1015 35 10000 4.1 20 19:22 08.05.2020
3540 Clouds 23 1015 35 10000 2.1 30 18:50 08.05.2020
3541 Clouds 24 1015 35 10000 2.1 30 18:31 08.05.2020
3542 Clouds 24 1015 25 10000 2.6 0 17:43 08.05.2020
3543 Clouds 24 1015 25 10000 2.6 0 17:21 08.05.2020
3544 Clouds 24 1015 27 10000 1 0 16:58 08.05.2020
3545 Clouds 24 1016 23 10000 1.5 0 16:39 08.05.2020
3546 Clouds 24 1016 23 10000 1.5 0 16:21 08.05.2020
3547 Clouds 24 1016 25 10000 1.5 70 15:55 08.05.2020
3548 Clouds 24 1016 25 10000 2.6 160 15:36 08.05.2020
3549 Clouds 24 1016 25 10000 2.6 0 15:18 08.05.2020
3550 Clouds 24 1017 28 10000 1.5 0 14:41 08.05.2020
3551 Clouds 23 1017 33 10000 1.5 0 14:20 08.05.2020
3552 Clouds 24 1017 33 10000 1.5 0 13:58 08.05.2020
3553 Clouds 23 1017 35 10000 1 0 13:39 08.05.2020
3554 Clouds 23 1017 35 10000 1 0 13:19 08.05.2020
3555 Clouds 23 1018 32 10000 1.5 0 12:45 08.05.2020
3556 Clouds 22 1018 32 10000 1.5 0 12:25 08.05.2020
3557 Clouds 21 1018 34 10000 1 0 11:55 08.05.2020
3558 Clouds 20 1018 42 10000 1 0 11:37 08.05.2020
3559 Clouds 20 1018 45 10000 1 0 11:18 08.05.2020
3560 Clouds 18 1018 45 10000 1 0 10:54 08.05.2020
3561 Clouds 18 1018 45 10000 1 0 10:54 08.05.2020
3562 Clouds 19 1018 48 10000 1 0 10:36 08.05.2020
3563 Clouds 19 1018 48 10000 1 0 10:18 08.05.2020
3564 Clouds 16 1019 58 10000 1 0 09:41 08.05.2020
3565 Clouds 15 1019 58 10000 1 0 09:19 08.05.2020
3566 Clouds 14 1019 66 10000 1 0 08:51 08.05.2020
3567 Clouds 14 1019 66 10000 1.5 90 08:25 08.05.2020
3568 Clouds 12 1018 81 10000 1 0 07:55 08.05.2020
3569 Clouds 11 1018 87 10000 0.5 0 07:37 08.05.2020
3570 Clouds 11 1018 87 10000 0.5 0 07:19 08.05.2020
3571 Clouds 11 1018 81 10000 1 70 06:42 08.05.2020
3572 Clouds 11 1018 81 10000 1 70 06:20 08.05.2020
3573 Clouds 11 1018 76 10000 2.1 10 05:32 08.05.2020
3574 Clouds 12 1019 76 10000 1.5 30 03:50 08.05.2020
3575 Clouds 13 1019 71 10000 1 0 02:30 08.05.2020
3576 Clouds 13 1019 66 10000 1.5 40 01:41 08.05.2020
3577 Clouds 12 1019 66 10000 1.5 40 01:21 08.05.2020
3578 Clouds 14 1020 66 10000 1 0 00:48 08.05.2020
3579 Clouds 14 1020 66 10000 1.5 300 00:27 08.05.2020
3580 Clouds 13 1020 66 10000 1 0 23:57 07.05.2020
3581 Clouds 14 1020 66 10000 0.5 0 23:39 07.05.2020
3582 Clouds 15 1020 66 10000 0.5 0 23:20 07.05.2020
3583 Clouds 14 1020 58 10000 0.5 230 22:42 07.05.2020
3584 Clouds 16 1020 58 10000 0.5 230 22:21 07.05.2020
3585 Clouds 15 1020 50 10000 2.6 80 21:57 07.05.2020
3586 Clouds 16 1020 51 10000 2.6 70 21:39 07.05.2020
3587 Clouds 17 1020 51 10000 2.6 70 21:20 07.05.2020
3588 Clouds 18 1020 45 10000 1 250 20:59 07.05.2020
3589 Clouds 20 1020 30 10000 2.6 260 20:41 07.05.2020
3590 Clouds 21 1020 30 10000 2.6 260 20:20 07.05.2020
3591 Clouds 22 1020 26 10000 1.5 0 19:50 07.05.2020
3592 Clear 22 1020 28 10000 1 0 19:24 07.05.2020
3593 Clear 23 1021 25 10000 1 0 18:59 07.05.2020
3594 Clear 23 1021 24 10000 1.5 0 18:39 07.05.2020
3595 Clear 22 1021 24 10000 1.5 0 18:20 07.05.2020
3596 Clear 22 1021 28 10000 1 0 17:43 07.05.2020
3597 Clear 22 1021 26 10000 1 0 17:21 07.05.2020
3598 Clear 22 1022 26 10000 1.5 0 16:43 07.05.2020
3599 Clear 22 1022 25 10000 2.1 0 16:20 07.05.2020
3600 Clear 21 1022 25 10000 2.1 0 15:58 07.05.2020
3601 Clear 21 1023 26 10000 2.6 0 15:39 07.05.2020
3602 Clear 21 1023 26 10000 2.6 0 15:39 07.05.2020
3603 Clear 21 1023 26 10000 2.6 0 15:19 07.05.2020
3604 Clear 21 1023 30 10000 1.5 0 14:59 07.05.2020
3605 Clear 21 1023 32 10000 3.1 290 14:41 07.05.2020
3606 Clear 21 1023 32 10000 3.1 290 14:19 07.05.2020
3607 Clear 20 1024 36 10000 3.6 290 13:43 07.05.2020
3608 Clear 19 1024 36 10000 1.5 0 13:25 07.05.2020
3609 Clear 19 1024 36 10000 1.5 0 13:25 07.05.2020
3610 Clear 19 1024 36 10000 1 0 12:44 07.05.2020
3611 Clear 18 1024 41 10000 1.5 0 12:20 07.05.2020
3612 Clear 18 1024 41 10000 1.5 0 11:59 07.05.2020
3613 Clear 18 1024 41 10000 1.5 0 11:59 07.05.2020
3614 Clear 17 1024 44 10000 1.5 60 11:39 07.05.2020
3615 Clear 17 1024 44 10000 1.5 60 11:20 07.05.2020
3616 Clear 15 1024 47 10000 2.1 60 10:42 07.05.2020
3617 Clear 15 1024 47 10000 2.1 60 10:23 07.05.2020
3618 Clear 12 1025 66 10000 3.1 60 09:41 07.05.2020
3619 Clear 12 1025 66 10000 3.1 60 09:20 07.05.2020
3620 Clear 11 1025 76 10000 3.1 80 08:59 07.05.2020
3621 Clear 10 1025 76 10000 2.6 80 08:41 07.05.2020
3622 Clear 10 1025 76 10000 2.6 80 08:21 07.05.2020
3623 Clear 10 1025 81 10000 2.1 60 07:49 07.05.2020
3624 Clear 9 1025 86 10000 2.6 10 07:31 07.05.2020
3625 Clear 6 1025 100 10000 1.5 220 06:56 07.05.2020
3626 Clear 6 1025 100 10000 1.5 240 06:35 07.05.2020
3627 Clear 5 1025 93 10000 0.5 0 05:40 07.05.2020
3628 Clear 5 1025 93 10000 1.5 250 04:26 07.05.2020
3629 Clear 6 1025 86 10000 1 240 03:29 07.05.2020
3630 Clear 6 1025 86 10000 1.37 26 02:55 07.05.2020
3631 Clear 7 1024 80 10000 1 0 02:19 07.05.2020
3632 Clear 8 1024 81 10000 1 0 01:25 07.05.2020
3633 Clear 8 1024 81 10000 1.5 240 00:51 07.05.2020
3634 Clear 8 1024 75 10000 1 0 00:30 07.05.2020
3635 Clear 9 1024 75 10000 1.5 310 23:58 06.05.2020
3636 Clear 9 1024 70 10000 1 0 23:38 06.05.2020
3637 Clear 9 1024 70 10000 1 0 23:19 06.05.2020
3638 Clear 11 1024 65 10000 1 230 22:55 06.05.2020
3639 Clear 10 1024 61 10000 2.6 230 22:37 06.05.2020
3640 Clear 10 1024 61 10000 2.6 230 22:37 06.05.2020
3641 Clear 10 1024 61 10000 2.6 230 22:18 06.05.2020
3642 Clear 13 1023 43 10000 2.6 60 21:42 06.05.2020
3643 Clear 14 1023 43 10000 2.6 60 21:23 06.05.2020
3644 Clear 15 1023 45 10000 3.1 50 20:57 06.05.2020
3645 Clear 16 1023 45 10000 2.1 30 20:38 06.05.2020
3646 Clear 17 1023 41 10000 2.1 30 20:20 06.05.2020
3647 Clear 17 1023 33 10000 4.1 40 19:56 06.05.2020
3648 Clear 17 1023 33 10000 3.1 30 19:37 06.05.2020
3649 Clear 17 1023 33 10000 3.1 30 19:18 06.05.2020
3650 Clear 17 1023 37 10000 3.6 50 18:56 06.05.2020
3651 Clear 17 1023 37 10000 4.6 60 18:37 06.05.2020
3652 Clear 17 1023 32 10000 4.6 60 18:19 06.05.2020
3653 Clear 17 1023 32 10000 4.6 20 17:55 06.05.2020
3654 Clear 17 1024 40 0 2.83 22 17:36 06.05.2020
3655 Clear 17 1024 41 0 1.34 360 17:36 06.05.2020
3656 Clear 17 1024 40 0 1.34 331 17:18 06.05.2020
3657 Clear 17 1023 33 10000 3.1 340 16:57 06.05.2020
3658 Clear 17 1023 31 10000 3.6 70 16:39 06.05.2020
3659 Clear 17 1023 31 10000 3.6 70 16:20 06.05.2020
3660 Rain 17 1024 33 10000 3.6 30 15:48 06.05.2020
3661 Rain 16 1024 30 10000 3.6 40 15:23 06.05.2020
3662 Rain 16 1024 30 10000 3.6 40 14:59 06.05.2020
3663 Clear 16 1024 31 10000 5.1 40 14:39 06.05.2020
3664 Clear 16 1024 31 10000 5.1 40 14:19 06.05.2020
3665 Clear 15 1024 31 10000 2.6 0 13:59 06.05.2020
3666 Clear 15 1024 33 10000 5.1 40 13:39 06.05.2020
3667 Clear 15 1024 33 10000 5.1 40 13:19 06.05.2020
3668 Clear 14 1024 35 10000 4.1 0 12:43 06.05.2020
3669 Clear 14 1024 35 10000 4.1 0 12:25 06.05.2020
3670 Clear 14 1025 34 10000 4.6 80 11:55 06.05.2020
3671 Clear 13 1025 34 10000 4.1 70 11:36 06.05.2020
3672 Rain 13 1025 38 10000 4.1 70 11:18 06.05.2020
3673 Rain 13 1025 40 10000 4.1 90 10:55 06.05.2020
3674 Clouds 13 1025 38 10000 4.1 60 10:36 06.05.2020
3675 Clouds 12 1025 43 10000 3.6 60 10:18 06.05.2020
3676 Clouds 11 1025 43 10000 2.6 40 09:39 06.05.2020
3677 Clouds 10 1025 50 10000 2.6 40 09:20 06.05.2020
3678 Clear 9 1024 50 10000 2.6 40 08:44 06.05.2020
3679 Clouds 9 1024 57 10000 2.6 40 08:21 06.05.2020
3680 Clouds 9 1024 57 10000 2.6 40 08:21 06.05.2020
3681 Clouds 8 1024 57 10000 3.6 30 07:57 06.05.2020
3682 Clouds 7 1024 64 10000 3.1 40 07:39 06.05.2020
3683 Clouds 7 1024 64 10000 3.1 40 07:19 06.05.2020
3684 Clouds 6 1024 64 10000 4.1 20 06:49 06.05.2020
3685 Clouds 5 1023 67 10000 3.6 20 06:21 06.05.2020
3686 Clouds 5 1023 67 10000 1.5 30 05:50 06.05.2020
3687 Clouds 6 1023 67 10000 2.1 70 05:32 06.05.2020
3688 Clouds 5 1023 64 10000 2.1 70 03:55 06.05.2020
3689 Clouds 7 1022 64 10000 3.1 70 03:34 06.05.2020
3690 Clouds 6 1022 61 10000 5.1 20 02:58 06.05.2020
3691 Clear 6 1022 59 10000 4.6 20 02:28 06.05.2020
3692 Clear 7 1022 59 10000 5.1 20 01:53 06.05.2020
3693 Clear 7 1022 57 10000 5.1 20 01:27 06.05.2020
3694 Clear 7 1022 57 10000 5.1 10 00:45 06.05.2020
3695 Clear 8 1022 56 10000 4.6 20 00:23 06.05.2020
3696 Clear 8 1014 50 0 2.68 67 23:42 05.05.2020
3697 Clear 9 1021 54 10000 3.1 20 23:20 05.05.2020
3698 Clear 10 1021 54 10000 3.6 10 22:59 05.05.2020
3699 Clear 10 1020 40 10000 5.1 30 22:40 05.05.2020
3700 Clear 11 1020 40 10000 5.1 30 22:19 05.05.2020
3701 Clear 11 1020 40 10000 6.2 30 21:56 05.05.2020
3702 Rain 12 1019 37 10000 4.6 40 21:38 05.05.2020
3703 Rain 12 1019 37 10000 4.6 40 21:19 05.05.2020
3704 Clear 13 1019 33 10000 5.7 30 20:56 05.05.2020
3705 Clear 13 1019 30 10000 5.7 30 20:38 05.05.2020
3706 Rain 14 1018 28 10000 6.7 20 20:18 05.05.2020
3707 Rain 15 1018 28 10000 6.2 30 19:42 05.05.2020
3708 Rain 15 1018 28 10000 6.2 30 19:24 05.05.2020
3709 Rain 15 1018 26 10000 6.2 30 18:58 05.05.2020
3710 Rain 15 1018 26 10000 5.1 50 18:40 05.05.2020
3711 Rain 16 1018 23 10000 6.2 60 18:20 05.05.2020
3712 Clear 16 1018 23 10000 6.2 60 17:58 05.05.2020
3713 Rain 16 1018 23 10000 6.2 60 17:58 05.05.2020
3714 Clear 16 1018 23 10000 5.7 40 17:39 05.05.2020
3715 Rain 16 1018 23 10000 5.7 40 17:21 05.05.2020
3716 Clear 15 1019 24 10000 5.7 40 16:56 05.05.2020
3717 Rain 16 1019 26 10000 5.7 20 16:36 05.05.2020
3718 Clear 15 1019 26 10000 5.7 20 16:18 05.05.2020
3719 Clear 15 1019 26 10000 5.7 20 16:18 05.05.2020
3720 Rain 15 1019 28 10000 7.2 50 15:41 05.05.2020
3721 Rain 15 1019 28 10000 7.2 50 15:22 05.05.2020
3722 Clear 15 1019 28 10000 5.1 20 14:58 05.05.2020
3723 Clear 14 1019 33 10000 6.2 20 14:39 05.05.2020
3724 Clouds 14 1019 34 10000 6.2 20 14:20 05.05.2020
3725 Clouds 14 1019 34 10000 6.2 20 13:58 05.05.2020
3726 Clouds 14 1019 47 10000 5.7 30 13:39 05.05.2020
3727 Clouds 13 1019 47 10000 5.7 30 13:21 05.05.2020
3728 Clouds 13 1019 47 10000 6.7 30 12:58 05.05.2020
3729 Clouds 13 1019 54 10000 7.2 40 12:39 05.05.2020
3730 Clouds 12 1019 54 10000 7.2 40 12:19 05.05.2020
3731 Clouds 12 1019 57 10000 5.7 30 11:42 05.05.2020
3732 Clouds 11 1019 66 10000 5.1 40 11:21 05.05.2020
3733 Clouds 11 1019 66 10000 5.1 40 10:59 05.05.2020
3734 Clouds 10 1019 61 10000 4.1 60 10:39 05.05.2020
3735 Clouds 10 1019 61 10000 4.1 60 10:19 05.05.2020
3736 Rain 9 1019 66 10000 4.1 40 09:58 05.05.2020
3737 Rain 9 1019 70 10000 5.7 40 09:40 05.05.2020
3738 Rain 8 1019 70 10000 5.7 40 09:22 05.05.2020
3739 Rain 8 1020 70 10000 5.7 30 08:41 05.05.2020
3740 Rain 7 1020 70 10000 5.7 30 08:20 05.05.2020
3741 Rain 7 1019 70 10000 5.1 40 07:57 05.05.2020
3742 Rain 7 1019 75 10000 6.7 20 07:38 05.05.2020
3743 Rain 6 1019 75 10000 6.2 20 07:18 05.05.2020
3744 Rain 6 1019 75 10000 6.2 20 06:45 05.05.2020
3745 Rain 6 1019 75 10000 6.7 20 06:21 05.05.2020
3746 Rain 6 1019 81 10000 4.6 30 05:37 05.05.2020
3747 Clouds 6 1018 100 10000 4.6 20 03:35 05.05.2020
3748 Clear 7 1020 100 10000 0.5 0 01:42 05.05.2020
3749 Clear 7 1019 93 10000 2.1 330 00:52 05.05.2020
3750 Clear 7 1019 93 10000 1 300 00:22 05.05.2020
3751 Clear 8 1019 81 10000 2.6 20 23:45 04.05.2020
3752 Clear 8 1019 81 10000 2.6 20 23:23 04.05.2020
3753 Clear 9 1018 71 10000 3.1 30 22:56 04.05.2020
3754 Clear 10 1018 66 10000 2.6 20 22:38 04.05.2020
3755 Clear 10 1018 66 10000 2.6 20 22:19 04.05.2020
3756 Clear 11 1018 66 10000 4.1 20 21:54 04.05.2020
3757 Clouds 12 1018 66 10000 3.6 20 21:34 04.05.2020
3758 Clouds 12 1018 62 10000 4.6 20 20:58 04.05.2020
3759 Clouds 12 1018 62 10000 4.6 20 20:58 04.05.2020
3760 Clouds 12 1018 62 10000 4.6 20 20:58 04.05.2020
3761 Clouds 13 1017 62 10000 5.1 20 20:38 04.05.2020
3762 Clouds 12 1017 62 10000 5.1 20 20:18 04.05.2020
3763 Rain 13 1017 66 10000 5.7 20 19:42 04.05.2020
3764 Rain 13 1017 66 10000 5.7 20 19:21 04.05.2020
3765 Rain 13 1017 66 10000 5.7 10 18:57 04.05.2020
3766 Rain 13 1017 71 10000 7.2 10 18:38 04.05.2020
3767 Rain 13 1017 71 10000 7.2 10 18:38 04.05.2020
3768 Rain 13 1017 71 10000 7.2 10 18:18 04.05.2020
3769 Rain 14 1016 71 10000 7.7 20 17:55 04.05.2020
3770 Rain 14 1016 71 10000 7.7 20 17:55 04.05.2020
3771 Rain 14 1016 76 10000 6.7 20 17:37 04.05.2020
3772 Rain 14 1016 76 10000 6.7 20 17:18 04.05.2020
3773 Rain 14 1016 76 10000 5.1 20 16:43 04.05.2020
3774 Clouds 14 1016 76 10000 5.1 20 16:22 04.05.2020
3775 Clouds 14 1016 82 10000 4.1 20 15:55 04.05.2020
3776 Rain 14 1016 87 10000 4.6 20 15:37 04.05.2020
3777 Rain 14 1016 87 10000 4.6 20 15:37 04.05.2020
3778 Rain 14 1016 87 10000 4.6 20 15:18 04.05.2020
3779 Thunderstorm 15 1015 87 9000 6.2 290 14:48 04.05.2020
3780 Thunderstorm 15 1015 87 9000 6.2 290 14:48 04.05.2020
3781 Thunderstorm 15 1015 87 9000 6.2 290 14:48 04.05.2020
3782 Thunderstorm 15 1015 87 9000 6.2 290 14:48 04.05.2020
3783 Rain 15 1015 82 10000 5.1 10 14:48 04.05.2020
3784 Thunderstorm 15 1015 87 9000 6.2 290 14:19 04.05.2020
3785 Rain 15 1016 82 10000 1 0 12:53 04.05.2020
3786 Rain 15 1016 87 6000 1.5 290 12:35 04.05.2020
3787 Rain 15 1016 87 6000 1.5 290 12:35 04.05.2020
3788 Rain 15 1016 87 6000 1.5 290 12:35 04.05.2020
3789 Rain 15 1016 87 6000 1.5 290 12:35 04.05.2020
3790 Rain 15 1016 87 6000 1.5 290 12:35 04.05.2020
3791 Clouds 15 1016 62 10000 3.6 210 10:36 04.05.2020
3792 Clouds 14 1015 71 10000 1.5 180 09:26 04.05.2020
3793 Clouds 14 1015 71 10000 1.5 180 09:26 04.05.2020
3794 Clouds 14 1015 71 10000 1.5 180 09:26 04.05.2020
3795 Clouds 14 1015 71 10000 1.5 180 09:26 04.05.2020
3796 Clouds 12 1016 81 10000 1 0 07:53 04.05.2020
3797 Clouds 11 1016 87 10000 1.5 220 07:33 04.05.2020
3798 Clouds 11 1016 87 10000 1.5 220 07:33 04.05.2020
3799 Clouds 11 1016 87 10000 1.5 220 07:33 04.05.2020
3800 Clouds 11 1016 87 10000 1.5 220 07:33 04.05.2020
3801 Clouds 10 1016 93 10000 1.5 100 05:18 04.05.2020
3802 Clouds 11 1016 87 10000 0.5 0 04:06 04.05.2020
3803 Clouds 11 1017 81 10000 0.5 0 02:32 04.05.2020
3804 Clouds 12 1017 81 10000 0.5 0 01:20 04.05.2020
3805 Clouds 12 1017 71 10000 1 0 23:58 03.05.2020
3806 Clouds 12 1017 71 10000 0.5 0 23:40 03.05.2020
3807 Clouds 12 1017 71 10000 0.5 0 23:22 03.05.2020
3808 Clouds 12 1017 76 10000 1 200 22:43 03.05.2020
3809 Clouds 12 1017 76 10000 1 200 22:43 03.05.2020
3810 Clouds 12 1017 76 10000 1 200 22:43 03.05.2020
3811 Clouds 13 1017 76 10000 1 200 22:22 03.05.2020
3812 Clouds 14 1017 66 10000 1.5 170 21:42 03.05.2020
3813 Clouds 14 1017 66 10000 1.5 170 21:22 03.05.2020
3814 Clouds 15 1017 62 10000 2.1 170 20:56 03.05.2020
3815 Clouds 16 1017 51 10000 2.1 170 20:38 03.05.2020
3816 Clouds 16 1017 51 10000 2.1 170 20:20 03.05.2020
3817 Clouds 16 1017 51 10000 2.1 170 20:20 03.05.2020
3818 Clouds 16 1017 44 10000 2.1 180 19:47 03.05.2020
3819 Clouds 16 1017 44 10000 2.1 180 19:47 03.05.2020
3820 Clouds 16 1017 44 10000 2.1 180 19:47 03.05.2020
3821 Clouds 16 1017 44 10000 2.1 180 19:47 03.05.2020
3822 Clouds 17 1017 42 10000 2.1 160 19:27 03.05.2020
3823 Clouds 17 1017 42 10000 2.1 160 19:27 03.05.2020
3824 Clouds 17 1017 42 10000 2.1 160 19:27 03.05.2020
3825 Clouds 17 1017 42 10000 2.1 160 19:27 03.05.2020
3826 Clouds 17 1017 42 10000 2.1 160 19:27 03.05.2020
3827 Clouds 17 1017 42 10000 3.1 180 18:40 03.05.2020
3828 Clouds 17 1017 42 10000 3.1 180 18:21 03.05.2020
3829 Clouds 17 1018 39 10000 3.1 210 17:59 03.05.2020
3830 Clouds 17 1018 39 10000 2.6 190 17:40 03.05.2020
3831 Clouds 17 1018 39 10000 2.6 190 17:21 03.05.2020
3832 Clouds 18 1018 42 10000 3.1 210 16:45 03.05.2020
3833 Clouds 18 1018 42 10000 3.1 210 16:45 03.05.2020
3834 Clouds 17 1018 42 10000 3.1 210 16:20 03.05.2020
3835 Clouds 17 1018 42 10000 3.1 210 16:20 03.05.2020
3836 Clouds 18 1018 44 10000 2.6 0 15:58 03.05.2020
3837 Clouds 18 1018 48 10000 1.5 190 15:39 03.05.2020
3838 Clouds 17 1018 48 10000 1.5 190 15:20 03.05.2020
3839 Clouds 17 1018 48 10000 1.5 190 15:20 03.05.2020
3840 Clouds 17 1018 51 10000 4.1 200 14:58 03.05.2020
3841 Clouds 17 1019 44 10000 3.6 220 14:40 03.05.2020
3842 Clouds 17 1019 44 10000 3.6 220 14:21 03.05.2020
3843 Clouds 17 1019 48 10000 4.6 250 13:51 03.05.2020
3844 Clouds 17 1019 48 10000 4.6 250 13:51 03.05.2020
3845 Clouds 17 1019 48 10000 4.6 250 13:51 03.05.2020
3846 Clouds 16 1019 51 10000 4.1 240 13:18 03.05.2020
3847 Clouds 15 1019 58 10000 3.1 210 12:43 03.05.2020
3848 Clouds 14 1019 58 10000 3.1 210 12:18 03.05.2020
3849 Clouds 14 1019 58 10000 2.6 210 11:55 03.05.2020
3850 Clouds 14 1019 58 10000 2.6 210 11:55 03.05.2020
3851 Clouds 14 1019 66 10000 2.1 200 11:37 03.05.2020
3852 Clouds 13 1019 71 10000 2.1 210 11:18 03.05.2020
3853 Clouds 13 1019 76 10000 2.1 190 10:46 03.05.2020
3854 Clouds 13 1019 76 10000 2.1 190 10:46 03.05.2020
3855 Clouds 13 1019 76 10000 2.1 190 10:46 03.05.2020
3856 Clouds 13 1019 76 10000 2.1 190 10:46 03.05.2020
3857 Clouds 13 1019 71 10000 2.1 210 10:46 03.05.2020
3858 Clouds 12 1019 76 10000 2.1 190 09:57 03.05.2020
3859 Clouds 12 1019 76 10000 2.1 190 09:57 03.05.2020
3860 Clear 10 1019 81 10000 2.1 200 09:34 03.05.2020
3861 Clear 10 1019 81 10000 2.1 200 09:34 03.05.2020
3862 Clear 10 1019 81 10000 2.1 200 09:34 03.05.2020
3863 Clear 10 1019 81 10000 2.1 200 09:34 03.05.2020
3864 Clear 10 1019 81 10000 2.1 200 09:34 03.05.2020
3865 Clear 10 1018 87 10000 2.6 200 08:55 03.05.2020
3866 Clear 10 1018 87 10000 2.6 200 08:55 03.05.2020
3867 Clear 9 1018 93 10000 2.6 210 08:26 03.05.2020
3868 Clear 9 1018 93 10000 2.6 210 08:26 03.05.2020
3869 Clear 9 1018 93 10000 2.6 210 08:26 03.05.2020
3870 Clear 7 1018 93 10000 2.6 200 07:39 03.05.2020
3871 Clear 7 1018 93 10000 2.6 200 07:39 03.05.2020
3872 Clouds 6 1017 100 10000 2.6 180 06:20 03.05.2020
3873 Clouds 6 1017 100 10000 2.1 200 05:47 03.05.2020
3874 Clouds 7 1017 93 10000 1.5 210 04:54 03.05.2020
3875 Clouds 7 1017 100 10000 1 220 04:26 03.05.2020
3876 Clouds 7 1016 100 10000 1 0 02:59 03.05.2020
3877 Clouds 7 1016 100 10000 1 0 02:59 03.05.2020
3878 Clouds 7 1016 100 10000 1 210 02:24 03.05.2020
3879 Clouds 7 1016 100 10000 1.5 200 01:45 03.05.2020
3880 Clouds 7 1015 100 10000 1 120 01:27 03.05.2020
3881 Clouds 7 1015 100 10000 2.6 230 00:55 03.05.2020
3882 Clear 7 1015 100 10000 1.5 240 00:37 03.05.2020
3883 Clear 7 1015 100 10000 1.5 240 00:37 03.05.2020
3884 Clear 7 1015 100 10000 1.5 240 00:18 03.05.2020
3885 Clouds 7 1015 100 10000 1.5 230 23:43 02.05.2020
3886 Clouds 7 1014 100 10000 1 0 23:24 02.05.2020
3887 Clouds 7 1014 100 10000 1 0 22:43 02.05.2020
3888 Clouds 8 1014 100 10000 1 0 22:24 02.05.2020
3889 Clouds 8 1014 100 10000 1 0 22:24 02.05.2020
3890 Clouds 8 1013 100 10000 1.5 210 21:57 02.05.2020
3891 Clouds 8 1013 93 10000 2.1 280 21:39 02.05.2020
3892 Rain 10 1013 87 10000 3.1 0 21:19 02.05.2020
3893 Rain 10 1013 87 10000 3.1 0 20:57 02.05.2020
3894 Rain 11 1012 87 10000 4.1 310 20:37 02.05.2020
3895 Rain 11 1012 87 10000 4.1 310 20:19 02.05.2020
3896 Rain 12 1011 66 10000 5.1 260 19:57 02.05.2020
3897 Clouds 11 1011 66 10000 4.1 240 19:38 02.05.2020
3898 Clouds 12 1011 66 10000 4.1 240 19:38 02.05.2020
3899 Clouds 12 1011 66 10000 4.1 240 19:19 02.05.2020
3900 Clouds 12 1011 71 10000 5.7 250 18:55 02.05.2020
3901 Clouds 13 1011 71 10000 5.1 270 18:37 02.05.2020
3902 Clouds 12 1011 71 10000 5.1 270 18:18 02.05.2020
3903 Rain 11 1011 87 10000 2.6 260 17:39 02.05.2020
3904 Rain 14 1011 87 10000 2.6 260 17:20 02.05.2020
3905 Rain 14 1011 81 4500 8.7 320 16:59 02.05.2020
3906 Rain 12 1010 54 10000 8.7 260 16:40 02.05.2020
3907 Rain 13 1010 54 10000 8.7 260 16:22 02.05.2020
3908 Rain 13 1010 76 10000 5.7 260 15:43 02.05.2020
3909 Rain 12 1010 76 10000 4.1 260 15:21 02.05.2020
3910 Rain 12 1010 76 10000 4.1 260 14:59 02.05.2020
3911 Rain 12 1010 87 10000 4.6 270 14:40 02.05.2020
3912 Rain 12 1010 87 10000 4.6 270 14:22 02.05.2020
3913 Rain 11 1009 76 10000 2.6 0 13:41 02.05.2020
3914 Rain 11 1009 76 10000 2.6 0 13:22 02.05.2020
3915 Rain 11 1009 71 10000 8.2 330 12:56 02.05.2020
3916 Rain 12 1009 54 10000 8.7 230 12:38 02.05.2020
3917 Rain 12 1009 54 10000 8.7 230 12:20 02.05.2020
3918 Rain 13 1009 58 10000 9.3 220 11:54 02.05.2020
3919 Rain 12 1009 62 10000 8.7 250 11:36 02.05.2020
3920 Clouds 12 1009 62 10000 7.7 230 11:18 02.05.2020
3921 Clouds 11 1009 71 10000 8.2 230 10:39 02.05.2020
3922 Clouds 11 1009 71 10000 8.2 230 10:21 02.05.2020
3923 Clouds 11 1009 76 10000 8.2 230 09:58 02.05.2020
3924 Clouds 10 1009 76 10000 8.7 230 09:39 02.05.2020
3925 Clouds 10 1009 76 10000 8.7 230 09:21 02.05.2020
3926 Clouds 10 1008 76 10000 7.2 230 08:51 02.05.2020
3927 Clouds 9 1008 81 10000 6.2 230 08:31 02.05.2020
3928 Clouds 8 1008 87 10000 4.6 210 07:49 02.05.2020
3929 Clouds 8 1008 93 10000 5.1 220 07:30 02.05.2020
3930 Clouds 7 1007 87 10000 4.6 210 06:54 02.05.2020
3931 Clouds 7 1007 93 10000 3.1 220 06:28 02.05.2020
3932 Clouds 7 1007 100 10000 4.1 210 05:27 02.05.2020
3933 Clouds 7 1006 93 10000 3.1 210 04:27 02.05.2020
3934 Clouds 7 1006 93 10000 3.6 210 03:38 02.05.2020
3935 Clouds 7 1005 93 10000 3.6 210 02:40 02.05.2020
3936 Rain 8 1005 93 10000 3.6 180 01:56 02.05.2020
3937 Clouds 8 1005 93 10000 4.1 180 01:20 02.05.2020
3938 Clouds 8 1005 93 10000 4.1 180 00:42 02.05.2020
3939 Clouds 7 1005 93 10000 4.1 180 00:21 02.05.2020
3940 Clouds 8 1005 100 10000 3.6 170 23:55 01.05.2020
3941 Rain 8 1004 93 10000 2.6 170 23:37 01.05.2020
3942 Rain 8 1004 93 10000 2.6 170 23:18 01.05.2020
3943 Rain 8 1004 93 10000 2.1 200 22:38 01.05.2020
3944 Rain 8 1004 93 10000 2.1 200 22:19 01.05.2020
3945 Thunderstorm 8 1004 87 10000 2.6 280 21:57 01.05.2020
3946 Rain 9 1004 87 10000 7.7 290 21:39 01.05.2020
3947 Rain 10 1004 87 10000 7.7 290 21:20 01.05.2020
3948 Thunderstorm 11 1003 71 10000 4.6 200 20:57 01.05.2020
3949 Rain 12 1002 76 10000 4.6 210 20:39 01.05.2020
3950 Rain 12 1002 76 10000 4.6 210 20:19 01.05.2020
3951 Rain 13 1002 71 10000 5.7 210 19:56 01.05.2020
3952 Clouds 13 1002 67 10000 6.7 200 19:38 01.05.2020
3953 Clouds 14 1002 67 10000 6.7 200 19:19 01.05.2020
3954 Clouds 13 1002 62 10000 7.7 220 18:55 01.05.2020
3955 Clouds 13 1002 71 10000 6.2 200 18:37 01.05.2020
3956 Clouds 13 1002 71 10000 6.2 200 18:18 01.05.2020
3957 Rain 13 1002 87 10000 3.6 210 17:40 01.05.2020
3958 Rain 14 1003 87 6000 6.2 200 17:22 01.05.2020
3959 Rain 14 1003 87 6000 6.2 200 16:57 01.05.2020
3960 Rain 13 1003 76 10000 3.6 200 16:39 01.05.2020
3961 Rain 13 1003 76 10000 3.6 200 16:20 01.05.2020
3962 Rain 14 1003 66 10000 3.6 210 15:57 01.05.2020
3963 Rain 14 1003 66 10000 3.6 210 15:57 01.05.2020
3964 Clouds 13 1003 71 10000 7.7 230 15:39 01.05.2020
3965 Clouds 13 1003 82 10000 4.1 200 15:19 01.05.2020
3966 Clouds 11 1002 87 10000 3.6 210 14:44 01.05.2020
3967 Rain 12 1003 87 7000 5.7 220 14:25 01.05.2020
3968 Rain 11 1003 87 7000 5.7 220 13:56 01.05.2020
3969 Rain 11 1003 81 10000 5.1 230 13:38 01.05.2020
3970 Rain 12 1003 81 10000 5.1 230 13:19 01.05.2020
3971 Rain 12 1003 71 10000 5.7 220 12:55 01.05.2020
3972 Clouds 13 1003 66 10000 7.7 230 12:37 01.05.2020
3973 Clouds 13 1003 66 10000 7.7 230 12:18 01.05.2020
3974 Rain 11 1004 87 10000 5.1 230 11:41 01.05.2020
3975 Rain 11 1004 87 10000 5.1 230 11:23 01.05.2020
3976 Rain 10 1004 93 6000 6.7 230 10:57 01.05.2020
3977 Rain 10 1004 93 6000 4.6 220 10:38 01.05.2020
3978 Rain 9 1004 93 6000 4.6 220 10:20 01.05.2020
3979 Rain 10 1004 93 10000 2.1 220 09:44 01.05.2020
3980 Rain 10 1004 93 10000 2.1 220 09:20 01.05.2020
3981 Rain 10 1004 93 10000 2.1 230 08:58 01.05.2020
3982 Rain 10 1004 93 10000 2.1 240 08:40 01.05.2020
3983 Rain 9 1004 93 10000 2.1 240 08:21 01.05.2020
3984 Rain 9 1004 93 10000 3.1 220 07:44 01.05.2020
3985 Rain 9 1004 93 10000 3.1 220 07:22 01.05.2020
3986 Rain 9 1003 87 10000 4.6 190 06:50 01.05.2020
3987 Clouds 9 1004 87 10000 4.6 190 05:36 01.05.2020
3988 Clouds 9 1004 87 10000 4.1 180 04:47 01.05.2020
3989 Clouds 9 1004 81 10000 4.6 190 03:25 01.05.2020
3990 Clouds 10 1004 81 10000 6.7 210 02:45 01.05.2020
3991 Clouds 10 1004 81 10000 6.7 210 02:24 01.05.2020
3992 Rain 11 1003 87 10000 6.2 180 01:28 01.05.2020
3993 Rain 10 1003 93 10000 5.1 180 00:59 01.05.2020
3994 Clouds 10 1003 93 10000 3.1 180 00:37 01.05.2020
3995 Clouds 10 1003 93 10000 3.1 180 00:37 01.05.2020
3996 Clouds 10 1003 93 10000 3.1 180 00:19 01.05.2020
3997 Clouds 10 1003 100 10000 2.1 130 23:55 30.04.2020
3998 Clouds 10 1003 100 10000 2.1 130 23:55 30.04.2020
3999 Clouds 10 1004 100 10000 0.5 0 23:37 30.04.2020
4000 Clouds 10 1004 100 10000 0.5 0 23:19 30.04.2020
4001 Clouds 10 1004 93 10000 4.1 220 22:41 30.04.2020
4002 Clouds 10 1004 93 10000 4.1 220 22:21 30.04.2020
4003 Rain 10 1003 93 10000 5.1 210 21:57 30.04.2020
4004 Rain 11 1003 87 10000 6.7 230 21:38 30.04.2020
4005 Rain 11 1003 87 10000 6.7 230 21:20 30.04.2020
4006 Rain 11 1003 87 10000 6.2 220 20:55 30.04.2020
4007 Rain 11 1003 93 10000 4.6 220 20:37 30.04.2020
4008 Rain 11 1003 93 10000 4.6 220 20:18 30.04.2020
4009 Rain 11 1003 93 10000 4.6 220 20:18 30.04.2020
4010 Rain 12 1003 93 5000 7.2 180 19:44 30.04.2020
4011 Rain 12 1003 93 5000 7.2 180 19:25 30.04.2020
4012 Rain 12 1002 87 10000 5.7 180 18:57 30.04.2020
4013 Rain 12 1002 87 10000 5.1 170 18:39 30.04.2020
4014 Rain 13 1002 76 10000 4.6 170 18:20 30.04.2020
4015 Rain 14 1002 76 10000 4.6 170 17:57 30.04.2020
4016 Clouds 14 1003 67 10000 5.1 170 17:39 30.04.2020
4017 Clouds 14 1003 67 10000 5.1 170 17:20 30.04.2020
4018 Clouds 14 1003 67 10000 5.1 180 16:56 30.04.2020
4019 Rain 14 1004 67 10000 5.1 180 16:37 30.04.2020
4020 Clouds 14 1004 67 10000 6.2 210 16:18 30.04.2020
4021 Clouds 14 1004 67 10000 6.2 210 15:44 30.04.2020
4022 Clouds 14 1004 67 10000 7.2 210 15:23 30.04.2020
4023 Clouds 14 1004 67 10000 5.1 200 14:54 30.04.2020
4024 Rain 14 1005 76 10000 5.7 210 14:36 30.04.2020
4025 Rain 14 1005 76 10000 5.7 210 14:18 30.04.2020
4026 Rain 14 1005 71 10000 6.7 200 13:54 30.04.2020
4027 Rain 14 1005 71 10000 6.7 220 13:36 30.04.2020
4028 Rain 13 1005 71 10000 6.7 220 13:18 30.04.2020
4029 Rain 13 1005 87 7000 6.7 230 12:41 30.04.2020
4030 Rain 13 1005 87 7000 6.7 230 12:19 30.04.2020
4031 Rain 14 1004 71 10000 8.2 210 11:57 30.04.2020
4032 Clouds 14 1004 76 10000 6.7 210 11:36 30.04.2020
4033 Rain 14 1004 76 10000 6.7 210 11:18 30.04.2020
4034 Rain 13 1004 87 10000 6.2 200 10:41 30.04.2020
4035 Rain 13 1004 87 10000 6.2 200 10:21 30.04.2020
4036 Clouds 13 1004 87 10000 6.2 200 09:57 30.04.2020
4037 Clouds 13 1004 93 10000 4.1 200 09:39 30.04.2020
4038 Clouds 12 1004 93 10000 4.1 200 09:20 30.04.2020
4039 Clouds 12 1004 93 10000 4.1 200 09:20 30.04.2020
4040 Rain 11 1004 93 4800 4.6 200 08:47 30.04.2020
4041 Rain 11 1004 93 4800 4.6 200 08:26 30.04.2020
4042 Rain 11 1004 93 4800 5.7 180 07:57 30.04.2020
4043 Rain 11 1004 93 10000 4.6 170 07:39 30.04.2020
4044 Rain 11 1004 93 10000 4.6 180 07:19 30.04.2020
4045 Rain 11 1004 93 10000 5.1 170 06:33 30.04.2020
4046 Clouds 11 1005 93 10000 4.1 170 05:47 30.04.2020
4047 Rain 11 1005 93 10000 4.1 170 04:48 30.04.2020
4048 Rain 11 1006 93 10000 4.6 170 04:24 30.04.2020
4049 Rain 11 1006 93 10000 4.1 170 02:55 30.04.2020
4050 Rain 11 1006 93 10000 3.6 180 02:28 30.04.2020
4051 Rain 12 1007 81 10000 3.1 190 01:38 30.04.2020
4052 Rain 12 1007 76 10000 3.6 180 00:54 30.04.2020
4053 Clouds 12 1007 76 10000 3.6 170 00:25 30.04.2020
4054 -273 0 0 0 0 0 23:59 29.04.2020
4055 Clouds 13 1007 71 10000 3.6 180 23:59 29.04.2020
4056 Clouds 13 1007 71 10000 3.6 180 23:59 29.04.2020
4057 Clouds 13 1007 71 10000 3.6 180 23:59 29.04.2020
4058 Clouds 13 1007 71 10000 4.1 180 23:41 29.04.2020
4059 Clouds 13 1007 71 10000 4.1 180 23:23 29.04.2020
4060 Clouds 13 1007 67 10000 4.6 190 22:58 29.04.2020
4061 Clouds 14 1007 67 10000 3.1 190 22:39 29.04.2020
4062 Clouds 14 1007 67 10000 3.1 190 22:20 29.04.2020
4063 Clouds 14 1007 62 10000 4.6 210 21:39 29.04.2020
4064 Clouds 15 1007 62 10000 4.6 220 21:21 29.04.2020
4065 Clouds 15 1007 62 10000 4.6 220 20:59 29.04.2020
4066 Rain 15 1007 55 10000 6.7 220 20:40 29.04.2020
4067 Rain 16 1007 51 10000 6.7 220 20:19 29.04.2020
4068 Rain 17 1007 51 10000 6.7 220 19:57 29.04.2020
4069 Rain 16 1007 55 10000 5.7 230 19:39 29.04.2020
4070 Rain 17 1007 55 10000 5.7 230 19:18 29.04.2020
4071 Rain 17 1007 48 10000 7.2 250 18:42 29.04.2020
4072 Rain 17 1007 48 10000 7.2 250 18:21 29.04.2020
4073 Rain 18 1007 48 10000 7.7 260 17:56 29.04.2020
4074 Rain 18 1007 42 10000 6.7 230 17:38 29.04.2020
4075 Rain 18 1007 42 10000 6.7 230 17:20 29.04.2020
4076 Rain 19 1006 39 10000 7.2 250 16:38 29.04.2020
4077 Rain 19 1006 39 10000 7.2 250 16:38 29.04.2020
4078 Clouds 19 1007 39 10000 7.2 220 16:19 29.04.2020
4079 Clouds 19 1007 39 10000 7.2 220 15:57 29.04.2020
4080 Clouds 19 1007 39 10000 7.2 210 15:39 29.04.2020
4081 Clouds 19 1007 39 10000 8.2 240 15:20 29.04.2020
4082 Clouds 18 1007 39 10000 8.2 240 14:56 29.04.2020
4083 Clouds 18 1007 39 10000 8.7 240 14:38 29.04.2020
4084 Clouds 18 1007 39 10000 8.7 240 14:18 29.04.2020
4085 Rain 17 1007 51 10000 7.2 240 13:42 29.04.2020
4086 Rain 17 1007 51 10000 7.2 240 13:20 29.04.2020
4087 Rain 17 1007 51 10000 6.2 230 12:57 29.04.2020
4088 Clouds 17 1007 51 10000 5.7 230 12:39 29.04.2020
4089 Clouds 16 1007 59 10000 5.1 200 12:18 29.04.2020
4090 Clouds 16 1008 62 10000 6.7 220 11:40 29.04.2020
4091 Clouds 16 1008 62 10000 6.7 220 11:21 29.04.2020
4092 Clouds 16 1008 62 10000 6.7 220 11:21 29.04.2020
4093 Clouds 16 1008 62 10000 6.2 230 10:58 29.04.2020
4094 Clouds 15 1007 71 10000 4.6 220 10:37 29.04.2020
4095 Clouds 15 1007 71 10000 4.6 220 10:37 29.04.2020
4096 Clouds 15 1007 71 10000 4.6 220 10:19 29.04.2020
4097 Clouds 14 1007 71 10000 5.1 220 09:42 29.04.2020
4098 Clouds 13 1007 71 10000 5.1 220 09:24 29.04.2020
4099 Clouds 13 1007 71 10000 4.1 210 08:57 29.04.2020
4100 Clouds 13 1007 76 10000 4.1 200 08:39 29.04.2020
4101 Clouds 12 1007 76 10000 4.1 200 08:20 29.04.2020
4102 Clouds 12 1006 76 10000 2.6 200 07:47 29.04.2020
4103 Clouds 12 1006 76 10000 2.6 200 07:24 29.04.2020
4104 Clouds 11 1006 81 10000 2.6 190 06:50 29.04.2020
4105 Clouds 11 1006 81 10000 3.6 200 06:31 29.04.2020
4106 Clouds 11 1006 87 10000 0.5 0 05:22 29.04.2020
4107 Clouds 11 1005 81 10000 1 0 04:45 29.04.2020
4108 Clouds 11 1005 81 10000 1 0 04:18 29.04.2020
4109 Clouds 11 1005 93 10000 2.1 200 02:43 29.04.2020
4110 Clouds 11 1005 81 10000 2.1 220 01:44 29.04.2020
4111 Clouds 11 1005 81 10000 2.1 220 01:26 29.04.2020
4112 Clouds 12 1006 87 10000 2.1 180 00:50 29.04.2020
4113 Clouds 12 1006 87 10000 0.5 180 00:20 29.04.2020
4114 Clouds 13 1006 81 10000 1 0 23:56 28.04.2020
4115 Clouds 13 1005 76 10000 3.1 190 23:37 28.04.2020
4116 Clouds 13 1005 76 10000 3.1 190 23:18 28.04.2020
4117 Clouds 13 1005 71 10000 3.6 210 22:38 28.04.2020
4118 Clouds 13 1005 71 10000 3.6 210 22:38 28.04.2020
4119 Clouds 13 1005 71 10000 3.6 210 22:19 28.04.2020
4120 Clouds 14 1005 67 10000 3.6 210 21:57 28.04.2020
4121 Clouds 14 1005 62 10000 3.6 210 21:39 28.04.2020
4122 Clouds 15 1005 62 10000 3.6 210 21:21 28.04.2020
4123 Clouds 15 1005 63 10000 4.1 220 20:56 28.04.2020
4124 Clouds 16 1005 55 10000 5.7 230 20:38 28.04.2020
4125 Clouds 17 1004 55 10000 6.7 240 20:19 28.04.2020
4126 Clouds 17 1004 55 10000 8.7 240 19:43 28.04.2020
4127 Clouds 17 1004 55 10000 8.7 240 19:22 28.04.2020
4128 Clouds 17 1004 55 10000 8.7 240 19:22 28.04.2020
4129 Clouds 17 1004 59 10000 6.2 240 18:59 28.04.2020
4130 Clouds 17 1004 63 10000 7.7 240 18:41 28.04.2020
4131 Clouds 17 1004 63 10000 7.7 240 18:41 28.04.2020
4132 Clouds 17 1004 63 10000 7.7 240 18:20 28.04.2020
4133 Clouds 17 1004 63 10000 7.7 240 18:20 28.04.2020
4134 Clouds 17 1004 63 10000 9.3 230 17:59 28.04.2020
4135 Clouds 18 1004 55 10000 11.8 240 17:37 28.04.2020
4136 Clouds 18 1004 59 10000 9.3 220 17:19 28.04.2020
4137 Clouds 18 1004 59 10000 9.3 220 16:56 28.04.2020
4138 Rain 17 1004 67 10000 8.7 220 16:37 28.04.2020
4139 Rain 17 1004 67 10000 8.7 220 16:19 28.04.2020
4140 Rain 17 1004 63 10000 8.2 240 15:54 28.04.2020
4141 Rain 17 1004 68 10000 5.7 190 15:36 28.04.2020
4142 Rain 17 1004 68 10000 5.7 190 15:18 28.04.2020
4143 Clouds 17 1004 77 10000 4.6 200 14:43 28.04.2020
4144 Clouds 16 1004 77 10000 4.6 200 14:22 28.04.2020
4145 Clouds 16 1004 77 10000 4.6 200 14:22 28.04.2020
4146 Clouds 16 1005 82 10000 3.6 200 13:59 28.04.2020
4147 Clouds 17 1005 63 10000 2.6 180 13:40 28.04.2020
4148 Clouds 17 1005 63 10000 2.6 180 13:21 28.04.2020
4149 Clouds 16 1005 72 10000 1 0 12:58 28.04.2020
4150 Clouds 15 1005 76 10000 1.5 170 12:38 28.04.2020
4151 Clouds 14 1005 76 10000 1.5 170 12:20 28.04.2020
4152 Rain 14 1005 71 10000 1.5 190 11:42 28.04.2020
4153 Rain 14 1005 67 10000 0.5 0 11:21 28.04.2020
4154 Rain 14 1005 67 10000 0.5 0 10:57 28.04.2020
4155 Rain 13 1005 71 10000 1.5 330 10:38 28.04.2020
4156 Rain 13 1005 71 10000 1.5 330 10:18 28.04.2020
4157 Rain 13 1006 76 10000 2.6 190 09:43 28.04.2020
4158 Rain 11 1006 76 10000 2.6 190 09:24 28.04.2020
4159 Clouds 11 1005 76 10000 2.6 130 08:54 28.04.2020
4160 Clouds 11 1005 81 10000 2.1 70 08:36 28.04.2020
4161 Clouds 10 1005 81 10000 2.1 70 08:18 28.04.2020
4162 Clouds 11 1005 81 10000 1 0 07:41 28.04.2020
4163 Clouds 10 1005 81 10000 1 0 07:18 28.04.2020
4164 Clouds 10 1006 87 10000 1 240 06:39 28.04.2020
4165 Clouds 10 1006 93 10000 1 200 05:51 28.04.2020
4166 Clouds 11 1006 87 10000 1.5 210 05:33 28.04.2020
4167 Clouds 11 1006 87 10000 1 0 04:33 28.04.2020
4168 Clouds 11 1006 87 10000 1 0 04:33 28.04.2020
4169 Clouds 12 1006 76 10000 1.5 260 02:39 28.04.2020
4170 Clouds 11 1006 76 10000 1 0 01:51 28.04.2020
4171 Clouds 12 1006 71 10000 1 0 01:22 28.04.2020
4172 Clouds 12 1006 66 10000 1 0 00:42 28.04.2020
4173 Clouds 14 1006 66 10000 1.5 220 23:58 27.04.2020
4174 Clouds 14 1007 62 10000 1.5 220 23:40 27.04.2020
4175 Clouds 14 1007 62 10000 1.5 220 23:20 27.04.2020
4176 Clouds 16 1006 54 10000 1.5 210 22:43 27.04.2020
4177 Clouds 16 1006 54 10000 1.5 210 22:23 27.04.2020
4178 Clouds 15 1006 54 10000 1.5 210 22:23 27.04.2020
4179 Clouds 16 1006 54 10000 1.5 210 21:57 27.04.2020
4180 Clouds 18 1006 48 10000 2.6 230 21:39 27.04.2020
4181 Clouds 18 1006 48 10000 2.6 230 21:20 27.04.2020
4182 Clouds 19 1006 39 10000 3.1 260 20:58 27.04.2020
4183 Clouds 20 1006 32 10000 3.1 260 20:39 27.04.2020
4184 Clouds 21 1006 32 10000 3.1 260 20:21 27.04.2020
4185 Clouds 21 1006 28 10000 3.6 230 19:57 27.04.2020
4186 Clouds 21 1006 28 10000 4.1 220 19:38 27.04.2020
4187 Clouds 21 1006 28 10000 4.1 220 19:19 27.04.2020
4188 Clouds 22 1006 26 10000 4.1 220 18:56 27.04.2020
4189 Clouds 23 1006 22 10000 4.6 240 18:37 27.04.2020
4190 Clouds 23 1006 31 10000 4.1 220 18:18 27.04.2020
4191 Clouds 23 1006 22 10000 4.6 240 18:18 27.04.2020
4192 Clouds 23 1007 31 10000 3.1 0 17:41 27.04.2020
4193 Clouds 23 1007 28 10000 3.1 0 17:20 27.04.2020
4194 Clouds 22 1007 28 10000 5.1 240 16:56 27.04.2020
4195 Clouds 23 1007 20 10000 5.7 240 16:38 27.04.2020
4196 Clouds 22 1007 20 10000 5.7 240 16:20 27.04.2020
4197 Clouds 22 1007 19 10000 5.1 220 15:56 27.04.2020
4198 Clear 23 1007 28 10000 5.7 210 15:37 27.04.2020
4199 Clouds 22 1008 35 10000 5.7 220 15:18 27.04.2020
4200 Clouds 21 1008 22 10000 5.7 230 14:41 27.04.2020
4201 Clouds 21 1008 26 10000 5.7 180 14:20 27.04.2020
4202 Clouds 21 1008 26 10000 5.7 180 13:58 27.04.2020
4203 Clouds 21 1009 37 10000 4.6 230 13:39 27.04.2020
4204 Clouds 21 1009 37 10000 4.6 230 13:19 27.04.2020
4205 Clouds 20 990 37 0 1.34 39 12:44 27.04.2020
4206 Clouds 19 1009 42 10000 3.1 220 12:24 27.04.2020
4207 Clouds 18 1009 48 10000 4.1 190 11:59 27.04.2020
4208 Clouds 18 1009 48 10000 3.1 180 11:40 27.04.2020
4209 Clouds 17 1009 48 10000 3.1 180 11:19 27.04.2020
4210 Clouds 16 1009 51 10000 3.1 200 10:56 27.04.2020
4211 Clouds 15 1009 54 10000 1 0 10:37 27.04.2020
4212 Clouds 14 1009 54 10000 1 0 10:19 27.04.2020
4213 Clouds 13 1010 62 10000 1 0 09:43 27.04.2020
4214 Clear 11 1010 70 10000 1 0 09:18 27.04.2020
4215 Clear 11 1010 70 10000 1 0 08:56 27.04.2020
4216 Clear 9 1010 75 10000 2.1 220 08:36 27.04.2020
4217 Clear 8 1010 86 10000 1 220 08:18 27.04.2020
4218 Clear 7 1009 93 10000 1 0 07:44 27.04.2020
4219 Clear 7 1009 93 10000 1 0 07:19 27.04.2020
4220 Clear 6 1009 93 10000 1 0 06:44 27.04.2020
4221 Clear 7 1009 93 10000 1 0 06:24 27.04.2020
4222 Clear 6 1009 93 10000 0.5 0 05:49 27.04.2020
4223 Clear 6 1010 86 10000 1 0 04:41 27.04.2020
4224 Clear 6 1009 86 10000 0.5 0 03:49 27.04.2020
4225 Clear 8 1009 81 10000 1 210 02:42 27.04.2020
4226 Clear 9 1009 75 10000 1 0 01:31 27.04.2020
4227 Clear 9 1009 70 10000 1 0 00:56 27.04.2020
4228 Clear 9 1009 70 10000 1 270 00:19 27.04.2020
4229 Clear 12 1009 66 10000 1 0 23:56 26.04.2020
4230 Clear 12 1009 61 10000 1.5 310 23:37 26.04.2020
4231 Clear 13 1009 54 10000 1 0 23:19 26.04.2020
4232 Clear 13 1009 54 10000 1 0 22:58 26.04.2020
4233 Clear 13 1009 47 10000 1.5 350 22:39 26.04.2020
4234 Clear 13 1009 47 10000 1.5 350 22:39 26.04.2020
4235 Clear 13 1009 47 10000 1.5 350 22:19 26.04.2020
4236 Clear 15 1009 44 10000 1 0 21:57 26.04.2020
4237 Clear 15 1008 41 10000 3.6 70 21:37 26.04.2020
4238 Clear 16 1008 36 10000 3.1 60 21:18 26.04.2020
4239 Clear 18 1008 32 10000 2.6 60 20:42 26.04.2020
4240 Clear 19 1008 32 10000 2.6 60 20:23 26.04.2020
4241 Clear 20 1008 28 10000 1.5 0 19:59 26.04.2020
4242 Clear 20 1008 28 10000 1.5 0 19:59 26.04.2020
4243 Clear 20 1008 33 10000 2.1 280 19:38 26.04.2020
4244 Clear 20 1008 33 10000 2.1 280 19:20 26.04.2020
4245 Clear 21 1008 33 10000 1.5 350 18:57 26.04.2020
4246 Clear 21 1008 33 10000 2.1 0 18:39 26.04.2020
4247 Clear 21 1008 25 10000 3.6 360 18:21 26.04.2020
4248 Clear 21 1009 26 10000 2.1 0 17:42 26.04.2020
4249 Clear 21 1009 26 10000 2.1 0 17:22 26.04.2020
4250 Clear 21 1009 28 10000 3.1 0 16:55 26.04.2020
4251 Clear 21 1009 25 10000 1.5 0 16:37 26.04.2020
4252 Clear 20 1009 25 10000 1.5 0 16:19 26.04.2020
4253 Clear 20 1009 25 10000 1.5 0 15:56 26.04.2020
4254 Clear 20 1010 25 10000 2.6 0 15:37 26.04.2020
4255 Clear 20 1010 27 10000 2.6 80 15:18 26.04.2020
4256 Clear 19 1010 29 10000 3.1 30 14:40 26.04.2020
4257 Clear 19 1010 29 10000 3.1 30 14:19 26.04.2020
4258 Clear 19 1010 27 10000 3.1 40 13:58 26.04.2020
4259 Clear 18 1011 34 10000 2.6 0 13:39 26.04.2020
4260 Clear 18 1011 34 10000 2.6 0 13:21 26.04.2020
4261 Clear 18 1011 34 10000 3.1 90 12:56 26.04.2020
4262 Clear 17 1011 39 10000 3.6 70 12:37 26.04.2020
4263 Clear 17 1011 39 10000 3.6 70 12:19 26.04.2020
4264 Clear 17 1011 41 10000 2.1 110 11:54 26.04.2020
4265 Clear 16 1011 41 10000 3.1 80 11:36 26.04.2020
4266 Clouds 16 1011 44 10000 3.6 80 11:18 26.04.2020
4267 Clear 14 1011 47 10000 3.6 60 10:42 26.04.2020
4268 Clear 14 1011 47 10000 3.6 60 10:24 26.04.2020
4269 Clear 12 1011 47 10000 4.1 60 09:58 26.04.2020
4270 Clear 11 1011 54 10000 4.1 60 09:38 26.04.2020
4271 Clear 12 1011 54 10000 4.1 60 09:38 26.04.2020
4272 Clear 11 1011 54 10000 4.1 60 09:20 26.04.2020
4273 Clear 10 1011 61 10000 3.1 40 08:41 26.04.2020
4274 Clear 10 1011 61 10000 3.1 40 08:23 26.04.2020
4275 Clear 8 1011 65 10000 2.1 80 07:49 26.04.2020
4276 Clear 7 1011 65 10000 2.1 70 07:25 26.04.2020
4277 Clear 6 1011 70 10000 2.1 70 06:53 26.04.2020
4278 Clear 5 1011 70 10000 2.1 70 06:31 26.04.2020
4279 Clear 6 1011 65 10000 2.6 30 05:54 26.04.2020
4280 Clear 6 1011 65 10000 4.1 30 05:34 26.04.2020
4281 Clear 8 1011 61 10000 4.6 20 04:41 26.04.2020
4282 Clear 8 1011 61 10000 4.1 20 03:46 26.04.2020
4283 Clouds 7 1011 65 10000 2.1 70 02:40 26.04.2020
4284 Clear 7 1011 65 10000 2.1 70 02:19 26.04.2020
4285 Clear 8 1011 65 10000 3.6 10 01:37 26.04.2020
4286 Clear 8 1011 70 10000 4.1 10 01:19 26.04.2020
4287 Clear 9 1011 65 10000 4.1 10 00:38 26.04.2020
4288 Clear 9 1010 65 10000 3.1 10 00:18 26.04.2020
4289 Clear 10 1010 61 10000 3.1 10 23:38 25.04.2020
4290 Clear 11 1010 61 10000 3.1 10 23:19 25.04.2020
4291 Clear 12 1010 53 10000 3.1 10 22:43 25.04.2020
4292 Clear 12 1010 53 10000 3.1 10 22:21 25.04.2020
4293 Clear 12 1010 46 10000 3.1 20 21:59 25.04.2020
4294 Clear 13 1010 38 10000 3.6 30 21:39 25.04.2020
4295 Clouds 13 1010 38 10000 3.6 30 21:20 25.04.2020
4296 Clouds 15 1010 41 10000 4.6 30 20:55 25.04.2020
4297 Clouds 15 1010 41 10000 4.6 20 20:37 25.04.2020
4298 Clouds 16 1010 41 10000 4.6 20 20:19 25.04.2020
4299 Clouds 17 1010 33 10000 3.6 10 19:41 25.04.2020
4300 Clouds 17 1010 33 10000 3.6 10 19:22 25.04.2020
4301 Clouds 17 1010 33 10000 4.1 10 18:58 25.04.2020
4302 Clouds 18 1010 31 10000 4.6 40 18:39 25.04.2020
4303 Clear 18 1010 31 10000 4.6 40 18:20 25.04.2020
4304 Clear 18 1010 33 10000 4.1 30 17:57 25.04.2020
4305 Clear 18 1011 29 10000 2.6 0 17:38 25.04.2020
4306 Clear 18 1011 33 10000 3.1 60 17:19 25.04.2020
4307 Clear 18 1011 33 10000 3.1 60 16:54 25.04.2020
4308 Clear 17 1011 33 10000 2.1 0 16:36 25.04.2020
4309 Clear 17 1011 33 10000 2.1 0 16:18 25.04.2020
4310 Clear 17 1012 38 10000 2.6 0 15:40 25.04.2020
4311 Clear 16 1012 36 10000 3.1 10 15:20 25.04.2020
4312 Rain 16 1012 36 10000 3.1 10 14:58 25.04.2020
4313 Clear 16 1012 36 10000 3.1 10 14:58 25.04.2020
4314 Rain 16 1012 41 10000 4.1 40 14:39 25.04.2020
4315 Rain 15 1012 41 10000 4.1 40 14:20 25.04.2020
4316 Clouds 16 1013 41 10000 4.1 360 13:43 25.04.2020
4317 Clouds 15 1013 41 10000 4.1 360 13:20 25.04.2020
4318 Clouds 14 1013 47 10000 2.6 20 12:58 25.04.2020
4319 Clouds 13 1013 47 10000 3.6 10 12:40 25.04.2020
4320 Clouds 13 1013 47 10000 3.6 10 12:21 25.04.2020
4321 Clouds 12 1013 54 10000 3.1 350 11:58 25.04.2020
4322 Clouds 12 1013 57 10000 3.6 30 11:39 25.04.2020
4323 Clouds 12 1013 57 10000 3.6 30 11:21 25.04.2020
4324 Clouds 11 1013 57 10000 4.6 30 10:44 25.04.2020
4325 Clouds 11 1013 57 10000 4.6 30 10:24 25.04.2020
4326 Rain 10 1013 61 10000 6.2 40 09:55 25.04.2020
4327 Rain 10 1013 61 10000 5.7 40 09:36 25.04.2020
4328 Rain 10 1013 61 10000 5.7 40 09:18 25.04.2020
4329 Rain 9 1013 61 10000 5.7 20 08:40 25.04.2020
4330 Rain 9 1013 61 10000 5.7 20 08:21 25.04.2020
4331 Rain 9 1012 66 10000 5.7 340 07:59 25.04.2020
4332 Clouds 9 1012 66 10000 5.1 320 07:40 25.04.2020
4333 Clouds 8 1011 66 10000 4.6 330 06:56 25.04.2020
4334 Clouds 8 1011 66 10000 4.6 320 06:36 25.04.2020
4335 Clear 9 1011 53 10000 6.2 310 05:42 25.04.2020
4336 Clear 9 1011 53 10000 6.2 310 05:23 25.04.2020
4337 Clouds 12 1011 47 10000 5.1 310 03:29 25.04.2020
4338 Clouds 12 1011 61 10000 3.1 300 02:28 25.04.2020
4339 Clouds 13 1010 62 10000 2.6 270 01:56 25.04.2020
4340 Clouds 12 1010 62 10000 2.6 320 01:37 25.04.2020
4341 Clouds 13 1010 62 10000 2.6 320 01:19 25.04.2020
4342 Clouds 13 1010 54 10000 2.6 310 00:38 25.04.2020
4343 Clouds 15 1010 44 10000 4.6 320 23:59 24.04.2020
4344 Clouds 15 1010 45 10000 4.6 330 23:40 24.04.2020
4345 Clouds 15 1010 45 10000 4.6 330 23:20 24.04.2020
4346 Clouds 16 1010 45 10000 4.1 330 22:41 24.04.2020
4347 Clouds 16 1010 45 10000 4.1 330 22:21 24.04.2020
4348 Clouds 17 1010 36 10000 4.1 320 21:59 24.04.2020
4349 Clouds 17 1009 32 10000 3.6 310 21:40 24.04.2020
4350 Clouds 18 1009 29 10000 4.6 320 21:22 24.04.2020
4351 Clouds 19 1009 29 10000 4.6 320 20:58 24.04.2020
4352 Rain 19 1009 28 10000 6.7 330 20:40 24.04.2020
4353 Rain 20 1009 28 10000 6.7 330 20:19 24.04.2020
4354 Clouds 21 1009 28 10000 5.7 310 19:54 24.04.2020
4355 Clouds 21 1009 30 10000 6.7 300 19:36 24.04.2020
4356 Clouds 22 1009 31 10000 5.7 310 19:18 24.04.2020
4357 Clouds 22 1009 28 10000 5.1 300 18:40 24.04.2020
4358 Clouds 23 1009 28 10000 5.1 300 18:22 24.04.2020
4359 Clouds 24 1009 25 10000 5.7 290 17:43 24.04.2020
4360 Clouds 24 1009 25 10000 5.7 290 17:24 24.04.2020
4361 Clouds 24 1010 23 10000 4.1 330 16:59 24.04.2020
4362 Clouds 24 1010 23 10000 4.1 330 16:59 24.04.2020
4363 Clouds 23 1010 25 10000 5.1 340 16:41 24.04.2020
4364 Clouds 23 1010 25 10000 5.1 340 16:22 24.04.2020
4365 Clouds 23 1010 25 10000 4.6 280 15:59 24.04.2020
4366 Clouds 23 1011 25 10000 5.1 290 15:39 24.04.2020
4367 Clouds 23 1011 25 10000 5.1 290 15:19 24.04.2020
4368 Clouds 23 1011 27 10000 5.7 270 14:40 24.04.2020
4369 Clouds 23 1011 27 10000 5.7 270 14:40 24.04.2020
4370 Clouds 22 1011 27 10000 5.7 270 14:22 24.04.2020
4371 Clouds 22 1012 30 10000 4.1 260 13:57 24.04.2020
4372 Clouds 22 1012 37 10000 4.1 250 13:39 24.04.2020
4373 Clouds 21 1012 37 10000 4.1 250 13:20 24.04.2020
4374 Clouds 21 1012 39 10000 4.1 210 12:45 24.04.2020
4375 Clouds 19 1012 39 10000 4.1 210 12:25 24.04.2020
4376 Clouds 18 1013 42 10000 3.6 230 11:59 24.04.2020
4377 Clouds 18 1013 48 10000 3.6 210 11:40 24.04.2020
4378 Clouds 16 1013 51 10000 3.6 200 11:21 24.04.2020
4379 Clouds 16 1013 51 10000 3.6 200 10:56 24.04.2020
4380 Clouds 15 1013 54 10000 3.6 210 10:38 24.04.2020
4381 Clouds 14 1013 62 10000 3.1 220 10:19 24.04.2020
4382 Clouds 13 1013 62 10000 3.1 220 09:47 24.04.2020
4383 Clouds 12 1013 66 10000 2.1 230 09:24 24.04.2020
4384 Clouds 11 1013 76 10000 1.5 210 08:58 24.04.2020
4385 Clouds 10 1013 81 10000 1 0 08:40 24.04.2020
4386 Clouds 10 1013 81 10000 1 0 08:18 24.04.2020
4387 Clouds 9 1013 86 10000 0.5 0 07:47 24.04.2020
4388 Clouds 9 1013 86 10000 0.5 0 07:27 24.04.2020
4389 Clouds 8 1013 93 10000 1 0 06:59 24.04.2020
4390 Clouds 8 1013 86 10000 1 0 06:40 24.04.2020
4391 Clouds 8 1014 86 10000 1 220 05:49 24.04.2020
4392 Clouds 8 1014 86 10000 1 230 04:48 24.04.2020
4393 Clouds 9 1015 81 10000 2.1 220 03:28 24.04.2020
4394 Clouds 8 1015 70 10000 1 0 02:47 24.04.2020
4395 Clouds 9 1015 75 10000 0.5 0 02:23 24.04.2020
4396 Clouds 10 1015 66 10000 1.5 20 01:37 24.04.2020
4397 Clouds 10 1016 61 10000 1.5 330 00:46 24.04.2020
4398 Clouds 11 1016 57 10000 1 0 00:18 24.04.2020
4399 Clouds 11 1016 58 10000 1 0 23:46 23.04.2020
4400 Clouds 12 1016 58 10000 1 0 23:27 23.04.2020
4401 Clouds 13 1016 54 10000 1 320 22:57 23.04.2020
4402 Clouds 14 1016 50 10000 1 0 22:38 23.04.2020
4403 Clouds 14 1016 50 10000 1 0 22:19 23.04.2020
4404 Clouds 15 1016 47 10000 1 0 21:57 23.04.2020
4405 Clouds 16 1016 38 10000 1.5 180 21:39 23.04.2020
4406 Clear 17 1016 38 10000 1.5 180 21:20 23.04.2020
4407 Clear 20 1016 30 10000 2.6 140 20:56 23.04.2020
4408 Clear 20 1016 30 10000 2.6 140 20:38 23.04.2020
4409 Clear 21 1016 24 10000 2.6 120 20:18 23.04.2020
4410 Clear 21 1016 24 10000 2.6 120 19:55 23.04.2020
4411 Clear 22 1016 20 10000 2.6 100 19:37 23.04.2020
4412 Clear 22 1016 20 10000 2.6 100 19:19 23.04.2020
4413 Clear 22 1017 42 10000 2.6 120 18:40 23.04.2020
4414 Clear 23 1017 31 10000 2.6 120 18:22 23.04.2020
4415 Clear 23 1017 23 10000 4.1 120 17:58 23.04.2020
4416 Clear 23 1017 31 10000 2.6 140 17:39 23.04.2020
4417 Clear 23 1017 31 10000 2.6 140 17:21 23.04.2020
4418 Clear 22 1018 31 10000 3.6 110 16:55 23.04.2020
4419 Clear 22 1018 31 10000 3.6 110 16:37 23.04.2020
4420 Clear 22 1018 31 10000 2.6 0 16:18 23.04.2020
4421 Clear 22 1018 26 10000 4.6 90 15:41 23.04.2020
4422 Clear 22 1018 26 10000 4.6 90 15:41 23.04.2020
4423 Clear 22 1018 26 10000 4.6 90 15:22 23.04.2020
4424 Clear 21 1019 26 10000 4.6 110 14:56 23.04.2020
4425 Clear 21 1019 28 10000 3.6 100 14:37 23.04.2020
4426 Clear 21 1019 28 10000 3.6 100 14:18 23.04.2020
4427 Clear 20 1020 30 10000 2.6 80 13:40 23.04.2020
4428 Clear 20 1020 30 10000 4.6 120 13:22 23.04.2020
4429 Clear 19 1020 30 10000 4.6 120 12:58 23.04.2020
4430 Clear 19 1020 29 10000 5.7 100 12:40 23.04.2020
4431 Clear 18 1021 31 10000 4.6 90 12:21 23.04.2020
4432 Clear 17 1021 36 10000 3.6 80 11:47 23.04.2020
4433 Clear 17 1021 36 10000 3.6 80 11:28 23.04.2020
4434 Clear 17 1021 36 10000 3.1 60 10:59 23.04.2020
4435 Clear 16 1021 38 10000 3.6 70 10:40 23.04.2020
4436 Clear 15 1021 38 10000 3.6 70 10:20 23.04.2020
4437 Clear 14 1021 41 10000 4.6 60 09:41 23.04.2020
4438 Clear 13 1021 41 10000 4.6 60 09:19 23.04.2020
4439 Clear 12 1021 46 10000 4.1 40 08:52 23.04.2020
4440 Clear 12 1021 46 10000 4.1 40 08:32 23.04.2020
4441 Clear 11 1021 50 10000 4.1 30 07:59 23.04.2020
4442 Clear 10 1021 53 10000 4.1 30 07:40 23.04.2020
4443 Clear 10 1021 53 10000 4.1 30 07:22 23.04.2020
4444 Clear 10 1020 53 10000 4.1 10 06:46 23.04.2020
4445 Rain 10 1020 50 10000 3.1 10 05:56 23.04.2020
4446 Rain 11 1020 50 10000 3.6 20 05:22 23.04.2020
4447 Rain 10 1020 50 10000 5.1 20 04:50 23.04.2020
4448 Clear 12 1020 50 10000 4.1 20 02:24 23.04.2020
4449 Rain 12 1019 47 10000 5.1 20 01:41 23.04.2020
4450 Rain 13 1019 44 10000 6.2 20 00:57 23.04.2020
4451 Rain 13 1019 44 10000 6.2 20 00:36 23.04.2020
4452 Rain 14 1019 41 10000 5.7 20 00:18 23.04.2020
4453 Rain 15 1019 38 10000 6.7 20 23:42 22.04.2020
4454 Rain 15 1019 38 10000 6.7 20 23:22 22.04.2020
4455 Rain 16 1019 38 10000 5.1 20 22:54 22.04.2020
4456 Rain 16 1018 36 10000 4.1 20 22:36 22.04.2020
4457 Rain 16 1018 31 10000 5.1 20 22:18 22.04.2020
4458 Rain 17 1018 31 10000 5.1 20 21:54 22.04.2020
4459 Rain 17 1018 29 10000 6.2 30 21:36 22.04.2020
4460 Rain 18 1018 29 10000 6.2 30 21:18 22.04.2020
4461 Rain 19 1017 26 10000 7.7 30 20:43 22.04.2020
4462 Rain 20 1017 26 10000 7.7 30 20:19 22.04.2020
4463 Rain 21 1016 24 10000 7.2 30 19:57 22.04.2020
4464 Rain 21 1016 17 10000 7.7 70 19:38 22.04.2020
4465 Rain 22 1016 17 10000 8.2 60 19:18 22.04.2020
4466 Rain 21 1016 17 10000 7.7 70 19:18 22.04.2020
4467 Rain 22 1016 17 10000 8.2 60 18:58 22.04.2020
4468 Rain 23 1016 16 10000 6.7 60 18:40 22.04.2020
4469 Rain 23 1016 16 10000 6.7 60 18:40 22.04.2020
4470 Rain 23 1016 17 10000 6.7 70 18:22 22.04.2020
4471 Rain 23 1016 17 10000 6.7 70 17:55 22.04.2020
4472 Clear 23 1016 18 10000 6.7 80 17:37 22.04.2020
4473 Clear 23 1016 18 10000 7.2 90 17:18 22.04.2020
4474 Clear 23 1017 18 10000 7.2 80 16:41 22.04.2020
4475 Clear 23 1017 18 10000 7.2 80 16:22 22.04.2020
4476 Clear 22 1017 20 10000 5.7 70 15:43 22.04.2020
4477 Rain 22 1017 20 10000 5.7 70 15:24 22.04.2020
4478 Rain 22 1017 19 10000 8.2 90 14:59 22.04.2020
4479 Rain 22 1017 19 10000 8.2 90 14:59 22.04.2020
4480 Clear 22 1017 19 10000 7.7 90 14:40 22.04.2020
4481 Clear 21 1017 19 10000 7.7 90 14:20 22.04.2020
4482 Clear 21 1018 21 10000 7.2 70 13:56 22.04.2020
4483 Clear 20 1018 22 10000 8.2 80 13:38 22.04.2020
4484 Clear 20 1018 22 10000 8.2 80 13:19 22.04.2020
4485 Clear 19 1018 25 10000 8.7 60 12:42 22.04.2020
4486 Clear 18 1018 25 10000 8.7 60 12:23 22.04.2020
4487 Clear 18 1018 25 10000 8.7 60 12:23 22.04.2020
4488 Rain 17 1018 27 10000 8.2 70 11:57 22.04.2020
4489 Rain 17 1018 33 10000 7.2 30 11:36 22.04.2020
4490 Clear 17 1018 33 10000 7.2 30 11:18 22.04.2020
4491 Clear 15 1019 37 10000 7.7 50 10:41 22.04.2020
4492 Rain 15 1019 37 10000 7.7 50 10:21 22.04.2020
4493 Rain 13 1019 37 10000 6.7 40 09:41 22.04.2020
4494 Rain 12 1019 51 10000 6.7 40 09:23 22.04.2020
4495 Rain 11 1019 51 10000 6.7 30 08:59 22.04.2020
4496 Rain 11 1019 51 10000 6.2 20 08:41 22.04.2020
4497 Rain 11 1019 51 10000 6.2 20 08:22 22.04.2020
4498 Rain 11 1018 51 10000 5.7 20 07:53 22.04.2020
4499 Rain 11 1018 51 10000 6.2 30 07:33 22.04.2020
4500 Rain 10 1018 51 10000 4.6 20 06:53 22.04.2020
4501 Rain 10 1018 55 10000 5.1 20 06:23 22.04.2020
4502 Rain 11 1018 55 10000 5.1 20 05:38 22.04.2020
4503 Rain 11 1017 55 10000 5.7 20 04:34 22.04.2020
4504 Rain 12 1017 52 10000 5.7 20 02:59 22.04.2020
4505 Rain 13 1017 43 10000 5.1 10 01:55 22.04.2020
4506 Rain 13 1017 49 10000 5.1 10 01:28 22.04.2020
4507 Rain 14 1017 49 10000 4.6 30 00:59 22.04.2020
4508 Rain 14 1017 49 10000 4.6 30 00:59 22.04.2020
4509 Rain 14 1017 33 10000 6.2 50 00:41 22.04.2020
4510 Rain 14 1017 33 10000 6.2 50 00:20 22.04.2020
4511 Rain 15 1017 29 10000 6.7 60 23:44 21.04.2020
4512 Rain 15 1017 29 10000 6.7 60 23:20 21.04.2020
4513 Clear 16 1016 29 10000 6.2 60 22:55 21.04.2020
4514 Clear 16 1016 27 10000 8.2 70 22:37 21.04.2020
4515 Rain 16 1016 23 10000 9.8 70 22:19 21.04.2020
4516 Clear 17 1015 23 10000 7.2 80 21:43 21.04.2020
4517 Clear 17 1015 23 10000 7.2 80 21:24 21.04.2020
4518 Clear 18 1015 22 10000 8.7 80 20:59 21.04.2020
4519 Clear 19 1014 20 10000 9.8 70 20:40 21.04.2020
4520 Clear 19 1014 20 10000 9.8 70 20:22 21.04.2020
4521 Rain 20 1014 19 10000 9.8 80 19:56 21.04.2020
4522 Clear 20 1014 19 10000 10.8 60 19:36 21.04.2020
4523 Clear 21 1014 18 10000 10.8 70 19:18 21.04.2020
4524 Clear 22 1014 18 10000 10.8 70 18:54 21.04.2020
4525 Clear 21 1014 19 10000 9.8 80 18:36 21.04.2020
4526 Clear 21 1014 19 10000 9.8 80 18:18 21.04.2020
4527 Rain 22 1014 18 10000 8.7 80 17:39 21.04.2020
4528 Clear 22 1014 18 10000 10.8 80 17:19 21.04.2020
4529 Clear 22 1014 18 10000 10.8 80 16:54 21.04.2020
4530 Rain 22 1014 18 10000 10.3 60 16:36 21.04.2020
4531 Rain 21 1014 18 10000 10.3 70 16:18 21.04.2020
4532 Clear 21 1014 18 10000 10.3 70 15:55 21.04.2020
4533 Rain 21 1014 18 10000 10.8 70 15:36 21.04.2020
4534 Rain 21 1014 18 10000 10.8 70 15:18 21.04.2020
4535 Rain 20 1015 19 10000 10.8 70 14:44 21.04.2020
4536 Clear 20 1015 19 10000 10.8 70 14:23 21.04.2020
4537 Rain 20 1015 20 10000 11.3 70 13:55 21.04.2020
4538 Rain 19 1015 22 10000 10.3 70 13:37 21.04.2020
4539 Clear 19 1015 22 10000 10.3 70 13:18 21.04.2020
4540 Rain 17 1015 23 10000 11.3 70 12:38 21.04.2020
4541 Rain 17 1016 25 10000 8.2 90 12:19 21.04.2020
4542 Rain 17 1015 25 10000 9.8 70 11:57 21.04.2020
4543 Rain 16 1015 26 10000 9.8 70 11:38 21.04.2020
4544 Rain 16 1015 26 10000 9.8 70 11:38 21.04.2020
4545 Rain 16 1015 26 10000 9.8 70 11:19 21.04.2020
4546 Rain 15 1015 31 10000 8.7 60 10:59 21.04.2020
4547 Rain 14 1016 35 10000 7.2 30 10:39 21.04.2020
4548 Rain 14 1016 35 10000 7.2 30 10:21 21.04.2020
4549 Rain 13 1016 40 10000 6.2 30 09:58 21.04.2020
4550 Rain 10 1016 46 10000 7.2 20 09:36 21.04.2020
4551 Rain 10 1016 46 10000 7.7 30 09:18 21.04.2020
4552 Rain 10 1016 49 10000 7.7 20 08:43 21.04.2020
4553 Rain 10 1016 49 10000 7.7 20 08:25 21.04.2020
4554 Rain 9 1016 52 10000 7.7 20 07:52 21.04.2020
4555 Rain 9 1015 52 10000 7.2 20 07:27 21.04.2020
4556 Rain 9 1015 52 10000 7.7 20 06:51 21.04.2020
4557 Rain 8 1015 49 10000 8.7 20 06:33 21.04.2020
4558 Rain 9 1015 49 10000 8.2 20 05:50 21.04.2020
4559 Rain 9 1015 49 10000 7.7 20 05:20 21.04.2020
4560 Rain 10 1016 43 10000 6.2 20 03:47 21.04.2020
4561 Rain 10 1016 43 10000 6.2 20 02:47 21.04.2020
4562 Rain 11 1017 40 10000 6.2 20 01:32 21.04.2020
4563 Rain 11 1016 37 10000 6.7 20 00:47 21.04.2020
4564 Rain 12 1016 37 10000 6.2 20 00:23 21.04.2020
4565 Rain 12 1016 37 10000 7.2 40 23:44 20.04.2020
4566 Rain 13 1016 37 10000 7.2 40 23:23 20.04.2020
4567 Rain 14 1016 30 10000 8.7 50 22:56 20.04.2020
4568 Clear 14 1016 30 10000 9.3 50 22:37 20.04.2020
4569 Rain 14 1016 30 10000 9.3 50 22:18 20.04.2020
4570 Clear 15 1016 29 10000 10.3 50 21:55 20.04.2020
4571 Clear 15 1015 29 10000 10.3 50 21:36 20.04.2020
4572 Clear 15 1015 29 10000 10.3 50 21:18 20.04.2020
4573 Rain 16 1015 29 10000 9.8 50 20:55 20.04.2020
4574 Clear 17 1014 27 10000 9.8 50 20:36 20.04.2020
4575 Clear 18 1014 22 10000 8.7 60 20:18 20.04.2020
4576 Rain 19 1014 22 10000 10.3 60 19:41 20.04.2020
4577 Rain 19 1014 22 10000 10.3 60 19:23 20.04.2020
4578 Clear 20 1014 20 10000 10.3 60 18:59 20.04.2020
4579 Clear 20 1014 21 10000 10.8 60 18:41 20.04.2020
4580 Rain 20 1014 21 10000 10.8 60 18:21 20.04.2020
4581 Rain 20 1014 18 10000 11.3 80 17:55 20.04.2020
4582 Clear 20 1014 18 10000 10.8 70 17:36 20.04.2020
4583 Rain 20 1014 18 10000 10.8 70 17:18 20.04.2020
4584 Rain 20 1014 19 10000 10.3 80 16:43 20.04.2020
4585 Rain 20 1014 19 10000 10.3 80 16:21 20.04.2020
4586 Rain 20 1015 20 10000 7.7 70 15:57 20.04.2020
4587 Rain 19 1015 19 10000 10.8 70 15:39 20.04.2020
4588 Rain 19 1015 19 10000 10.8 70 15:21 20.04.2020
4589 Rain 19 1016 22 10000 10.3 70 14:54 20.04.2020
4590 Rain 18 1016 22 10000 9.8 70 14:36 20.04.2020
4591 Clear 19 1016 22 10000 9.8 70 14:18 20.04.2020
4592 Rain 18 1016 25 10000 10.8 50 13:40 20.04.2020
4593 Rain 17 1016 25 10000 10.8 50 13:22 20.04.2020
4594 Clear 16 1017 26 10000 9.3 70 12:45 20.04.2020
4595 Rain 16 1017 26 10000 9.3 70 12:26 20.04.2020
4596 Rain 15 1017 26 10000 9.8 70 11:59 20.04.2020
4597 Rain 15 1017 26 10000 9.8 70 11:59 20.04.2020
4598 Rain 15 1017 30 10000 8.7 50 11:39 20.04.2020
4599 Rain 15 1017 30 10000 8.7 50 11:21 20.04.2020
4600 Rain 14 1017 35 10000 8.7 60 10:57 20.04.2020
4601 Rain 14 1017 35 10000 8.7 60 10:57 20.04.2020
4602 Rain 13 1018 37 10000 8.2 50 10:38 20.04.2020
4603 Rain 13 1018 37 10000 8.2 50 10:19 20.04.2020
4604 Rain 12 1018 37 10000 6.7 40 09:55 20.04.2020
4605 Rain 12 1018 46 10000 7.7 40 09:36 20.04.2020
4606 Rain 10 1018 49 10000 6.7 30 09:18 20.04.2020
4607 Rain 9 1018 49 10000 6.2 30 08:41 20.04.2020
4608 Rain 9 1018 49 10000 6.2 30 08:22 20.04.2020
4609 Rain 8 1018 52 10000 7.2 20 07:52 20.04.2020
4610 Rain 8 1018 52 10000 7.2 20 07:29 20.04.2020
4611 Rain 8 1018 52 10000 6.7 20 06:57 20.04.2020
4612 Rain 7 1017 52 10000 7.2 20 06:36 20.04.2020
4613 Rain 8 1017 52 10000 6.7 20 05:41 20.04.2020
4614 Rain 9 1017 45 10000 6.7 20 04:18 20.04.2020
4615 Rain 9 1017 43 10000 7.2 20 02:46 20.04.2020
4616 Rain 9 1017 43 10000 7.2 20 02:46 20.04.2020
4617 Rain 10 1018 43 10000 6.7 20 01:54 20.04.2020
4618 Rain 10 1018 43 10000 6.7 20 01:28 20.04.2020
4619 Rain 11 1018 50 10000 6.7 20 00:37 20.04.2020
4620 Rain 11 1017 46 10000 6.7 20 23:59 19.04.2020
4621 Rain 12 1017 47 10000 5.7 20 23:39 19.04.2020
4622 Rain 12 1017 47 10000 5.7 20 23:20 19.04.2020
4623 Rain 12 1017 47 10000 5.1 20 22:44 19.04.2020
4624 Rain 13 1017 47 10000 5.1 20 22:24 19.04.2020
4625 Rain 13 1017 50 10000 4.1 20 21:59 19.04.2020
4626 Rain 14 1017 50 10000 5.1 60 21:41 19.04.2020
4627 Rain 14 1017 50 10000 5.1 60 21:41 19.04.2020
4628 Rain 14 1017 50 10000 5.1 60 21:22 19.04.2020
4629 Rain 14 1016 51 10000 5.7 50 20:56 19.04.2020
4630 Rain 15 1016 48 10000 7.7 50 20:38 19.04.2020
4631 Rain 15 1016 48 10000 7.7 50 20:20 19.04.2020
4632 Rain 16 1016 48 10000 8.7 40 20:20 19.04.2020
4633 Rain 16 1016 48 10000 8.7 40 19:55 19.04.2020
4634 Rain 16 1016 45 10000 9.3 40 19:37 19.04.2020
4635 Rain 17 1016 45 10000 9.3 40 19:19 19.04.2020
4636 Rain 16 1016 45 10000 7.7 40 18:54 19.04.2020
4637 Rain 17 1015 45 10000 8.7 30 18:36 19.04.2020
4638 Rain 17 1015 45 10000 9.3 20 18:18 19.04.2020
4639 Rain 17 1015 48 10000 6.7 30 17:42 19.04.2020
4640 Rain 17 1015 48 10000 6.7 30 17:23 19.04.2020
4641 Rain 18 1015 52 10000 8.2 20 17:00 19.04.2020
4642 Clouds 17 1016 52 10000 7.7 30 16:39 19.04.2020
4643 Clouds 18 1016 52 10000 7.7 30 16:21 19.04.2020
4644 Clouds 17 1016 55 10000 7.7 30 15:55 19.04.2020
4645 Clouds 17 1016 59 10000 6.7 20 15:36 19.04.2020
4646 Rain 17 1016 63 10000 6.7 40 15:18 19.04.2020
4647 Rain 17 1016 55 10000 5.1 30 14:38 19.04.2020
4648 Rain 17 1016 55 10000 5.1 30 14:20 19.04.2020
4649 Rain 17 1016 59 10000 5.7 40 13:56 19.04.2020
4650 Rain 17 1016 63 10000 3.6 20 13:36 19.04.2020
4651 Rain 16 1016 63 10000 3.6 20 13:18 19.04.2020
4652 Clouds 16 1017 62 10000 3.1 20 12:43 19.04.2020
4653 Clouds 15 1017 62 10000 3.1 20 12:24 19.04.2020
4654 Clouds 15 1017 72 10000 4.1 20 11:39 19.04.2020
4655 Clouds 15 1017 72 10000 4.1 20 11:20 19.04.2020
4656 Clouds 14 1016 72 10000 4.1 20 10:59 19.04.2020
4657 Clouds 14 1016 72 7000 4.6 30 10:41 19.04.2020
4658 Clouds 14 1016 72 7000 2.6 350 10:21 19.04.2020
4659 Clouds 14 1016 72 7000 2.6 350 09:56 19.04.2020
4660 Clouds 14 1016 72 10000 2.6 50 09:38 19.04.2020
4661 Clouds 15 1016 76 10000 1.5 10 09:18 19.04.2020
4662 Clouds 13 1016 82 10000 1.5 20 08:40 19.04.2020
4663 Clouds 13 1016 82 10000 1.5 20 08:40 19.04.2020
4664 Clouds 13 1016 82 10000 1.5 20 08:21 19.04.2020
4665 Clouds 12 1016 93 10000 1.5 270 07:48 19.04.2020
4666 Clouds 11 1016 93 10000 1.5 270 07:25 19.04.2020
4667 Clouds 11 1016 93 10000 2.1 240 06:57 19.04.2020
4668 Clear 12 1016 87 10000 3.6 270 06:23 19.04.2020
4669 Clouds 12 1016 100 10000 3.1 240 05:34 19.04.2020
4670 Clear 12 1015 93 10000 3.1 290 03:40 19.04.2020
4671 Clouds 13 1015 87 10000 2.1 270 02:49 19.04.2020
4672 Clouds 12 1015 82 10000 2.6 270 02:18 19.04.2020
4673 Clouds 14 1015 82 10000 3.6 280 01:22 19.04.2020
4674 Clouds 14 1015 77 10000 2.6 270 00:41 19.04.2020
4675 Clouds 15 1015 77 10000 2.6 270 00:41 19.04.2020
4676 Rain 15 1015 77 10000 2.6 310 00:20 19.04.2020
4677 Rain 16 1015 72 10000 2.1 290 23:43 18.04.2020
4678 Rain 16 1015 72 10000 2.1 290 23:20 18.04.2020
4679 Rain 17 1015 67 10000 1 0 22:55 18.04.2020
4680 Rain 17 1015 67 10000 2.6 320 22:37 18.04.2020
4681 Rain 16 1015 67 10000 2.6 320 22:19 18.04.2020
4682 Clouds 18 1014 63 10000 5.7 330 21:43 18.04.2020
4683 Clouds 17 1014 63 10000 5.7 330 21:22 18.04.2020
4684 Clouds 18 1014 59 10000 4.1 310 20:59 18.04.2020
4685 Rain 18 1014 59 10000 4.6 290 20:40 18.04.2020
4686 Rain 18 1014 59 10000 4.6 290 20:21 18.04.2020
4687 Rain 19 1013 56 10000 4.6 310 19:43 18.04.2020
4688 Rain 20 1013 56 10000 4.6 310 19:25 18.04.2020
4689 Rain 20 1013 49 10000 6.7 320 18:59 18.04.2020
4690 Rain 22 1013 46 10000 4.1 290 18:37 18.04.2020
4691 Clouds 23 1013 38 10000 4.6 260 18:19 18.04.2020
4692 Clouds 23 1013 38 10000 3.1 320 17:41 18.04.2020
4693 Clouds 23 1013 38 10000 3.1 320 17:21 18.04.2020
4694 Clouds 24 1013 38 10000 3.1 300 16:57 18.04.2020
4695 Clouds 24 1013 36 10000 1.5 0 16:37 18.04.2020
4696 Clouds 24 1013 36 10000 1.5 0 16:19 18.04.2020
4697 Clouds 24 1014 40 10000 1.5 0 15:39 18.04.2020
4698 Rain 23 1014 46 10000 1 0 15:21 18.04.2020
4699 Rain 23 1014 46 10000 1 0 14:46 18.04.2020
4700 Rain 23 1015 49 10000 1 0 14:27 18.04.2020
4701 Rain 22 1015 49 10000 1 0 13:58 18.04.2020
4702 Rain 21 1015 49 10000 2.1 200 13:40 18.04.2020
4703 Rain 21 1015 49 10000 2.1 200 13:19 18.04.2020
4704 Rain 21 1015 52 10000 3.1 220 12:42 18.04.2020
4705 Rain 20 1015 52 10000 3.1 220 12:23 18.04.2020
4706 Rain 20 1015 48 10000 3.1 200 11:55 18.04.2020
4707 Rain 19 1015 55 10000 3.6 200 11:36 18.04.2020
4708 Rain 19 1015 55 10000 1 0 11:18 18.04.2020
4709 Rain 18 1015 59 10000 2.1 100 10:41 18.04.2020
4710 Rain 16 1015 59 10000 2.1 100 10:19 18.04.2020
4711 Rain 15 1015 58 10000 2.6 70 09:58 18.04.2020
4712 Clouds 15 1015 62 10000 1.5 30 09:38 18.04.2020
4713 Clouds 14 1015 62 10000 1.5 30 09:20 18.04.2020
4714 Clouds 13 1015 58 10000 2.1 50 08:42 18.04.2020
4715 Clouds 13 1015 58 10000 2.1 50 08:21 18.04.2020
4716 Clouds 12 1014 58 10000 2.1 50 07:45 18.04.2020
4717 Clouds 13 1014 58 10000 2.1 50 07:23 18.04.2020
4718 Clouds 13 1014 54 10000 2.1 50 06:39 18.04.2020
4719 Clouds 13 1014 54 10000 2.1 40 05:49 18.04.2020
4720 Clouds 13 1014 58 10000 3.6 20 04:54 18.04.2020
4721 Clouds 14 1014 58 10000 3.6 20 04:30 18.04.2020
4722 Rain 15 1014 54 10000 4.1 10 03:18 18.04.2020
4723 Rain 15 1014 48 10000 3.6 20 02:40 18.04.2020
4724 Clouds 15 1014 48 10000 3.6 20 02:21 18.04.2020
4725 Clouds 15 1014 48 10000 4.1 30 01:40 18.04.2020
4726 Clouds 16 1014 48 10000 4.1 30 01:22 18.04.2020
4727 Rain 16 1014 48 10000 3.6 30 00:24 18.04.2020
4728 Rain 17 1013 48 10000 5.1 40 23:58 17.04.2020
4729 Rain 18 1014 52 10000 3.1 360 23:40 17.04.2020
4730 Rain 18 1014 52 10000 3.1 360 23:20 17.04.2020
4731 Rain 17 1013 55 10000 2.1 350 22:58 17.04.2020
4732 Rain 17 1013 55 10000 2.1 60 22:40 17.04.2020
4733 Rain 17 1013 55 10000 2.1 60 22:20 17.04.2020
4734 Rain 18 1013 52 10000 2.1 80 21:58 17.04.2020
4735 Rain 19 1013 45 10000 3.1 70 21:39 17.04.2020
4736 Clouds 19 1013 45 10000 3.1 70 21:19 17.04.2020
4737 Clouds 20 1013 46 10000 2.6 60 20:55 17.04.2020
4738 Clouds 21 1013 43 10000 0.5 0 20:36 17.04.2020
4739 Clouds 22 1014 47 0 0.75 49 20:18 17.04.2020
4740 Clouds 23 1013 38 10000 1.5 0 19:46 17.04.2020
4741 Clouds 23 1013 38 10000 1.5 0 19:24 17.04.2020
4742 Clouds 23 1013 35 10000 2.1 250 18:48 17.04.2020
4743 Clouds 23 1013 35 10000 2.1 250 18:25 17.04.2020
4744 Clouds 24 1013 33 10000 3.6 280 17:59 17.04.2020
4745 Clouds 24 1013 29 10000 3.1 240 17:38 17.04.2020
4746 Clouds 25 1013 29 10000 3.1 240 17:19 17.04.2020
4747 Clouds 25 1014 29 10000 1.5 180 16:44 17.04.2020
4748 Clouds 24 1014 29 10000 1.5 180 16:24 17.04.2020
4749 Clouds 24 1014 31 10000 2.6 300 15:59 17.04.2020
4750 Clouds 24 1014 31 10000 1.5 0 15:39 17.04.2020
4751 Clear 24 1014 31 10000 1.5 0 15:20 17.04.2020
4752 Clear 24 1015 31 10000 1.5 0 14:42 17.04.2020
4753 Clear 23 1015 31 10000 1.5 0 14:24 17.04.2020
4754 Clear 23 1015 33 10000 1 0 13:59 17.04.2020
4755 Clear 23 1015 33 10000 1 0 13:59 17.04.2020
4756 Clear 22 1015 37 10000 2.1 20 13:39 17.04.2020
4757 Clear 22 1015 37 10000 2.1 20 13:20 17.04.2020
4758 Clear 21 1016 42 10000 1 0 12:48 17.04.2020
4759 Clear 20 1016 42 10000 1 0 12:27 17.04.2020
4760 Clouds 19 1016 45 10000 1.5 0 11:59 17.04.2020
4761 Clear 19 1016 45 10000 1.5 50 11:39 17.04.2020
4762 Clear 18 1016 51 10000 1.5 0 11:19 17.04.2020
4763 Clear 16 1016 54 10000 2.1 0 10:40 17.04.2020
4764 Clear 16 1016 54 10000 2.1 0 10:20 17.04.2020
4765 Clear 15 1016 54 10000 2.1 10 09:55 17.04.2020
4766 Clear 13 1016 62 10000 1.5 70 09:36 17.04.2020
4767 Clouds 13 1016 62 10000 1.5 70 09:18 17.04.2020
4768 Clouds 12 1016 66 10000 2.1 70 08:46 17.04.2020
4769 Clouds 11 1016 76 10000 0.5 0 08:26 17.04.2020
4770 Clouds 10 1016 87 10000 0.5 0 07:56 17.04.2020
4771 Clouds 10 1016 87 10000 0.5 0 07:38 17.04.2020
4772 Clouds 9 1016 87 10000 0.5 0 07:18 17.04.2020
4773 Clouds 9 1016 93 10000 1 230 06:43 17.04.2020
4774 Clouds 9 1015 87 10000 1.5 220 05:58 17.04.2020
4775 Clouds 11 1015 81 0 1 0 03:24 17.04.2020
4776 Clouds 11 1015 81 10000 1 230 02:52 17.04.2020
4777 Clear 11 1015 81 10000 0.5 0 01:41 17.04.2020
4778 Clear 12 1015 76 10000 1 0 01:19 17.04.2020
4779 Clouds 13 1015 71 10000 1 320 00:21 17.04.2020
4780 Clouds 14 1015 66 10000 0.5 0 23:55 16.04.2020
4781 Clouds 14 1015 66 10000 0.5 0 23:36 16.04.2020
4782 Clouds 14 1015 62 10000 1 180 23:18 16.04.2020
4783 Clouds 15 1015 62 10000 1 0 22:40 16.04.2020
4784 Clouds 15 1015 58 10000 1 230 22:22 16.04.2020
4785 Clouds 16 1015 51 10000 1.5 210 21:58 16.04.2020
4786 Clouds 16 1015 51 10000 1.5 210 21:40 16.04.2020
4787 Clouds 18 1014 51 10000 2.1 210 21:19 16.04.2020
4788 Clouds 19 1014 42 10000 3.1 210 20:43 16.04.2020
4789 Clouds 20 1014 35 10000 3.1 200 20:23 16.04.2020
4790 Clouds 21 1014 31 10000 4.1 200 19:59 16.04.2020
4791 Clouds 22 1014 31 10000 4.1 200 19:39 16.04.2020
4792 Clouds 22 1014 31 10000 5.1 190 19:20 16.04.2020
4793 Clouds 22 1014 29 10000 4.6 200 18:56 16.04.2020
4794 Clouds 22 1014 29 10000 4.6 200 18:38 16.04.2020
4795 Clouds 23 1014 31 10000 4.6 210 18:20 16.04.2020
4796 Clouds 23 1015 31 10000 5.7 220 17:45 16.04.2020
4797 Clouds 23 1015 31 10000 4.1 210 17:26 16.04.2020
4798 Clouds 23 1015 31 10000 4.1 210 17:00 16.04.2020
4799 Clouds 23 1015 35 10000 4.1 190 16:41 16.04.2020
4800 Clouds 23 1015 35 10000 4.1 190 16:19 16.04.2020
4801 Clouds 23 1016 35 10000 4.1 180 15:44 16.04.2020
4802 Clouds 22 1016 35 10000 2.6 200 15:19 16.04.2020
4803 Clouds 21 1017 35 10000 4.1 190 14:58 16.04.2020
4804 Clouds 21 1017 35 10000 4.1 190 14:39 16.04.2020
4805 Clouds 20 1017 37 10000 3.6 250 14:19 16.04.2020
4806 Clouds 20 1017 37 10000 3.1 200 13:57 16.04.2020
4807 Clouds 20 1017 39 10000 4.1 180 13:37 16.04.2020
4808 Clouds 20 1017 39 10000 4.1 180 13:37 16.04.2020
4809 Clouds 20 1017 39 10000 4.1 180 13:37 16.04.2020
4810 Clouds 19 1017 39 10000 4.1 180 13:19 16.04.2020
4811 Clouds 19 1018 39 10000 3.1 210 12:56 16.04.2020
4812 Clouds 18 1018 39 10000 3.1 210 12:38 16.04.2020
4813 Clouds 17 1018 39 10000 3.6 200 12:19 16.04.2020
4814 Clouds 16 1018 44 10000 2.6 220 11:55 16.04.2020
4815 Clouds 16 1018 44 10000 2.6 220 11:37 16.04.2020
4816 Clouds 15 1018 41 10000 2.1 180 11:18 16.04.2020
4817 Clouds 14 1019 43 10000 4.1 190 10:40 16.04.2020
4818 Clouds 13 1018 54 10000 1.5 0 10:19 16.04.2020
4819 Clouds 12 1019 57 10000 1 0 09:59 16.04.2020
4820 Clouds 11 1019 57 10000 1 0 09:38 16.04.2020
4821 Clouds 11 1019 57 10000 1 0 09:38 16.04.2020
4822 Clouds 10 1019 61 10000 1 0 09:20 16.04.2020
4823 Clouds 8 1019 61 10000 1 0 08:45 16.04.2020
4824 Clouds 7 1019 70 10000 1.5 70 08:25 16.04.2020
4825 Clouds 6 1019 75 10000 1.5 80 07:58 16.04.2020
4826 Clouds 7 1019 75 10000 1 80 07:39 16.04.2020
4827 Clouds 6 1019 75 10000 1 80 07:20 16.04.2020
4828 Clouds 7 1019 75 10000 1 0 06:40 16.04.2020
4829 Clouds 5 1019 75 10000 2.6 80 06:22 16.04.2020
4830 Clouds 6 1019 65 10000 2.6 360 04:52 16.04.2020
4831 Clouds 7 1020 57 10000 3.1 20 03:25 16.04.2020
4832 Clouds 7 1020 61 10000 1 0 02:59 16.04.2020
4833 Clouds 8 1020 61 10000 1 0 02:36 16.04.2020
4834 Clouds 8 1020 57 10000 2.6 70 01:28 16.04.2020
4835 Clouds 9 1020 53 10000 1.5 60 00:53 16.04.2020
4836 Clouds 9 1021 53 10000 2.1 30 00:21 16.04.2020
4837 Clouds 9 1021 53 10000 1 0 23:54 15.04.2020
4838 Clouds 9 1021 53 10000 1 0 23:36 15.04.2020
4839 Clouds 10 1021 53 10000 2.1 30 23:18 15.04.2020
4840 Clouds 10 1021 53 10000 1.5 50 22:38 15.04.2020
4841 Clouds 10 1021 53 10000 2.1 80 22:20 15.04.2020
4842 Clouds 11 1021 46 10000 2.1 60 21:56 15.04.2020
4843 Clouds 12 1021 46 10000 2.1 60 21:37 15.04.2020
4844 Clear 12 1020 46 10000 2.6 10 21:19 15.04.2020
4845 Clear 13 1021 41 10000 2.6 290 20:54 15.04.2020
4846 Clear 13 1021 41 10000 2.6 290 20:54 15.04.2020
4847 Clear 14 1021 41 10000 2.6 290 20:36 15.04.2020
4848 Clear 15 1021 36 10000 2.6 260 20:18 15.04.2020
4849 Clear 17 1021 27 10000 2.6 80 19:41 15.04.2020
4850 Clear 17 1021 27 10000 2.6 80 19:20 15.04.2020
4851 Clear 17 1021 27 10000 1 0 18:42 15.04.2020
4852 Clear 17 1022 27 10000 2.1 0 18:23 15.04.2020
4853 Clear 17 1022 27 10000 2.6 50 17:58 15.04.2020
4854 Clear 17 1022 27 10000 2.6 50 17:39 15.04.2020
4855 Clear 17 1022 27 10000 1.5 0 17:20 15.04.2020
4856 Clear 17 1022 29 10000 2.1 20 16:57 15.04.2020
4857 Clear 17 1023 27 10000 2.1 0 16:38 15.04.2020
4858 Clear 17 1023 27 10000 2.1 0 16:19 15.04.2020
4859 Clear 17 1023 29 10000 2.1 0 15:57 15.04.2020
4860 Clear 16 1023 29 10000 2.1 0 15:38 15.04.2020
4861 Clouds 16 1023 29 10000 3.1 90 15:19 15.04.2020
4862 Clouds 15 1024 30 10000 3.1 60 14:57 15.04.2020
4863 Clouds 15 1024 30 10000 2.6 0 14:39 15.04.2020
4864 Clouds 15 1024 30 10000 3.1 60 14:39 15.04.2020
4865 Clouds 15 1024 30 10000 2.6 0 14:21 15.04.2020
4866 Clouds 14 1024 33 10000 2.6 50 13:57 15.04.2020
4867 Clouds 13 1025 35 10000 2.1 360 13:38 15.04.2020
4868 Clouds 13 1025 35 10000 2.1 360 13:19 15.04.2020
4869 Clouds 13 1025 37 10000 1.5 0 12:54 15.04.2020
4870 Clouds 12 1025 40 10000 1 0 12:36 15.04.2020
4871 Clouds 12 1025 40 10000 1 0 12:18 15.04.2020
4872 Clouds 11 1026 40 10000 1 0 11:42 15.04.2020
4873 Clouds 10 1026 46 10000 1 0 11:24 15.04.2020
4874 Clouds 9 1026 52 10000 1.5 80 10:58 15.04.2020
4875 Clouds 8 1026 56 10000 2.6 60 10:36 15.04.2020
4876 Clouds 8 1026 56 10000 2.6 60 10:18 15.04.2020
4877 Clouds 7 1026 60 10000 2.6 70 09:55 15.04.2020
4878 Clouds 5 1026 69 10000 3.1 70 09:36 15.04.2020
4879 Clouds 5 1026 69 10000 3.1 70 09:18 15.04.2020
4880 Clouds 3 1026 69 10000 3.6 80 08:41 15.04.2020
4881 Clouds 3 1026 80 10000 2.6 80 08:20 15.04.2020
4882 Clouds 2 1025 74 10000 3.6 80 07:54 15.04.2020
4883 Clouds 1 1025 80 10000 3.1 70 07:33 15.04.2020
4884 Clouds 1 1025 74 10000 3.1 80 06:37 15.04.2020
4885 Clear 1 1025 74 10000 2.6 60 05:57 15.04.2020
4886 Clear 1 1025 69 10000 2.6 10 05:21 15.04.2020
4887 Clear 1 1025 69 10000 1.5 50 04:45 15.04.2020
4888 Clear 1 1025 74 10000 3.6 60 03:51 15.04.2020
4889 Clouds 2 1025 69 10000 3.1 50 03:18 15.04.2020
4890 Clouds 2 1026 74 10000 3.1 60 02:39 15.04.2020
4891 Clouds 3 1026 64 10000 2.1 30 01:48 15.04.2020
4892 Clouds 3 1026 69 10000 3.1 10 01:22 15.04.2020
4893 Rain 3 1026 74 10000 3.6 10 00:37 15.04.2020
4894 Rain 3 1025 74 10000 1 0 00:19 15.04.2020
4895 Clear 3 1025 74 10000 2.1 210 23:55 14.04.2020
4896 Clear 4 1025 64 10000 2.1 300 23:36 14.04.2020
4897 Clear 4 1025 64 10000 2.1 300 23:18 14.04.2020
4898 Clear 4 1025 60 10000 0.5 0 22:56 14.04.2020
4899 Clear 4 1025 60 10000 0.5 0 22:37 14.04.2020
4900 Clear 5 1025 60 10000 1.12 70 22:19 14.04.2020
4901 Clear 6 1025 56 10000 1.5 130 21:55 14.04.2020
4902 Clear 6 1025 56 10000 1.5 130 21:37 14.04.2020
4903 Clouds 6 1025 48 10000 2.6 90 21:37 14.04.2020
4904 Clouds 7 1025 48 10000 2.6 90 21:18 14.04.2020
4905 Clouds 8 1025 39 10000 2.6 70 20:41 14.04.2020
4906 Clouds 9 1024 37 10000 2.6 60 20:23 14.04.2020
4907 Clouds 10 1024 34 10000 3.1 80 19:59 14.04.2020
4908 Clouds 10 1024 34 10000 3.1 80 19:40 14.04.2020
4909 Clouds 10 1024 37 10000 2.6 360 19:21 14.04.2020
4910 Clouds 10 1024 34 10000 2.1 0 18:57 14.04.2020
4911 Clouds 11 1024 34 10000 2.1 0 18:39 14.04.2020
4912 Clouds 11 1024 34 10000 1.5 360 18:20 14.04.2020
4913 Clouds 11 1024 37 10000 2.6 290 17:56 14.04.2020
4914 Clouds 11 1024 37 10000 2.6 290 17:37 14.04.2020
4915 Clouds 11 1024 37 10000 1.5 0 17:19 14.04.2020
4916 Clouds 10 1025 34 10000 4.6 60 16:54 14.04.2020
4917 Clouds 10 1025 34 10000 4.6 60 16:36 14.04.2020
4918 Clouds 10 1025 37 10000 2.1 0 16:18 14.04.2020
4919 Clouds 10 1025 37 10000 3.1 50 15:41 14.04.2020
4920 Clouds 10 1025 37 10000 4.6 20 15:23 14.04.2020
4921 Clouds 10 1025 37 10000 4.6 360 14:59 14.04.2020
4922 Clouds 9 1025 37 10000 4.6 360 14:40 14.04.2020
4923 Clouds 9 1025 39 10000 4.6 20 14:22 14.04.2020
4924 Clouds 9 1025 42 10000 4.1 20 13:57 14.04.2020
4925 Clouds 9 1025 42 10000 4.1 20 13:39 14.04.2020
4926 Clouds 9 1025 45 10000 5.1 360 13:20 14.04.2020
4927 Clouds 8 1025 42 10000 3.6 20 12:42 14.04.2020
4928 Clouds 7 1025 45 10000 5.1 10 12:21 14.04.2020
4929 Clouds 8 1025 48 10000 3.1 10 11:56 14.04.2020
4930 Clouds 7 1025 48 10000 3.1 10 11:37 14.04.2020
4931 Clouds 7 1025 45 10000 6.7 20 11:19 14.04.2020
4932 Rain 7 1025 52 10000 3.6 350 10:45 14.04.2020
4933 Rain 6 1025 52 10000 3.6 310 10:27 14.04.2020
4934 Rain 6 1025 56 10000 4.6 0 09:58 14.04.2020
4935 Rain 4 1025 56 10000 4.6 0 09:40 14.04.2020
4936 Rain 4 1025 56 10000 4.6 0 09:21 14.04.2020
4937 Clear 3 1026 71 0 2.51 345 08:42 14.04.2020
4938 Clear 3 1026 71 0 2.51 345 08:24 14.04.2020
4939 Clear 1 1024 69 10000 1.5 190 07:56 14.04.2020
4940 Clear 3 1026 71 0 2.51 345 07:32 14.04.2020
4941 Clear 0 1024 79 10000 2.1 250 06:53 14.04.2020
4942 Clear 3 1026 71 0 2.51 345 06:33 14.04.2020
4943 Clear 2 1025 74 0 2.48 356 04:48 14.04.2020
4944 Rain 3 1023 55 10000 5.1 360 03:00 14.04.2020
4945 Rain 3 1023 52 10000 6.2 350 02:18 14.04.2020
4946 Rain 3 1022 59 10000 3.1 330 01:25 14.04.2020
4947 Clear 4 1022 52 10000 3.1 340 00:42 14.04.2020
4948 Clear 4 1022 52 10000 3.6 360 00:19 14.04.2020
4949 Clear 4 1022 52 10000 3.6 360 23:55 13.04.2020
4950 Clear 5 1022 52 10000 3.6 360 23:36 13.04.2020
4951 Clear 5 1022 48 10000 2.6 360 23:18 13.04.2020
4952 Clear 5 1021 45 10000 4.6 20 22:41 13.04.2020
4953 Clear 6 1021 42 10000 5.1 10 22:22 13.04.2020
4954 Clear 6 1021 39 10000 4.1 20 21:57 13.04.2020
4955 Clear 7 1021 39 10000 4.1 20 21:39 13.04.2020
4956 Clouds 7 1020 39 10000 4.6 10 21:20 13.04.2020
4957 Clouds 8 1019 37 10000 5.7 10 20:56 13.04.2020
4958 Clouds 8 1019 37 10000 5.7 10 20:56 13.04.2020
4959 Rain 8 1019 37 10000 5.7 10 20:38 13.04.2020
4960 Rain 9 1019 34 10000 6.7 360 20:19 13.04.2020
4961 Rain 10 1019 34 10000 5.7 10 19:57 13.04.2020
4962 Rain 10 1019 34 10000 5.7 10 19:36 13.04.2020
4963 Rain 11 1018 34 10000 5.1 10 19:18 13.04.2020
4964 Rain 11 1018 34 10000 6.7 10 18:54 13.04.2020
4965 Rain 11 1018 34 10000 6.7 10 18:36 13.04.2020
4966 Rain 11 1018 37 10000 5.7 360 18:18 13.04.2020
4967 Rain 11 1018 46 10000 5.7 30 17:55 13.04.2020
4968 Rain 11 1018 46 10000 5.7 30 17:36 13.04.2020
4969 Rain 11 1018 53 10000 5.7 350 17:18 13.04.2020
4970 Rain 11 1019 61 10000 3.6 360 16:55 13.04.2020
4971 Rain 11 1019 61 10000 3.6 360 16:55 13.04.2020
4972 Rain 11 1019 61 10000 3.6 360 16:36 13.04.2020
4973 Rain 10 1019 66 10000 4.6 20 16:18 13.04.2020
4974 Rain 10 1019 70 10000 6.7 10 15:44 13.04.2020
4975 Rain 10 1019 70 10000 7.7 30 15:26 13.04.2020
4976 Rain 10 1018 76 10000 8.2 20 14:57 13.04.2020
4977 Rain 11 1018 76 10000 8.2 20 14:39 13.04.2020
4978 Rain 11 1018 81 9000 6.7 20 14:21 13.04.2020
4979 Rain 11 1017 71 10000 6.7 30 13:56 13.04.2020
4980 Rain 12 1017 71 10000 4.6 10 13:38 13.04.2020
4981 Rain 12 1017 71 10000 4.6 10 13:19 13.04.2020
4982 Rain 12 1017 76 10000 4.1 30 12:58 13.04.2020
4983 Rain 12 1017 87 10000 2.6 340 12:39 13.04.2020
4984 Rain 12 1017 87 10000 2.6 340 12:19 13.04.2020
4985 Rain 12 1017 87 10000 2.6 340 12:19 13.04.2020
4986 Rain 12 1017 87 10000 2.6 340 12:19 13.04.2020
4987 Rain 12 1016 76 10000 4.6 30 11:57 13.04.2020
4988 Rain 12 1016 76 10000 4.6 30 11:38 13.04.2020
4989 Rain 13 1016 76 10000 3.6 330 11:18 13.04.2020
4990 Rain 13 1015 66 10000 3.6 20 10:54 13.04.2020
4991 Rain 13 1015 66 10000 3.6 20 10:36 13.04.2020
4992 Rain 13 1015 66 10000 4.1 320 10:18 13.04.2020
4993 Clouds 13 1014 62 10000 4.6 290 09:43 13.04.2020
4994 Clouds 12 1014 71 10000 2.1 250 09:25 13.04.2020
4995 Clouds 11 1014 76 10000 1 0 08:45 13.04.2020
4996 Clouds 11 1014 87 10000 1.5 240 08:27 13.04.2020
4997 Clouds 10 1013 87 10000 0.5 140 07:57 13.04.2020
4998 Clouds 9 1013 87 10000 0.5 140 07:38 13.04.2020
4999 Clouds 9 1013 87 10000 0.5 0 07:18 13.04.2020
5000 Clouds 9 1012 87 10000 1 200 06:44 13.04.2020
5001 Clouds 9 1012 87 10000 1.5 180 05:52 13.04.2020
5002 Clouds 9 1012 81 10000 2.1 200 05:20 13.04.2020
5003 Clouds 9 1013 87 10000 1.5 200 04:50 13.04.2020
5004 Clouds 10 1012 81 10000 1.5 200 04:20 13.04.2020
5005 Clouds 9 1012 81 10000 2.1 230 03:43 13.04.2020
5006 Clouds 10 1012 81 10000 0.5 230 02:41 13.04.2020
5007 Clouds 11 1013 76 10000 1 0 01:48 13.04.2020
5008 Clouds 10 1013 76 10000 0.5 240 01:30 13.04.2020
5009 Clouds 11 1013 71 10000 1 220 00:51 13.04.2020
5010 Clouds 12 1013 66 10000 0.5 0 00:30 13.04.2020
5011 Clouds 12 1013 71 10000 1 230 23:58 12.04.2020
5012 Clouds 13 1013 71 10000 1 230 23:40 12.04.2020
5013 Clouds 13 1013 66 10000 1 0 23:21 12.04.2020
5014 Clouds 14 1013 62 10000 1 180 22:55 12.04.2020
5015 Clouds 14 1013 62 10000 1 180 22:36 12.04.2020
5016 Clouds 14 1013 54 10000 0.5 0 22:18 12.04.2020
5017 Clouds 16 1013 51 10000 1.5 230 21:39 12.04.2020
5018 Rain 17 1012 42 10000 2.1 230 21:20 12.04.2020
5019 Rain 18 1012 42 10000 1.5 310 20:55 12.04.2020
5020 Rain 19 1012 39 10000 2.6 170 20:37 12.04.2020
5021 Rain 19 1012 39 10000 2.6 170 20:19 12.04.2020
5022 Rain 21 1012 37 10000 3.6 170 19:41 12.04.2020
5023 Rain 21 1012 35 10000 3.6 180 19:20 12.04.2020
5024 Rain 22 1013 35 10000 4.1 170 18:59 12.04.2020
5025 Rain 22 1013 33 10000 4.6 210 18:40 12.04.2020
5026 Rain 22 1013 33 10000 4.6 210 18:20 12.04.2020
5027 Rain 22 1013 28 10000 4.1 220 17:56 12.04.2020
5028 Rain 22 1013 28 10000 4.1 220 17:38 12.04.2020
5029 Rain 23 1013 28 10000 5.1 210 17:18 12.04.2020
5030 Rain 23 1013 27 10000 4.1 270 16:56 12.04.2020
5031 Rain 23 1014 25 10000 5.7 260 16:36 12.04.2020
5032 Rain 23 1014 25 10000 5.7 260 16:18 12.04.2020
5033 Clouds 23 1014 27 10000 4.6 250 15:41 12.04.2020
5034 Clouds 23 1014 27 10000 4.6 250 15:21 12.04.2020
5035 Clouds 23 1015 27 10000 3.1 270 14:40 12.04.2020
5036 Clouds 23 1015 31 10000 3.6 200 14:22 12.04.2020
5037 Clouds 22 1016 35 10000 3.6 260 13:58 12.04.2020
5038 Clouds 22 1016 35 10000 3.6 260 13:40 12.04.2020
5039 Clouds 22 1016 35 10000 2.6 240 13:21 12.04.2020
5040 Clouds 21 1016 37 10000 3.1 200 12:47 12.04.2020
5041 Clouds 20 1017 37 10000 1.5 190 12:22 12.04.2020
5042 Clouds 19 1017 39 10000 2.6 210 11:59 12.04.2020
5043 Clouds 19 1017 39 10000 2.6 210 11:59 12.04.2020
5044 Clouds 18 1017 39 10000 2.6 210 11:39 12.04.2020
5045 Clouds 17 1017 42 10000 1.5 200 11:20 12.04.2020
5046 Clouds 16 1017 51 10000 1 0 10:57 12.04.2020
5047 Clouds 16 1017 51 10000 1 0 10:39 12.04.2020
5048 Clouds 16 1017 51 10000 1 0 10:39 12.04.2020
5049 Clouds 14 1018 54 10000 1.84 202 10:20 12.04.2020
5050 Clouds 14 1018 58 10000 0.5 0 09:58 12.04.2020
5051 Clouds 14 1018 58 10000 0.5 0 09:39 12.04.2020
5052 Clouds 12 1018 62 10000 0.5 0 09:20 12.04.2020
5053 Clouds 11 1018 62 10000 0.5 0 08:51 12.04.2020
5054 Clouds 11 1018 62 10000 0.5 0 08:32 12.04.2020
5055 Clouds 11 1018 62 10000 0.5 0 08:32 12.04.2020
5056 Clouds 10 1018 70 10000 0.5 0 07:55 12.04.2020
5057 Clouds 10 1018 70 10000 0.5 0 07:36 12.04.2020
5058 Clouds 10 1018 66 10000 1 80 07:18 12.04.2020
5059 Clouds 11 1019 53 10000 2.1 10 06:31 12.04.2020
5060 Clouds 11 1019 61 10000 1 80 05:49 12.04.2020
5061 Clouds 10 1019 65 10000 1.5 20 05:27 12.04.2020
5062 Clouds 10 1020 57 10000 2.1 70 03:32 12.04.2020
5063 Clear 11 1020 53 10000 2.1 60 02:54 12.04.2020
5064 Clear 10 1020 53 10000 2.1 60 02:33 12.04.2020
5065 Clear 11 1021 57 10000 1.5 40 01:34 12.04.2020
5066 Clear 11 1021 53 10000 1 0 00:57 12.04.2020
5067 Clear 12 1021 53 10000 0.5 0 00:38 12.04.2020
5068 Clear 12 1021 53 10000 0.5 0 00:19 12.04.2020
5069 Clear 12 1021 50 10000 1.5 60 23:45 11.04.2020
5070 Clear 12 1021 47 10000 2.1 40 23:24 11.04.2020
5071 Clear 13 1021 43 10000 0.5 0 22:41 11.04.2020
5072 Clear 14 1021 43 10000 1 0 22:22 11.04.2020
5073 Clear 15 1021 33 10000 2.6 40 21:57 11.04.2020
5074 Clear 15 1021 33 10000 2.6 40 21:37 11.04.2020
5075 Clear 16 1021 31 10000 2.6 70 21:19 11.04.2020
5076 Clear 16 1021 29 10000 3.1 70 20:58 11.04.2020
5077 Clear 17 1021 29 10000 3.1 70 20:39 11.04.2020
5078 Clear 18 1021 34 10000 3.6 60 20:20 11.04.2020
5079 Clear 18 1021 34 10000 3.6 60 20:20 11.04.2020
5080 Clear 19 1021 22 10000 2.6 60 19:58 11.04.2020
5081 Clear 21 1021 21 10000 1.5 0 19:39 11.04.2020
5082 Clear 20 1021 21 10000 1.5 0 19:19 11.04.2020
5083 Clear 21 1021 21 10000 1 0 18:57 11.04.2020
5084 Clear 22 1021 18 10000 2.1 170 18:39 11.04.2020
5085 Clear 22 1021 18 10000 2.1 170 18:20 11.04.2020
5086 Clear 22 1021 21 10000 1 0 17:59 11.04.2020
5087 Clear 22 1021 21 10000 1 0 17:40 11.04.2020
5088 Clear 22 1022 21 10000 3.1 70 17:21 11.04.2020
5089 Clear 22 1022 25 10000 2.1 0 16:58 11.04.2020
5090 Clear 22 1022 25 10000 2.1 0 16:40 11.04.2020
5091 Clear 22 1022 25 10000 2.6 0 16:20 11.04.2020
5092 Clear 21 1022 25 10000 2.6 0 16:20 11.04.2020
5093 Clear 21 1023 24 10000 1.5 0 15:39 11.04.2020
5094 Clouds 21 1023 26 10000 1.5 0 15:19 11.04.2020
5095 Clouds 21 1023 26 10000 1.5 0 15:19 11.04.2020
5096 Clouds 21 1023 28 10000 2.1 0 14:44 11.04.2020
5097 Clouds 20 1024 30 10000 2.1 0 14:25 11.04.2020
5098 Clouds 20 1024 32 10000 2.1 0 14:00 11.04.2020
5099 Clouds 19 1024 32 10000 2.1 0 13:41 11.04.2020
5100 Clouds 19 1024 34 10000 2.6 30 13:22 11.04.2020
5101 Clouds 19 1024 34 10000 2.6 30 13:22 11.04.2020
5102 Clouds 18 1025 36 10000 2.6 0 12:43 11.04.2020
5103 Clouds 18 1025 36 10000 2.6 0 12:43 11.04.2020
5104 Clouds 17 1025 36 10000 2.1 40 12:22 11.04.2020
5105 Clouds 16 1025 38 10000 2.6 40 11:59 11.04.2020
5106 Clouds 16 1025 38 10000 3.1 30 11:40 11.04.2020
5107 Clouds 15 1025 38 10000 3.1 30 11:20 11.04.2020
5108 Clouds 14 1025 44 10000 3.6 50 10:56 11.04.2020
5109 Clouds 14 1025 44 10000 3.6 50 10:37 11.04.2020
5110 Clouds 13 1025 44 10000 4.1 40 10:18 11.04.2020
5111 Clouds 12 1025 40 10000 3.6 40 09:55 11.04.2020
5112 Clouds 11 1025 40 10000 3.6 40 09:37 11.04.2020
5113 Clouds 10 1025 43 10000 5.1 40 09:18 11.04.2020
5114 Clouds 9 1025 43 10000 3.6 30 08:42 11.04.2020
5115 Clouds 9 1025 45 10000 3.1 30 08:23 11.04.2020
5116 Clouds 7 1025 45 10000 3.6 40 07:43 11.04.2020
5117 Clouds 7 1024 45 10000 4.1 40 07:24 11.04.2020
5118 Clouds 7 1024 45 10000 4.1 50 06:37 11.04.2020
5119 Clouds 7 1024 43 10000 4.1 40 05:58 11.04.2020
5120 Clouds 9 1024 43 10000 4.6 30 04:31 11.04.2020
5121 Clouds 10 1024 40 10000 5.1 20 03:30 11.04.2020
5122 Rain 12 1024 37 10000 5.7 20 01:41 11.04.2020
5123 Rain 12 1024 58 10000 5.1 20 01:18 11.04.2020
5124 Rain 13 1024 41 10000 5.7 20 00:42 11.04.2020
5125 Rain 14 1024 41 10000 5.7 20 00:18 11.04.2020
5126 Rain 14 1024 41 10000 6.2 20 23:54 10.04.2020
5127 Rain 14 1024 41 10000 6.2 20 23:36 10.04.2020
5128 Rain 14 1024 41 10000 5.7 20 23:18 10.04.2020
5129 Rain 15 1023 41 10000 6.2 20 22:42 10.04.2020
5130 Rain 15 1023 39 10000 5.1 20 22:20 10.04.2020
5131 Rain 17 1023 39 10000 5.7 30 21:42 10.04.2020
5132 Rain 17 1023 39 10000 6.7 20 21:22 10.04.2020
5133 Rain 18 1022 39 10000 8.2 20 20:59 10.04.2020
5134 Rain 18 1022 39 10000 8.2 20 20:41 10.04.2020
5135 Rain 19 1022 39 10000 4.1 60 20:23 10.04.2020
5136 Rain 20 1022 32 10000 4.1 60 19:57 10.04.2020
5137 Clear 20 1022 32 10000 4.1 60 19:39 10.04.2020
5138 Clear 21 1022 35 10000 3.6 60 19:20 10.04.2020
5139 Clear 21 1022 33 10000 3.1 40 18:57 10.04.2020
5140 Clear 21 1022 33 10000 3.1 40 18:38 10.04.2020
5141 Clear 22 1022 30 10000 3.1 50 18:20 10.04.2020
5142 Clear 22 1022 30 10000 3.6 50 17:58 10.04.2020
5143 Clear 22 1022 30 10000 3.6 50 17:39 10.04.2020
5144 Clear 22 1022 30 10000 4.6 30 17:20 10.04.2020
5145 Clear 22 1022 30 10000 3.1 40 16:56 10.04.2020
5146 Clear 22 1022 30 10000 3.1 40 16:37 10.04.2020
5147 Clear 22 1023 30 10000 3.1 80 16:19 10.04.2020
5148 Clear 22 1023 30 10000 3.1 0 15:55 10.04.2020
5149 Clear 22 1023 30 10000 3.1 0 15:36 10.04.2020
5150 Clear 22 1023 30 10000 2.6 0 15:18 10.04.2020
5151 Clear 22 1024 28 10000 3.6 60 14:56 10.04.2020
5152 Clear 22 1024 28 10000 3.6 60 14:37 10.04.2020
5153 Clear 22 1024 30 10000 4.6 20 14:18 10.04.2020
5154 Clear 22 1024 30 10000 4.6 20 14:18 10.04.2020
5155 Clear 21 1024 32 10000 2.6 40 13:43 10.04.2020
5156 Clear 21 1025 34 10000 4.1 60 13:21 10.04.2020
5157 Clear 20 1025 34 10000 4.1 50 12:43 10.04.2020
5158 Clear 19 1025 42 10000 3.1 50 12:23 10.04.2020
5159 Clear 19 1025 45 10000 3.1 40 11:56 10.04.2020
5160 Clear 18 1025 45 10000 3.1 40 11:38 10.04.2020
5161 Clear 18 1025 45 10000 3.1 30 11:20 10.04.2020
5162 Clear 17 1025 51 10000 3.1 40 10:46 10.04.2020
5163 Clear 16 1025 51 10000 3.6 30 10:23 10.04.2020
5164 Clear 14 1025 54 10000 4.1 50 09:57 10.04.2020
5165 Clear 14 1025 54 10000 4.1 50 09:38 10.04.2020
5166 Clouds 13 1025 54 10000 5.1 40 09:20 10.04.2020
5167 Clouds 12 1025 58 10000 4.6 30 08:43 10.04.2020
5168 Clouds 11 1025 58 10000 4.1 30 08:24 10.04.2020
5169 Clouds 10 1025 62 10000 4.6 30 07:46 10.04.2020
5170 Clouds 10 1025 62 10000 5.7 20 07:24 10.04.2020
5171 Clouds 10 1024 62 10000 5.1 20 06:52 10.04.2020
5172 Clear 10 1024 62 10000 4.1 30 06:29 10.04.2020
5173 Clear 11 1024 62 10000 4.1 30 05:43 10.04.2020
5174 Clear 11 1024 58 10000 6.7 20 05:18 10.04.2020
5175 Clear 12 1024 58 10000 5.7 20 03:55 10.04.2020
5176 Clear 13 1024 58 10000 5.7 20 03:32 10.04.2020
5177 Clear 12 1024 58 10000 5.7 20 03:32 10.04.2020
5178 Clouds 13 1024 54 10000 4.6 20 02:50 10.04.2020
5179 Clouds 13 1024 54 10000 4.6 20 02:31 10.04.2020
5180 Rain 14 1024 48 10000 4.1 30 01:30 10.04.2020
5181 Rain 15 1024 51 10000 4.6 20 00:55 10.04.2020
5182 Rain 15 1024 48 10000 6.2 20 00:37 10.04.2020
5183 Clouds 15 1024 48 10000 6.2 20 00:18 10.04.2020
5184 Clouds 16 1024 51 10000 5.7 20 23:41 09.04.2020
5185 Clouds 16 1024 48 10000 4.6 20 23:22 09.04.2020
5186 Clouds 17 1024 45 10000 5.1 20 22:56 09.04.2020
5187 Clouds 17 1024 45 10000 5.1 20 22:38 09.04.2020
5188 Clouds 17 1023 48 10000 5.7 30 22:19 09.04.2020
5189 Clouds 18 1023 45 10000 6.2 30 21:38 09.04.2020
5190 Rain 18 1023 45 10000 5.7 20 21:19 09.04.2020
5191 Rain 18 1023 45 10000 5.7 20 21:19 09.04.2020
5192 Rain 19 1022 43 10000 5.1 20 20:46 09.04.2020
5193 Rain 20 1022 40 10000 6.2 20 20:22 09.04.2020
5194 Clouds 20 1022 35 10000 5.7 20 19:59 09.04.2020
5195 Clouds 20 1022 35 10000 5.7 20 19:59 09.04.2020
5196 Clouds 21 1022 28 10000 3.1 10 19:38 09.04.2020
5197 Clouds 21 1022 28 10000 3.1 10 19:20 09.04.2020
5198 Clouds 23 1022 33 10000 1.5 50 18:42 09.04.2020
5199 Clouds 23 1022 31 10000 1.5 20 18:21 09.04.2020
5200 Clouds 23 1022 28 10000 3.1 310 17:55 09.04.2020
5201 Clouds 23 1022 28 10000 3.1 310 17:36 09.04.2020
5202 Clouds 23 1022 28 10000 2.1 330 17:18 09.04.2020
5203 Clouds 23 1022 29 10000 2.1 0 16:39 09.04.2020
5204 Clouds 24 1022 27 10000 2.6 60 16:19 09.04.2020
5205 Clouds 23 1022 27 10000 2.6 360 15:56 09.04.2020
5206 Clouds 23 1022 27 10000 2.6 360 15:56 09.04.2020
5207 Clouds 23 1022 27 10000 2.6 360 15:37 09.04.2020
5208 Clouds 23 1022 25 10000 1.5 170 15:19 09.04.2020
5209 Clouds 23 1023 27 10000 1.5 0 14:42 09.04.2020
5210 Clouds 23 1023 27 10000 0.5 0 14:21 09.04.2020
5211 Clouds 22 1023 31 10000 1 0 13:58 09.04.2020
5212 Clouds 22 1023 31 10000 1 0 13:40 09.04.2020
5213 Clouds 22 1023 30 10000 2.1 0 13:22 09.04.2020
5214 Clouds 21 1024 35 10000 1.5 80 12:55 09.04.2020
5215 Clouds 20 1024 37 10000 1 0 12:36 09.04.2020
5216 Clouds 20 1024 37 10000 1 0 12:18 09.04.2020
5217 Clouds 19 1024 42 10000 1 0 11:43 09.04.2020
5218 Clouds 17 1024 48 10000 1 0 11:20 09.04.2020
5219 Clouds 17 1024 48 10000 0.5 0 10:58 09.04.2020
5220 Clouds 16 1024 48 10000 0.5 0 10:40 09.04.2020
5221 Clouds 15 1024 47 10000 0.5 0 10:21 09.04.2020
5222 Clouds 14 1024 54 10000 0.5 0 09:57 09.04.2020
5223 Clouds 13 1024 54 10000 0.5 0 09:38 09.04.2020
5224 Clouds 12 1023 62 10000 0.5 0 09:20 09.04.2020
5225 Clouds 11 1023 71 10000 1 0 08:44 09.04.2020
5226 Clouds 11 1023 71 10000 1 0 08:44 09.04.2020
5227 Clouds 10 1023 75 10000 0.5 160 08:24 09.04.2020
5228 Clouds 10 1023 87 10000 0.5 0 07:59 09.04.2020
5229 Clouds 11 1023 70 10000 0.31 97 07:36 09.04.2020
5230 Clouds 11 1023 70 10000 0.31 97 07:18 09.04.2020
5231 Clouds 10 1022 75 10000 1 0 06:26 09.04.2020
5232 Clouds 10 1022 81 10000 1 0 05:47 09.04.2020
5233 Clouds 10 1022 75 10000 1 170 04:39 09.04.2020
5234 Clear 11 1022 70 10000 1.5 240 02:35 09.04.2020
5235 Clear 11 1022 66 10000 1 50 01:45 09.04.2020
5236 Clear 11 1022 66 10000 1 220 01:27 09.04.2020
5237 Clear 11 1022 61 10000 0.5 0 00:44 09.04.2020
5238 Clear 12 1022 57 10000 1 210 00:20 09.04.2020
5239 Clear 12 1022 57 10000 1.5 250 23:59 08.04.2020
5240 Clear 12 1022 57 10000 1.5 250 23:41 08.04.2020
5241 Clear 12 1022 57 10000 1.5 250 23:41 08.04.2020
5242 Clear 13 1022 50 10000 1 0 23:22 08.04.2020
5243 Clear 14 1022 47 10000 1.5 240 22:44 08.04.2020
5244 Clear 15 1022 47 10000 1.5 240 22:25 08.04.2020
5245 Clear 15 1022 41 10000 0.5 0 21:57 08.04.2020
5246 Clear 15 1022 41 10000 0.5 0 21:57 08.04.2020
5247 Clear 16 1022 38 10000 1 220 21:39 08.04.2020
5248 Clear 16 1022 38 10000 1 220 21:21 08.04.2020
5249 Clear 17 1022 34 10000 1.5 340 20:59 08.04.2020
5250 Clear 18 1022 30 10000 2.1 270 20:40 08.04.2020
5251 Clear 19 1022 30 10000 2.1 270 20:21 08.04.2020
5252 Clear 20 1022 24 10000 2.6 250 19:59 08.04.2020
5253 Clear 21 1022 25 10000 3.1 250 19:40 08.04.2020
5254 Clear 22 1022 23 10000 3.6 280 19:21 08.04.2020
5255 Clear 22 1022 23 10000 3.1 270 18:45 08.04.2020
5256 Clear 23 1022 23 10000 3.1 270 18:27 08.04.2020
5257 Clear 23 1022 23 10000 1.5 0 17:57 08.04.2020
5258 Clear 23 1022 23 10000 1.5 0 17:39 08.04.2020
5259 Clear 23 1023 25 10000 1.5 10 17:20 08.04.2020
5260 Clear 23 1023 25 10000 1.5 10 16:55 08.04.2020
5261 Clear 23 1023 23 10000 1 0 16:37 08.04.2020
5262 Clear 23 1023 23 10000 1 0 16:19 08.04.2020
5263 Clear 22 1024 25 10000 2.6 140 15:38 08.04.2020
5264 Clear 23 1024 27 10000 1.5 10 15:20 08.04.2020
5265 Clear 23 1024 27 10000 1.5 10 14:55 08.04.2020
5266 Clear 23 1024 27 10000 1.5 10 14:37 08.04.2020
5267 Clear 22 1024 30 10000 1 0 14:19 08.04.2020
5268 Clear 22 1025 28 10000 1.5 0 13:44 08.04.2020
5269 Clear 22 1025 32 10000 1.5 0 13:21 08.04.2020
5270 Clear 21 1025 30 10000 1.5 0 12:43 08.04.2020
5271 Clear 20 1026 32 10000 1.5 0 12:19 08.04.2020
5272 Clear 20 1026 32 10000 1.5 0 12:19 08.04.2020
5273 Clear 19 1026 37 10000 1.5 60 11:59 08.04.2020
5274 Clear 19 1026 37 10000 1.5 60 11:41 08.04.2020
5275 Clear 18 1026 42 10000 2.1 80 11:22 08.04.2020
5276 Clear 17 1026 51 10000 3.1 70 10:58 08.04.2020
5277 Clear 16 1026 55 10000 3.1 50 10:39 08.04.2020
5278 Clear 15 1026 55 10000 3.1 50 10:20 08.04.2020
5279 Clear 14 1026 58 10000 3.1 40 09:56 08.04.2020
5280 Clear 13 1027 62 10000 3.1 20 09:38 08.04.2020
5281 Clear 12 1027 62 10000 3.1 20 09:18 08.04.2020
5282 Clear 11 1026 76 10000 2.1 70 08:56 08.04.2020
5283 Clear 10 1026 76 10000 3.6 70 08:38 08.04.2020
5284 Clear 10 1026 76 10000 3.6 70 08:20 08.04.2020
5285 Clear 9 1026 76 10000 3.6 60 07:42 08.04.2020
5286 Clear 10 1026 71 10000 3.1 70 07:20 08.04.2020
5287 Clear 10 1026 71 10000 3.1 30 06:23 08.04.2020
5288 Clear 11 1027 66 10000 5.1 20 04:54 08.04.2020
5289 Clear 13 1027 62 10000 4.6 20 02:50 08.04.2020
5290 Rain 13 1028 62 10000 4.6 20 02:21 08.04.2020
5291 Rain 13 1028 59 10000 4.6 10 01:56 08.04.2020
5292 Clear 14 1028 67 10000 3.6 10 01:27 08.04.2020
5293 Clear 14 1028 67 10000 3.6 10 01:27 08.04.2020
5294 Clear 14 1028 67 10000 3.1 20 00:45 08.04.2020
5295 Clear 14 1028 62 10000 4.6 40 00:25 08.04.2020
5296 Rain 15 1027 55 10000 5.1 30 23:41 07.04.2020
5297 Rain 15 1028 59 10000 5.1 20 23:23 07.04.2020
5298 Rain 16 1028 59 10000 4.6 20 22:59 07.04.2020
5299 Rain 16 1028 59 10000 4.6 20 22:40 07.04.2020
5300 Clear 16 1028 55 10000 5.7 20 22:21 07.04.2020
5301 Clear 17 1028 48 10000 5.1 20 22:00 07.04.2020
5302 Clear 17 1028 48 10000 5.1 20 21:41 07.04.2020
5303 Rain 17 1027 42 10000 5.1 20 21:21 07.04.2020
5304 Rain 17 1027 42 10000 5.1 20 21:21 07.04.2020
5305 Rain 18 1027 42 10000 4.1 30 20:58 07.04.2020
5306 Rain 18 1027 40 10000 5.1 20 20:39 07.04.2020
5307 Rain 19 1027 40 10000 5.1 20 20:21 07.04.2020
5308 Rain 20 1027 40 10000 5.1 30 19:57 07.04.2020
5309 Rain 21 1027 35 10000 5.1 20 19:37 07.04.2020
5310 Rain 21 1027 35 10000 5.1 20 19:19 07.04.2020
5311 Rain 22 1027 37 10000 5.1 30 18:58 07.04.2020
5312 Rain 22 1027 33 10000 5.1 60 18:39 07.04.2020
5313 Rain 22 1027 33 10000 4.1 60 18:20 07.04.2020
5314 Rain 22 1027 33 10000 4.1 60 17:46 07.04.2020
5315 Rain 23 1028 35 10000 3.1 0 17:24 07.04.2020
5316 Rain 22 1028 33 10000 4.1 10 16:54 07.04.2020
5317 Rain 22 1028 33 10000 4.1 10 16:36 07.04.2020
5318 Rain 22 1028 35 10000 4.6 50 16:18 07.04.2020
5319 Rain 22 1028 35 10000 4.6 50 15:42 07.04.2020
5320 Clear 22 1029 37 10000 3.1 0 15:23 07.04.2020
5321 Clouds 22 1029 33 10000 3.1 70 14:42 07.04.2020
5322 Clouds 22 1029 35 10000 3.1 40 14:23 07.04.2020
5323 Clouds 21 1030 40 10000 3.1 0 13:57 07.04.2020
5324 Clouds 21 1030 40 10000 3.1 0 13:39 07.04.2020
5325 Clouds 21 1030 40 10000 4.1 20 13:19 07.04.2020
5326 Clouds 20 1030 42 10000 4.1 50 12:56 07.04.2020
5327 Clouds 18 1030 45 10000 3.6 40 12:37 07.04.2020
5328 Clouds 19 1030 45 10000 3.6 40 12:18 07.04.2020
5329 Clouds 18 1030 45 10000 4.6 40 11:44 07.04.2020
5330 Clouds 17 1030 52 10000 3.1 50 11:26 07.04.2020
5331 Clouds 16 1030 55 10000 3.6 20 10:59 07.04.2020
5332 Clouds 16 1030 55 10000 3.6 20 10:39 07.04.2020
5333 Clouds 15 1030 51 10000 3.6 30 10:19 07.04.2020
5334 Clouds 13 1030 62 10000 1.5 0 09:46 07.04.2020
5335 Clear 11 1030 62 10000 1 0 09:20 07.04.2020
5336 Clear 10 1030 61 10000 1 0 08:59 07.04.2020
5337 Clear 10 1030 61 10000 1 0 08:39 07.04.2020
5338 Clear 9 1029 75 10000 0.5 110 08:20 07.04.2020
5339 Clear 9 1029 80 10000 0.5 0 07:44 07.04.2020
5340 Clear 9 1029 80 10000 0.5 0 07:26 07.04.2020
5341 Clear 9 1028 62 10000 2.1 70 06:52 07.04.2020
5342 Clear 9 1028 62 10000 2.1 70 06:26 07.04.2020
5343 Clear 10 1028 66 10000 1.5 100 05:54 07.04.2020
5344 Clear 9 1028 75 10000 2.1 0 05:25 07.04.2020
5345 Clear 10 1027 70 10000 3.6 210 03:36 07.04.2020
5346 Clear 10 1027 70 10000 2.6 60 03:18 07.04.2020
5347 Clear 10 1027 57 10000 2.6 330 02:36 07.04.2020
5348 Clear 10 1026 65 10000 0.5 0 01:38 07.04.2020
5349 Clear 10 1025 61 10000 0.5 0 01:20 07.04.2020
5350 Clear 11 1025 57 10000 0.5 0 00:25 07.04.2020
5351 Clear 12 1025 57 10000 1 0 23:42 06.04.2020
5352 Clear 12 1025 53 10000 1.5 160 23:21 06.04.2020
5353 Clear 13 1024 50 10000 0.5 0 22:54 06.04.2020
5354 Clear 13 1024 50 10000 0.5 0 22:36 06.04.2020
5355 Clear 14 1024 50 10000 1 0 22:18 06.04.2020
5356 Clear 14 1024 47 10000 2.1 190 21:43 06.04.2020
5357 Clear 15 1023 44 10000 2.1 200 21:20 06.04.2020
5358 Clear 16 1023 34 10000 2.6 190 20:58 06.04.2020
5359 Clear 17 1023 34 10000 2.6 190 20:58 06.04.2020
5360 Clear 17 1023 34 10000 2.6 190 20:40 06.04.2020
5361 Clear 18 1022 32 10000 2.1 200 20:21 06.04.2020
5362 Clear 20 1022 28 10000 3.1 190 19:58 06.04.2020
5363 Clear 20 1022 26 10000 4.1 180 19:39 06.04.2020
5364 Clear 21 1022 26 10000 4.1 180 19:20 06.04.2020
5365 Clear 21 1022 28 10000 3.6 170 18:45 06.04.2020
5366 Clear 22 1022 28 10000 4.1 190 18:24 06.04.2020
5367 Clear 22 1022 28 10000 4.1 190 18:24 06.04.2020
5368 Clear 22 1022 28 10000 4.1 190 17:59 06.04.2020
5369 Clear 22 1022 28 10000 4.1 190 17:41 06.04.2020
5370 Clear 22 1022 28 10000 3.6 200 17:19 06.04.2020
5371 Clear 22 1022 28 10000 4.6 220 16:50 06.04.2020
5372 Clear 22 1022 28 10000 4.1 0 16:31 06.04.2020
5373 Clear 22 1022 30 10000 3.6 190 15:40 06.04.2020
5374 Clear 20 1022 37 10000 3.6 190 13:45 06.04.2020
5375 Clear 19 1022 37 10000 3.6 190 13:24 06.04.2020
5376 Clear 19 1022 39 10000 3.1 210 12:56 06.04.2020
5377 Clear 19 1022 39 10000 3.1 210 12:56 06.04.2020
5378 Clear 19 1022 39 10000 3.1 210 12:56 06.04.2020
5379 Clear 19 1022 39 10000 3.1 210 12:54 06.04.2020
5380 Clear 19 1022 39 10000 3.1 210 12:54 06.04.2020
5381 Clear 16 1023 38 10000 2.6 210 12:21 06.04.2020
5382 Clear 16 1023 41 10000 2.6 210 11:54 06.04.2020
5383 Clear 16 1023 41 10000 2.6 210 11:54 06.04.2020
5384 Clear 16 1023 38 10000 2.6 210 11:54 06.04.2020
5385 Clear 16 1023 41 10000 2.6 210 11:54 06.04.2020
5386 Clear 15 1023 41 10000 2.6 210 11:31 06.04.2020
5387 Clear 15 1023 41 10000 2.6 210 11:31 06.04.2020
5388 Clear 15 1023 41 10000 2.6 210 11:31 06.04.2020
5389 Clear 15 1023 41 10000 2.6 210 11:31 06.04.2020
5390 Clear 14 1023 43 10000 3.1 210 10:50 06.04.2020
5391 Clear 14 1023 43 10000 3.1 210 10:50 06.04.2020
5392 Clear 14 1023 43 10000 3.1 210 10:50 06.04.2020
5393 Clear 14 1023 43 10000 3.1 210 10:50 06.04.2020
5394 Clear 14 1023 43 10000 3.1 210 10:50 06.04.2020
5395 Clear 13 1022 46 10000 2.1 220 10:21 06.04.2020
5396 Clear 11 1022 53 10000 1 0 09:47 06.04.2020
5397 Clear 11 1022 53 10000 1 0 09:47 06.04.2020
5398 Clear 11 1022 53 10000 1 0 09:47 06.04.2020
5399 Clear 11 1022 53 10000 1 0 09:47 06.04.2020
5400 Clear 11 1022 53 10000 1 0 09:47 06.04.2020
5401 Clear 9 1022 53 10000 1 0 09:20 06.04.2020
5402 Clear 7 1022 61 10000 2.1 100 08:54 06.04.2020
5403 Clear 6 1022 61 10000 2.1 100 08:30 06.04.2020
5404 Clear 6 1021 60 10000 1.5 60 07:36 06.04.2020
5405 Clear 6 1021 60 10000 1.5 60 07:36 06.04.2020
5406 Clear 7 1020 56 10000 3.1 10 06:42 06.04.2020
5407 Clear 7 1020 56 10000 3.1 10 06:23 06.04.2020
5408 Clear 8 1020 56 10000 2.1 60 04:20 06.04.2020
5409 Clear 8 1020 66 10000 4.1 10 02:58 06.04.2020
5410 Clear 8 1020 66 10000 1 0 02:36 06.04.2020
5411 Clear 9 1020 49 10000 3.6 70 01:26 06.04.2020
5412 Clear 9 1020 49 10000 3.6 70 00:44 06.04.2020
5413 Clear 10 1020 64 10000 3.1 70 00:23 06.04.2020
5414 Clear 10 1020 57 10000 3.1 70 23:44 05.04.2020
5415 Clear 11 1020 57 10000 3.1 60 23:25 05.04.2020
5416 Clear 10 1020 57 10000 3.1 70 23:25 05.04.2020
5417 Clear 11 1020 57 10000 3.1 70 22:55 05.04.2020
5418 Clear 11 1020 57 10000 3.1 70 22:37 05.04.2020
5419 Clear 12 1020 57 10000 3.1 70 22:18 05.04.2020
5420 Clear 12 1020 57 10000 3.1 70 21:46 05.04.2020
5421 Clear 13 1020 57 10000 3.1 70 21:26 05.04.2020
5422 Clear 13 1020 47 10000 3.6 80 21:03 05.04.2020
5423 Clear 13 1020 47 10000 3.6 80 21:03 05.04.2020
5424 Clear 13 1020 47 10000 3.6 80 21:03 05.04.2020
5425 Clear 14 1020 47 10000 3.6 80 21:03 05.04.2020
5426 Clear 13 1020 47 10000 3.6 80 21:03 05.04.2020
5427 Clear 15 1020 29 10000 4.6 90 20:20 05.04.2020
5428 Clear 15 1020 29 10000 4.6 90 20:20 05.04.2020
5429 Clear 17 1020 27 10000 6.2 100 19:39 05.04.2020
5430 Clear 17 1020 25 10000 6.7 100 19:21 05.04.2020
5431 Clear 18 1020 25 10000 6.7 90 18:44 05.04.2020
5432 Clear 18 1020 25 10000 6.7 90 18:44 05.04.2020
5433 Clear 18 1020 25 10000 6.7 90 18:44 05.04.2020
5434 Clear 18 1020 25 10000 6.7 90 18:44 05.04.2020
5435 Clear 18 1020 25 10000 6.7 90 18:44 05.04.2020
5436 Clear 18 1020 25 10000 5.7 120 17:57 05.04.2020
5437 Clear 18 1020 34 10000 5.1 100 17:39 05.04.2020
5438 Clear 18 1021 34 10000 6.2 100 17:20 05.04.2020
5439 Clear 18 1021 34 10000 6.2 100 17:20 05.04.2020
5440 Clear 18 1021 34 10000 6.2 100 17:20 05.04.2020
5441 Clear 18 1021 34 10000 6.2 100 17:20 05.04.2020
5442 Clear 18 1021 34 10000 6.2 100 17:20 05.04.2020
5443 Clear 18 1021 34 10000 6.7 90 16:21 05.04.2020
5444 Clear 18 1022 31 10000 5.1 90 15:55 05.04.2020
5445 Clear 18 1022 31 10000 6.7 80 15:37 05.04.2020
5446 Clear 18 1022 31 10000 5.7 80 15:19 05.04.2020
5447 Clear 17 1023 31 10000 6.2 100 14:47 05.04.2020
5448 Clear 17 1023 31 10000 6.2 100 14:47 05.04.2020
5449 Clear 17 1023 31 10000 6.2 100 14:47 05.04.2020
5450 Clear 17 1023 31 10000 6.2 100 14:47 05.04.2020
5451 Clear 17 1023 31 10000 6.2 100 14:47 05.04.2020
5452 Clear 17 1023 33 10000 6.7 90 13:44 05.04.2020
5453 Rain 16 1024 35 10000 7.2 100 12:54 05.04.2020
5454 Rain 16 1024 35 10000 7.2 100 12:54 05.04.2020
5455 Rain 16 1024 36 10000 6.7 100 12:54 05.04.2020
5456 Rain 16 1024 36 10000 6.7 100 12:54 05.04.2020
5457 Rain 16 1024 36 10000 6.7 100 12:54 05.04.2020
5458 Rain 13 1025 41 10000 5.7 90 11:44 05.04.2020
5459 Rain 13 1025 47 10000 6.2 90 11:21 05.04.2020
5460 Clear 12 1025 46 10000 5.1 100 10:59 05.04.2020
5461 Clear 12 1025 46 10000 5.1 100 10:59 05.04.2020
5462 Clear 12 1025 46 10000 5.1 100 10:41 05.04.2020
5463 Clear 12 1025 50 10000 5.7 90 10:19 05.04.2020
5464 Clear 10 1025 53 10000 5.1 70 09:44 05.04.2020
5465 Clear 8 1025 61 10000 5.1 60 09:24 05.04.2020
5466 Clear 10 1025 53 10000 5.1 70 09:24 05.04.2020
5467 Clear 8 1025 61 10000 5.1 60 09:24 05.04.2020
5468 Clear 10 1025 53 10000 5.1 70 09:24 05.04.2020
5469 Clear 10 1025 53 10000 5.1 70 09:24 05.04.2020
5470 Clear 6 1025 67 10000 3.6 70 07:44 05.04.2020
5471 Clear 6 1025 67 10000 3.6 70 07:44 05.04.2020
5472 Rain 5 1024 66 10000 4.1 10 04:47 05.04.2020
5473 Clear 6 1024 66 10000 4.6 20 03:34 05.04.2020
5474 Clear 7 1024 62 10000 4.6 10 02:52 05.04.2020
5475 Clear 7 1025 65 10000 3.6 10 01:48 05.04.2020
5476 Clear 7 1025 65 10000 3.6 10 01:48 05.04.2020
5477 Clear 7 1025 65 10000 3.6 10 01:30 05.04.2020
5478 Clear 7 1025 65 10000 3.6 10 01:30 05.04.2020
5479 Clear 8 1024 64 10000 2.6 30 00:46 05.04.2020
5480 Clear 8 1024 61 10000 2.1 30 00:22 05.04.2020
5481 Clear 8 1024 61 10000 2.1 30 23:56 04.04.2020
5482 Clear 8 1024 59 10000 2.1 70 23:38 04.04.2020
5483 Clear 9 1024 59 10000 2.1 70 23:19 04.04.2020
5484 Clear 9 1024 59 10000 2.1 70 22:55 04.04.2020
5485 Clear 9 1024 59 10000 3.1 80 22:37 04.04.2020
5486 Clear 9 1024 59 10000 3.1 80 22:19 04.04.2020
5487 Clear 9 1024 59 10000 3.1 80 21:54 04.04.2020
5488 Clear 10 1024 50 10000 3.1 50 21:36 04.04.2020
5489 Clear 10 1024 46 10000 4.6 20 21:18 04.04.2020
5490 Clear 12 1023 46 10000 4.6 20 20:42 04.04.2020
5491 Clear 12 1023 46 10000 4.6 20 20:23 04.04.2020
5492 Clear 13 1023 46 10000 3.6 40 19:58 04.04.2020
5493 Clear 14 1023 46 10000 3.6 40 19:37 04.04.2020
5494 Clear 14 1023 46 10000 2.6 350 19:19 04.04.2020
5495 Clear 14 1023 46 10000 2.6 350 18:57 04.04.2020
5496 Clear 15 1023 33 10000 1.5 0 18:38 04.04.2020
5497 Clear 15 1023 33 10000 2.6 0 18:19 04.04.2020
5498 Clear 15 1023 33 10000 2.6 0 18:19 04.04.2020
5499 Clear 15 1023 34 10000 2.6 320 17:56 04.04.2020
5500 Clear 15 1023 34 10000 2.6 320 17:38 04.04.2020
5501 Clear 15 1023 34 10000 1.5 0 17:19 04.04.2020
5502 Clear 14 1023 34 10000 1.5 0 16:42 04.04.2020
5503 Clear 14 1024 35 10000 2.1 0 16:23 04.04.2020
5504 Clear 14 1024 35 10000 2.1 0 15:58 04.04.2020
5505 Clear 14 1024 35 10000 1.5 0 15:38 04.04.2020
5506 Clear 14 1024 37 10000 3.1 0 15:19 04.04.2020
5507 Clear 14 1024 37 10000 3.1 0 15:19 04.04.2020
5508 Clear 13 1024 37 10000 2.6 40 14:46 04.04.2020
5509 Clouds 13 1024 35 10000 2.1 110 14:25 04.04.2020
5510 Clouds 13 1024 35 10000 2.1 110 14:00 04.04.2020
5511 Clouds 12 1024 35 10000 1.5 130 13:41 04.04.2020
5512 Clouds 12 1024 35 10000 1.5 130 13:41 04.04.2020
5513 Clouds 12 1025 43 10000 2.1 340 13:21 04.04.2020
5514 Clouds 12 1025 43 10000 2.1 340 12:58 04.04.2020
5515 Clouds 11 1025 35 10000 2.1 0 12:39 04.04.2020
5516 Clouds 11 1025 53 10000 1.5 0 12:20 04.04.2020
5517 Clouds 10 1025 57 10000 2.1 70 11:42 04.04.2020
5518 Clouds 10 1025 57 10000 2.1 70 11:23 04.04.2020
5519 Clouds 9 1025 61 10000 1.5 0 10:59 04.04.2020
5520 Clouds 8 1025 61 10000 2.1 20 10:41 04.04.2020
5521 Clouds 8 1025 61 10000 2.1 20 10:23 04.04.2020
5522 Clouds 7 1025 47 10000 2.6 70 09:57 04.04.2020
5523 Clouds 6 1024 47 10000 2.1 90 09:39 04.04.2020
5524 Clear 5 1024 70 10000 1 0 09:20 04.04.2020
5525 Clear 3 1024 80 10000 0.5 0 08:44 04.04.2020
5526 Clear 3 1024 80 10000 0.5 0 08:25 04.04.2020
5527 Clear 1 1024 86 10000 0.5 0 07:59 04.04.2020
5528 Clear 1 1023 86 10000 1 190 07:40 04.04.2020
5529 Clear 1 1023 86 10000 0.86 41 07:21 04.04.2020
5530 Clear 2 1023 86 10000 0.5 0 06:40 04.04.2020
5531 Clear 1 1022 86 10000 1 0 05:52 04.04.2020
5532 Clear 1 1022 86 10000 1 0 05:52 04.04.2020
5533 Clear 1 1022 86 10000 1 0 05:33 04.04.2020
5534 Clear 2 1022 80 10000 1 0 04:40 04.04.2020
5535 Clear 2 1021 80 10000 2.1 210 04:20 04.04.2020
5536 Clear 2 1021 80 10000 2.1 240 03:45 04.04.2020
5537 Clouds 3 1021 80 10000 1.5 230 02:49 04.04.2020
5538 Clouds 4 1021 80 10000 1.5 230 02:30 04.04.2020
5539 Clouds 4 1021 69 10000 1.5 220 01:48 04.04.2020
5540 Clouds 4 1021 67 10000 1.5 210 01:21 04.04.2020
5541 Clouds 5 1021 67 10000 2.1 230 00:45 04.04.2020
5542 Clouds 6 1020 67 10000 1 0 00:26 04.04.2020
5543 Clouds 8 1020 64 10000 1.5 310 23:39 03.04.2020
5544 Clouds 8 1020 64 10000 1.5 310 23:20 03.04.2020
5545 Clouds 9 1020 57 10000 2.6 0 22:56 03.04.2020
5546 Clouds 9 1020 64 10000 3.6 330 22:37 03.04.2020
5547 Clouds 9 1019 64 10000 4.1 280 22:18 03.04.2020
5548 Clouds 9 1019 64 10000 3.6 290 21:43 03.04.2020
5549 Clouds 10 1019 64 10000 3.6 290 21:22 03.04.2020
5550 Clouds 10 1019 52 10000 3.6 270 20:56 03.04.2020
5551 Clouds 10 1018 52 10000 3.6 270 20:37 03.04.2020
5552 Clouds 10 1018 52 10000 3.1 260 20:19 03.04.2020
5553 Clouds 11 1018 52 10000 3.1 260 19:56 03.04.2020
5554 Clouds 11 1017 50 10000 3.1 260 19:38 03.04.2020
5555 Clouds 11 1017 50 10000 4.6 260 19:19 03.04.2020
5556 Clouds 11 1017 46 10000 4.6 250 18:58 03.04.2020
5557 Clouds 12 1017 46 10000 4.6 250 18:40 03.04.2020
5558 Clouds 12 1017 46 10000 5.1 250 18:22 03.04.2020
5559 Clouds 12 1017 46 10000 4.6 270 17:54 03.04.2020
5560 Clouds 12 1017 46 10000 4.6 270 17:36 03.04.2020
5561 Clouds 12 1017 41 10000 6.2 250 17:18 03.04.2020
5562 Clouds 12 1016 46 10000 6.2 260 16:42 03.04.2020
5563 Clouds 12 1016 41 10000 6.2 260 16:21 03.04.2020
5564 Clouds 12 1016 41 10000 6.7 260 15:58 03.04.2020
5565 Clouds 12 1016 41 10000 6.7 260 15:39 03.04.2020
5566 Clouds 12 1016 41 10000 6.7 260 15:20 03.04.2020
5567 Clouds 12 1016 37 10000 6.7 280 14:55 03.04.2020
5568 Clouds 12 1016 57 10000 4.6 190 14:37 03.04.2020
5569 Clouds 11 1016 57 10000 4.6 190 14:19 03.04.2020
5570 Clouds 12 1016 57 10000 4.6 190 13:42 03.04.2020
5571 Clouds 11 1016 57 10000 3.1 190 13:24 03.04.2020
5572 Clouds 12 1016 57 10000 4.1 210 12:55 03.04.2020
5573 Clouds 11 1016 57 10000 4.1 210 12:37 03.04.2020
5574 Clouds 9 1016 61 10000 4.6 200 12:18 03.04.2020
5575 Clouds 9 1016 57 10000 4.1 170 11:41 03.04.2020
5576 Clouds 9 1016 57 10000 4.1 170 11:23 03.04.2020
5577 Clouds 8 1016 65 10000 4.6 200 10:59 03.04.2020
5578 Clouds 7 1016 65 10000 4.1 210 10:40 03.04.2020
5579 Clouds 7 1015 70 10000 3.6 210 10:21 03.04.2020
5580 Clouds 6 1015 70 10000 3.6 210 09:59 03.04.2020
5581 Clouds 5 1015 68 10000 3.1 200 09:40 03.04.2020
5582 Clouds 5 1015 73 10000 4.1 210 09:22 03.04.2020
5583 Clouds 5 1015 73 10000 4.1 210 09:22 03.04.2020
5584 Clouds 5 1014 74 10000 2.6 200 08:57 03.04.2020
5585 Clouds 5 1014 74 10000 2.6 200 08:39 03.04.2020
5586 Clouds 4 1014 74 10000 3.1 200 08:20 03.04.2020
5587 Clouds 4 1014 69 10000 4.1 210 07:50 03.04.2020
5588 Clouds 4 1014 69 10000 4.1 210 07:31 03.04.2020
5589 Clouds 4 1013 69 10000 2.6 190 06:49 03.04.2020
5590 Clouds 3 1013 69 10000 2.1 190 06:24 03.04.2020
5591 Clear 3 1013 74 10000 3.6 190 05:40 03.04.2020
5592 Clear 2 1012 80 10000 3.1 210 03:45 03.04.2020
5593 Clouds 3 1012 74 10000 2.1 200 02:56 03.04.2020
5594 Clouds 3 1012 74 10000 2.6 220 02:27 03.04.2020
5595 Clouds 4 1013 69 10000 2.6 210 01:23 03.04.2020
5596 Clouds 5 1013 65 10000 2.1 220 00:37 03.04.2020
5597 Clouds 5 1012 60 10000 2.1 290 00:19 03.04.2020
5598 Clouds 6 1012 52 10000 2.6 320 23:42 02.04.2020
5599 Clouds 7 1012 52 10000 2.6 320 23:23 02.04.2020
5600 Clouds 7 1012 52 10000 3.6 310 22:58 02.04.2020
5601 Clouds 7 1012 52 10000 3.1 310 22:39 02.04.2020
5602 Clouds 8 1011 52 10000 2.6 300 22:20 02.04.2020
5603 Clouds 8 1011 61 10000 3.1 310 21:54 02.04.2020
5604 Clouds 8 1011 61 10000 3.1 310 21:36 02.04.2020
5605 Clouds 9 1011 46 10000 4.6 330 21:18 02.04.2020
5606 Clouds 9 1010 43 10000 5.7 330 20:42 02.04.2020
5607 Clouds 10 1010 37 10000 5.1 330 20:22 02.04.2020
5608 Clouds 11 1010 37 10000 5.1 330 19:55 02.04.2020
5609 Clouds 12 1010 32 10000 5.1 260 19:37 02.04.2020
5610 Clouds 13 1010 28 10000 5.1 240 19:18 02.04.2020
5611 Clouds 13 1009 30 10000 5.7 230 18:41 02.04.2020
5612 Clear 14 1010 30 10000 5.1 240 18:21 02.04.2020
5613 Clear 14 1010 30 10000 5.1 240 18:21 02.04.2020
5614 Clear 14 1010 30 10000 5.1 240 17:57 02.04.2020
5615 Clear 14 1010 30 10000 5.1 230 17:39 02.04.2020
5616 Clear 14 1010 30 10000 4.6 230 17:20 02.04.2020
5617 Clear 13 1010 32 10000 3.6 260 16:57 02.04.2020
5618 Clear 13 1010 32 10000 3.6 260 16:39 02.04.2020
5619 Clear 13 1011 30 10000 3.6 0 16:21 02.04.2020
5620 Clear 13 1011 30 10000 3.6 0 15:56 02.04.2020
5621 Clear 13 1011 32 10000 3.6 250 15:38 02.04.2020
5622 Clear 13 1011 32 10000 3.6 260 15:18 02.04.2020
5623 Clear 13 1012 32 10000 3.6 260 14:55 02.04.2020
5624 Clear 13 1012 32 10000 3.6 260 14:37 02.04.2020
5625 Clear 12 1012 30 10000 3.6 270 14:18 02.04.2020
5626 Clear 12 1013 32 10000 2.6 0 13:40 02.04.2020
5627 Clear 11 1013 34 10000 1 0 13:21 02.04.2020
5628 Clear 11 1013 34 10000 1 0 12:59 02.04.2020
5629 Clouds 10 1014 43 10000 1.5 0 12:41 02.04.2020
5630 Clouds 10 1014 43 10000 1 0 12:19 02.04.2020
5631 Clouds 9 1014 43 10000 1 0 11:57 02.04.2020
5632 Clouds 9 1014 45 10000 0.5 0 11:38 02.04.2020
5633 Clear 8 1014 48 10000 1.5 0 11:19 02.04.2020
5634 Clear 7 1014 48 10000 1.5 0 10:56 02.04.2020
5635 Clear 7 1014 52 10000 1 0 10:37 02.04.2020
5636 Clear 6 1014 60 10000 0.5 0 10:19 02.04.2020
5637 Clear 6 1014 60 10000 0.5 0 10:19 02.04.2020
5638 Clear 5 1015 60 10000 0.5 0 09:58 02.04.2020
5639 Clear 4 1015 60 10000 0.5 0 09:39 02.04.2020
5640 Clear 3 1015 64 10000 1.5 80 09:19 02.04.2020
5641 Clear 1 1015 74 10000 1 180 08:47 02.04.2020
5642 Clear 1 1015 74 10000 1 180 08:27 02.04.2020
5643 Clear -1 1014 86 10000 0.5 0 07:45 02.04.2020
5644 Clear -1 1014 79 10000 0.57 45 07:21 02.04.2020
5645 Clear -1 1014 79 10000 0.57 45 06:59 02.04.2020
5646 Clear 0 1015 79 10000 0.5 0 06:23 02.04.2020
5647 Clear -1 1015 79 10000 0.5 0 05:45 02.04.2020
5648 Clear 0 1015 86 10000 0.5 0 04:47 02.04.2020
5649 Clear 1 1016 68 10000 1 20 02:18 02.04.2020
5650 Clear 1 1016 59 10000 1 70 00:54 02.04.2020
5651 Clear 2 1016 59 10000 1 70 00:36 02.04.2020
5652 Clear 2 1016 59 10000 1 160 00:18 02.04.2020
5653 Clear 2 1016 59 10000 1 0 23:38 01.04.2020
5654 Clear 2 1016 55 10000 1 0 23:18 01.04.2020
5655 Clear 3 1016 47 10000 1.5 330 22:41 01.04.2020
5656 Clear 4 1016 47 10000 1.5 330 22:22 01.04.2020
5657 Clear 4 1016 47 10000 1.5 270 21:58 01.04.2020
5658 Clear 5 1017 44 10000 1 230 21:39 01.04.2020
5659 Clear 5 1017 38 10000 1 0 21:19 01.04.2020
5660 Clear 6 1017 38 10000 1 0 20:56 01.04.2020
5661 Clear 7 1017 39 10000 2.6 80 20:38 01.04.2020
5662 Clear 8 1017 31 10000 2.6 80 20:19 01.04.2020
5663 Clear 9 1017 31 10000 2.6 80 19:57 01.04.2020
5664 Clear 9 1017 31 10000 3.6 60 19:38 01.04.2020
5665 Clear 10 1017 29 10000 2.6 70 19:19 01.04.2020
5666 Clear 10 1017 27 10000 2.6 70 18:42 01.04.2020
5667 Clear 11 1017 27 10000 2.6 40 18:23 01.04.2020
5668 Clear 11 1017 27 10000 2.6 40 17:57 01.04.2020
5669 Clear 11 1017 25 10000 2.1 60 17:38 01.04.2020
5670 Clear 11 1018 27 10000 1.5 0 17:19 01.04.2020
5671 Clear 11 1018 27 10000 1.5 0 16:58 01.04.2020
5672 Clear 11 1018 27 10000 2.1 0 16:39 01.04.2020
5673 Clear 11 1018 27 10000 2.1 0 16:39 01.04.2020
5674 Clear 11 1019 29 10000 1.5 0 16:20 01.04.2020
5675 Clear 10 1019 29 10000 1.5 0 15:56 01.04.2020
5676 Clear 10 1019 29 10000 1.5 50 15:37 01.04.2020
5677 Clouds 10 1019 31 10000 1 0 15:18 01.04.2020
5678 Clouds 9 1020 31 10000 1 0 14:40 01.04.2020
5679 Clouds 9 1020 34 10000 1 0 14:22 01.04.2020
5680 Clouds 9 1020 34 10000 1 0 13:59 01.04.2020
5681 Clouds 9 1021 33 10000 2.6 0 13:40 01.04.2020
5682 Clouds 8 1022 33 10000 1.5 0 13:20 01.04.2020
5683 Clouds 8 1022 33 10000 1.5 0 13:20 01.04.2020
5684 Clouds 8 1022 33 10000 1.5 0 12:59 01.04.2020
5685 Clouds 8 1022 35 10000 2.1 0 12:41 01.04.2020
5686 Clouds 7 1023 33 10000 1.5 0 12:22 01.04.2020
5687 Clouds 7 1023 33 10000 1.5 0 11:59 01.04.2020
5688 Clouds 7 1023 35 10000 2.6 50 11:39 01.04.2020
5689 Clouds 6 1023 41 10000 2.1 50 11:20 01.04.2020
5690 Clouds 5 1023 41 10000 2.1 50 10:56 01.04.2020
5691 Clouds 4 1023 44 10000 2.6 60 10:37 01.04.2020
5692 Clouds 4 1024 44 10000 3.1 60 10:18 01.04.2020
5693 Clouds 3 1023 51 10000 3.1 70 09:40 01.04.2020
5694 Clear 1 1024 51 10000 3.1 80 09:21 01.04.2020
5695 Clear 0 1024 59 10000 2.1 90 08:59 01.04.2020
5696 Clear 0 1024 59 10000 2.1 90 08:40 01.04.2020
5697 Clear -1 1024 78 10000 2.6 20 08:18 01.04.2020
5698 Clear -2 1024 58 10000 1.5 60 07:42 01.04.2020
5699 Clear -2 1024 78 10000 3.6 10 07:19 01.04.2020
5700 Clear -2 1024 63 10000 3.6 10 06:47 01.04.2020
5701 Clear -2 1024 80 10000 3.1 360 06:21 01.04.2020
5702 Clear -2 1024 63 10000 3.6 10 05:53 01.04.2020
5703 Clear -1 1025 80 10000 3.1 20 04:30 01.04.2020
5704 Clear -1 1025 50 10000 3.1 50 03:27 01.04.2020
5705 Clear 0 1025 76 10000 3.1 60 02:49 01.04.2020
5706 Clear 0 1026 47 10000 3.6 50 01:54 01.04.2020
5707 Clear 0 1026 47 10000 3.6 50 01:29 01.04.2020
5708 Clear 0 1026 55 10000 2.6 50 00:58 01.04.2020
5709 Clear 1 1026 55 10000 3.6 60 00:40 01.04.2020
5710 Clear 1 1026 55 10000 3.6 60 00:18 01.04.2020
5711 Clear 2 1026 47 10000 3.1 70 23:41 31.03.2020
5712 Clear 2 1026 47 10000 3.1 70 23:41 31.03.2020
5713 Clear 2 1027 51 10000 3.6 60 23:23 31.03.2020
5714 Clear 2 1027 51 10000 3.6 60 23:23 31.03.2020
5715 Clear 2 1027 47 10000 4.1 70 22:57 31.03.2020
5716 Clear 3 1027 47 10000 4.1 70 22:36 31.03.2020
5717 Clear 3 1027 48 10000 4.6 70 22:18 31.03.2020
5718 Clear 4 1027 41 10000 5.1 60 21:55 31.03.2020
5719 Clear 4 1027 41 10000 5.1 60 21:37 31.03.2020
5720 Clouds 4 1027 38 10000 5.1 40 21:19 31.03.2020
5721 Clouds 5 1027 38 10000 5.1 40 20:54 31.03.2020
5722 Clouds 5 1027 36 10000 5.1 10 20:36 31.03.2020
5723 Clouds 5 1027 36 10000 5.1 10 20:36 31.03.2020
5724 Clouds 6 1027 36 10000 5.1 10 20:18 31.03.2020
5725 Clouds 7 1027 36 10000 5.7 20 19:41 31.03.2020
5726 Clouds 7 1026 33 10000 5.7 40 19:22 31.03.2020
5727 Clouds 8 1026 33 10000 5.7 20 18:56 31.03.2020
5728 Rain 8 1026 33 10000 5.7 20 18:37 31.03.2020
5729 Rain 9 1026 31 10000 5.1 20 18:18 31.03.2020
5730 Rain 9 1026 31 10000 6.7 40 17:54 31.03.2020
5731 Rain 9 1026 31 10000 6.7 40 17:36 31.03.2020
5732 Clouds 9 1027 34 10000 5.1 40 17:18 31.03.2020
5733 -273 0 0 0 0 0 16:39 31.03.2020
5734 Clouds 9 1027 34 10000 5.7 20 16:19 31.03.2020
5735 Rain 9 1027 31 10000 4.6 30 15:57 31.03.2020
5736 Rain 9 1027 31 10000 4.6 30 15:39 31.03.2020
5737 Rain 9 1027 31 10000 6.2 30 15:20 31.03.2020
5738 Rain 8 1027 31 10000 6.2 30 14:56 31.03.2020
5739 Rain 8 1028 36 10000 5.1 40 14:38 31.03.2020
5740 Clouds 8 1028 36 10000 5.1 50 14:20 31.03.2020
5741 Rain 8 1028 39 10000 6.2 50 13:42 31.03.2020
5742 Rain 7 1028 39 10000 5.1 50 13:19 31.03.2020
5743 Rain 7 1028 42 10000 5.7 30 12:56 31.03.2020
5744 Rain 7 1028 42 10000 5.7 30 12:38 31.03.2020
5745 Rain 6 1028 45 10000 6.7 10 12:19 31.03.2020
5746 Rain 6 1029 52 10000 6.7 50 11:39 31.03.2020
5747 Rain 6 1028 52 10000 7.2 40 11:20 31.03.2020
5748 Rain 5 1028 52 10000 7.2 40 10:58 31.03.2020
5749 Rain 5 1029 56 10000 6.7 40 10:40 31.03.2020
5750 Rain 5 1028 60 10000 7.2 50 10:21 31.03.2020
5751 Rain 5 1028 60 10000 7.2 50 09:57 31.03.2020
5752 Rain 4 1028 65 10000 5.7 50 09:39 31.03.2020
5753 Rain 3 1028 64 10000 5.7 40 09:21 31.03.2020
5754 Clouds 3 1028 64 10000 7.2 40 08:57 31.03.2020
5755 Clouds 3 1028 64 10000 7.2 40 08:38 31.03.2020
5756 Clouds 3 1027 69 10000 7.2 40 08:19 31.03.2020
5757 Rain 3 1027 69 10000 7.2 40 07:56 31.03.2020
5758 Rain 3 1027 69 10000 6.7 40 07:37 31.03.2020
5759 Rain 3 1027 83 10000 4.1 20 07:18 31.03.2020
5760 Clouds 3 1026 69 10000 4.1 20 06:43 31.03.2020
5761 Clouds 3 1026 65 10000 5.1 20 05:59 31.03.2020
5762 Clouds 3 1026 65 10000 3.1 10 05:39 31.03.2020
5763 Clouds 4 1026 60 10000 4.1 30 03:28 31.03.2020
5764 Clouds 4 1026 56 10000 1.5 0 01:54 31.03.2020
5765 Clouds 4 1026 56 10000 2.1 330 01:34 31.03.2020
5766 Clouds 4 1026 52 10000 1.5 20 00:47 31.03.2020
5767 Clouds 4 1026 52 10000 1.5 20 00:25 31.03.2020
5768 Clouds 4 1026 52 10000 3.6 340 23:42 30.03.2020
5769 Clouds 4 1026 52 10000 3.6 340 23:20 30.03.2020
5770 Clouds 4 1025 52 10000 4.1 340 22:59 30.03.2020
5771 Clouds 4 1025 52 10000 3.6 350 22:39 30.03.2020
5772 Clouds 4 1025 48 10000 3.1 340 22:21 30.03.2020
5773 Clouds 4 1025 48 10000 3.1 340 21:58 30.03.2020
5774 -273 0 0 0 0 0 21:39 30.03.2020
5775 Clouds 5 1025 48 10000 4.1 320 21:21 30.03.2020
5776 Clouds 5 1025 44 10000 1.5 340 20:59 30.03.2020
5777 Clouds 6 1025 41 10000 1 0 20:39 30.03.2020
5778 Clouds 6 1025 41 10000 1 0 20:21 30.03.2020
5779 Clouds 7 1025 35 10000 1.5 10 19:58 30.03.2020
5780 Clouds 7 1025 28 10000 1.5 60 19:39 30.03.2020
5781 Clouds 8 1025 28 10000 2.1 20 19:21 30.03.2020
5782 Rain 8 1025 29 10000 2.6 50 18:56 30.03.2020
5783 Rain 9 1025 29 10000 2.6 50 18:37 30.03.2020
5784 Clear 9 1025 29 10000 3.1 80 18:19 30.03.2020
5785 Clear 9 1025 26 10000 3.6 40 17:55 30.03.2020
5786 Clear 9 1025 26 10000 3.6 40 17:36 30.03.2020
5787 Clear 9 1025 26 10000 3.6 30 17:18 30.03.2020
5788 Clear 8 1026 26 10000 3.6 40 16:41 30.03.2020
5789 Clear 8 1026 28 10000 4.1 30 16:22 30.03.2020
5790 Clear 8 1026 28 10000 4.1 30 15:57 30.03.2020
5791 Clear 7 1027 28 10000 4.6 20 15:39 30.03.2020
5792 Clear 7 1027 28 10000 4.6 20 15:21 30.03.2020
5793 Clear 7 1027 28 10000 6.2 40 14:59 30.03.2020
5794 Clear 7 1027 24 10000 5.7 50 14:38 30.03.2020
5795 Clear 6 1028 28 10000 5.1 10 14:19 30.03.2020
5796 Clear 5 1028 27 10000 5.1 30 13:58 30.03.2020
5797 Clear 6 1028 28 10000 5.1 10 13:58 30.03.2020
5798 Clear 6 1028 27 10000 5.1 30 13:39 30.03.2020
5799 Clear 5 1028 27 10000 4.1 10 13:20 30.03.2020
5800 Rain 4 1029 32 10000 4.6 20 12:45 30.03.2020
5801 Rain 4 1029 35 10000 4.6 30 12:22 30.03.2020
5802 Rain 4 1029 35 10000 4.6 30 11:59 30.03.2020
5803 Rain 3 1029 37 10000 5.1 60 11:41 30.03.2020
5804 Rain 3 1030 34 10000 6.2 50 11:22 30.03.2020
5805 Rain 3 1030 34 10000 6.2 50 10:57 30.03.2020
5806 Rain 2 1030 37 10000 6.7 60 10:38 30.03.2020
5807 Clear 2 1030 37 10000 6.7 60 10:20 30.03.2020
5808 Snow 1 1030 40 10000 4.6 40 09:54 30.03.2020
5809 Snow 1 1030 43 10000 5.1 20 09:36 30.03.2020
5810 Clear 0 1030 47 0 4.6 30 09:18 30.03.2020
5811 Snow -1 1030 81 10000 4.6 40 08:39 30.03.2020
5812 Snow -1 1030 50 10000 5.1 20 08:20 30.03.2020
5813 Clear -2 1030 50 10000 5.7 20 07:45 30.03.2020
5814 Snow -2 1030 50 10000 5.7 20 07:25 30.03.2020
5815 Snow -2 1029 50 10000 5.7 10 06:47 30.03.2020
5816 Snow -2 1029 50 10000 5.7 20 06:29 30.03.2020
5817 Snow -1 1029 85 10000 5.1 20 05:46 30.03.2020
5818 Snow -1 1029 85 10000 6.7 20 05:18 30.03.2020
5819 Snow 0 1029 50 10000 6.7 20 04:21 30.03.2020
5820 Snow 0 1029 55 10000 6.7 20 03:19 30.03.2020
5821 Snow 1 1030 55 10000 5.7 20 01:59 30.03.2020
5822 Rain 2 1029 55 10000 5.7 20 01:26 30.03.2020
5823 Rain 2 1029 51 10000 7.2 30 00:33 30.03.2020
5824 Rain 3 1029 59 10000 9.3 20 23:59 29.03.2020
5825 Clouds 3 1029 59 10000 9.3 20 23:41 29.03.2020
5826 Rain 3 1028 60 10000 10.3 30 23:22 29.03.2020
5827 Rain 3 1028 60 10000 10.3 30 22:57 29.03.2020
5828 Clouds 3 1028 64 10000 10.8 20 22:37 29.03.2020
5829 Clouds 3 1028 64 10000 10.8 20 22:19 29.03.2020
5830 Clouds 3 1028 64 10000 10.8 20 21:55 29.03.2020
5831 Clouds 3 1027 64 10000 10.3 20 21:36 29.03.2020
5832 Rain 4 1027 65 10000 10.8 20 21:18 29.03.2020
5833 Rain 4 1026 65 10000 9.3 20 20:54 29.03.2020
5834 Rain 4 1026 65 10000 9.3 20 20:36 29.03.2020
5835 Rain 5 1026 68 10000 9.3 20 20:18 29.03.2020
5836 Rain 5 1025 68 10000 8.2 10 19:42 29.03.2020
5837 Rain 5 1025 60 10000 9.8 10 19:24 29.03.2020
5838 Clouds 6 1024 52 10000 10.3 10 18:58 29.03.2020
5839 Clouds 6 1024 52 10000 10.3 10 18:40 29.03.2020
5840 Clouds 7 1023 42 10000 8.2 20 18:20 29.03.2020
5841 Clouds 7 1023 42 10000 8.2 20 18:20 29.03.2020
5842 Clouds 7 1023 45 10000 9.3 10 17:58 29.03.2020
5843 Rain 8 1023 45 10000 9.3 10 17:40 29.03.2020
5844 Rain 8 1023 42 10000 8.2 30 17:22 29.03.2020
5845 Rain 8 1023 42 10000 8.2 30 16:58 29.03.2020
5846 Rain 8 1023 45 10000 8.2 30 16:39 29.03.2020
5847 Rain 8 1023 45 10000 7.2 20 16:20 29.03.2020
5848 Rain 8 1023 49 10000 8.7 30 15:58 29.03.2020
5849 Rain 8 1023 49 10000 8.7 30 15:39 29.03.2020
5850 Rain 7 1023 52 10000 7.7 20 15:19 29.03.2020
5851 Rain 7 1023 52 10000 7.7 30 14:55 29.03.2020
5852 Clouds 7 1023 52 10000 7.7 30 14:36 29.03.2020
5853 Clouds 7 1023 52 10000 7.7 30 14:36 29.03.2020
5854 Rain 7 1022 52 10000 7.7 20 14:18 29.03.2020
5855 Rain 7 1022 48 10000 5.7 20 13:42 29.03.2020
5856 Rain 7 1022 52 10000 6.2 10 13:22 29.03.2020
5857 Rain 7 1022 56 10000 6.7 20 12:58 29.03.2020
5858 Rain 6 1022 56 10000 6.7 20 12:39 29.03.2020
5859 Rain 6 1022 60 10000 6.7 20 12:19 29.03.2020
5860 Rain 6 1022 60 10000 6.7 20 11:59 29.03.2020
5861 Rain 6 1022 60 10000 4.6 360 11:38 29.03.2020
5862 Rain 6 1022 65 10000 6.7 20 11:19 29.03.2020
5863 Rain 5 1022 65 10000 7.2 20 10:39 29.03.2020
5864 Rain 5 1022 65 10000 7.2 20 10:39 29.03.2020
5865 Rain 6 1022 60 10000 4.6 360 10:21 29.03.2020
5866 Rain 5 1022 60 10000 4.6 360 09:57 29.03.2020
5867 Rain 5 1022 60 10000 5.7 360 09:38 29.03.2020
5868 Rain 4 1022 60 10000 3.1 330 09:18 29.03.2020
5869 Rain 4 1022 64 10000 2.6 310 08:45 29.03.2020
5870 Clouds 3 1022 60 10000 3.1 360 08:27 29.03.2020
5871 Rain 3 1022 74 10000 4.1 10 07:56 29.03.2020
5872 Rain 3 1022 74 10000 4.1 10 07:37 29.03.2020
5873 Rain 3 1022 69 10000 3.1 10 07:19 29.03.2020
5874 Rain 4 1021 65 10000 5.1 30 04:58 29.03.2020
5875 Clouds 5 1021 71 10000 5.7 30 03:42 29.03.2020
5876 Clouds 5 1021 71 10000 5.7 30 03:24 29.03.2020
5877 Rain 6 1021 65 10000 4.1 10 01:50 29.03.2020
5878 Rain 6 1021 65 10000 4.1 10 01:23 29.03.2020
5879 Rain 7 1021 65 10000 6.7 10 00:53 29.03.2020
5880 Rain 7 1021 65 10000 6.7 10 00:29 29.03.2020
5881 Rain 8 1020 49 10000 5.1 360 23:42 28.03.2020
5882 Rain 8 1020 65 10000 6.7 10 23:23 28.03.2020
5883 Rain 9 1020 61 10000 6.2 10 22:57 28.03.2020
5884 Rain 9 1020 61 10000 6.2 10 22:37 28.03.2020
5885 Rain 9 1020 61 10000 5.7 10 22:19 28.03.2020
5886 Rain 10 1019 61 10000 6.2 10 21:42 28.03.2020
5887 Rain 10 1019 61 10000 6.2 10 21:24 28.03.2020
5888 Rain 11 1019 40 10000 6.7 10 20:59 28.03.2020
5889 Rain 11 1019 37 10000 6.2 10 20:41 28.03.2020
5890 Rain 12 1018 35 10000 4.6 10 20:23 28.03.2020
5891 Rain 12 1018 35 10000 4.6 10 19:57 28.03.2020
5892 Rain 13 1018 33 10000 5.7 20 19:37 28.03.2020
5893 Rain 13 1018 33 10000 5.7 20 19:37 28.03.2020
5894 Rain 13 1017 33 10000 6.2 20 19:19 28.03.2020
5895 Rain 14 1017 33 10000 7.2 40 18:56 28.03.2020
5896 Rain 15 1017 33 10000 7.2 40 18:38 28.03.2020
5897 Clear 16 1017 31 10000 6.2 30 18:19 28.03.2020
5898 Clear 16 1017 29 10000 6.2 20 17:38 28.03.2020
5899 Clear 17 1017 40 10000 6.2 10 17:20 28.03.2020
5900 Rain 18 1017 31 10000 6.7 30 16:43 28.03.2020
5901 Rain 17 1017 31 10000 6.7 30 16:20 28.03.2020
5902 Rain 17 1017 31 10000 6.7 30 15:58 28.03.2020
5903 Rain 18 1017 31 10000 6.2 40 15:39 28.03.2020
5904 Clear 18 1017 31 10000 5.1 20 15:19 28.03.2020
5905 Clear 18 1017 31 10000 5.1 20 14:54 28.03.2020
5906 Clear 18 1017 34 10000 5.7 30 14:36 28.03.2020
5907 Clear 18 1018 34 10000 4.6 20 14:18 28.03.2020
5908 Clear 17 1018 36 10000 5.7 30 13:38 28.03.2020
5909 Clear 17 1018 39 10000 4.6 30 13:20 28.03.2020
5910 Rain 17 1018 41 10000 5.1 20 12:40 28.03.2020
5911 Rain 16 1018 41 10000 5.1 20 12:22 28.03.2020
5912 Rain 16 1019 41 10000 4.6 40 11:42 28.03.2020
5913 Rain 15 1019 47 10000 4.1 30 11:23 28.03.2020
5914 Clear 13 1019 47 10000 6.2 30 10:56 28.03.2020
5915 Clear 13 1019 47 10000 6.2 30 10:38 28.03.2020
5916 Rain 13 1019 47 10000 5.7 40 10:18 28.03.2020
5917 Rain 12 1019 50 10000 5.7 40 09:42 28.03.2020
5918 Clear 11 1019 50 10000 5.7 40 09:23 28.03.2020
5919 Clear 11 1019 50 10000 5.7 40 09:23 28.03.2020
5920 Clear 10 1019 50 10000 5.7 40 08:55 28.03.2020
5921 Clear 10 1018 53 10000 5.1 40 08:37 28.03.2020
5922 Clouds 8 1018 53 10000 4.1 40 08:18 28.03.2020
5923 Rain 8 1018 57 10000 4.6 40 07:41 28.03.2020
5924 Rain 7 1018 61 10000 5.1 40 06:58 28.03.2020
5925 Clouds 6 1018 61 10000 5.7 40 06:35 28.03.2020
5926 Clouds 6 1018 65 10000 4.6 40 05:42 28.03.2020
5927 Clouds 7 1017 65 10000 4.6 40 05:21 28.03.2020
5928 Clouds 7 1017 61 10000 4.1 30 04:40 28.03.2020
5929 Clouds 8 1017 57 10000 3.6 30 03:34 28.03.2020
5930 Rain 9 1017 53 10000 6.7 20 01:57 28.03.2020
5931 Rain 9 1017 53 10000 6.7 20 01:26 28.03.2020
5932 Rain 9 1017 53 10000 6.2 20 00:57 28.03.2020
5933 Rain 10 1017 53 10000 6.2 20 00:36 28.03.2020
5934 Rain 10 1017 53 10000 6.2 20 23:56 27.03.2020
5935 Rain 10 1017 53 10000 6.2 20 23:38 27.03.2020
5936 Rain 10 1017 53 10000 6.2 20 23:38 27.03.2020
5937 Rain 11 1017 50 10000 6.2 20 23:19 27.03.2020
5938 Rain 11 1017 50 10000 5.7 20 22:56 27.03.2020
5939 Rain 11 1017 50 10000 5.7 20 22:37 27.03.2020
5940 Rain 11 1017 47 10000 5.1 20 22:19 27.03.2020
5941 Rain 11 1016 47 10000 5.1 20 21:44 27.03.2020
5942 Rain 12 1016 44 10000 4.6 20 21:25 27.03.2020
5943 Rain 12 1016 44 10000 4.1 10 20:59 27.03.2020
5944 Rain 12 1016 44 10000 4.1 10 20:41 27.03.2020
5945 Clear 12 1016 44 10000 4.1 10 20:20 27.03.2020
5946 Clear 12 1016 44 10000 4.1 10 20:20 27.03.2020
5947 Rain 13 1016 44 10000 3.6 10 19:58 27.03.2020
5948 Rain 13 1016 44 10000 3.6 10 19:39 27.03.2020
5949 Rain 14 1016 41 10000 3.6 10 19:20 27.03.2020
5950 Clear 15 1015 38 10000 5.1 10 18:44 27.03.2020
5951 Clear 15 1015 38 10000 5.7 10 18:25 27.03.2020
5952 Clear 16 1015 38 10000 5.7 10 17:59 27.03.2020
5953 Clear 17 1015 36 10000 6.7 10 17:39 27.03.2020
5954 Rain 17 1015 33 10000 6.2 20 17:20 27.03.2020
5955 Rain 17 1015 36 10000 5.1 30 16:44 27.03.2020
5956 Rain 17 1015 36 10000 5.7 30 16:25 27.03.2020
5957 Rain 17 1015 36 10000 5.1 40 15:56 27.03.2020
5958 Rain 17 1015 36 10000 5.1 40 15:38 27.03.2020
5959 Clear 17 1015 33 10000 4.6 40 15:20 27.03.2020
5960 Rain 16 1015 33 10000 5.1 30 14:45 27.03.2020
5961 Rain 16 1017 41 0 1.34 36 14:24 27.03.2020
5962 Rain 15 1016 42 10000 4.1 40 13:56 27.03.2020
5963 Rain 15 1016 38 10000 4.6 20 13:37 27.03.2020
5964 Clouds 15 1016 38 10000 4.1 40 13:18 27.03.2020
5965 Clouds 14 1016 42 10000 5.1 40 12:49 27.03.2020
5966 Clouds 14 1016 42 10000 4.6 60 12:21 27.03.2020
5967 Clouds 13 1017 43 10000 4.1 50 11:59 27.03.2020
5968 Clouds 13 1017 43 10000 4.1 50 11:59 27.03.2020
5969 Clouds 14 1016 42 10000 4.6 60 11:59 27.03.2020
5970 Clouds 13 1017 43 10000 4.1 50 11:59 27.03.2020
5971 Clouds 13 1017 43 10000 4.1 50 11:59 27.03.2020
5972 Clouds 13 1017 43 10000 4.1 50 11:40 27.03.2020
5973 Rain 12 1017 52 10000 5.1 40 11:22 27.03.2020
5974 Rain 11 1017 52 10000 5.1 50 10:54 27.03.2020
5975 Rain 11 1017 52 10000 5.1 50 10:36 27.03.2020
5976 Rain 10 1017 46 10000 4.6 50 10:18 27.03.2020
5977 Clouds 9 1017 45 10000 3.6 50 09:55 27.03.2020
5978 Clouds 9 1017 45 10000 3.6 50 09:36 27.03.2020
5979 Clouds 8 1017 49 10000 4.6 40 09:18 27.03.2020
5980 Clouds 8 1017 49 10000 4.6 40 08:54 27.03.2020
5981 Clear 7 1017 52 10000 4.6 30 08:36 27.03.2020
5982 Clear 5 1017 56 10000 4.6 30 08:18 27.03.2020
5983 Clear 4 1017 60 10000 5.1 40 07:49 27.03.2020
5984 Rain 4 1017 60 10000 5.1 40 07:22 27.03.2020
5985 Rain 3 1017 60 10000 5.1 40 06:45 27.03.2020
5986 Rain 3 1017 60 10000 5.1 30 06:26 27.03.2020
5987 Rain 4 1017 60 10000 5.1 30 03:42 27.03.2020
5988 Rain 5 1018 60 10000 5.1 20 02:25 27.03.2020
5989 Rain 5 1018 60 10000 5.1 40 01:22 27.03.2020
5990 Rain 6 1018 56 10000 5.7 40 00:47 27.03.2020
5991 Rain 6 1018 52 10000 4.6 50 00:23 27.03.2020
5992 Rain 6 1019 52 10000 6.7 50 23:42 26.03.2020
5993 Rain 6 1019 52 10000 6.2 50 23:21 26.03.2020
5994 Clouds 7 1019 52 10000 5.7 60 22:58 26.03.2020
5995 Clouds 7 1019 52 10000 5.7 60 22:37 26.03.2020
5996 Clouds 7 1019 52 10000 6.7 60 22:19 26.03.2020
5997 Clouds 7 1019 49 10000 7.2 60 21:55 26.03.2020
5998 Clouds 7 1019 49 10000 7.2 60 21:37 26.03.2020
5999 Clouds 7 1019 49 10000 4.1 60 21:18 26.03.2020
6000 Clouds 8 1019 52 10000 4.1 60 20:41 26.03.2020
6001 Clouds 8 1019 49 10000 4.6 60 20:23 26.03.2020
6002 Clouds 8 1019 49 10000 4.6 60 19:58 26.03.2020
6003 Clouds 9 1019 45 10000 4.1 70 19:40 26.03.2020
6004 Clouds 9 1019 43 10000 4.1 70 19:22 26.03.2020
6005 Clouds 10 1019 43 10000 4.1 70 18:59 26.03.2020
6006 Clouds 10 1019 43 10000 5.1 60 18:41 26.03.2020
6007 Clouds 10 1019 43 10000 5.7 60 18:23 26.03.2020
6008 Clouds 10 1019 39 10000 6.2 60 17:55 26.03.2020
6009 Rain 10 1019 39 10000 6.2 60 17:37 26.03.2020
6010 Rain 11 1019 37 10000 6.7 80 17:18 26.03.2020
6011 Rain 11 1019 37 10000 6.7 80 16:40 26.03.2020
6012 Rain 11 1019 37 10000 7.2 80 16:21 26.03.2020
6013 Rain 11 1019 37 10000 7.2 80 15:57 26.03.2020
6014 Clear 11 1019 34 10000 6.2 70 15:39 26.03.2020
6015 Clear 11 1019 37 10000 6.7 80 15:20 26.03.2020
6016 Rain 11 1019 37 10000 6.7 60 14:57 26.03.2020
6017 Rain 11 1019 37 10000 6.7 60 14:37 26.03.2020
6018 Clear 10 1019 37 10000 6.7 90 14:18 26.03.2020
6019 Clear 10 1020 37 10000 7.7 70 13:41 26.03.2020
6020 Clear 9 1020 39 10000 7.2 70 13:22 26.03.2020
6021 Clear 9 1020 39 10000 7.2 70 12:56 26.03.2020
6022 Clear 9 1020 39 10000 8.2 70 12:37 26.03.2020
6023 Clear 8 1020 39 10000 7.2 80 12:18 26.03.2020
6024 Clouds 8 1020 39 10000 7.2 70 11:44 26.03.2020
6025 Clouds 7 1020 42 10000 7.7 90 11:20 26.03.2020
6026 Rain 6 1020 42 10000 7.7 90 10:56 26.03.2020
6027 Rain 6 1020 41 10000 7.2 70 10:36 26.03.2020
6028 Rain 6 1021 41 10000 7.2 60 10:18 26.03.2020
6029 Rain 6 1021 41 10000 7.2 60 10:18 26.03.2020
6030 Clear 5 1021 44 10000 7.7 70 09:42 26.03.2020
6031 Clear 5 1020 44 10000 7.2 60 09:19 26.03.2020
6032 Clear 5 1020 44 10000 7.2 60 09:19 26.03.2020
6033 Clear 4 1020 44 10000 8.2 60 08:54 26.03.2020
6034 Clear 4 1020 44 10000 8.2 60 08:36 26.03.2020
6035 Clear 3 1020 47 10000 6.7 50 08:18 26.03.2020
6036 Rain 2 1020 47 10000 4.6 20 07:41 26.03.2020
6037 Rain 1 1020 50 10000 3.6 30 07:20 26.03.2020
6038 Rain 1 1020 50 10000 4.1 30 06:47 26.03.2020
6039 Rain 1 1020 55 10000 4.6 40 05:52 26.03.2020
6040 Rain 2 1020 40 10000 5.1 30 03:59 26.03.2020
6041 Rain 2 1020 40 10000 5.1 40 03:36 26.03.2020
6042 Clear 2 1021 40 10000 5.7 50 02:54 26.03.2020
6043 Rain 3 1021 40 10000 4.6 10 01:50 26.03.2020
6044 Rain 3 1022 38 10000 4.1 360 00:45 26.03.2020
6045 Rain 3 1022 47 10000 5.7 40 23:56 25.03.2020
6046 Rain 3 1022 47 10000 5.7 40 23:36 25.03.2020
6047 Rain 4 1022 41 10000 4.6 40 23:18 25.03.2020
6048 Rain 5 1022 35 10000 4.6 50 22:39 25.03.2020
6049 Rain 5 1023 32 10000 4.6 50 22:20 25.03.2020
6050 Rain 5 1022 30 10000 4.6 60 21:55 25.03.2020
6051 Rain 5 1022 30 10000 4.6 60 21:37 25.03.2020
6052 Rain 5 1022 30 10000 3.6 60 21:19 25.03.2020
6053 Rain 5 1022 30 10000 3.6 60 21:19 25.03.2020
6054 Clear 5 1022 30 10000 3.6 60 20:54 25.03.2020
6055 Rain 6 1022 24 10000 6.2 80 20:36 25.03.2020
6056 Rain 7 1022 22 10000 7.2 90 20:18 25.03.2020
6057 Rain 7 1022 20 10000 6.2 90 19:42 25.03.2020
6058 Clear 8 1022 18 10000 6.7 90 19:22 25.03.2020
6059 Rain 9 1021 16 10000 8.7 80 18:57 25.03.2020
6060 Rain 10 1021 15 10000 9.3 80 18:38 25.03.2020
6061 Rain 10 1021 15 10000 9.3 80 18:20 25.03.2020
6062 Clear 11 1021 17 10000 9.3 80 17:55 25.03.2020
6063 Clear 11 1021 17 10000 9.3 80 17:37 25.03.2020
6064 Clear 11 1022 15 10000 10.8 80 17:18 25.03.2020
6065 Clear 11 1022 17 10000 9.8 80 16:43 25.03.2020
6066 Rain 11 1022 18 10000 9.3 90 16:24 25.03.2020
6067 Rain 11 1022 18 10000 9.3 90 15:59 25.03.2020
6068 Rain 11 1023 20 10000 7.7 90 15:40 25.03.2020
6069 Rain 11 1023 20 10000 9.3 80 15:19 25.03.2020
6070 Rain 10 1023 19 10000 7.2 70 14:42 25.03.2020
6071 Rain 10 1023 19 10000 7.2 70 14:22 25.03.2020
6072 Rain 10 1024 21 10000 6.7 50 13:59 25.03.2020
6073 Clear 9 1024 24 10000 8.2 40 13:41 25.03.2020
6074 Clear 9 1024 24 10000 8.2 40 13:22 25.03.2020
6075 Rain 8 1025 26 10000 6.2 30 12:38 25.03.2020
6076 Rain 8 1026 28 10000 5.1 60 12:19 25.03.2020
6077 Rain 8 1026 28 10000 5.1 60 12:19 25.03.2020
6078 Clear 7 1026 28 10000 7.2 70 11:56 25.03.2020
6079 Clear 7 1026 28 10000 7.2 70 11:37 25.03.2020
6080 Clear 5 1026 33 10000 6.7 80 11:19 25.03.2020
6081 Clear 5 1027 32 10000 6.7 80 10:56 25.03.2020
6082 Clear 5 1027 32 10000 6.7 80 10:38 25.03.2020
6083 Clear 5 1027 35 10000 6.7 70 10:18 25.03.2020
6084 Clear 4 1028 38 10000 6.2 40 09:43 25.03.2020
6085 Clear 4 1028 38 10000 6.2 40 09:24 25.03.2020
6086 Clear 3 1028 40 10000 4.6 50 08:57 25.03.2020
6087 Clear 2 1028 40 10000 4.6 50 08:39 25.03.2020
6088 Clear 2 1028 43 10000 3.6 40 08:19 25.03.2020
6089 Clear 1 1028 43 10000 3.6 30 07:41 25.03.2020
6090 Clear 0 1028 54 10000 3.1 40 07:22 25.03.2020
6091 Clear 0 1022 45 0 1.79 270 06:50 25.03.2020
6092 Clear 0 1028 54 10000 3.06 74 06:28 25.03.2020
6093 Clear 0 1028 43 10000 4.1 10 05:57 25.03.2020
6094 Clear 0 1028 43 10000 4.1 10 05:37 25.03.2020
6095 Clear 0 1028 79 10000 3.6 10 04:40 25.03.2020
6096 Clear 0 1029 54 10000 2.1 70 03:52 25.03.2020
6097 Clear 1 1029 47 10000 4.1 10 03:29 25.03.2020
6098 Clear 2 1029 40 10000 4.1 10 01:31 25.03.2020
6099 Clear 2 1030 40 10000 2.1 30 00:49 25.03.2020
6100 Clear 1 1030 71 10000 3.6 60 00:26 25.03.2020
6101 Clear 1 1030 37 10000 5.1 50 23:50 24.03.2020
6102 Clear 2 1030 40 10000 3.6 60 23:28 24.03.2020
6103 Rain 3 1030 37 10000 4.1 50 22:58 24.03.2020
6104 Rain 3 1030 37 10000 4.1 50 22:38 24.03.2020
6105 Rain 3 1029 37 10000 2.6 30 22:20 24.03.2020
6106 Rain 3 1029 37 10000 2.6 30 21:58 24.03.2020
6107 Clear 4 1029 34 10000 3.1 30 21:39 24.03.2020
6108 Clear 4 1029 32 10000 3.1 50 21:18 24.03.2020
6109 Clear 4 1029 32 10000 3.1 50 21:18 24.03.2020
6110 Clear 4 1029 32 10000 4.1 60 20:58 24.03.2020
6111 Clear 4 1029 32 10000 4.1 60 20:39 24.03.2020
6112 Clear 4 1029 35 10000 5.1 60 20:21 24.03.2020
6113 Clear 5 1029 28 10000 5.1 70 19:47 24.03.2020
6114 Clear 6 1029 20 10000 4.6 90 19:22 24.03.2020
6115 Clear 7 1029 20 10000 4.6 90 18:58 24.03.2020
6116 Clear 8 1029 20 10000 6.2 80 18:38 24.03.2020
6117 Clear 9 1029 23 10000 6.2 70 18:20 24.03.2020
6118 Clear 9 1029 24 10000 6.2 70 17:58 24.03.2020
6119 Clear 9 1029 24 10000 6.2 70 17:40 24.03.2020
6120 Clear 9 1029 24 10000 6.2 70 17:40 24.03.2020
6121 Clear 9 1029 23 10000 5.7 100 17:22 24.03.2020
6122 Clear 9 1029 21 10000 5.1 120 16:57 24.03.2020
6123 Clear 9 1029 21 10000 5.1 120 16:38 24.03.2020
6124 Clear 9 1030 21 10000 6.2 100 16:20 24.03.2020
6125 Clear 9 1030 23 10000 7.7 110 15:43 24.03.2020
6126 Clear 9 1030 23 10000 7.7 110 15:25 24.03.2020
6127 Clear 9 1031 21 10000 6.7 110 14:57 24.03.2020
6128 Clear 9 1031 21 10000 6.7 110 14:37 24.03.2020
6129 Clear 9 1031 21 10000 7.7 110 14:18 24.03.2020
6130 Clear 8 1032 21 0 6.7 90 13:41 24.03.2020
6131 Clear 8 1032 22 10000 6.2 100 13:22 24.03.2020
6132 Clear 7 1032 28 10000 7.2 80 12:45 24.03.2020
6133 Clear 7 1032 30 10000 8.7 100 12:27 24.03.2020
6134 Clear 7 1033 30 10000 6.2 90 11:57 24.03.2020
6135 Clear 6 1033 30 10000 6.2 90 11:38 24.03.2020
6136 Clear 5 1034 35 10000 6.2 100 11:18 24.03.2020
6137 Clear 4 1033 38 10000 5.7 90 10:42 24.03.2020
6138 Clear 4 1034 38 10000 5.7 80 10:19 24.03.2020
6139 Clear 4 1034 38 10000 5.7 80 10:19 24.03.2020
6140 Clear 3 1034 40 10000 6.2 90 09:55 24.03.2020
6141 Clear 3 1034 40 10000 6.2 90 09:37 24.03.2020
6142 Clear 2 1034 43 10000 4.6 70 09:19 24.03.2020
6143 Clear 1 1033 43 10000 5.1 70 08:38 24.03.2020
6144 Clear 0 1033 50 10000 4.6 60 08:20 24.03.2020
6145 Clear -1 1033 39 10000 4.6 70 07:47 24.03.2020
6146 Clear -1 1033 58 10000 5.1 50 07:23 24.03.2020
6147 Clear -2 1033 58 10000 3.6 70 06:50 24.03.2020
6148 Clear -2 1033 54 10000 4.1 80 06:24 24.03.2020
6149 Clear -2 1033 58 10000 4.1 80 04:57 24.03.2020
6150 Clear -2 1033 58 10000 2.6 80 03:48 24.03.2020
6151 Clear -1 1033 54 10000 3.6 60 02:49 24.03.2020
6152 Clear -1 1033 54 10000 4.1 70 01:45 24.03.2020
6153 Clear 0 1033 54 10000 4.1 70 00:46 24.03.2020
6154 Clear 0 1033 43 10000 4.1 70 00:24 24.03.2020
6155 Clear 0 1033 31 10000 3.6 70 23:44 23.03.2020
6156 Clear 0 1033 54 10000 4.1 70 23:26 23.03.2020
6157 Clear 1 1033 32 10000 2.6 70 22:55 23.03.2020
6158 Clear 1 1033 32 10000 2.6 70 22:37 23.03.2020
6159 Clear 1 1033 47 10000 2.6 80 22:19 23.03.2020
6160 Clear 1 1033 47 10000 2.6 80 21:44 23.03.2020
6161 Clear 2 1033 37 10000 2.6 80 21:21 23.03.2020
6162 Clear 2 1033 37 10000 2.6 80 20:58 23.03.2020
6163 Clear 3 1033 32 10000 2.6 90 20:40 23.03.2020
6164 Clear 3 1033 32 10000 2.6 80 20:22 23.03.2020
6165 Clear 4 1033 30 10000 3.1 80 19:46 23.03.2020
6166 Clear 5 1032 26 10000 3.6 90 19:28 23.03.2020
6167 Clear 5 1032 26 10000 5.1 90 18:59 23.03.2020
6168 Rain 6 1032 26 10000 5.1 90 18:41 23.03.2020
6169 Rain 7 1032 24 10000 5.7 80 18:22 23.03.2020
6170 Clear 7 1032 24 10000 6.7 80 17:56 23.03.2020
6171 Clear 7 1032 24 10000 6.7 80 17:38 23.03.2020
6172 Clear 8 1032 24 10000 5.7 90 17:18 23.03.2020
6173 Clear 8 1032 26 10000 6.7 100 16:43 23.03.2020
6174 Clear 8 1032 26 10000 6.7 100 16:25 23.03.2020
6175 Clear 8 1032 24 10000 6.2 110 15:43 23.03.2020
6176 Clear 8 1032 24 10000 7.7 90 15:21 23.03.2020
6177 Clear 8 1033 26 10000 7.2 100 14:57 23.03.2020
6178 Clear 8 1033 26 10000 7.2 100 14:37 23.03.2020
6179 Clear 8 1033 22 10000 8.2 90 14:18 23.03.2020
6180 Clear 7 1034 24 10000 8.7 110 13:41 23.03.2020
6181 Clear 7 1034 28 10000 7.7 100 13:22 23.03.2020
6182 Rain 7 1034 28 10000 7.7 100 12:58 23.03.2020
6183 Rain 7 1034 26 10000 8.7 80 12:40 23.03.2020
6184 Rain 6 1034 28 10000 7.2 100 12:22 23.03.2020
6185 Rain 5 1034 27 10000 8.2 90 11:42 23.03.2020
6186 Clear 5 1035 30 10000 7.2 100 11:22 23.03.2020
6187 Clear 4 1035 29 10000 7.2 90 10:58 23.03.2020
6188 Clear 4 1035 29 10000 7.2 90 10:40 23.03.2020
6189 Clear 4 1035 29 10000 7.2 90 10:40 23.03.2020
6190 Clear 3 1035 32 10000 7.7 100 10:21 23.03.2020
6191 Clear 3 1035 37 10000 7.2 90 09:58 23.03.2020
6192 Clear 2 1035 37 10000 7.2 90 09:40 23.03.2020
6193 Clear 2 1035 40 10000 8.2 90 09:19 23.03.2020
6194 Clear 1 1035 47 10000 6.7 90 08:38 23.03.2020
6195 Clear 0 1035 33 10000 5.7 80 08:19 23.03.2020
6196 Clear 0 1035 33 10000 5.1 70 07:51 23.03.2020
6197 Clear 0 1035 33 10000 5.1 70 07:32 23.03.2020
6198 Clear -1 1035 63 10000 4.6 60 06:55 23.03.2020
6199 Clear -1 1035 63 10000 4.6 60 06:32 23.03.2020
6200 Clear -1 1034 54 10000 4.1 60 05:43 23.03.2020
6201 Clear -1 1034 58 10000 4.1 60 03:54 23.03.2020
6202 Clear 0 1034 41 10000 4.1 70 02:44 23.03.2020
6203 Clear 0 1034 38 10000 4.1 60 01:42 23.03.2020
6204 Clear 1 1034 47 10000 5.1 90 00:46 23.03.2020
6205 Clear 1 1034 47 10000 4.6 70 00:26 23.03.2020
6206 Clear 2 1034 51 10000 5.1 60 23:42 22.03.2020
6207 Clear 2 1033 51 10000 5.7 60 23:24 22.03.2020
6208 Clear 3 1033 51 10000 5.7 60 22:42 22.03.2020
6209 Clear 3 1033 44 10000 6.2 60 22:21 22.03.2020
6210 Clear 3 1032 41 10000 7.2 60 21:54 22.03.2020
6211 Clear 3 1032 41 10000 7.2 60 21:36 22.03.2020
6212 Clear 4 1032 38 10000 7.2 60 21:18 22.03.2020
6213 Clear 4 1032 38 10000 7.2 60 20:42 22.03.2020
6214 Clear 4 1032 38 10000 7.2 60 20:24 22.03.2020
6215 Clear 5 1031 41 10000 6.7 60 19:57 22.03.2020
6216 Clear 5 1031 35 10000 5.7 60 19:39 22.03.2020
6217 Clear 5 1030 33 10000 8.2 70 19:20 22.03.2020
6218 Clear 6 1030 33 10000 8.2 70 18:58 22.03.2020
6219 Clear 6 1030 36 10000 8.2 60 18:40 22.03.2020
6220 Clear 7 1030 31 10000 8.2 70 18:21 22.03.2020
6221 Clear 8 1029 31 10000 7.2 60 17:57 22.03.2020
6222 Clear 8 1029 31 10000 7.2 60 17:38 22.03.2020
6223 Clear 8 1029 31 10000 8.2 70 17:20 22.03.2020
6224 Clear 9 1029 31 10000 8.2 70 16:57 22.03.2020
6225 Clear 9 1029 27 10000 7.7 80 16:39 22.03.2020
6226 Clear 9 1029 27 10000 8.2 70 16:20 22.03.2020
6227 Clear 9 1029 27 10000 8.2 70 16:20 22.03.2020
6228 Rain 9 1029 27 10000 7.2 70 15:40 22.03.2020
6229 Rain 9 1029 26 10000 7.7 60 15:21 22.03.2020
6230 Rain 9 1029 26 10000 8.2 60 14:46 22.03.2020
6231 Rain 9 1029 26 10000 8.7 70 14:19 22.03.2020
6232 Rain 8 1029 29 10000 8.7 80 13:44 22.03.2020
6233 Rain 8 1030 29 10000 8.7 70 13:21 22.03.2020
6234 Rain 8 1030 30 10000 7.7 70 12:59 22.03.2020
6235 Clear 7 1030 30 10000 7.7 70 12:41 22.03.2020
6236 Rain 7 1030 30 10000 8.7 70 12:19 22.03.2020
6237 Rain 6 1030 35 10000 9.3 80 11:55 22.03.2020
6238 Rain 6 1030 35 10000 9.3 80 11:36 22.03.2020
6239 Clear 5 1030 33 10000 10.3 80 11:18 22.03.2020
6240 Rain 5 1030 38 10000 8.7 70 10:42 22.03.2020
6241 Rain 4 1030 41 10000 8.7 60 10:23 22.03.2020
6242 Rain 4 1030 44 10000 8.7 70 09:47 22.03.2020
6243 Rain 3 1030 44 10000 8.7 70 09:28 22.03.2020
6244 Rain 3 1030 51 10000 7.7 70 08:54 22.03.2020
6245 Clear 2 1030 51 10000 7.7 70 08:36 22.03.2020
6246 Clear 1 1029 55 10000 7.2 60 08:18 22.03.2020
6247 Snow 1 1029 59 10000 7.2 60 07:41 22.03.2020
6248 Snow 1 1029 59 10000 7.2 50 07:18 22.03.2020
6249 Snow 0 1028 59 10000 7.2 40 05:54 22.03.2020
6250 Clear 1 1028 59 10000 5.7 50 04:50 22.03.2020
6251 Clear 1 1027 59 10000 6.2 50 02:43 22.03.2020
6252 Rain 2 1027 59 10000 6.2 50 01:20 22.03.2020
6253 Rain 2 1027 55 10000 7.7 50 00:35 22.03.2020
6254 Rain 3 1027 55 10000 9.3 50 23:57 21.03.2020
6255 Clouds 3 1027 55 10000 9.3 60 23:38 21.03.2020
6256 Rain 3 1027 55 10000 9.8 50 23:18 21.03.2020
6257 Rain 3 1027 55 10000 9.8 50 22:38 21.03.2020
6258 Rain 3 1027 55 10000 9.8 50 22:38 21.03.2020
6259 Clouds 4 1026 55 10000 9.8 50 22:20 21.03.2020
6260 Clouds 4 1026 55 10000 9.8 50 21:59 21.03.2020
6261 Rain 4 1026 52 10000 9.3 50 21:39 21.03.2020
6262 Rain 4 1026 56 10000 10.3 50 21:21 21.03.2020
6263 Rain 4 1026 56 10000 9.3 40 20:46 21.03.2020
6264 Rain 4 1025 52 10000 9.8 40 20:23 21.03.2020
6265 Rain 5 1025 52 10000 9.8 40 19:57 21.03.2020
6266 Rain 5 1025 52 10000 9.3 40 19:39 21.03.2020
6267 Rain 5 1025 48 10000 9.3 40 19:21 21.03.2020
6268 Rain 6 1024 48 10000 10.8 40 18:54 21.03.2020
6269 Rain 6 1024 48 10000 10.8 40 18:36 21.03.2020
6270 Rain 6 1024 48 10000 9.8 40 18:18 21.03.2020
6271 Rain 6 1024 49 10000 9.8 60 17:43 21.03.2020
6272 Rain 6 1024 49 10000 9.8 60 17:43 21.03.2020
6273 Rain 6 1024 49 10000 9.8 60 17:43 21.03.2020
6274 Rain 7 1024 49 10000 9.3 50 17:23 21.03.2020
6275 Rain 7 1024 52 10000 9.8 40 16:57 21.03.2020
6276 Rain 7 1024 52 10000 9.8 40 16:39 21.03.2020
6277 Rain 7 1024 52 10000 10.3 60 16:19 21.03.2020
6278 Rain 7 1024 52 10000 9.8 50 15:55 21.03.2020
6279 Rain 7 1024 52 10000 9.8 50 15:36 21.03.2020
6280 Rain 7 1024 45 10000 11.3 40 15:18 21.03.2020
6281 Rain 7 1024 45 10000 10.3 50 14:54 21.03.2020
6282 Rain 7 1024 45 10000 10.3 50 14:36 21.03.2020
6283 Rain 7 1024 61 10000 8.7 50 14:18 21.03.2020
6284 Rain 7 1024 65 10000 9.3 40 13:54 21.03.2020
6285 Rain 7 1024 65 10000 9.3 40 13:36 21.03.2020
6286 Rain 7 1024 65 10000 10.8 40 13:18 21.03.2020
6287 Rain 7 1024 65 10000 9.3 40 12:39 21.03.2020
6288 Rain 7 1024 75 10000 9.8 40 12:19 21.03.2020
6289 Rain 6 1024 75 10000 7.2 50 11:57 21.03.2020
6290 Rain 6 1024 81 10000 8.2 30 11:38 21.03.2020
6291 Rain 6 1024 81 10000 7.2 40 11:19 21.03.2020
6292 Rain 6 1024 87 10000 8.2 40 10:57 21.03.2020
6293 Rain 5 1024 87 10000 8.2 40 10:38 21.03.2020
6294 Rain 5 1024 81 10000 7.2 40 10:20 21.03.2020
6295 Rain 5 1024 81 10000 7.2 40 09:56 21.03.2020
6296 Rain 5 1024 86 10000 8.2 50 09:37 21.03.2020
6297 Rain 5 1024 86 10000 6.2 30 09:19 21.03.2020
6298 Rain 5 1024 86 10000 6.2 30 09:19 21.03.2020
6299 Rain 5 1024 86 10000 7.2 40 08:44 21.03.2020
6300 Rain 5 1024 86 10000 7.2 40 08:44 21.03.2020
6301 Rain 4 1024 86 10000 7.2 40 08:25 21.03.2020
6302 Rain 4 1024 86 10000 6.7 40 07:52 21.03.2020
6303 Rain 4 1024 86 10000 6.7 40 07:32 21.03.2020
6304 Rain 4 1024 93 10000 6.7 30 06:48 21.03.2020
6305 Rain 4 1024 93 10000 6.7 30 06:29 21.03.2020
6306 Rain 4 1024 86 10000 6.2 30 05:48 21.03.2020
6307 Rain 5 1023 86 10000 6.7 30 05:23 21.03.2020
6308 Rain 6 1023 75 0 7.2 40 03:32 21.03.2020
6309 Rain 6 1023 65 10000 7.7 40 02:35 21.03.2020
6310 Rain 7 1023 65 10000 7.7 40 01:42 21.03.2020
6311 Rain 7 1023 66 10000 8.2 30 01:21 21.03.2020
6312 Rain 7 1024 66 10000 7.2 30 00:38 21.03.2020
6313 Rain 7 1023 61 10000 8.7 40 23:59 20.03.2020
6314 Rain 7 1023 65 10000 7.7 20 23:41 20.03.2020
6315 Rain 8 1023 65 10000 8.7 40 23:20 20.03.2020
6316 Rain 8 1023 70 10000 7.2 30 22:44 20.03.2020
6317 Rain 8 1023 70 10000 5.1 30 22:24 20.03.2020
6318 Rain 9 1023 70 10000 7.2 30 21:58 20.03.2020
6319 Rain 8 1023 70 10000 5.7 40 21:39 20.03.2020
6320 Rain 9 1023 76 10000 5.1 30 21:20 20.03.2020
6321 Rain 9 1023 81 10000 7.7 20 20:58 20.03.2020
6322 Rain 9 1022 76 10000 7.7 20 20:40 20.03.2020
6323 Rain 10 1022 76 10000 6.2 20 20:19 20.03.2020
6324 Rain 10 1022 71 10000 6.7 20 19:46 20.03.2020
6325 Rain 11 1021 76 10000 8.2 20 19:20 20.03.2020
6326 Rain 11 1021 76 10000 8.2 20 18:57 20.03.2020
6327 Rain 12 1021 71 10000 7.7 20 18:38 20.03.2020
6328 Rain 12 1021 71 10000 7.7 20 18:38 20.03.2020
6329 Rain 12 1021 62 10000 8.2 20 18:19 20.03.2020
6330 Rain 13 1021 66 10000 8.2 10 17:56 20.03.2020
6331 Rain 13 1021 66 10000 8.2 10 17:37 20.03.2020
6332 Rain 14 1021 62 10000 8.2 20 17:18 20.03.2020
6333 Rain 14 1021 62 10000 8.2 10 16:41 20.03.2020
6334 Rain 15 1021 58 10000 6.7 10 16:21 20.03.2020
6335 Rain 16 1021 58 10000 8.7 40 15:45 20.03.2020
6336 Rain 16 1021 62 10000 8.2 30 15:23 20.03.2020
6337 Rain 16 1021 62 10000 8.2 30 14:59 20.03.2020
6338 Rain 16 1021 62 10000 8.2 30 14:59 20.03.2020
6339 Rain 16 1021 62 10000 7.7 30 14:41 20.03.2020
6340 Rain 16 1021 59 10000 7.7 20 14:21 20.03.2020
6341 Rain 16 1021 59 10000 7.7 20 14:21 20.03.2020
6342 Rain 16 1021 48 10000 3.33 34 13:48 20.03.2020
6343 Rain 16 1021 55 10000 3.6 60 13:24 20.03.2020
6344 Rain 16 1021 55 10000 3.6 60 13:24 20.03.2020
6345 Rain 16 1021 55 10000 2.1 350 12:58 20.03.2020
6346 Rain 16 1021 55 10000 2.1 350 12:38 20.03.2020
6347 Clouds 16 1022 59 10000 5.7 30 12:20 20.03.2020
6348 Clouds 15 1022 62 10000 6.2 20 11:39 20.03.2020
6349 Clouds 14 1022 58 10000 2.54 38 11:21 20.03.2020
6350 Rain 14 1022 62 10000 2.54 38 10:56 20.03.2020
6351 Rain 14 1022 62 10000 2.54 38 10:38 20.03.2020
6352 Clouds 13 1022 66 10000 4.6 20 10:18 20.03.2020
6353 Clouds 13 1022 71 10000 5.1 40 09:46 20.03.2020
6354 Clouds 12 1022 71 10000 5.1 40 09:21 20.03.2020
6355 Clouds 11 1022 71 10000 5.1 40 08:58 20.03.2020
6356 Clouds 11 1022 76 10000 5.7 40 08:39 20.03.2020
6357 Clouds 10 1022 76 10000 3.1 50 08:19 20.03.2020
6358 Clouds 10 1021 81 10000 3.1 80 07:43 20.03.2020
6359 Clouds 9 1021 81 10000 3.1 60 07:25 20.03.2020
6360 Clouds 9 1021 76 10000 2.6 80 06:43 20.03.2020
6361 Clouds 9 1021 76 10000 4.1 40 06:22 20.03.2020
6362 Clouds 9 1021 71 10000 4.1 20 04:48 20.03.2020
6363 Clouds 10 1021 66 10000 4.6 30 03:18 20.03.2020
6364 Clouds 11 1022 62 10000 4.1 30 01:51 20.03.2020
6365 Clouds 12 1022 62 10000 4.1 30 00:46 20.03.2020
6366 Clouds 12 1022 62 10000 3.6 30 00:25 20.03.2020
6367 Clouds 12 1022 62 10000 3.6 10 23:44 19.03.2020
6368 Clouds 12 1022 62 10000 3.6 20 23:25 19.03.2020
6369 Clear 12 1023 62 10000 3.6 30 22:56 19.03.2020
6370 Clear 12 1023 62 10000 3.6 30 22:37 19.03.2020
6371 Clear 12 1023 58 10000 3.6 20 22:18 19.03.2020
6372 Clear 12 1022 54 10000 4.1 20 21:41 19.03.2020
6373 Clear 12 1022 54 10000 4.1 30 21:20 19.03.2020
6374 Clear 12 1022 54 10000 4.6 30 20:56 19.03.2020
6375 Clear 12 1022 54 10000 4.6 30 20:56 19.03.2020
6376 Clear 13 1022 54 10000 4.6 30 20:38 19.03.2020
6377 Clear 13 1023 62 10000 3.6 20 20:19 19.03.2020
6378 Clear 13 1023 54 10000 3.1 10 19:55 19.03.2020
6379 Clear 13 1023 54 10000 3.1 10 19:37 19.03.2020
6380 Clear 14 1022 48 10000 3.1 20 19:18 19.03.2020
6381 Clear 15 1022 48 10000 3.1 30 18:42 19.03.2020
6382 Clear 16 1022 48 10000 4.1 20 18:22 19.03.2020
6383 Clear 16 1022 45 10000 3.6 20 17:58 19.03.2020
6384 Clear 17 1022 45 10000 3.6 20 17:40 19.03.2020
6385 Clear 17 1022 42 10000 4.1 20 17:19 19.03.2020
6386 Clear 18 1023 45 10000 3.6 30 16:43 19.03.2020
6387 Clear 18 1023 45 10000 3.1 40 16:23 19.03.2020
6388 Clear 18 1023 42 10000 3.6 30 15:45 19.03.2020
6389 Clear 18 1023 42 10000 3.6 30 15:27 19.03.2020
6390 Clear 17 1023 42 10000 4.1 360 14:58 19.03.2020
6391 Clouds 18 1023 45 10000 3.1 330 14:40 19.03.2020
6392 Clouds 17 1024 45 10000 1.5 0 14:19 19.03.2020
6393 Clouds 17 1024 51 10000 2.1 240 13:40 19.03.2020
6394 Clouds 17 1024 48 10000 2.6 0 13:19 19.03.2020
6395 Clouds 16 1025 55 10000 1 0 12:56 19.03.2020
6396 Clouds 16 1025 55 10000 1 0 12:37 19.03.2020
6397 Rain 16 1025 54 10000 1.5 190 12:19 19.03.2020
6398 Rain 15 1026 62 10000 0.98 66 11:42 19.03.2020
6399 Clouds 15 1026 62 10000 2.1 330 11:23 19.03.2020
6400 Clear 14 1026 62 10000 1.5 0 10:56 19.03.2020
6401 Clear 13 1026 62 10000 1.5 0 10:36 19.03.2020
6402 Clear 12 1026 71 10000 1 0 10:18 19.03.2020
6403 Clear 11 1026 81 10000 1 0 09:44 19.03.2020
6404 Clear 10 1026 81 10000 1 0 09:26 19.03.2020
6405 Clear 9 1026 81 10000 0.5 0 08:57 19.03.2020
6406 Clear 9 1025 87 10000 0.5 0 08:38 19.03.2020
6407 Clear 8 1025 93 10000 0.5 170 08:18 19.03.2020
6408 Clouds 7 1025 86 10000 1.5 0 07:43 19.03.2020
6409 Clouds 7 1025 86 10000 1.5 0 07:22 19.03.2020
6410 Clouds 7 1025 86 10000 0.5 0 06:29 19.03.2020
6411 Clouds 7 1025 86 10000 0.5 0 05:25 19.03.2020
6412 Clouds 7 1025 86 10000 1 0 04:51 19.03.2020
6413 Clouds 7 1025 86 10000 1 0 04:24 19.03.2020
6414 Clear 7 1025 93 10000 0.5 210 02:34 19.03.2020
6415 Clouds 8 1026 93 10000 0.5 200 00:57 19.03.2020
6416 Clouds 8 1026 93 10000 0.5 0 00:21 19.03.2020
6417 Clouds 8 1026 93 10000 0.5 0 23:46 18.03.2020
6418 Clouds 8 1026 87 10000 0.5 0 23:27 18.03.2020
6419 Clouds 9 1026 87 10000 1 0 22:44 18.03.2020
6420 Clouds 9 1026 87 10000 1 0 22:24 18.03.2020
6421 Clouds 9 1026 81 10000 1 140 21:59 18.03.2020
6422 Clouds 10 1026 87 10000 1 0 21:41 18.03.2020
6423 Clouds 10 1026 81 10000 0.5 0 21:21 18.03.2020
6424 Clouds 11 1026 81 10000 0.5 0 20:57 18.03.2020
6425 Clouds 11 1026 76 10000 0.5 0 20:39 18.03.2020
6426 Clouds 12 1026 71 10000 1 220 20:20 18.03.2020
6427 Clouds 12 1026 71 10000 1 220 19:56 18.03.2020
6428 Clouds 12 1026 66 10000 1.5 200 19:37 18.03.2020
6429 Clouds 13 1026 66 10000 1.5 190 19:19 18.03.2020
6430 Clouds 14 1026 58 10000 2.1 200 18:41 18.03.2020
6431 Clouds 15 1026 55 10000 2.6 240 18:20 18.03.2020
6432 Clouds 16 1026 51 10000 2.6 230 17:58 18.03.2020
6433 Clouds 16 1026 51 10000 2.6 230 17:39 18.03.2020
6434 Clouds 16 1026 51 10000 3.6 240 17:21 18.03.2020
6435 Clouds 17 1026 51 10000 3.1 220 16:58 18.03.2020
6436 Clouds 17 1026 51 10000 3.1 220 16:39 18.03.2020
6437 Clouds 17 1026 48 10000 3.6 230 16:20 18.03.2020
6438 Clouds 17 1026 51 10000 2.6 220 15:45 18.03.2020
6439 Clouds 17 1027 51 10000 3.6 220 15:20 18.03.2020
6440 Rain 16 1027 54 10000 1.5 160 14:45 18.03.2020
6441 Clouds 16 1028 55 10000 1.5 0 14:22 18.03.2020
6442 Clouds 16 1028 55 10000 1.5 0 13:59 18.03.2020
6443 Clouds 16 1028 55 10000 3.1 280 13:37 18.03.2020
6444 Clouds 15 1028 62 10000 3.6 290 13:19 18.03.2020
6445 Clouds 15 1029 62 10000 2.6 260 12:41 18.03.2020
6446 Clouds 15 1029 67 10000 3.1 250 12:20 18.03.2020
6447 Clouds 14 1029 67 10000 2.6 0 11:40 18.03.2020
6448 Clouds 14 1029 67 10000 2.6 0 11:21 18.03.2020
6449 Clouds 13 1029 71 10000 1 0 10:58 18.03.2020
6450 Clouds 12 1029 71 10000 1 0 10:39 18.03.2020
6451 Clouds 12 1029 71 10000 2.1 190 10:20 18.03.2020
6452 Clouds 11 1029 71 10000 2.1 190 09:59 18.03.2020
6453 Clouds 10 1029 81 10000 1.5 220 09:39 18.03.2020
6454 Clear 10 1029 81 10000 1.5 210 09:21 18.03.2020
6455 Clear 9 1029 87 10000 1 0 08:40 18.03.2020
6456 Clouds 7 1029 93 10000 1 0 08:21 18.03.2020
6457 Clouds 6 1029 93 9000 0.5 0 07:49 18.03.2020
6458 Clouds 6 1029 93 9000 0.5 0 07:31 18.03.2020
6459 Haze 6 1028 86 8000 3.1 0 06:50 18.03.2020
6460 Haze 6 1028 86 8000 3.1 0 06:31 18.03.2020
6461 Clear 6 1029 86 10000 0.93 224 05:36 18.03.2020
6462 Clouds 7 1010 76 0 1.47 213 04:29 18.03.2020
6463 Clouds 6 1029 93 10000 0.5 0 03:20 18.03.2020
6464 Clear 7 1029 81 10000 1 0 02:32 18.03.2020
6465 Clouds 7 1030 93 10000 0.5 0 01:31 18.03.2020
6466 Clouds 8 1030 87 10000 1 220 00:42 18.03.2020
6467 Clouds 8 1030 93 10000 0.5 360 00:21 18.03.2020
6468 Clouds 8 1030 93 10000 1 0 23:40 17.03.2020
6469 Clear 8 1030 93 10000 0.5 0 23:19 17.03.2020
6470 Clouds 9 1030 87 10000 0.5 0 22:42 17.03.2020
6471 Clouds 9 1030 87 10000 0.5 0 22:24 17.03.2020
6472 Clouds 9 1030 87 10000 0.5 0 21:43 17.03.2020
6473 Clouds 9 1030 87 10000 0.5 140 21:23 17.03.2020
6474 Clouds 10 1030 87 10000 0.5 140 20:57 17.03.2020
6475 Clouds 10 1029 81 10000 0.5 0 20:37 17.03.2020
6476 Clouds 11 1029 71 10000 1.5 220 20:19 17.03.2020
6477 Clouds 11 1029 71 10000 2.1 230 19:41 17.03.2020
6478 Clouds 13 1029 66 10000 1 0 19:19 17.03.2020
6479 Clouds 13 1029 54 10000 2.1 270 18:57 17.03.2020
6480 Clouds 14 1028 51 10000 2.1 270 18:39 17.03.2020
6481 Clouds 15 1028 51 10000 2.1 270 18:21 17.03.2020
6482 Clouds 15 1028 48 10000 2.1 290 17:56 17.03.2020
6483 Clouds 15 1028 48 10000 2.1 290 17:38 17.03.2020
6484 Clouds 16 1029 51 10000 2.1 310 17:18 17.03.2020
6485 Clouds 16 1029 51 10000 3.1 220 16:42 17.03.2020
6486 Clouds 16 1029 51 10000 2.6 270 16:19 17.03.2020
6487 Clouds 16 1029 51 10000 2.6 270 16:19 17.03.2020
6488 Clouds 16 1029 55 10000 2.1 270 15:45 17.03.2020
6489 Clouds 16 1029 58 10000 3.1 260 15:23 17.03.2020
6490 Clouds 16 1029 55 10000 3.1 260 14:47 17.03.2020
6491 Clouds 16 1029 55 10000 3.1 260 14:27 17.03.2020
6492 Clouds 15 1030 58 10000 2.6 240 13:58 17.03.2020
6493 Clouds 15 1030 59 10000 2.1 250 13:40 17.03.2020
6494 Clouds 15 1030 62 10000 3.6 230 13:21 17.03.2020
6495 Clouds 15 1030 62 10000 1.5 0 12:47 17.03.2020
6496 Clouds 14 1030 66 10000 2.6 260 12:25 17.03.2020
6497 Clouds 14 1030 66 10000 4.6 350 11:56 17.03.2020
6498 Clouds 14 1030 66 10000 4.6 350 11:38 17.03.2020
6499 Clouds 13 1030 66 10000 4.1 0 11:20 17.03.2020
6500 Clouds 13 1030 66 10000 3.6 360 10:54 17.03.2020
6501 Clouds 13 1030 66 10000 2.6 320 10:36 17.03.2020
6502 Clouds 12 1029 66 10000 4.1 300 10:18 17.03.2020
6503 Clouds 12 1029 71 10000 3.6 270 09:45 17.03.2020
6504 Clouds 12 1029 76 10000 3.6 280 09:20 17.03.2020
6505 Clouds 11 1029 76 10000 3.6 280 08:57 17.03.2020
6506 Clouds 10 1029 76 10000 1.5 240 08:39 17.03.2020
6507 Clouds 10 1028 81 10000 2.1 220 08:18 17.03.2020
6508 Clouds 9 1028 81 10000 1.5 230 07:47 17.03.2020
6509 Clouds 9 1027 87 10000 4.1 220 07:20 17.03.2020
6510 Clouds 9 1027 81 10000 2.6 220 06:45 17.03.2020
6511 Clouds 9 1027 87 10000 1.5 200 06:24 17.03.2020
6512 Clouds 9 1026 87 10000 2.1 220 05:18 17.03.2020
6513 Clouds 9 1026 87 10000 1 270 03:27 17.03.2020
6514 Clouds 10 1025 76 10000 1 190 01:50 17.03.2020
6515 Clouds 10 1025 76 10000 1 190 01:30 17.03.2020
6516 Clouds 11 1024 71 10000 0.5 0 00:51 17.03.2020
6517 Clouds 11 1024 71 10000 1.5 190 23:53 16.03.2020
6518 Clouds 11 1024 71 10000 1.5 190 23:34 16.03.2020
6519 Clouds 11 1024 71 10000 1.5 200 22:55 16.03.2020
6520 Clouds 11 1024 71 10000 1.5 200 22:37 16.03.2020
6521 Clouds 12 1023 71 10000 0.5 0 22:19 16.03.2020
6522 Clouds 12 1023 66 10000 0.5 0 21:44 16.03.2020
6523 Clouds 12 1023 71 10000 0.5 0 21:25 16.03.2020
6524 Clouds 12 1023 71 10000 0.5 0 20:58 16.03.2020
6525 Clouds 12 1022 66 10000 1 130 20:38 16.03.2020
6526 Clouds 12 1022 66 10000 1 130 20:38 16.03.2020
6527 Clouds 12 1022 62 10000 0.5 0 20:20 16.03.2020
6528 Clouds 13 1022 62 10000 2.1 170 19:46 16.03.2020
6529 Clouds 13 1022 58 10000 1.5 190 19:23 16.03.2020
6530 Clouds 14 1022 58 10000 1.5 190 18:57 16.03.2020
6531 Clouds 14 1021 51 10000 1.5 220 18:39 16.03.2020
6532 Clouds 16 1021 51 10000 0.5 240 18:19 16.03.2020
6533 Clouds 16 1021 48 10000 1.5 310 17:46 16.03.2020
6534 Clouds 16 1021 48 10000 1.5 310 17:46 16.03.2020
6535 Haze 17 1021 45 1400 1.82 228 17:25 16.03.2020
6536 Clouds 17 1021 48 10000 2.6 250 16:56 16.03.2020
6537 Clouds 17 1021 48 10000 2.6 250 16:37 16.03.2020
6538 Clouds 17 1021 48 10000 3.1 240 16:19 16.03.2020
6539 Clouds 17 1020 48 0 3.1 240 15:42 16.03.2020
6540 Clouds 17 1020 48 10000 3.1 230 15:23 16.03.2020
6541 Clouds 17 1020 48 10000 3.1 230 15:23 16.03.2020
6542 Clouds 16 1020 51 10000 1.5 0 14:45 16.03.2020
6543 Clouds 16 1020 51 10000 3.1 300 14:20 16.03.2020
6544 Clouds 16 1020 54 10000 3.6 220 13:47 16.03.2020
6545 Clouds 15 1020 54 10000 2.6 210 13:27 16.03.2020
6546 Clouds 15 1020 54 10000 2.6 210 12:57 16.03.2020
6547 Clouds 15 1020 54 10000 2.1 240 12:38 16.03.2020
6548 Clouds 14 1020 54 10000 3.6 240 12:20 16.03.2020
6549 Clouds 13 1020 58 10000 4.1 210 11:43 16.03.2020
6550 Clouds 12 1020 58 10000 2.6 200 11:23 16.03.2020
6551 Clear 11 1020 58 10000 3.1 200 10:44 16.03.2020
6552 Clear 11 1020 58 10000 3.1 200 10:24 16.03.2020
6553 Clear 10 1019 61 10000 1.5 210 09:56 16.03.2020
6554 Clear 9 1019 70 10000 1.5 210 09:37 16.03.2020
6555 Clear 8 1019 70 10000 1.5 90 09:19 16.03.2020
6556 Clear 6 1019 86 10000 1 0 08:41 16.03.2020
6557 Clear 5 1018 64 10000 1 130 08:21 16.03.2020
6558 Clouds 5 999 75 0 1.73 190 07:42 16.03.2020
6559 Clouds 4 1017 86 10000 1.73 190 07:19 16.03.2020
6560 Clouds 4 1017 86 10000 0.5 0 06:41 16.03.2020
6561 Clouds 5 1017 80 10000 0.5 0 06:22 16.03.2020
6562 Clear 5 1015 86 10000 1.5 90 04:26 16.03.2020
6563 Clouds 6 1015 80 10000 0.5 0 01:46 16.03.2020
6564 Clouds 6 1014 80 10000 1 90 00:45 16.03.2020
6565 Clouds 6 1014 80 10000 1 90 00:27 16.03.2020
6566 Clouds 6 1014 75 10000 0.5 0 23:40 15.03.2020
6567 Clouds 7 1014 75 10000 1 0 23:19 15.03.2020
6568 Clouds 7 1014 70 10000 0.5 260 22:42 15.03.2020
6569 Clouds 7 1014 70 10000 0.5 0 22:21 15.03.2020
6570 Clouds 8 1014 65 10000 1 0 21:39 15.03.2020
6571 Clouds 8 1014 61 10000 2.1 150 21:21 15.03.2020
6572 Clouds 8 1014 61 10000 2.1 150 20:58 15.03.2020
6573 Clouds 8 1014 61 10000 2.1 150 20:58 15.03.2020
6574 Clouds 8 1014 61 10000 2.1 150 20:40 15.03.2020
6575 Clouds 9 1014 61 10000 2.6 150 20:20 15.03.2020
6576 Clouds 9 1014 61 10000 2.6 150 19:56 15.03.2020
6577 Clouds 10 1014 53 10000 2.6 140 19:38 15.03.2020
6578 Clouds 10 1014 50 10000 2.1 180 19:18 15.03.2020
6579 Clouds 11 1014 50 10000 2.1 180 18:55 15.03.2020
6580 Clouds 12 1014 43 10000 2.6 180 18:36 15.03.2020
6581 Clouds 13 1014 43 10000 3.6 180 18:18 15.03.2020
6582 Clouds 13 1014 41 10000 4.1 170 17:40 15.03.2020
6583 Clouds 14 1015 37 10000 5.1 170 17:20 15.03.2020
6584 Clouds 14 1015 37 10000 5.1 170 16:56 15.03.2020
6585 Clouds 14 1015 37 10000 5.1 170 16:38 15.03.2020
6586 Clouds 14 1015 37 10000 6.2 180 16:19 15.03.2020
6587 Clouds 14 1015 37 10000 7.2 170 15:43 15.03.2020
6588 Clouds 14 1015 37 10000 7.2 170 15:25 15.03.2020
6589 Clouds 14 1016 37 10000 7.2 180 14:55 15.03.2020
6590 Clouds 14 1016 37 10000 7.2 180 14:37 15.03.2020
6591 Clouds 13 1016 41 10000 6.2 170 14:18 15.03.2020
6592 Clouds 13 1017 41 10000 6.2 170 13:40 15.03.2020
6593 Clouds 13 1017 41 10000 6.2 160 13:21 15.03.2020
6594 Clouds 13 1018 47 10000 4.1 180 12:59 15.03.2020
6595 Clouds 12 1018 47 10000 4.1 180 12:39 15.03.2020
6596 Clouds 12 1018 50 10000 4.1 180 12:21 15.03.2020
6597 Clouds 11 1018 53 10000 3.6 170 11:43 15.03.2020
6598 Clouds 10 1019 57 10000 2.1 0 11:24 15.03.2020
6599 Clouds 10 1019 61 10000 1 0 10:57 15.03.2020
6600 Clouds 9 1019 61 10000 1 0 10:39 15.03.2020
6601 Clouds 9 1020 61 10000 1 0 10:20 15.03.2020
6602 Clouds 8 1020 70 10000 1 0 09:42 15.03.2020
6603 Clouds 7 1020 75 10000 1.5 90 09:23 15.03.2020
6604 Clouds 6 1020 75 10000 1.5 90 08:58 15.03.2020
6605 Clouds 5 1020 80 10000 1.5 0 08:40 15.03.2020
6606 Clouds 4 1020 86 10000 1 0 08:18 15.03.2020
6607 Clouds 3 1020 93 10000 1 0 07:44 15.03.2020
6608 Clouds 3 1020 93 10000 1.5 70 07:18 15.03.2020
6609 Clouds 3 1020 100 10000 2.1 70 06:36 15.03.2020
6610 Clouds 3 1020 93 10000 1 0 05:46 15.03.2020
6611 Clouds 4 1020 86 10000 1.5 50 04:55 15.03.2020
6612 Clouds 4 1020 86 10000 1.5 50 04:33 15.03.2020
6613 Clouds 4 1020 93 10000 2.1 60 03:59 15.03.2020
6614 Clouds 3 1021 86 10000 1.5 80 02:54 15.03.2020
6615 Clear 3 1021 93 10000 1.5 90 02:21 15.03.2020
6616 Clear 3 1022 66 10000 0.5 0 00:58 15.03.2020
6617 Clear 3 1022 100 10000 1 0 00:40 15.03.2020
6618 Clear 3 1022 93 10000 0.5 280 00:19 15.03.2020
6619 Clear 4 1022 93 10000 1 0 23:39 14.03.2020
6620 Clear 4 1022 86 10000 0.5 0 23:20 14.03.2020
6621 Clear 4 1022 80 10000 2.1 160 22:56 14.03.2020
6622 Clear 4 1022 80 10000 2.1 160 22:37 14.03.2020
6623 Clear 4 1022 80 10000 2.1 160 22:37 14.03.2020
6624 Clear 4 1022 80 10000 3.1 150 22:19 14.03.2020
6625 Clear 5 1022 80 10000 3.1 150 21:55 14.03.2020
6626 Clear 5 1022 80 10000 3.1 150 21:36 14.03.2020
6627 Clear 5 1022 80 10000 3.1 150 21:36 14.03.2020
6628 Clear 5 1022 75 10000 2.6 140 21:18 14.03.2020
6629 Clear 5 1022 70 10000 2.6 150 20:56 14.03.2020
6630 Clear 5 1022 70 10000 2.6 150 20:38 14.03.2020
6631 Clouds 6 1022 70 10000 2.6 150 20:18 14.03.2020
6632 Clouds 6 1022 65 10000 2.6 140 19:41 14.03.2020
6633 Clouds 7 1022 61 10000 2.6 140 19:21 14.03.2020
6634 Clouds 8 1021 61 10000 2.6 140 18:40 14.03.2020
6635 Clouds 9 1021 57 10000 4.1 140 18:21 14.03.2020
6636 Clouds 10 1021 57 10000 3.1 130 17:43 14.03.2020
6637 Rain 10 1021 57 10000 3.6 150 17:24 14.03.2020
6638 Rain 10 1021 57 10000 4.1 140 16:59 14.03.2020
6639 Rain 10 1021 57 10000 4.1 140 16:40 14.03.2020
6640 Rain 10 1021 57 10000 5.1 140 16:21 14.03.2020
6641 Rain 10 1021 54 10000 4.1 140 15:51 14.03.2020
6642 Rain 10 1021 41 10000 2.1 0 15:25 14.03.2020
6643 Rain 10 1021 53 10000 1 0 14:46 14.03.2020
6644 Rain 10 1021 57 10000 0.5 0 14:23 14.03.2020
6645 Clouds 10 1022 57 10000 1.5 220 13:57 14.03.2020
6646 Clouds 10 1022 57 10000 1.5 220 13:39 14.03.2020
6647 Clouds 10 1022 61 10000 2.6 120 13:20 14.03.2020
6648 Clouds 9 1022 61 10000 1.5 0 12:46 14.03.2020
6649 Clouds 9 1022 66 10000 1.5 80 12:27 14.03.2020
6650 Clouds 8 1022 70 10000 1.5 50 11:56 14.03.2020
6651 Clouds 8 1022 75 10000 2.1 90 11:38 14.03.2020
6652 Clouds 7 1022 75 10000 2.1 90 11:19 14.03.2020
6653 Clouds 7 1022 81 10000 1.5 50 10:44 14.03.2020
6654 Clouds 6 1022 86 10000 2.6 80 10:25 14.03.2020
6655 Clouds 6 1022 86 10000 2.6 80 09:57 14.03.2020
6656 Clouds 5 1022 86 10000 2.1 60 09:39 14.03.2020
6657 Clouds 4 1022 86 10000 1.5 20 09:19 14.03.2020
6658 Clouds 3 1022 93 10000 2.1 70 08:42 14.03.2020
6659 Clouds 3 1022 86 10000 2.6 80 08:21 14.03.2020
6660 Clouds 2 1021 86 10000 2.1 100 07:39 14.03.2020
6661 Clouds 2 1021 93 10000 1 0 07:20 14.03.2020
6662 Clouds 2 1021 100 10000 1 280 06:41 14.03.2020
6663 Clouds 2 1021 100 10000 0.5 180 05:47 14.03.2020
6664 Clouds 2 1021 100 10000 0.5 180 05:47 14.03.2020
6665 Clouds 2 1021 93 10000 1.5 180 04:43 14.03.2020
6666 Clouds 2 1021 78 10000 2.6 70 03:24 14.03.2020
6667 Clouds 3 1021 78 10000 1 0 02:28 14.03.2020
6668 Clouds 3 1021 93 10000 1.5 160 01:20 14.03.2020
6669 Clouds 4 1021 86 10000 1.5 300 23:56 13.03.2020
6670 Clouds 4 1021 86 10000 1.5 300 23:31 13.03.2020
6671 Clouds 5 1021 80 10000 3.1 310 22:57 13.03.2020
6672 Clouds 5 1021 75 10000 3.1 230 22:38 13.03.2020
6673 Clouds 5 1021 70 10000 3.6 230 22:19 13.03.2020
6674 Clouds 6 1021 70 10000 4.1 220 21:39 13.03.2020
6675 Clouds 6 1021 70 10000 3.6 230 21:18 13.03.2020
6676 Clouds 6 1021 65 10000 3.6 230 20:41 13.03.2020
6677 Rain 7 1021 75 10000 2.6 240 20:22 13.03.2020
6678 Clouds 7 1020 75 10000 2.6 260 19:55 13.03.2020
6679 Clouds 7 1020 75 10000 2.6 260 19:36 13.03.2020
6680 Clouds 7 1020 65 10000 3.1 230 19:18 13.03.2020
6681 Rain 8 1020 61 10000 3.6 240 18:39 13.03.2020
6682 Clouds 8 1020 70 10000 3.6 290 18:21 13.03.2020
6683 Rain 9 1020 61 10000 5.7 230 17:42 13.03.2020
6684 Rain 9 1020 61 10000 4.6 230 17:21 13.03.2020
6685 Rain 9 1020 61 10000 7.2 240 16:56 13.03.2020
6686 Rain 9 1020 61 10000 7.2 240 16:38 13.03.2020
6687 Rain 9 1020 57 10000 6.7 260 16:20 13.03.2020
6688 Rain 10 1020 61 10000 8.2 240 15:43 13.03.2020
6689 Rain 9 1020 61 10000 8.2 240 15:22 13.03.2020
6690 Clouds 9 1020 61 10000 5.1 260 14:56 13.03.2020
6691 Clouds 9 1020 61 10000 5.1 260 14:38 13.03.2020
6692 Rain 9 1019 57 7000 8.7 250 14:18 13.03.2020
6693 Rain 9 1020 57 10000 8.2 310 13:42 13.03.2020
6694 Clouds 9 1019 53 10000 10.3 240 13:22 13.03.2020
6695 Clouds 9 1019 53 10000 10.3 240 12:59 13.03.2020
6696 Clouds 9 1019 57 10000 9.3 240 12:38 13.03.2020
6697 Clouds 9 1019 57 10000 9.8 240 12:19 13.03.2020
6698 Clouds 8 1019 57 10000 11.3 240 11:56 13.03.2020
6699 Clouds 8 1019 57 10000 11.3 240 11:36 13.03.2020
6700 Clouds 8 1019 57 10000 10.3 230 11:36 13.03.2020
6701 Clouds 8 1019 57 10000 10.3 230 11:18 13.03.2020
6702 Clouds 8 1019 61 10000 9.3 230 10:46 13.03.2020
6703 Clouds 7 1018 61 10000 9.8 220 10:26 13.03.2020
6704 Clouds 7 1019 65 10000